<?xml version="1.0" encoding="UTF-8" standalone="no" ?>
<gpx xmlns="http://www.topografix.com/GPX/1/1" xmlns:xsi="http://www.w3.org/2001/XMLSchema-instance" xsi:schemaLocation="http://www.topografix.com/GPX/1/1 http://www.topografix.com/GPX/1/1/gpx.xsd" version="1.1" creator="VisuGPX - https://www.visugpx.com">
  <metadata>
    <name>Tour en 8 du Charmant Som</name>
    <desc><![CDATA[Tour en huit du Charmant Som depuis les Cottaves]]></desc>
  </metadata>
  <trk>
    <name><![CDATA[2018-02-02 09-53]]></name>
    <trkseg>
      <trkpt lat="45.31317" lon="5.77418">
        <ele>1087.6</ele>
        <time>2018-02-02T09:05:11Z</time>
      </trkpt>
      <trkpt lat="45.31317" lon="5.77411">
        <ele>1086.2</ele>
        <time>2018-02-02T09:05:16Z</time>
      </trkpt>
      <trkpt lat="45.31317" lon="5.77408">
        <ele>1089</ele>
        <time>2018-02-02T09:06:31Z</time>
      </trkpt>
      <trkpt lat="45.31321" lon="5.77407">
        <ele>1088.8</ele>
        <time>2018-02-02T09:07:06Z</time>
      </trkpt>
      <trkpt lat="45.31321" lon="5.77407">
        <ele>1088.6</ele>
        <time>2018-02-02T09:07:46Z</time>
      </trkpt>
      <trkpt lat="45.31322" lon="5.77407">
        <ele>1088.6</ele>
        <time>2018-02-02T09:07:56Z</time>
      </trkpt>
      <trkpt lat="45.31323" lon="5.77407">
        <ele>1088.6</ele>
        <time>2018-02-02T09:08:01Z</time>
      </trkpt>
      <trkpt lat="45.31326" lon="5.77409">
        <ele>1089.2</ele>
        <time>2018-02-02T09:08:06Z</time>
      </trkpt>
      <trkpt lat="45.31331" lon="5.77412">
        <ele>1090.6</ele>
        <time>2018-02-02T09:08:11Z</time>
      </trkpt>
      <trkpt lat="45.31336" lon="5.77415">
        <ele>1090.6</ele>
        <time>2018-02-02T09:08:16Z</time>
      </trkpt>
      <trkpt lat="45.31337" lon="5.77416">
        <ele>1089.8</ele>
        <time>2018-02-02T09:08:21Z</time>
      </trkpt>
      <trkpt lat="45.31337" lon="5.77415">
        <ele>1090.2</ele>
        <time>2018-02-02T09:08:26Z</time>
      </trkpt>
      <trkpt lat="45.3134" lon="5.77418">
        <ele>1095.4</ele>
        <time>2018-02-02T09:08:31Z</time>
      </trkpt>
      <trkpt lat="45.31345" lon="5.77421">
        <ele>1093.8</ele>
        <time>2018-02-02T09:08:36Z</time>
      </trkpt>
      <trkpt lat="45.31349" lon="5.77424">
        <ele>1092.8</ele>
        <time>2018-02-02T09:08:41Z</time>
      </trkpt>
      <trkpt lat="45.31353" lon="5.77427">
        <ele>1091.8</ele>
        <time>2018-02-02T09:08:46Z</time>
      </trkpt>
      <trkpt lat="45.31358" lon="5.77429">
        <ele>1095</ele>
        <time>2018-02-02T09:08:51Z</time>
      </trkpt>
      <trkpt lat="45.31362" lon="5.77431">
        <ele>1093</ele>
        <time>2018-02-02T09:08:56Z</time>
      </trkpt>
      <trkpt lat="45.31366" lon="5.77431">
        <ele>1092.6</ele>
        <time>2018-02-02T09:09:01Z</time>
      </trkpt>
      <trkpt lat="45.3137" lon="5.77431">
        <ele>1093.4</ele>
        <time>2018-02-02T09:09:06Z</time>
      </trkpt>
      <trkpt lat="45.31375" lon="5.77431">
        <ele>1093.4</ele>
        <time>2018-02-02T09:09:11Z</time>
      </trkpt>
      <trkpt lat="45.31379" lon="5.77433">
        <ele>1095</ele>
        <time>2018-02-02T09:09:16Z</time>
      </trkpt>
      <trkpt lat="45.31382" lon="5.77434">
        <ele>1095.2</ele>
        <time>2018-02-02T09:09:21Z</time>
      </trkpt>
      <trkpt lat="45.31386" lon="5.77435">
        <ele>1096.6</ele>
        <time>2018-02-02T09:09:26Z</time>
      </trkpt>
      <trkpt lat="45.3139" lon="5.77436">
        <ele>1095.8</ele>
        <time>2018-02-02T09:09:31Z</time>
      </trkpt>
      <trkpt lat="45.31393" lon="5.77436">
        <ele>1098.6</ele>
        <time>2018-02-02T09:09:36Z</time>
      </trkpt>
      <trkpt lat="45.31396" lon="5.77434">
        <ele>1099.4</ele>
        <time>2018-02-02T09:09:41Z</time>
      </trkpt>
      <trkpt lat="45.314" lon="5.77432">
        <ele>1098</ele>
        <time>2018-02-02T09:09:46Z</time>
      </trkpt>
      <trkpt lat="45.31402" lon="5.77429">
        <ele>1098.8</ele>
        <time>2018-02-02T09:09:51Z</time>
      </trkpt>
      <trkpt lat="45.31404" lon="5.77426">
        <ele>1100.8</ele>
        <time>2018-02-02T09:09:56Z</time>
      </trkpt>
      <trkpt lat="45.31405" lon="5.77421">
        <ele>1102.2</ele>
        <time>2018-02-02T09:10:01Z</time>
      </trkpt>
      <trkpt lat="45.31405" lon="5.77418">
        <ele>1103.2</ele>
        <time>2018-02-02T09:10:06Z</time>
      </trkpt>
      <trkpt lat="45.31405" lon="5.77413">
        <ele>1104</ele>
        <time>2018-02-02T09:10:11Z</time>
      </trkpt>
      <trkpt lat="45.31406" lon="5.77408">
        <ele>1104.2</ele>
        <time>2018-02-02T09:10:16Z</time>
      </trkpt>
      <trkpt lat="45.31407" lon="5.77404">
        <ele>1105.4</ele>
        <time>2018-02-02T09:10:21Z</time>
      </trkpt>
      <trkpt lat="45.31409" lon="5.77401">
        <ele>1108.6</ele>
        <time>2018-02-02T09:10:26Z</time>
      </trkpt>
      <trkpt lat="45.3141" lon="5.77399">
        <ele>1109.4</ele>
        <time>2018-02-02T09:10:41Z</time>
      </trkpt>
      <trkpt lat="45.31411" lon="5.77399">
        <ele>1110.4</ele>
        <time>2018-02-02T09:10:46Z</time>
      </trkpt>
      <trkpt lat="45.31413" lon="5.77396">
        <ele>1112.4</ele>
        <time>2018-02-02T09:10:51Z</time>
      </trkpt>
      <trkpt lat="45.31415" lon="5.77394">
        <ele>1113.4</ele>
        <time>2018-02-02T09:10:56Z</time>
      </trkpt>
      <trkpt lat="45.31417" lon="5.77389">
        <ele>1112.4</ele>
        <time>2018-02-02T09:11:01Z</time>
      </trkpt>
      <trkpt lat="45.3142" lon="5.77383">
        <ele>1112.4</ele>
        <time>2018-02-02T09:11:06Z</time>
      </trkpt>
      <trkpt lat="45.31422" lon="5.77379">
        <ele>1114.4</ele>
        <time>2018-02-02T09:11:11Z</time>
      </trkpt>
      <trkpt lat="45.31424" lon="5.77376">
        <ele>1112.6</ele>
        <time>2018-02-02T09:11:16Z</time>
      </trkpt>
      <trkpt lat="45.31426" lon="5.77372">
        <ele>1112.6</ele>
        <time>2018-02-02T09:11:21Z</time>
      </trkpt>
      <trkpt lat="45.31426" lon="5.77367">
        <ele>1112.6</ele>
        <time>2018-02-02T09:11:27Z</time>
      </trkpt>
      <trkpt lat="45.31427" lon="5.77363">
        <ele>1115</ele>
        <time>2018-02-02T09:11:32Z</time>
      </trkpt>
      <trkpt lat="45.31427" lon="5.77358">
        <ele>1115.2</ele>
        <time>2018-02-02T09:11:37Z</time>
      </trkpt>
      <trkpt lat="45.31427" lon="5.77354">
        <ele>1116</ele>
        <time>2018-02-02T09:11:42Z</time>
      </trkpt>
      <trkpt lat="45.31426" lon="5.7735">
        <ele>1114.6</ele>
        <time>2018-02-02T09:11:47Z</time>
      </trkpt>
      <trkpt lat="45.31424" lon="5.77347">
        <ele>1115.6</ele>
        <time>2018-02-02T09:11:52Z</time>
      </trkpt>
      <trkpt lat="45.31421" lon="5.77344">
        <ele>1116.2</ele>
        <time>2018-02-02T09:11:57Z</time>
      </trkpt>
      <trkpt lat="45.31418" lon="5.77343">
        <ele>1119.4</ele>
        <time>2018-02-02T09:12:02Z</time>
      </trkpt>
      <trkpt lat="45.31416" lon="5.77339">
        <ele>1118.2</ele>
        <time>2018-02-02T09:12:07Z</time>
      </trkpt>
      <trkpt lat="45.31412" lon="5.77336">
        <ele>1119.8</ele>
        <time>2018-02-02T09:12:12Z</time>
      </trkpt>
      <trkpt lat="45.31409" lon="5.77331">
        <ele>1119.8</ele>
        <time>2018-02-02T09:12:17Z</time>
      </trkpt>
      <trkpt lat="45.31405" lon="5.77325">
        <ele>1122.2</ele>
        <time>2018-02-02T09:12:22Z</time>
      </trkpt>
      <trkpt lat="45.31402" lon="5.7732">
        <ele>1123</ele>
        <time>2018-02-02T09:12:27Z</time>
      </trkpt>
      <trkpt lat="45.314" lon="5.77313">
        <ele>1121.2</ele>
        <time>2018-02-02T09:12:32Z</time>
      </trkpt>
      <trkpt lat="45.31399" lon="5.77308">
        <ele>1124.2</ele>
        <time>2018-02-02T09:12:37Z</time>
      </trkpt>
      <trkpt lat="45.31397" lon="5.77302">
        <ele>1123.6</ele>
        <time>2018-02-02T09:12:42Z</time>
      </trkpt>
      <trkpt lat="45.31396" lon="5.77298">
        <ele>1124.8</ele>
        <time>2018-02-02T09:12:47Z</time>
      </trkpt>
      <trkpt lat="45.31395" lon="5.77293">
        <ele>1125</ele>
        <time>2018-02-02T09:12:52Z</time>
      </trkpt>
      <trkpt lat="45.31394" lon="5.77289">
        <ele>1125.8</ele>
        <time>2018-02-02T09:12:57Z</time>
      </trkpt>
      <trkpt lat="45.31393" lon="5.77284">
        <ele>1126.8</ele>
        <time>2018-02-02T09:13:02Z</time>
      </trkpt>
      <trkpt lat="45.31392" lon="5.77279">
        <ele>1129.6</ele>
        <time>2018-02-02T09:13:07Z</time>
      </trkpt>
      <trkpt lat="45.3139" lon="5.77274">
        <ele>1128.2</ele>
        <time>2018-02-02T09:13:12Z</time>
      </trkpt>
      <trkpt lat="45.31388" lon="5.77268">
        <ele>1128.4</ele>
        <time>2018-02-02T09:13:17Z</time>
      </trkpt>
      <trkpt lat="45.31386" lon="5.77262">
        <ele>1129.2</ele>
        <time>2018-02-02T09:13:22Z</time>
      </trkpt>
      <trkpt lat="45.31383" lon="5.77255">
        <ele>1132.2</ele>
        <time>2018-02-02T09:13:27Z</time>
      </trkpt>
      <trkpt lat="45.31381" lon="5.77247">
        <ele>1131.8</ele>
        <time>2018-02-02T09:13:32Z</time>
      </trkpt>
      <trkpt lat="45.31379" lon="5.77241">
        <ele>1134</ele>
        <time>2018-02-02T09:13:37Z</time>
      </trkpt>
      <trkpt lat="45.31377" lon="5.77237">
        <ele>1132.8</ele>
        <time>2018-02-02T09:13:42Z</time>
      </trkpt>
      <trkpt lat="45.31375" lon="5.77232">
        <ele>1133.4</ele>
        <time>2018-02-02T09:13:47Z</time>
      </trkpt>
      <trkpt lat="45.31372" lon="5.77228">
        <ele>1133.6</ele>
        <time>2018-02-02T09:13:52Z</time>
      </trkpt>
      <trkpt lat="45.3137" lon="5.77224">
        <ele>1136.4</ele>
        <time>2018-02-02T09:13:57Z</time>
      </trkpt>
      <trkpt lat="45.31369" lon="5.7722">
        <ele>1135.2</ele>
        <time>2018-02-02T09:14:02Z</time>
      </trkpt>
      <trkpt lat="45.31368" lon="5.77216">
        <ele>1135.6</ele>
        <time>2018-02-02T09:14:07Z</time>
      </trkpt>
      <trkpt lat="45.31367" lon="5.77211">
        <ele>1134.4</ele>
        <time>2018-02-02T09:14:12Z</time>
      </trkpt>
      <trkpt lat="45.31367" lon="5.77207">
        <ele>1136</ele>
        <time>2018-02-02T09:14:17Z</time>
      </trkpt>
      <trkpt lat="45.31367" lon="5.77203">
        <ele>1139.6</ele>
        <time>2018-02-02T09:14:22Z</time>
      </trkpt>
      <trkpt lat="45.31366" lon="5.772">
        <ele>1136.8</ele>
        <time>2018-02-02T09:14:27Z</time>
      </trkpt>
      <trkpt lat="45.31366" lon="5.77196">
        <ele>1138.8</ele>
        <time>2018-02-02T09:14:32Z</time>
      </trkpt>
      <trkpt lat="45.31366" lon="5.77192">
        <ele>1140.4</ele>
        <time>2018-02-02T09:14:37Z</time>
      </trkpt>
      <trkpt lat="45.31366" lon="5.77189">
        <ele>1137.6</ele>
        <time>2018-02-02T09:14:42Z</time>
      </trkpt>
      <trkpt lat="45.31366" lon="5.77183">
        <ele>1141.2</ele>
        <time>2018-02-02T09:14:47Z</time>
      </trkpt>
      <trkpt lat="45.31365" lon="5.77178">
        <ele>1140</ele>
        <time>2018-02-02T09:14:52Z</time>
      </trkpt>
      <trkpt lat="45.31363" lon="5.77174">
        <ele>1143.4</ele>
        <time>2018-02-02T09:14:57Z</time>
      </trkpt>
      <trkpt lat="45.31361" lon="5.7717">
        <ele>1143.4</ele>
        <time>2018-02-02T09:15:02Z</time>
      </trkpt>
      <trkpt lat="45.31359" lon="5.77167">
        <ele>1142.4</ele>
        <time>2018-02-02T09:15:07Z</time>
      </trkpt>
      <trkpt lat="45.31357" lon="5.77163">
        <ele>1145</ele>
        <time>2018-02-02T09:15:12Z</time>
      </trkpt>
      <trkpt lat="45.31357" lon="5.77161">
        <ele>1145.4</ele>
        <time>2018-02-02T09:15:17Z</time>
      </trkpt>
      <trkpt lat="45.31356" lon="5.7716">
        <ele>1143</ele>
        <time>2018-02-02T09:15:22Z</time>
      </trkpt>
      <trkpt lat="45.31354" lon="5.77156">
        <ele>1149.4</ele>
        <time>2018-02-02T09:15:27Z</time>
      </trkpt>
      <trkpt lat="45.31353" lon="5.7715">
        <ele>1146.8</ele>
        <time>2018-02-02T09:15:32Z</time>
      </trkpt>
      <trkpt lat="45.31352" lon="5.77146">
        <ele>1146</ele>
        <time>2018-02-02T09:15:37Z</time>
      </trkpt>
      <trkpt lat="45.31352" lon="5.77143">
        <ele>1147.6</ele>
        <time>2018-02-02T09:15:42Z</time>
      </trkpt>
      <trkpt lat="45.31353" lon="5.77139">
        <ele>1148.6</ele>
        <time>2018-02-02T09:15:47Z</time>
      </trkpt>
      <trkpt lat="45.31354" lon="5.77135">
        <ele>1149.4</ele>
        <time>2018-02-02T09:15:52Z</time>
      </trkpt>
      <trkpt lat="45.31355" lon="5.7713">
        <ele>1149</ele>
        <time>2018-02-02T09:15:57Z</time>
      </trkpt>
      <trkpt lat="45.31355" lon="5.77125">
        <ele>1148.2</ele>
        <time>2018-02-02T09:16:02Z</time>
      </trkpt>
      <trkpt lat="45.31356" lon="5.77118">
        <ele>1148.8</ele>
        <time>2018-02-02T09:16:07Z</time>
      </trkpt>
      <trkpt lat="45.31356" lon="5.77114">
        <ele>1149.2</ele>
        <time>2018-02-02T09:16:12Z</time>
      </trkpt>
      <trkpt lat="45.31355" lon="5.7711">
        <ele>1150.8</ele>
        <time>2018-02-02T09:16:17Z</time>
      </trkpt>
      <trkpt lat="45.31355" lon="5.77107">
        <ele>1151.6</ele>
        <time>2018-02-02T09:16:22Z</time>
      </trkpt>
      <trkpt lat="45.31355" lon="5.77103">
        <ele>1152.2</ele>
        <time>2018-02-02T09:16:27Z</time>
      </trkpt>
      <trkpt lat="45.31355" lon="5.771">
        <ele>1152.2</ele>
        <time>2018-02-02T09:16:32Z</time>
      </trkpt>
      <trkpt lat="45.31356" lon="5.77097">
        <ele>1155.8</ele>
        <time>2018-02-02T09:16:37Z</time>
      </trkpt>
      <trkpt lat="45.31356" lon="5.77093">
        <ele>1154.4</ele>
        <time>2018-02-02T09:16:42Z</time>
      </trkpt>
      <trkpt lat="45.31357" lon="5.7709">
        <ele>1152</ele>
        <time>2018-02-02T09:16:47Z</time>
      </trkpt>
      <trkpt lat="45.31358" lon="5.77088">
        <ele>1153</ele>
        <time>2018-02-02T09:16:52Z</time>
      </trkpt>
      <trkpt lat="45.31358" lon="5.77084">
        <ele>1153.4</ele>
        <time>2018-02-02T09:16:57Z</time>
      </trkpt>
      <trkpt lat="45.31357" lon="5.77082">
        <ele>1153</ele>
        <time>2018-02-02T09:17:02Z</time>
      </trkpt>
      <trkpt lat="45.31357" lon="5.7708">
        <ele>1157</ele>
        <time>2018-02-02T09:17:07Z</time>
      </trkpt>
      <trkpt lat="45.31357" lon="5.77078">
        <ele>1158.2</ele>
        <time>2018-02-02T09:17:12Z</time>
      </trkpt>
      <trkpt lat="45.31356" lon="5.77076">
        <ele>1156.4</ele>
        <time>2018-02-02T09:17:17Z</time>
      </trkpt>
      <trkpt lat="45.31355" lon="5.77073">
        <ele>1158.4</ele>
        <time>2018-02-02T09:17:22Z</time>
      </trkpt>
      <trkpt lat="45.31355" lon="5.7707">
        <ele>1159.6</ele>
        <time>2018-02-02T09:17:27Z</time>
      </trkpt>
      <trkpt lat="45.31354" lon="5.77069">
        <ele>1160.6</ele>
        <time>2018-02-02T09:17:32Z</time>
      </trkpt>
      <trkpt lat="45.31354" lon="5.77066">
        <ele>1163.2</ele>
        <time>2018-02-02T09:17:37Z</time>
      </trkpt>
      <trkpt lat="45.31354" lon="5.77062">
        <ele>1167</ele>
        <time>2018-02-02T09:17:42Z</time>
      </trkpt>
      <trkpt lat="45.31354" lon="5.77058">
        <ele>1167</ele>
        <time>2018-02-02T09:17:52Z</time>
      </trkpt>
      <trkpt lat="45.31353" lon="5.77053">
        <ele>1165.8</ele>
        <time>2018-02-02T09:17:57Z</time>
      </trkpt>
      <trkpt lat="45.31353" lon="5.7705">
        <ele>1169.2</ele>
        <time>2018-02-02T09:18:02Z</time>
      </trkpt>
      <trkpt lat="45.31352" lon="5.77049">
        <ele>1170</ele>
        <time>2018-02-02T09:18:07Z</time>
      </trkpt>
      <trkpt lat="45.31352" lon="5.77047">
        <ele>1170.6</ele>
        <time>2018-02-02T09:18:12Z</time>
      </trkpt>
      <trkpt lat="45.31352" lon="5.77044">
        <ele>1171.4</ele>
        <time>2018-02-02T09:18:17Z</time>
      </trkpt>
      <trkpt lat="45.31352" lon="5.77039">
        <ele>1173</ele>
        <time>2018-02-02T09:18:22Z</time>
      </trkpt>
      <trkpt lat="45.31352" lon="5.77036">
        <ele>1172.8</ele>
        <time>2018-02-02T09:18:27Z</time>
      </trkpt>
      <trkpt lat="45.31351" lon="5.77033">
        <ele>1173.2</ele>
        <time>2018-02-02T09:18:32Z</time>
      </trkpt>
      <trkpt lat="45.3135" lon="5.7703">
        <ele>1170</ele>
        <time>2018-02-02T09:18:37Z</time>
      </trkpt>
      <trkpt lat="45.31351" lon="5.77026">
        <ele>1171.8</ele>
        <time>2018-02-02T09:18:42Z</time>
      </trkpt>
      <trkpt lat="45.31351" lon="5.77024">
        <ele>1172.2</ele>
        <time>2018-02-02T09:18:47Z</time>
      </trkpt>
      <trkpt lat="45.31351" lon="5.77023">
        <ele>1172.4</ele>
        <time>2018-02-02T09:18:52Z</time>
      </trkpt>
      <trkpt lat="45.31351" lon="5.77022">
        <ele>1173.4</ele>
        <time>2018-02-02T09:18:57Z</time>
      </trkpt>
      <trkpt lat="45.31353" lon="5.77019">
        <ele>1175.8</ele>
        <time>2018-02-02T09:19:02Z</time>
      </trkpt>
      <trkpt lat="45.31353" lon="5.77018">
        <ele>1176.8</ele>
        <time>2018-02-02T09:19:07Z</time>
      </trkpt>
      <trkpt lat="45.31354" lon="5.77015">
        <ele>1175.8</ele>
        <time>2018-02-02T09:19:12Z</time>
      </trkpt>
      <trkpt lat="45.31355" lon="5.77012">
        <ele>1176.4</ele>
        <time>2018-02-02T09:19:17Z</time>
      </trkpt>
      <trkpt lat="45.31356" lon="5.77009">
        <ele>1180.8</ele>
        <time>2018-02-02T09:19:22Z</time>
      </trkpt>
      <trkpt lat="45.31358" lon="5.77005">
        <ele>1182</ele>
        <time>2018-02-02T09:19:27Z</time>
      </trkpt>
      <trkpt lat="45.31359" lon="5.77001">
        <ele>1182.8</ele>
        <time>2018-02-02T09:19:32Z</time>
      </trkpt>
      <trkpt lat="45.3136" lon="5.76998">
        <ele>1183.8</ele>
        <time>2018-02-02T09:19:37Z</time>
      </trkpt>
      <trkpt lat="45.31361" lon="5.76994">
        <ele>1185</ele>
        <time>2018-02-02T09:19:42Z</time>
      </trkpt>
      <trkpt lat="45.3136" lon="5.76991">
        <ele>1183.6</ele>
        <time>2018-02-02T09:19:47Z</time>
      </trkpt>
      <trkpt lat="45.31359" lon="5.7699">
        <ele>1187</ele>
        <time>2018-02-02T09:19:52Z</time>
      </trkpt>
      <trkpt lat="45.31359" lon="5.76988">
        <ele>1188.6</ele>
        <time>2018-02-02T09:19:57Z</time>
      </trkpt>
      <trkpt lat="45.3136" lon="5.76983">
        <ele>1193</ele>
        <time>2018-02-02T09:20:02Z</time>
      </trkpt>
      <trkpt lat="45.31359" lon="5.76978">
        <ele>1189.8</ele>
        <time>2018-02-02T09:20:07Z</time>
      </trkpt>
      <trkpt lat="45.31358" lon="5.76974">
        <ele>1193.6</ele>
        <time>2018-02-02T09:20:12Z</time>
      </trkpt>
      <trkpt lat="45.31358" lon="5.76971">
        <ele>1194.2</ele>
        <time>2018-02-02T09:20:17Z</time>
      </trkpt>
      <trkpt lat="45.31356" lon="5.76967">
        <ele>1194</ele>
        <time>2018-02-02T09:20:22Z</time>
      </trkpt>
      <trkpt lat="45.31356" lon="5.76965">
        <ele>1193.2</ele>
        <time>2018-02-02T09:20:27Z</time>
      </trkpt>
      <trkpt lat="45.31356" lon="5.76962">
        <ele>1193.6</ele>
        <time>2018-02-02T09:20:32Z</time>
      </trkpt>
      <trkpt lat="45.31356" lon="5.76959">
        <ele>1195.4</ele>
        <time>2018-02-02T09:20:37Z</time>
      </trkpt>
      <trkpt lat="45.31354" lon="5.76956">
        <ele>1195.2</ele>
        <time>2018-02-02T09:20:42Z</time>
      </trkpt>
      <trkpt lat="45.31353" lon="5.76953">
        <ele>1194.8</ele>
        <time>2018-02-02T09:20:47Z</time>
      </trkpt>
      <trkpt lat="45.31353" lon="5.76951">
        <ele>1199</ele>
        <time>2018-02-02T09:20:52Z</time>
      </trkpt>
      <trkpt lat="45.31351" lon="5.76948">
        <ele>1198.2</ele>
        <time>2018-02-02T09:20:57Z</time>
      </trkpt>
      <trkpt lat="45.3135" lon="5.76946">
        <ele>1198.2</ele>
        <time>2018-02-02T09:21:02Z</time>
      </trkpt>
      <trkpt lat="45.31348" lon="5.76943">
        <ele>1197.6</ele>
        <time>2018-02-02T09:21:07Z</time>
      </trkpt>
      <trkpt lat="45.31347" lon="5.76938">
        <ele>1201.4</ele>
        <time>2018-02-02T09:21:12Z</time>
      </trkpt>
      <trkpt lat="45.31344" lon="5.76934">
        <ele>1198.6</ele>
        <time>2018-02-02T09:21:17Z</time>
      </trkpt>
      <trkpt lat="45.31341" lon="5.76931">
        <ele>1198.8</ele>
        <time>2018-02-02T09:21:22Z</time>
      </trkpt>
      <trkpt lat="45.31338" lon="5.76927">
        <ele>1197.6</ele>
        <time>2018-02-02T09:21:27Z</time>
      </trkpt>
      <trkpt lat="45.31335" lon="5.76921">
        <ele>1200.2</ele>
        <time>2018-02-02T09:21:32Z</time>
      </trkpt>
      <trkpt lat="45.31332" lon="5.76915">
        <ele>1200.2</ele>
        <time>2018-02-02T09:21:37Z</time>
      </trkpt>
      <trkpt lat="45.3133" lon="5.76912">
        <ele>1199.8</ele>
        <time>2018-02-02T09:21:42Z</time>
      </trkpt>
      <trkpt lat="45.31327" lon="5.76908">
        <ele>1202.8</ele>
        <time>2018-02-02T09:21:47Z</time>
      </trkpt>
      <trkpt lat="45.31325" lon="5.76905">
        <ele>1200.2</ele>
        <time>2018-02-02T09:21:52Z</time>
      </trkpt>
      <trkpt lat="45.31323" lon="5.76903">
        <ele>1205</ele>
        <time>2018-02-02T09:21:57Z</time>
      </trkpt>
      <trkpt lat="45.3132" lon="5.76901">
        <ele>1206.8</ele>
        <time>2018-02-02T09:22:02Z</time>
      </trkpt>
      <trkpt lat="45.31317" lon="5.76901">
        <ele>1202.4</ele>
        <time>2018-02-02T09:22:07Z</time>
      </trkpt>
      <trkpt lat="45.31314" lon="5.76898">
        <ele>1211.8</ele>
        <time>2018-02-02T09:22:12Z</time>
      </trkpt>
      <trkpt lat="45.31309" lon="5.76896">
        <ele>1206.8</ele>
        <time>2018-02-02T09:22:17Z</time>
      </trkpt>
      <trkpt lat="45.31302" lon="5.76891">
        <ele>1208.4</ele>
        <time>2018-02-02T09:22:22Z</time>
      </trkpt>
      <trkpt lat="45.31296" lon="5.76886">
        <ele>1205.6</ele>
        <time>2018-02-02T09:22:27Z</time>
      </trkpt>
      <trkpt lat="45.3129" lon="5.76883">
        <ele>1203.6</ele>
        <time>2018-02-02T09:22:32Z</time>
      </trkpt>
      <trkpt lat="45.31284" lon="5.76879">
        <ele>1204.4</ele>
        <time>2018-02-02T09:22:37Z</time>
      </trkpt>
      <trkpt lat="45.31281" lon="5.76877">
        <ele>1205.8</ele>
        <time>2018-02-02T09:22:42Z</time>
      </trkpt>
      <trkpt lat="45.31278" lon="5.76877">
        <ele>1203</ele>
        <time>2018-02-02T09:22:47Z</time>
      </trkpt>
      <trkpt lat="45.31272" lon="5.76876">
        <ele>1202.4</ele>
        <time>2018-02-02T09:22:52Z</time>
      </trkpt>
      <trkpt lat="45.31271" lon="5.76873">
        <ele>1205.4</ele>
        <time>2018-02-02T09:22:57Z</time>
      </trkpt>
      <trkpt lat="45.31269" lon="5.76869">
        <ele>1203.4</ele>
        <time>2018-02-02T09:23:02Z</time>
      </trkpt>
      <trkpt lat="45.31266" lon="5.76865">
        <ele>1203.6</ele>
        <time>2018-02-02T09:23:07Z</time>
      </trkpt>
      <trkpt lat="45.31264" lon="5.76863">
        <ele>1206.2</ele>
        <time>2018-02-02T09:23:12Z</time>
      </trkpt>
      <trkpt lat="45.31261" lon="5.76862">
        <ele>1204.2</ele>
        <time>2018-02-02T09:23:17Z</time>
      </trkpt>
      <trkpt lat="45.31259" lon="5.76862">
        <ele>1207.8</ele>
        <time>2018-02-02T09:23:22Z</time>
      </trkpt>
      <trkpt lat="45.31256" lon="5.76863">
        <ele>1208.2</ele>
        <time>2018-02-02T09:23:27Z</time>
      </trkpt>
      <trkpt lat="45.31252" lon="5.76863">
        <ele>1209.8</ele>
        <time>2018-02-02T09:23:32Z</time>
      </trkpt>
      <trkpt lat="45.31249" lon="5.76865">
        <ele>1210.6</ele>
        <time>2018-02-02T09:23:37Z</time>
      </trkpt>
      <trkpt lat="45.31246" lon="5.76864">
        <ele>1208.6</ele>
        <time>2018-02-02T09:23:42Z</time>
      </trkpt>
      <trkpt lat="45.31243" lon="5.76863">
        <ele>1211.4</ele>
        <time>2018-02-02T09:23:47Z</time>
      </trkpt>
      <trkpt lat="45.31241" lon="5.7686">
        <ele>1210.6</ele>
        <time>2018-02-02T09:23:52Z</time>
      </trkpt>
      <trkpt lat="45.3124" lon="5.7686">
        <ele>1210.2</ele>
        <time>2018-02-02T09:24:42Z</time>
      </trkpt>
      <trkpt lat="45.31241" lon="5.76858">
        <ele>1210.2</ele>
        <time>2018-02-02T09:24:47Z</time>
      </trkpt>
      <trkpt lat="45.31241" lon="5.76857">
        <ele>1210.2</ele>
        <time>2018-02-02T09:25:28Z</time>
      </trkpt>
      <trkpt lat="45.3124" lon="5.76856">
        <ele>1210.2</ele>
        <time>2018-02-02T09:25:33Z</time>
      </trkpt>
      <trkpt lat="45.31239" lon="5.76852">
        <ele>1212.6</ele>
        <time>2018-02-02T09:25:38Z</time>
      </trkpt>
      <trkpt lat="45.31239" lon="5.76847">
        <ele>1210.4</ele>
        <time>2018-02-02T09:25:43Z</time>
      </trkpt>
      <trkpt lat="45.3124" lon="5.76844">
        <ele>1215.2</ele>
        <time>2018-02-02T09:25:48Z</time>
      </trkpt>
      <trkpt lat="45.3124" lon="5.76841">
        <ele>1216.2</ele>
        <time>2018-02-02T09:25:53Z</time>
      </trkpt>
      <trkpt lat="45.31241" lon="5.76838">
        <ele>1217.8</ele>
        <time>2018-02-02T09:25:58Z</time>
      </trkpt>
      <trkpt lat="45.31244" lon="5.76835">
        <ele>1216.2</ele>
        <time>2018-02-02T09:26:03Z</time>
      </trkpt>
      <trkpt lat="45.31247" lon="5.76833">
        <ele>1216.4</ele>
        <time>2018-02-02T09:26:08Z</time>
      </trkpt>
      <trkpt lat="45.3125" lon="5.76832">
        <ele>1219.2</ele>
        <time>2018-02-02T09:26:13Z</time>
      </trkpt>
      <trkpt lat="45.31253" lon="5.7683">
        <ele>1216.6</ele>
        <time>2018-02-02T09:26:18Z</time>
      </trkpt>
      <trkpt lat="45.31256" lon="5.76829">
        <ele>1221.2</ele>
        <time>2018-02-02T09:26:23Z</time>
      </trkpt>
      <trkpt lat="45.31257" lon="5.76827">
        <ele>1219</ele>
        <time>2018-02-02T09:26:28Z</time>
      </trkpt>
      <trkpt lat="45.31259" lon="5.76824">
        <ele>1223.6</ele>
        <time>2018-02-02T09:26:33Z</time>
      </trkpt>
      <trkpt lat="45.31261" lon="5.7682">
        <ele>1224.8</ele>
        <time>2018-02-02T09:26:38Z</time>
      </trkpt>
      <trkpt lat="45.31263" lon="5.76817">
        <ele>1223.4</ele>
        <time>2018-02-02T09:26:43Z</time>
      </trkpt>
      <trkpt lat="45.31265" lon="5.76816">
        <ele>1224.4</ele>
        <time>2018-02-02T09:26:48Z</time>
      </trkpt>
      <trkpt lat="45.31267" lon="5.76813">
        <ele>1225</ele>
        <time>2018-02-02T09:26:53Z</time>
      </trkpt>
      <trkpt lat="45.31268" lon="5.7681">
        <ele>1225.8</ele>
        <time>2018-02-02T09:26:58Z</time>
      </trkpt>
      <trkpt lat="45.31269" lon="5.7681">
        <ele>1222.6</ele>
        <time>2018-02-02T09:27:03Z</time>
      </trkpt>
      <trkpt lat="45.31271" lon="5.76809">
        <ele>1225.8</ele>
        <time>2018-02-02T09:27:08Z</time>
      </trkpt>
      <trkpt lat="45.31274" lon="5.76807">
        <ele>1222.2</ele>
        <time>2018-02-02T09:27:13Z</time>
      </trkpt>
      <trkpt lat="45.31276" lon="5.76805">
        <ele>1224</ele>
        <time>2018-02-02T09:27:18Z</time>
      </trkpt>
      <trkpt lat="45.31278" lon="5.76802">
        <ele>1228.4</ele>
        <time>2018-02-02T09:27:23Z</time>
      </trkpt>
      <trkpt lat="45.3128" lon="5.768">
        <ele>1225.8</ele>
        <time>2018-02-02T09:27:28Z</time>
      </trkpt>
      <trkpt lat="45.31281" lon="5.76799">
        <ele>1227.6</ele>
        <time>2018-02-02T09:27:33Z</time>
      </trkpt>
      <trkpt lat="45.31283" lon="5.76796">
        <ele>1231</ele>
        <time>2018-02-02T09:27:38Z</time>
      </trkpt>
      <trkpt lat="45.31285" lon="5.76794">
        <ele>1232</ele>
        <time>2018-02-02T09:27:43Z</time>
      </trkpt>
      <trkpt lat="45.31286" lon="5.76792">
        <ele>1230.2</ele>
        <time>2018-02-02T09:27:48Z</time>
      </trkpt>
      <trkpt lat="45.31288" lon="5.76789">
        <ele>1230.4</ele>
        <time>2018-02-02T09:27:53Z</time>
      </trkpt>
      <trkpt lat="45.31289" lon="5.76788">
        <ele>1231.2</ele>
        <time>2018-02-02T09:27:58Z</time>
      </trkpt>
      <trkpt lat="45.3129" lon="5.76787">
        <ele>1233</ele>
        <time>2018-02-02T09:28:03Z</time>
      </trkpt>
      <trkpt lat="45.31294" lon="5.76785">
        <ele>1232.6</ele>
        <time>2018-02-02T09:28:08Z</time>
      </trkpt>
      <trkpt lat="45.31297" lon="5.76783">
        <ele>1233.8</ele>
        <time>2018-02-02T09:28:13Z</time>
      </trkpt>
      <trkpt lat="45.31299" lon="5.76783">
        <ele>1233.6</ele>
        <time>2018-02-02T09:28:18Z</time>
      </trkpt>
      <trkpt lat="45.31302" lon="5.76781">
        <ele>1236.8</ele>
        <time>2018-02-02T09:28:23Z</time>
      </trkpt>
      <trkpt lat="45.31304" lon="5.7678">
        <ele>1234.8</ele>
        <time>2018-02-02T09:28:28Z</time>
      </trkpt>
      <trkpt lat="45.31307" lon="5.7678">
        <ele>1235.4</ele>
        <time>2018-02-02T09:28:33Z</time>
      </trkpt>
      <trkpt lat="45.31312" lon="5.76778">
        <ele>1232.8</ele>
        <time>2018-02-02T09:28:38Z</time>
      </trkpt>
      <trkpt lat="45.31316" lon="5.76775">
        <ele>1237.4</ele>
        <time>2018-02-02T09:28:43Z</time>
      </trkpt>
      <trkpt lat="45.3132" lon="5.76773">
        <ele>1234.6</ele>
        <time>2018-02-02T09:28:48Z</time>
      </trkpt>
      <trkpt lat="45.31324" lon="5.76772">
        <ele>1236.8</ele>
        <time>2018-02-02T09:28:53Z</time>
      </trkpt>
      <trkpt lat="45.31327" lon="5.76771">
        <ele>1237.2</ele>
        <time>2018-02-02T09:28:58Z</time>
      </trkpt>
      <trkpt lat="45.31331" lon="5.76771">
        <ele>1235.4</ele>
        <time>2018-02-02T09:29:03Z</time>
      </trkpt>
      <trkpt lat="45.31335" lon="5.76769">
        <ele>1237.8</ele>
        <time>2018-02-02T09:29:08Z</time>
      </trkpt>
      <trkpt lat="45.31337" lon="5.7677">
        <ele>1237.2</ele>
        <time>2018-02-02T09:29:13Z</time>
      </trkpt>
      <trkpt lat="45.31342" lon="5.7677">
        <ele>1237.6</ele>
        <time>2018-02-02T09:29:18Z</time>
      </trkpt>
      <trkpt lat="45.31345" lon="5.7677">
        <ele>1234.6</ele>
        <time>2018-02-02T09:29:23Z</time>
      </trkpt>
      <trkpt lat="45.3135" lon="5.76768">
        <ele>1232.2</ele>
        <time>2018-02-02T09:29:28Z</time>
      </trkpt>
      <trkpt lat="45.31353" lon="5.76767">
        <ele>1236.4</ele>
        <time>2018-02-02T09:29:33Z</time>
      </trkpt>
      <trkpt lat="45.31357" lon="5.76767">
        <ele>1236.6</ele>
        <time>2018-02-02T09:29:38Z</time>
      </trkpt>
      <trkpt lat="45.31359" lon="5.76765">
        <ele>1240.4</ele>
        <time>2018-02-02T09:29:43Z</time>
      </trkpt>
      <trkpt lat="45.31362" lon="5.76763">
        <ele>1239.6</ele>
        <time>2018-02-02T09:29:48Z</time>
      </trkpt>
      <trkpt lat="45.31363" lon="5.76762">
        <ele>1242.2</ele>
        <time>2018-02-02T09:29:53Z</time>
      </trkpt>
      <trkpt lat="45.31367" lon="5.76761">
        <ele>1238</ele>
        <time>2018-02-02T09:29:58Z</time>
      </trkpt>
      <trkpt lat="45.31371" lon="5.76758">
        <ele>1239</ele>
        <time>2018-02-02T09:30:03Z</time>
      </trkpt>
      <trkpt lat="45.31375" lon="5.76756">
        <ele>1240.2</ele>
        <time>2018-02-02T09:30:08Z</time>
      </trkpt>
      <trkpt lat="45.31379" lon="5.76758">
        <ele>1242.4</ele>
        <time>2018-02-02T09:30:33Z</time>
      </trkpt>
      <trkpt lat="45.31382" lon="5.76756">
        <ele>1243</ele>
        <time>2018-02-02T09:30:38Z</time>
      </trkpt>
      <trkpt lat="45.31385" lon="5.76753">
        <ele>1244</ele>
        <time>2018-02-02T09:30:43Z</time>
      </trkpt>
      <trkpt lat="45.31389" lon="5.7675">
        <ele>1245.2</ele>
        <time>2018-02-02T09:30:48Z</time>
      </trkpt>
      <trkpt lat="45.31392" lon="5.76751">
        <ele>1246.4</ele>
        <time>2018-02-02T09:30:53Z</time>
      </trkpt>
      <trkpt lat="45.31395" lon="5.76753">
        <ele>1248.6</ele>
        <time>2018-02-02T09:30:58Z</time>
      </trkpt>
      <trkpt lat="45.31397" lon="5.76754">
        <ele>1247.4</ele>
        <time>2018-02-02T09:31:03Z</time>
      </trkpt>
      <trkpt lat="45.31399" lon="5.76756">
        <ele>1251.4</ele>
        <time>2018-02-02T09:31:08Z</time>
      </trkpt>
      <trkpt lat="45.31402" lon="5.76758">
        <ele>1255.4</ele>
        <time>2018-02-02T09:31:13Z</time>
      </trkpt>
      <trkpt lat="45.31404" lon="5.76759">
        <ele>1249.6</ele>
        <time>2018-02-02T09:31:18Z</time>
      </trkpt>
      <trkpt lat="45.31406" lon="5.76761">
        <ele>1247</ele>
        <time>2018-02-02T09:31:23Z</time>
      </trkpt>
      <trkpt lat="45.31407" lon="5.76761">
        <ele>1248.4</ele>
        <time>2018-02-02T09:31:28Z</time>
      </trkpt>
      <trkpt lat="45.31409" lon="5.76763">
        <ele>1249.8</ele>
        <time>2018-02-02T09:31:33Z</time>
      </trkpt>
      <trkpt lat="45.31412" lon="5.76764">
        <ele>1253</ele>
        <time>2018-02-02T09:31:38Z</time>
      </trkpt>
      <trkpt lat="45.31416" lon="5.76763">
        <ele>1250.4</ele>
        <time>2018-02-02T09:31:43Z</time>
      </trkpt>
      <trkpt lat="45.31418" lon="5.76765">
        <ele>1249</ele>
        <time>2018-02-02T09:31:48Z</time>
      </trkpt>
      <trkpt lat="45.31421" lon="5.76766">
        <ele>1251</ele>
        <time>2018-02-02T09:31:53Z</time>
      </trkpt>
      <trkpt lat="45.31423" lon="5.76765">
        <ele>1252.4</ele>
        <time>2018-02-02T09:31:58Z</time>
      </trkpt>
      <trkpt lat="45.31424" lon="5.76764">
        <ele>1256.4</ele>
        <time>2018-02-02T09:32:03Z</time>
      </trkpt>
      <trkpt lat="45.31425" lon="5.76762">
        <ele>1256</ele>
        <time>2018-02-02T09:32:08Z</time>
      </trkpt>
      <trkpt lat="45.31425" lon="5.76759">
        <ele>1258.6</ele>
        <time>2018-02-02T09:32:13Z</time>
      </trkpt>
      <trkpt lat="45.31427" lon="5.76756">
        <ele>1256.4</ele>
        <time>2018-02-02T09:32:18Z</time>
      </trkpt>
      <trkpt lat="45.31428" lon="5.76752">
        <ele>1261.6</ele>
        <time>2018-02-02T09:32:23Z</time>
      </trkpt>
      <trkpt lat="45.3143" lon="5.76749">
        <ele>1262.8</ele>
        <time>2018-02-02T09:32:28Z</time>
      </trkpt>
      <trkpt lat="45.3143" lon="5.76748">
        <ele>1264</ele>
        <time>2018-02-02T09:32:33Z</time>
      </trkpt>
      <trkpt lat="45.31432" lon="5.76745">
        <ele>1264.8</ele>
        <time>2018-02-02T09:32:38Z</time>
      </trkpt>
      <trkpt lat="45.31432" lon="5.76741">
        <ele>1265.8</ele>
        <time>2018-02-02T09:32:43Z</time>
      </trkpt>
      <trkpt lat="45.31435" lon="5.76738">
        <ele>1265</ele>
        <time>2018-02-02T09:32:48Z</time>
      </trkpt>
      <trkpt lat="45.31435" lon="5.76737">
        <ele>1265.4</ele>
        <time>2018-02-02T09:32:53Z</time>
      </trkpt>
      <trkpt lat="45.31436" lon="5.76735">
        <ele>1266.6</ele>
        <time>2018-02-02T09:32:58Z</time>
      </trkpt>
      <trkpt lat="45.31439" lon="5.76732">
        <ele>1265.8</ele>
        <time>2018-02-02T09:33:03Z</time>
      </trkpt>
      <trkpt lat="45.31441" lon="5.76729">
        <ele>1268.4</ele>
        <time>2018-02-02T09:33:08Z</time>
      </trkpt>
      <trkpt lat="45.31442" lon="5.76726">
        <ele>1266.4</ele>
        <time>2018-02-02T09:33:13Z</time>
      </trkpt>
      <trkpt lat="45.31442" lon="5.76723">
        <ele>1264.6</ele>
        <time>2018-02-02T09:33:18Z</time>
      </trkpt>
      <trkpt lat="45.31441" lon="5.76719">
        <ele>1266.6</ele>
        <time>2018-02-02T09:33:23Z</time>
      </trkpt>
      <trkpt lat="45.31441" lon="5.76716">
        <ele>1268.2</ele>
        <time>2018-02-02T09:33:28Z</time>
      </trkpt>
      <trkpt lat="45.31442" lon="5.76713">
        <ele>1265.6</ele>
        <time>2018-02-02T09:33:33Z</time>
      </trkpt>
      <trkpt lat="45.31443" lon="5.76711">
        <ele>1266.4</ele>
        <time>2018-02-02T09:33:38Z</time>
      </trkpt>
      <trkpt lat="45.31444" lon="5.76709">
        <ele>1265.8</ele>
        <time>2018-02-02T09:33:43Z</time>
      </trkpt>
      <trkpt lat="45.31446" lon="5.76707">
        <ele>1269</ele>
        <time>2018-02-02T09:33:48Z</time>
      </trkpt>
      <trkpt lat="45.31447" lon="5.76704">
        <ele>1269.2</ele>
        <time>2018-02-02T09:33:53Z</time>
      </trkpt>
      <trkpt lat="45.31448" lon="5.76702">
        <ele>1273.2</ele>
        <time>2018-02-02T09:33:58Z</time>
      </trkpt>
      <trkpt lat="45.3145" lon="5.767">
        <ele>1273.8</ele>
        <time>2018-02-02T09:34:03Z</time>
      </trkpt>
      <trkpt lat="45.31453" lon="5.767">
        <ele>1277.6</ele>
        <time>2018-02-02T09:34:08Z</time>
      </trkpt>
      <trkpt lat="45.31457" lon="5.76701">
        <ele>1275.8</ele>
        <time>2018-02-02T09:34:13Z</time>
      </trkpt>
      <trkpt lat="45.31459" lon="5.76703">
        <ele>1275.4</ele>
        <time>2018-02-02T09:34:18Z</time>
      </trkpt>
      <trkpt lat="45.3146" lon="5.76706">
        <ele>1277.2</ele>
        <time>2018-02-02T09:34:23Z</time>
      </trkpt>
      <trkpt lat="45.31461" lon="5.76706">
        <ele>1274.6</ele>
        <time>2018-02-02T09:34:28Z</time>
      </trkpt>
      <trkpt lat="45.31464" lon="5.76709">
        <ele>1275.8</ele>
        <time>2018-02-02T09:34:43Z</time>
      </trkpt>
      <trkpt lat="45.31466" lon="5.76709">
        <ele>1277.2</ele>
        <time>2018-02-02T09:34:48Z</time>
      </trkpt>
      <trkpt lat="45.31471" lon="5.76708">
        <ele>1277.4</ele>
        <time>2018-02-02T09:34:54Z</time>
      </trkpt>
      <trkpt lat="45.31473" lon="5.76709">
        <ele>1276.6</ele>
        <time>2018-02-02T09:35:00Z</time>
      </trkpt>
      <trkpt lat="45.31477" lon="5.76712">
        <ele>1282.8</ele>
        <time>2018-02-02T09:35:10Z</time>
      </trkpt>
      <trkpt lat="45.31479" lon="5.76712">
        <ele>1280.8</ele>
        <time>2018-02-02T09:35:15Z</time>
      </trkpt>
      <trkpt lat="45.31482" lon="5.76713">
        <ele>1281</ele>
        <time>2018-02-02T09:35:20Z</time>
      </trkpt>
      <trkpt lat="45.31485" lon="5.7671">
        <ele>1280.6</ele>
        <time>2018-02-02T09:35:25Z</time>
      </trkpt>
      <trkpt lat="45.31488" lon="5.76707">
        <ele>1279</ele>
        <time>2018-02-02T09:35:30Z</time>
      </trkpt>
      <trkpt lat="45.31492" lon="5.76704">
        <ele>1281.2</ele>
        <time>2018-02-02T09:35:35Z</time>
      </trkpt>
      <trkpt lat="45.31496" lon="5.76701">
        <ele>1277</ele>
        <time>2018-02-02T09:35:40Z</time>
      </trkpt>
      <trkpt lat="45.31499" lon="5.76698">
        <ele>1279.6</ele>
        <time>2018-02-02T09:35:45Z</time>
      </trkpt>
      <trkpt lat="45.31503" lon="5.76695">
        <ele>1281.4</ele>
        <time>2018-02-02T09:35:50Z</time>
      </trkpt>
      <trkpt lat="45.31505" lon="5.76693">
        <ele>1281.6</ele>
        <time>2018-02-02T09:35:55Z</time>
      </trkpt>
      <trkpt lat="45.31507" lon="5.76693">
        <ele>1282</ele>
        <time>2018-02-02T09:36:00Z</time>
      </trkpt>
      <trkpt lat="45.31509" lon="5.76692">
        <ele>1287</ele>
        <time>2018-02-02T09:36:05Z</time>
      </trkpt>
      <trkpt lat="45.31512" lon="5.76693">
        <ele>1285</ele>
        <time>2018-02-02T09:36:10Z</time>
      </trkpt>
      <trkpt lat="45.31514" lon="5.76693">
        <ele>1286.6</ele>
        <time>2018-02-02T09:36:15Z</time>
      </trkpt>
      <trkpt lat="45.31515" lon="5.76695">
        <ele>1286.2</ele>
        <time>2018-02-02T09:36:20Z</time>
      </trkpt>
      <trkpt lat="45.31515" lon="5.76696">
        <ele>1286.8</ele>
        <time>2018-02-02T09:36:25Z</time>
      </trkpt>
      <trkpt lat="45.31517" lon="5.76696">
        <ele>1289.8</ele>
        <time>2018-02-02T09:36:30Z</time>
      </trkpt>
      <trkpt lat="45.31519" lon="5.76696">
        <ele>1290</ele>
        <time>2018-02-02T09:36:35Z</time>
      </trkpt>
      <trkpt lat="45.31522" lon="5.76697">
        <ele>1293</ele>
        <time>2018-02-02T09:36:40Z</time>
      </trkpt>
      <trkpt lat="45.31524" lon="5.76698">
        <ele>1294.2</ele>
        <time>2018-02-02T09:36:45Z</time>
      </trkpt>
      <trkpt lat="45.31526" lon="5.76699">
        <ele>1295</ele>
        <time>2018-02-02T09:36:50Z</time>
      </trkpt>
      <trkpt lat="45.31528" lon="5.76701">
        <ele>1297.8</ele>
        <time>2018-02-02T09:36:55Z</time>
      </trkpt>
      <trkpt lat="45.3153" lon="5.767">
        <ele>1299.6</ele>
        <time>2018-02-02T09:37:00Z</time>
      </trkpt>
      <trkpt lat="45.31532" lon="5.767">
        <ele>1301</ele>
        <time>2018-02-02T09:37:05Z</time>
      </trkpt>
      <trkpt lat="45.31534" lon="5.767">
        <ele>1302.6</ele>
        <time>2018-02-02T09:37:10Z</time>
      </trkpt>
      <trkpt lat="45.31536" lon="5.76702">
        <ele>1303</ele>
        <time>2018-02-02T09:37:15Z</time>
      </trkpt>
      <trkpt lat="45.31537" lon="5.76704">
        <ele>1303.4</ele>
        <time>2018-02-02T09:37:20Z</time>
      </trkpt>
      <trkpt lat="45.3154" lon="5.76705">
        <ele>1302.6</ele>
        <time>2018-02-02T09:37:25Z</time>
      </trkpt>
      <trkpt lat="45.31542" lon="5.76706">
        <ele>1304.8</ele>
        <time>2018-02-02T09:37:30Z</time>
      </trkpt>
      <trkpt lat="45.31545" lon="5.76706">
        <ele>1308</ele>
        <time>2018-02-02T09:37:35Z</time>
      </trkpt>
      <trkpt lat="45.31547" lon="5.76706">
        <ele>1309.6</ele>
        <time>2018-02-02T09:37:40Z</time>
      </trkpt>
      <trkpt lat="45.3155" lon="5.76705">
        <ele>1311.2</ele>
        <time>2018-02-02T09:37:45Z</time>
      </trkpt>
      <trkpt lat="45.31552" lon="5.76705">
        <ele>1311</ele>
        <time>2018-02-02T09:37:50Z</time>
      </trkpt>
      <trkpt lat="45.31554" lon="5.76704">
        <ele>1313.4</ele>
        <time>2018-02-02T09:37:55Z</time>
      </trkpt>
      <trkpt lat="45.31556" lon="5.76706">
        <ele>1313.4</ele>
        <time>2018-02-02T09:38:00Z</time>
      </trkpt>
      <trkpt lat="45.31558" lon="5.76707">
        <ele>1316.2</ele>
        <time>2018-02-02T09:38:05Z</time>
      </trkpt>
      <trkpt lat="45.31561" lon="5.76707">
        <ele>1316.2</ele>
        <time>2018-02-02T09:38:10Z</time>
      </trkpt>
      <trkpt lat="45.31563" lon="5.76707">
        <ele>1316</ele>
        <time>2018-02-02T09:38:15Z</time>
      </trkpt>
      <trkpt lat="45.31565" lon="5.76708">
        <ele>1317.4</ele>
        <time>2018-02-02T09:38:20Z</time>
      </trkpt>
      <trkpt lat="45.31567" lon="5.76709">
        <ele>1318.2</ele>
        <time>2018-02-02T09:38:25Z</time>
      </trkpt>
      <trkpt lat="45.31569" lon="5.7671">
        <ele>1318.8</ele>
        <time>2018-02-02T09:38:30Z</time>
      </trkpt>
      <trkpt lat="45.31571" lon="5.76711">
        <ele>1321.4</ele>
        <time>2018-02-02T09:38:35Z</time>
      </trkpt>
      <trkpt lat="45.31572" lon="5.76711">
        <ele>1326.8</ele>
        <time>2018-02-02T09:38:40Z</time>
      </trkpt>
      <trkpt lat="45.31576" lon="5.76713">
        <ele>1330.4</ele>
        <time>2018-02-02T09:38:45Z</time>
      </trkpt>
      <trkpt lat="45.31579" lon="5.76712">
        <ele>1335</ele>
        <time>2018-02-02T09:38:50Z</time>
      </trkpt>
      <trkpt lat="45.31582" lon="5.76714">
        <ele>1334.8</ele>
        <time>2018-02-02T09:38:55Z</time>
      </trkpt>
      <trkpt lat="45.31584" lon="5.76715">
        <ele>1337.4</ele>
        <time>2018-02-02T09:39:00Z</time>
      </trkpt>
      <trkpt lat="45.31586" lon="5.76717">
        <ele>1339.4</ele>
        <time>2018-02-02T09:39:05Z</time>
      </trkpt>
      <trkpt lat="45.31589" lon="5.76718">
        <ele>1338.6</ele>
        <time>2018-02-02T09:39:10Z</time>
      </trkpt>
      <trkpt lat="45.31592" lon="5.76721">
        <ele>1339.2</ele>
        <time>2018-02-02T09:39:15Z</time>
      </trkpt>
      <trkpt lat="45.31597" lon="5.76724">
        <ele>1340.8</ele>
        <time>2018-02-02T09:39:20Z</time>
      </trkpt>
      <trkpt lat="45.31599" lon="5.76731">
        <ele>1342.6</ele>
        <time>2018-02-02T09:39:25Z</time>
      </trkpt>
      <trkpt lat="45.31599" lon="5.76733">
        <ele>1341</ele>
        <time>2018-02-02T09:39:30Z</time>
      </trkpt>
      <trkpt lat="45.31597" lon="5.76739">
        <ele>1340.6</ele>
        <time>2018-02-02T09:39:45Z</time>
      </trkpt>
      <trkpt lat="45.31598" lon="5.76741">
        <ele>1340.4</ele>
        <time>2018-02-02T09:39:50Z</time>
      </trkpt>
      <trkpt lat="45.31597" lon="5.76744">
        <ele>1340.6</ele>
        <time>2018-02-02T09:39:55Z</time>
      </trkpt>
      <trkpt lat="45.31597" lon="5.76748">
        <ele>1343.8</ele>
        <time>2018-02-02T09:40:00Z</time>
      </trkpt>
      <trkpt lat="45.31594" lon="5.76751">
        <ele>1341.8</ele>
        <time>2018-02-02T09:40:05Z</time>
      </trkpt>
      <trkpt lat="45.31593" lon="5.76755">
        <ele>1342.4</ele>
        <time>2018-02-02T09:40:10Z</time>
      </trkpt>
      <trkpt lat="45.31592" lon="5.7676">
        <ele>1340.6</ele>
        <time>2018-02-02T09:40:15Z</time>
      </trkpt>
      <trkpt lat="45.31593" lon="5.76763">
        <ele>1339.2</ele>
        <time>2018-02-02T09:40:20Z</time>
      </trkpt>
      <trkpt lat="45.31593" lon="5.76766">
        <ele>1341</ele>
        <time>2018-02-02T09:40:25Z</time>
      </trkpt>
      <trkpt lat="45.31593" lon="5.7677">
        <ele>1338.4</ele>
        <time>2018-02-02T09:40:30Z</time>
      </trkpt>
      <trkpt lat="45.31593" lon="5.76774">
        <ele>1342.4</ele>
        <time>2018-02-02T09:40:35Z</time>
      </trkpt>
      <trkpt lat="45.31593" lon="5.76777">
        <ele>1343.2</ele>
        <time>2018-02-02T09:40:40Z</time>
      </trkpt>
      <trkpt lat="45.31593" lon="5.76781">
        <ele>1341.4</ele>
        <time>2018-02-02T09:40:45Z</time>
      </trkpt>
      <trkpt lat="45.31591" lon="5.76785">
        <ele>1340.2</ele>
        <time>2018-02-02T09:40:50Z</time>
      </trkpt>
      <trkpt lat="45.31591" lon="5.76789">
        <ele>1338</ele>
        <time>2018-02-02T09:40:55Z</time>
      </trkpt>
      <trkpt lat="45.31593" lon="5.7679">
        <ele>1341.6</ele>
        <time>2018-02-02T09:41:00Z</time>
      </trkpt>
      <trkpt lat="45.31595" lon="5.76789">
        <ele>1342</ele>
        <time>2018-02-02T09:41:05Z</time>
      </trkpt>
      <trkpt lat="45.31598" lon="5.76786">
        <ele>1340.6</ele>
        <time>2018-02-02T09:41:10Z</time>
      </trkpt>
      <trkpt lat="45.31601" lon="5.76785">
        <ele>1342.8</ele>
        <time>2018-02-02T09:41:15Z</time>
      </trkpt>
      <trkpt lat="45.31604" lon="5.76783">
        <ele>1344.8</ele>
        <time>2018-02-02T09:41:20Z</time>
      </trkpt>
      <trkpt lat="45.31607" lon="5.7678">
        <ele>1342</ele>
        <time>2018-02-02T09:41:25Z</time>
      </trkpt>
      <trkpt lat="45.31609" lon="5.76777">
        <ele>1341.4</ele>
        <time>2018-02-02T09:41:30Z</time>
      </trkpt>
      <trkpt lat="45.31612" lon="5.76775">
        <ele>1343.8</ele>
        <time>2018-02-02T09:41:35Z</time>
      </trkpt>
      <trkpt lat="45.31615" lon="5.76772">
        <ele>1340.8</ele>
        <time>2018-02-02T09:41:41Z</time>
      </trkpt>
      <trkpt lat="45.31618" lon="5.7677">
        <ele>1341.4</ele>
        <time>2018-02-02T09:41:46Z</time>
      </trkpt>
      <trkpt lat="45.3162" lon="5.76766">
        <ele>1344.4</ele>
        <time>2018-02-02T09:41:51Z</time>
      </trkpt>
      <trkpt lat="45.31623" lon="5.76764">
        <ele>1340</ele>
        <time>2018-02-02T09:41:56Z</time>
      </trkpt>
      <trkpt lat="45.31626" lon="5.76762">
        <ele>1344</ele>
        <time>2018-02-02T09:42:01Z</time>
      </trkpt>
      <trkpt lat="45.31629" lon="5.76759">
        <ele>1343.4</ele>
        <time>2018-02-02T09:42:06Z</time>
      </trkpt>
      <trkpt lat="45.31632" lon="5.76756">
        <ele>1342</ele>
        <time>2018-02-02T09:42:11Z</time>
      </trkpt>
      <trkpt lat="45.31635" lon="5.76753">
        <ele>1341.8</ele>
        <time>2018-02-02T09:42:16Z</time>
      </trkpt>
      <trkpt lat="45.31637" lon="5.76751">
        <ele>1342.2</ele>
        <time>2018-02-02T09:42:21Z</time>
      </trkpt>
      <trkpt lat="45.3164" lon="5.76747">
        <ele>1341.6</ele>
        <time>2018-02-02T09:42:26Z</time>
      </trkpt>
      <trkpt lat="45.31642" lon="5.76744">
        <ele>1338.4</ele>
        <time>2018-02-02T09:42:31Z</time>
      </trkpt>
      <trkpt lat="45.31642" lon="5.76743">
        <ele>1336.6</ele>
        <time>2018-02-02T09:42:36Z</time>
      </trkpt>
      <trkpt lat="45.31645" lon="5.7674">
        <ele>1337.6</ele>
        <time>2018-02-02T09:42:41Z</time>
      </trkpt>
      <trkpt lat="45.31646" lon="5.76736">
        <ele>1340</ele>
        <time>2018-02-02T09:42:46Z</time>
      </trkpt>
      <trkpt lat="45.31646" lon="5.76732">
        <ele>1341</ele>
        <time>2018-02-02T09:42:51Z</time>
      </trkpt>
      <trkpt lat="45.31645" lon="5.76728">
        <ele>1339.6</ele>
        <time>2018-02-02T09:42:56Z</time>
      </trkpt>
      <trkpt lat="45.31644" lon="5.76724">
        <ele>1341.8</ele>
        <time>2018-02-02T09:43:01Z</time>
      </trkpt>
      <trkpt lat="45.31643" lon="5.76719">
        <ele>1343.2</ele>
        <time>2018-02-02T09:43:06Z</time>
      </trkpt>
      <trkpt lat="45.31643" lon="5.76715">
        <ele>1345.6</ele>
        <time>2018-02-02T09:43:11Z</time>
      </trkpt>
      <trkpt lat="45.31643" lon="5.76709">
        <ele>1346</ele>
        <time>2018-02-02T09:43:16Z</time>
      </trkpt>
      <trkpt lat="45.31643" lon="5.76702">
        <ele>1349</ele>
        <time>2018-02-02T09:43:21Z</time>
      </trkpt>
      <trkpt lat="45.31643" lon="5.76697">
        <ele>1352.2</ele>
        <time>2018-02-02T09:43:26Z</time>
      </trkpt>
      <trkpt lat="45.31642" lon="5.76694">
        <ele>1353</ele>
        <time>2018-02-02T09:43:31Z</time>
      </trkpt>
      <trkpt lat="45.31642" lon="5.7669">
        <ele>1355.6</ele>
        <time>2018-02-02T09:43:36Z</time>
      </trkpt>
      <trkpt lat="45.31641" lon="5.76685">
        <ele>1355.8</ele>
        <time>2018-02-02T09:43:41Z</time>
      </trkpt>
      <trkpt lat="45.31643" lon="5.76683">
        <ele>1355.2</ele>
        <time>2018-02-02T09:43:46Z</time>
      </trkpt>
      <trkpt lat="45.31644" lon="5.76681">
        <ele>1355.2</ele>
        <time>2018-02-02T09:43:51Z</time>
      </trkpt>
      <trkpt lat="45.31646" lon="5.76681">
        <ele>1355</ele>
        <time>2018-02-02T09:43:56Z</time>
      </trkpt>
      <trkpt lat="45.31646" lon="5.76683">
        <ele>1355.6</ele>
        <time>2018-02-02T09:44:01Z</time>
      </trkpt>
      <trkpt lat="45.31647" lon="5.76687">
        <ele>1355.8</ele>
        <time>2018-02-02T09:44:06Z</time>
      </trkpt>
      <trkpt lat="45.31648" lon="5.76689">
        <ele>1358.6</ele>
        <time>2018-02-02T09:44:11Z</time>
      </trkpt>
      <trkpt lat="45.3165" lon="5.7669">
        <ele>1357.4</ele>
        <time>2018-02-02T09:44:16Z</time>
      </trkpt>
      <trkpt lat="45.31652" lon="5.76691">
        <ele>1356.8</ele>
        <time>2018-02-02T09:44:21Z</time>
      </trkpt>
      <trkpt lat="45.31652" lon="5.76692">
        <ele>1356.6</ele>
        <time>2018-02-02T09:44:26Z</time>
      </trkpt>
      <trkpt lat="45.31653" lon="5.76694">
        <ele>1358.6</ele>
        <time>2018-02-02T09:44:31Z</time>
      </trkpt>
      <trkpt lat="45.31654" lon="5.76696">
        <ele>1365.8</ele>
        <time>2018-02-02T09:44:36Z</time>
      </trkpt>
      <trkpt lat="45.31654" lon="5.76699">
        <ele>1366.8</ele>
        <time>2018-02-02T09:44:41Z</time>
      </trkpt>
      <trkpt lat="45.31655" lon="5.76702">
        <ele>1365.8</ele>
        <time>2018-02-02T09:44:46Z</time>
      </trkpt>
      <trkpt lat="45.31658" lon="5.76704">
        <ele>1367.2</ele>
        <time>2018-02-02T09:44:51Z</time>
      </trkpt>
      <trkpt lat="45.31661" lon="5.76705">
        <ele>1370.6</ele>
        <time>2018-02-02T09:44:56Z</time>
      </trkpt>
      <trkpt lat="45.31663" lon="5.76704">
        <ele>1368</ele>
        <time>2018-02-02T09:45:01Z</time>
      </trkpt>
      <trkpt lat="45.31666" lon="5.76704">
        <ele>1371.6</ele>
        <time>2018-02-02T09:45:06Z</time>
      </trkpt>
      <trkpt lat="45.31668" lon="5.76705">
        <ele>1373.2</ele>
        <time>2018-02-02T09:45:11Z</time>
      </trkpt>
      <trkpt lat="45.3167" lon="5.76707">
        <ele>1373</ele>
        <time>2018-02-02T09:45:16Z</time>
      </trkpt>
      <trkpt lat="45.31673" lon="5.76708">
        <ele>1374.2</ele>
        <time>2018-02-02T09:45:21Z</time>
      </trkpt>
      <trkpt lat="45.31675" lon="5.7671">
        <ele>1374</ele>
        <time>2018-02-02T09:45:26Z</time>
      </trkpt>
      <trkpt lat="45.31677" lon="5.76712">
        <ele>1375.2</ele>
        <time>2018-02-02T09:45:31Z</time>
      </trkpt>
      <trkpt lat="45.31677" lon="5.76717">
        <ele>1376.6</ele>
        <time>2018-02-02T09:45:36Z</time>
      </trkpt>
      <trkpt lat="45.31677" lon="5.76721">
        <ele>1376.8</ele>
        <time>2018-02-02T09:45:42Z</time>
      </trkpt>
      <trkpt lat="45.31679" lon="5.76723">
        <ele>1376</ele>
        <time>2018-02-02T09:45:47Z</time>
      </trkpt>
      <trkpt lat="45.3168" lon="5.76725">
        <ele>1376.6</ele>
        <time>2018-02-02T09:45:52Z</time>
      </trkpt>
      <trkpt lat="45.31682" lon="5.76726">
        <ele>1377.6</ele>
        <time>2018-02-02T09:45:57Z</time>
      </trkpt>
      <trkpt lat="45.31683" lon="5.76729">
        <ele>1376.4</ele>
        <time>2018-02-02T09:46:02Z</time>
      </trkpt>
      <trkpt lat="45.31685" lon="5.76731">
        <ele>1372.4</ele>
        <time>2018-02-02T09:46:07Z</time>
      </trkpt>
      <trkpt lat="45.31687" lon="5.76732">
        <ele>1372.8</ele>
        <time>2018-02-02T09:46:12Z</time>
      </trkpt>
      <trkpt lat="45.31688" lon="5.76735">
        <ele>1376.8</ele>
        <time>2018-02-02T09:46:17Z</time>
      </trkpt>
      <trkpt lat="45.31689" lon="5.76738">
        <ele>1372.8</ele>
        <time>2018-02-02T09:46:22Z</time>
      </trkpt>
      <trkpt lat="45.31691" lon="5.76739">
        <ele>1375.8</ele>
        <time>2018-02-02T09:46:27Z</time>
      </trkpt>
      <trkpt lat="45.31694" lon="5.76739">
        <ele>1376.8</ele>
        <time>2018-02-02T09:46:32Z</time>
      </trkpt>
      <trkpt lat="45.31697" lon="5.76741">
        <ele>1375.8</ele>
        <time>2018-02-02T09:46:37Z</time>
      </trkpt>
      <trkpt lat="45.31698" lon="5.76741">
        <ele>1379</ele>
        <time>2018-02-02T09:46:42Z</time>
      </trkpt>
      <trkpt lat="45.317" lon="5.76743">
        <ele>1382.8</ele>
        <time>2018-02-02T09:46:47Z</time>
      </trkpt>
      <trkpt lat="45.31702" lon="5.76746">
        <ele>1386.2</ele>
        <time>2018-02-02T09:46:52Z</time>
      </trkpt>
      <trkpt lat="45.31703" lon="5.76748">
        <ele>1388.2</ele>
        <time>2018-02-02T09:46:57Z</time>
      </trkpt>
      <trkpt lat="45.31705" lon="5.76751">
        <ele>1389.6</ele>
        <time>2018-02-02T09:47:02Z</time>
      </trkpt>
      <trkpt lat="45.31707" lon="5.76754">
        <ele>1391.6</ele>
        <time>2018-02-02T09:47:07Z</time>
      </trkpt>
      <trkpt lat="45.31708" lon="5.76755">
        <ele>1389</ele>
        <time>2018-02-02T09:47:12Z</time>
      </trkpt>
      <trkpt lat="45.31709" lon="5.76756">
        <ele>1393.2</ele>
        <time>2018-02-02T09:47:17Z</time>
      </trkpt>
      <trkpt lat="45.3171" lon="5.76756">
        <ele>1389.8</ele>
        <time>2018-02-02T09:47:22Z</time>
      </trkpt>
      <trkpt lat="45.31711" lon="5.76757">
        <ele>1394</ele>
        <time>2018-02-02T09:47:27Z</time>
      </trkpt>
      <trkpt lat="45.31712" lon="5.76758">
        <ele>1397.2</ele>
        <time>2018-02-02T09:47:32Z</time>
      </trkpt>
      <trkpt lat="45.31714" lon="5.76756">
        <ele>1400</ele>
        <time>2018-02-02T09:47:37Z</time>
      </trkpt>
      <trkpt lat="45.31716" lon="5.76754">
        <ele>1399.4</ele>
        <time>2018-02-02T09:47:42Z</time>
      </trkpt>
      <trkpt lat="45.31717" lon="5.76751">
        <ele>1395.6</ele>
        <time>2018-02-02T09:47:47Z</time>
      </trkpt>
      <trkpt lat="45.31718" lon="5.76748">
        <ele>1399.2</ele>
        <time>2018-02-02T09:47:52Z</time>
      </trkpt>
      <trkpt lat="45.31718" lon="5.76745">
        <ele>1397.4</ele>
        <time>2018-02-02T09:47:57Z</time>
      </trkpt>
      <trkpt lat="45.31719" lon="5.76743">
        <ele>1398.2</ele>
        <time>2018-02-02T09:48:02Z</time>
      </trkpt>
      <trkpt lat="45.31719" lon="5.7674">
        <ele>1396.4</ele>
        <time>2018-02-02T09:48:07Z</time>
      </trkpt>
      <trkpt lat="45.31719" lon="5.76736">
        <ele>1392.8</ele>
        <time>2018-02-02T09:48:12Z</time>
      </trkpt>
      <trkpt lat="45.31719" lon="5.76733">
        <ele>1394.8</ele>
        <time>2018-02-02T09:48:17Z</time>
      </trkpt>
      <trkpt lat="45.3172" lon="5.7673">
        <ele>1397.4</ele>
        <time>2018-02-02T09:48:22Z</time>
      </trkpt>
      <trkpt lat="45.3172" lon="5.76728">
        <ele>1398.6</ele>
        <time>2018-02-02T09:48:27Z</time>
      </trkpt>
      <trkpt lat="45.31721" lon="5.76726">
        <ele>1398.4</ele>
        <time>2018-02-02T09:48:32Z</time>
      </trkpt>
      <trkpt lat="45.31722" lon="5.76723">
        <ele>1402</ele>
        <time>2018-02-02T09:48:37Z</time>
      </trkpt>
      <trkpt lat="45.31722" lon="5.7672">
        <ele>1399.8</ele>
        <time>2018-02-02T09:48:42Z</time>
      </trkpt>
      <trkpt lat="45.31722" lon="5.76715">
        <ele>1401.2</ele>
        <time>2018-02-02T09:48:47Z</time>
      </trkpt>
      <trkpt lat="45.31723" lon="5.76711">
        <ele>1403.4</ele>
        <time>2018-02-02T09:48:52Z</time>
      </trkpt>
      <trkpt lat="45.31722" lon="5.76707">
        <ele>1402.6</ele>
        <time>2018-02-02T09:48:57Z</time>
      </trkpt>
      <trkpt lat="45.31723" lon="5.76702">
        <ele>1406.4</ele>
        <time>2018-02-02T09:49:02Z</time>
      </trkpt>
      <trkpt lat="45.31724" lon="5.76699">
        <ele>1407</ele>
        <time>2018-02-02T09:49:07Z</time>
      </trkpt>
      <trkpt lat="45.31726" lon="5.76696">
        <ele>1407.8</ele>
        <time>2018-02-02T09:49:12Z</time>
      </trkpt>
      <trkpt lat="45.3173" lon="5.76694">
        <ele>1410.8</ele>
        <time>2018-02-02T09:49:47Z</time>
      </trkpt>
      <trkpt lat="45.31731" lon="5.76695">
        <ele>1411.2</ele>
        <time>2018-02-02T09:49:52Z</time>
      </trkpt>
      <trkpt lat="45.31733" lon="5.76697">
        <ele>1409.2</ele>
        <time>2018-02-02T09:50:02Z</time>
      </trkpt>
      <trkpt lat="45.31734" lon="5.76698">
        <ele>1407.8</ele>
        <time>2018-02-02T09:50:07Z</time>
      </trkpt>
      <trkpt lat="45.31735" lon="5.76697">
        <ele>1408.2</ele>
        <time>2018-02-02T09:50:12Z</time>
      </trkpt>
      <trkpt lat="45.31736" lon="5.76695">
        <ele>1409.4</ele>
        <time>2018-02-02T09:50:17Z</time>
      </trkpt>
      <trkpt lat="45.31738" lon="5.76695">
        <ele>1411.4</ele>
        <time>2018-02-02T09:50:22Z</time>
      </trkpt>
      <trkpt lat="45.3174" lon="5.76695">
        <ele>1411.2</ele>
        <time>2018-02-02T09:50:27Z</time>
      </trkpt>
      <trkpt lat="45.31741" lon="5.76695">
        <ele>1413</ele>
        <time>2018-02-02T09:50:32Z</time>
      </trkpt>
      <trkpt lat="45.31743" lon="5.76695">
        <ele>1413.4</ele>
        <time>2018-02-02T09:50:37Z</time>
      </trkpt>
      <trkpt lat="45.31745" lon="5.76695">
        <ele>1415</ele>
        <time>2018-02-02T09:50:42Z</time>
      </trkpt>
      <trkpt lat="45.31747" lon="5.76695">
        <ele>1417.2</ele>
        <time>2018-02-02T09:50:47Z</time>
      </trkpt>
      <trkpt lat="45.31748" lon="5.76696">
        <ele>1417.8</ele>
        <time>2018-02-02T09:50:52Z</time>
      </trkpt>
      <trkpt lat="45.31748" lon="5.76697">
        <ele>1417.8</ele>
        <time>2018-02-02T09:50:57Z</time>
      </trkpt>
      <trkpt lat="45.31748" lon="5.76701">
        <ele>1420.8</ele>
        <time>2018-02-02T09:51:02Z</time>
      </trkpt>
      <trkpt lat="45.31748" lon="5.76704">
        <ele>1420.4</ele>
        <time>2018-02-02T09:51:07Z</time>
      </trkpt>
      <trkpt lat="45.31748" lon="5.76705">
        <ele>1423.4</ele>
        <time>2018-02-02T09:51:12Z</time>
      </trkpt>
      <trkpt lat="45.3175" lon="5.76705">
        <ele>1421.2</ele>
        <time>2018-02-02T09:51:17Z</time>
      </trkpt>
      <trkpt lat="45.31751" lon="5.76705">
        <ele>1422.6</ele>
        <time>2018-02-02T09:51:22Z</time>
      </trkpt>
      <trkpt lat="45.31753" lon="5.76706">
        <ele>1423</ele>
        <time>2018-02-02T09:51:27Z</time>
      </trkpt>
      <trkpt lat="45.31756" lon="5.76706">
        <ele>1422.8</ele>
        <time>2018-02-02T09:51:32Z</time>
      </trkpt>
      <trkpt lat="45.31758" lon="5.76707">
        <ele>1423.2</ele>
        <time>2018-02-02T09:51:37Z</time>
      </trkpt>
      <trkpt lat="45.3176" lon="5.76708">
        <ele>1425.2</ele>
        <time>2018-02-02T09:51:42Z</time>
      </trkpt>
      <trkpt lat="45.31762" lon="5.76709">
        <ele>1425.8</ele>
        <time>2018-02-02T09:51:47Z</time>
      </trkpt>
      <trkpt lat="45.31764" lon="5.76711">
        <ele>1424.6</ele>
        <time>2018-02-02T09:51:52Z</time>
      </trkpt>
      <trkpt lat="45.31765" lon="5.76713">
        <ele>1425.2</ele>
        <time>2018-02-02T09:51:57Z</time>
      </trkpt>
      <trkpt lat="45.31766" lon="5.76715">
        <ele>1425.8</ele>
        <time>2018-02-02T09:52:02Z</time>
      </trkpt>
      <trkpt lat="45.31768" lon="5.76718">
        <ele>1425.4</ele>
        <time>2018-02-02T09:52:07Z</time>
      </trkpt>
      <trkpt lat="45.31769" lon="5.76718">
        <ele>1425.8</ele>
        <time>2018-02-02T09:52:12Z</time>
      </trkpt>
      <trkpt lat="45.31771" lon="5.7672">
        <ele>1426.4</ele>
        <time>2018-02-02T09:52:17Z</time>
      </trkpt>
      <trkpt lat="45.31772" lon="5.76722">
        <ele>1426.6</ele>
        <time>2018-02-02T09:52:22Z</time>
      </trkpt>
      <trkpt lat="45.31774" lon="5.76725">
        <ele>1430.4</ele>
        <time>2018-02-02T09:52:57Z</time>
      </trkpt>
      <trkpt lat="45.31776" lon="5.76726">
        <ele>1430.6</ele>
        <time>2018-02-02T09:53:02Z</time>
      </trkpt>
      <trkpt lat="45.31779" lon="5.76726">
        <ele>1429.8</ele>
        <time>2018-02-02T09:53:07Z</time>
      </trkpt>
      <trkpt lat="45.3178" lon="5.76727">
        <ele>1434.2</ele>
        <time>2018-02-02T09:53:12Z</time>
      </trkpt>
      <trkpt lat="45.31781" lon="5.76729">
        <ele>1435.6</ele>
        <time>2018-02-02T09:53:17Z</time>
      </trkpt>
      <trkpt lat="45.31784" lon="5.7673">
        <ele>1435.6</ele>
        <time>2018-02-02T09:53:22Z</time>
      </trkpt>
      <trkpt lat="45.31786" lon="5.76732">
        <ele>1436.8</ele>
        <time>2018-02-02T09:53:27Z</time>
      </trkpt>
      <trkpt lat="45.31788" lon="5.76733">
        <ele>1439.4</ele>
        <time>2018-02-02T09:53:32Z</time>
      </trkpt>
      <trkpt lat="45.3179" lon="5.76734">
        <ele>1437.8</ele>
        <time>2018-02-02T09:53:37Z</time>
      </trkpt>
      <trkpt lat="45.31792" lon="5.76734">
        <ele>1443.2</ele>
        <time>2018-02-02T09:53:42Z</time>
      </trkpt>
      <trkpt lat="45.31794" lon="5.76734">
        <ele>1442</ele>
        <time>2018-02-02T09:53:47Z</time>
      </trkpt>
      <trkpt lat="45.31795" lon="5.76735">
        <ele>1440</ele>
        <time>2018-02-02T09:53:52Z</time>
      </trkpt>
      <trkpt lat="45.31797" lon="5.76735">
        <ele>1439.8</ele>
        <time>2018-02-02T09:53:57Z</time>
      </trkpt>
      <trkpt lat="45.31798" lon="5.76735">
        <ele>1440.2</ele>
        <time>2018-02-02T09:54:02Z</time>
      </trkpt>
      <trkpt lat="45.31801" lon="5.76734">
        <ele>1444.4</ele>
        <time>2018-02-02T09:54:07Z</time>
      </trkpt>
      <trkpt lat="45.31803" lon="5.76736">
        <ele>1441.8</ele>
        <time>2018-02-02T09:54:12Z</time>
      </trkpt>
      <trkpt lat="45.31805" lon="5.76738">
        <ele>1441.6</ele>
        <time>2018-02-02T09:54:17Z</time>
      </trkpt>
      <trkpt lat="45.31807" lon="5.76739">
        <ele>1440.2</ele>
        <time>2018-02-02T09:54:22Z</time>
      </trkpt>
      <trkpt lat="45.31808" lon="5.7674">
        <ele>1439.4</ele>
        <time>2018-02-02T09:54:27Z</time>
      </trkpt>
      <trkpt lat="45.3181" lon="5.76742">
        <ele>1444.2</ele>
        <time>2018-02-02T09:54:32Z</time>
      </trkpt>
      <trkpt lat="45.31813" lon="5.76744">
        <ele>1443.4</ele>
        <time>2018-02-02T09:54:37Z</time>
      </trkpt>
      <trkpt lat="45.31815" lon="5.76747">
        <ele>1446.2</ele>
        <time>2018-02-02T09:54:42Z</time>
      </trkpt>
      <trkpt lat="45.31818" lon="5.76748">
        <ele>1447.4</ele>
        <time>2018-02-02T09:54:47Z</time>
      </trkpt>
      <trkpt lat="45.3182" lon="5.76752">
        <ele>1447.2</ele>
        <time>2018-02-02T09:54:52Z</time>
      </trkpt>
      <trkpt lat="45.31821" lon="5.76755">
        <ele>1447.2</ele>
        <time>2018-02-02T09:54:57Z</time>
      </trkpt>
      <trkpt lat="45.31822" lon="5.76757">
        <ele>1449.6</ele>
        <time>2018-02-02T09:55:02Z</time>
      </trkpt>
      <trkpt lat="45.31822" lon="5.7676">
        <ele>1449.4</ele>
        <time>2018-02-02T09:55:07Z</time>
      </trkpt>
      <trkpt lat="45.31823" lon="5.76762">
        <ele>1449</ele>
        <time>2018-02-02T09:55:12Z</time>
      </trkpt>
      <trkpt lat="45.31824" lon="5.76764">
        <ele>1448</ele>
        <time>2018-02-02T09:55:17Z</time>
      </trkpt>
      <trkpt lat="45.31824" lon="5.76766">
        <ele>1446.4</ele>
        <time>2018-02-02T09:55:22Z</time>
      </trkpt>
      <trkpt lat="45.31825" lon="5.76768">
        <ele>1444.6</ele>
        <time>2018-02-02T09:55:27Z</time>
      </trkpt>
      <trkpt lat="45.31826" lon="5.76772">
        <ele>1442.4</ele>
        <time>2018-02-02T09:55:32Z</time>
      </trkpt>
      <trkpt lat="45.31827" lon="5.76775">
        <ele>1442.6</ele>
        <time>2018-02-02T09:55:37Z</time>
      </trkpt>
      <trkpt lat="45.31827" lon="5.76778">
        <ele>1440.2</ele>
        <time>2018-02-02T09:55:42Z</time>
      </trkpt>
      <trkpt lat="45.31827" lon="5.76779">
        <ele>1440.4</ele>
        <time>2018-02-02T09:55:47Z</time>
      </trkpt>
      <trkpt lat="45.31825" lon="5.76783">
        <ele>1441.2</ele>
        <time>2018-02-02T09:55:52Z</time>
      </trkpt>
      <trkpt lat="45.31824" lon="5.76787">
        <ele>1439.6</ele>
        <time>2018-02-02T09:55:57Z</time>
      </trkpt>
      <trkpt lat="45.31825" lon="5.76793">
        <ele>1443.2</ele>
        <time>2018-02-02T09:56:02Z</time>
      </trkpt>
      <trkpt lat="45.31826" lon="5.76798">
        <ele>1442.4</ele>
        <time>2018-02-02T09:56:07Z</time>
      </trkpt>
      <trkpt lat="45.31826" lon="5.76802">
        <ele>1442.4</ele>
        <time>2018-02-02T09:56:12Z</time>
      </trkpt>
      <trkpt lat="45.31826" lon="5.76805">
        <ele>1443.4</ele>
        <time>2018-02-02T09:56:17Z</time>
      </trkpt>
      <trkpt lat="45.31825" lon="5.76808">
        <ele>1441.2</ele>
        <time>2018-02-02T09:56:22Z</time>
      </trkpt>
      <trkpt lat="45.31825" lon="5.76811">
        <ele>1441.2</ele>
        <time>2018-02-02T09:56:27Z</time>
      </trkpt>
      <trkpt lat="45.31825" lon="5.76814">
        <ele>1441</ele>
        <time>2018-02-02T09:56:32Z</time>
      </trkpt>
      <trkpt lat="45.31826" lon="5.76815">
        <ele>1438.8</ele>
        <time>2018-02-02T09:56:37Z</time>
      </trkpt>
      <trkpt lat="45.31827" lon="5.76817">
        <ele>1438.2</ele>
        <time>2018-02-02T09:56:42Z</time>
      </trkpt>
      <trkpt lat="45.31829" lon="5.76817">
        <ele>1440.2</ele>
        <time>2018-02-02T09:56:47Z</time>
      </trkpt>
      <trkpt lat="45.31831" lon="5.76816">
        <ele>1439.6</ele>
        <time>2018-02-02T09:56:52Z</time>
      </trkpt>
      <trkpt lat="45.31832" lon="5.76815">
        <ele>1442.4</ele>
        <time>2018-02-02T09:56:57Z</time>
      </trkpt>
      <trkpt lat="45.31834" lon="5.76813">
        <ele>1444.8</ele>
        <time>2018-02-02T09:57:02Z</time>
      </trkpt>
      <trkpt lat="45.31835" lon="5.76811">
        <ele>1448.4</ele>
        <time>2018-02-02T09:57:07Z</time>
      </trkpt>
      <trkpt lat="45.31837" lon="5.76807">
        <ele>1447</ele>
        <time>2018-02-02T09:57:12Z</time>
      </trkpt>
      <trkpt lat="45.31839" lon="5.76806">
        <ele>1446.6</ele>
        <time>2018-02-02T09:57:17Z</time>
      </trkpt>
      <trkpt lat="45.31841" lon="5.76803">
        <ele>1446.8</ele>
        <time>2018-02-02T09:57:22Z</time>
      </trkpt>
      <trkpt lat="45.31841" lon="5.76803">
        <ele>1449.6</ele>
        <time>2018-02-02T09:57:27Z</time>
      </trkpt>
      <trkpt lat="45.31843" lon="5.76801">
        <ele>1449.2</ele>
        <time>2018-02-02T09:57:32Z</time>
      </trkpt>
      <trkpt lat="45.31844" lon="5.76799">
        <ele>1447.2</ele>
        <time>2018-02-02T09:57:37Z</time>
      </trkpt>
      <trkpt lat="45.31846" lon="5.76799">
        <ele>1446.4</ele>
        <time>2018-02-02T09:57:42Z</time>
      </trkpt>
      <trkpt lat="45.31848" lon="5.76797">
        <ele>1449</ele>
        <time>2018-02-02T09:57:47Z</time>
      </trkpt>
      <trkpt lat="45.31849" lon="5.76796">
        <ele>1450.2</ele>
        <time>2018-02-02T09:57:52Z</time>
      </trkpt>
      <trkpt lat="45.31851" lon="5.76795">
        <ele>1453.2</ele>
        <time>2018-02-02T09:57:57Z</time>
      </trkpt>
      <trkpt lat="45.31853" lon="5.76794">
        <ele>1449.8</ele>
        <time>2018-02-02T09:58:02Z</time>
      </trkpt>
      <trkpt lat="45.31855" lon="5.76792">
        <ele>1456.4</ele>
        <time>2018-02-02T09:58:07Z</time>
      </trkpt>
      <trkpt lat="45.31857" lon="5.76791">
        <ele>1457.2</ele>
        <time>2018-02-02T09:58:12Z</time>
      </trkpt>
      <trkpt lat="45.3186" lon="5.7679">
        <ele>1456.4</ele>
        <time>2018-02-02T09:58:17Z</time>
      </trkpt>
      <trkpt lat="45.31861" lon="5.7679">
        <ele>1457.6</ele>
        <time>2018-02-02T09:58:22Z</time>
      </trkpt>
      <trkpt lat="45.31863" lon="5.76788">
        <ele>1458.6</ele>
        <time>2018-02-02T09:58:27Z</time>
      </trkpt>
      <trkpt lat="45.31867" lon="5.76784">
        <ele>1460.2</ele>
        <time>2018-02-02T09:58:32Z</time>
      </trkpt>
      <trkpt lat="45.3187" lon="5.7678">
        <ele>1463.6</ele>
        <time>2018-02-02T09:58:37Z</time>
      </trkpt>
      <trkpt lat="45.31873" lon="5.76777">
        <ele>1462.2</ele>
        <time>2018-02-02T09:58:42Z</time>
      </trkpt>
      <trkpt lat="45.31875" lon="5.76773">
        <ele>1468.2</ele>
        <time>2018-02-02T09:58:47Z</time>
      </trkpt>
      <trkpt lat="45.31876" lon="5.76771">
        <ele>1469.2</ele>
        <time>2018-02-02T09:58:52Z</time>
      </trkpt>
      <trkpt lat="45.31878" lon="5.76768">
        <ele>1469.6</ele>
        <time>2018-02-02T09:58:57Z</time>
      </trkpt>
      <trkpt lat="45.31879" lon="5.76764">
        <ele>1469.6</ele>
        <time>2018-02-02T09:59:02Z</time>
      </trkpt>
      <trkpt lat="45.31881" lon="5.76759">
        <ele>1473.6</ele>
        <time>2018-02-02T09:59:07Z</time>
      </trkpt>
      <trkpt lat="45.31883" lon="5.76755">
        <ele>1473</ele>
        <time>2018-02-02T09:59:12Z</time>
      </trkpt>
      <trkpt lat="45.31885" lon="5.76751">
        <ele>1476.8</ele>
        <time>2018-02-02T09:59:17Z</time>
      </trkpt>
      <trkpt lat="45.31886" lon="5.76747">
        <ele>1476</ele>
        <time>2018-02-02T09:59:22Z</time>
      </trkpt>
      <trkpt lat="45.31887" lon="5.76744">
        <ele>1481</ele>
        <time>2018-02-02T09:59:27Z</time>
      </trkpt>
      <trkpt lat="45.31888" lon="5.76741">
        <ele>1480.4</ele>
        <time>2018-02-02T09:59:32Z</time>
      </trkpt>
      <trkpt lat="45.3189" lon="5.76738">
        <ele>1479.4</ele>
        <time>2018-02-02T09:59:37Z</time>
      </trkpt>
      <trkpt lat="45.31891" lon="5.76734">
        <ele>1480.6</ele>
        <time>2018-02-02T09:59:42Z</time>
      </trkpt>
      <trkpt lat="45.31893" lon="5.76731">
        <ele>1482</ele>
        <time>2018-02-02T09:59:47Z</time>
      </trkpt>
      <trkpt lat="45.31893" lon="5.7673">
        <ele>1481.2</ele>
        <time>2018-02-02T09:59:52Z</time>
      </trkpt>
      <trkpt lat="45.31893" lon="5.7673">
        <ele>1482.4</ele>
        <time>2018-02-02T09:59:57Z</time>
      </trkpt>
      <trkpt lat="45.31894" lon="5.76727">
        <ele>1488.2</ele>
        <time>2018-02-02T10:00:02Z</time>
      </trkpt>
      <trkpt lat="45.31895" lon="5.76725">
        <ele>1486.4</ele>
        <time>2018-02-02T10:00:07Z</time>
      </trkpt>
      <trkpt lat="45.31897" lon="5.76722">
        <ele>1488.6</ele>
        <time>2018-02-02T10:00:12Z</time>
      </trkpt>
      <trkpt lat="45.31899" lon="5.76717">
        <ele>1485.8</ele>
        <time>2018-02-02T10:00:17Z</time>
      </trkpt>
      <trkpt lat="45.31901" lon="5.76713">
        <ele>1488.2</ele>
        <time>2018-02-02T10:00:22Z</time>
      </trkpt>
      <trkpt lat="45.31901" lon="5.7671">
        <ele>1489.6</ele>
        <time>2018-02-02T10:00:27Z</time>
      </trkpt>
      <trkpt lat="45.31902" lon="5.76707">
        <ele>1492.8</ele>
        <time>2018-02-02T10:00:33Z</time>
      </trkpt>
      <trkpt lat="45.31902" lon="5.76705">
        <ele>1491.6</ele>
        <time>2018-02-02T10:00:38Z</time>
      </trkpt>
      <trkpt lat="45.31903" lon="5.76703">
        <ele>1492</ele>
        <time>2018-02-02T10:00:43Z</time>
      </trkpt>
      <trkpt lat="45.31904" lon="5.76706">
        <ele>1485.8</ele>
        <time>2018-02-02T10:00:48Z</time>
      </trkpt>
      <trkpt lat="45.31907" lon="5.7671">
        <ele>1488</ele>
        <time>2018-02-02T10:00:54Z</time>
      </trkpt>
      <trkpt lat="45.3191" lon="5.76714">
        <ele>1489.4</ele>
        <time>2018-02-02T10:01:00Z</time>
      </trkpt>
      <trkpt lat="45.31913" lon="5.76717">
        <ele>1491.4</ele>
        <time>2018-02-02T10:01:06Z</time>
      </trkpt>
      <trkpt lat="45.31915" lon="5.7672">
        <ele>1490.8</ele>
        <time>2018-02-02T10:01:11Z</time>
      </trkpt>
      <trkpt lat="45.31918" lon="5.76722">
        <ele>1488.2</ele>
        <time>2018-02-02T10:01:16Z</time>
      </trkpt>
      <trkpt lat="45.3192" lon="5.76725">
        <ele>1487.8</ele>
        <time>2018-02-02T10:01:21Z</time>
      </trkpt>
      <trkpt lat="45.31922" lon="5.76729">
        <ele>1487.4</ele>
        <time>2018-02-02T10:01:26Z</time>
      </trkpt>
      <trkpt lat="45.31925" lon="5.76731">
        <ele>1491.8</ele>
        <time>2018-02-02T10:01:31Z</time>
      </trkpt>
      <trkpt lat="45.31928" lon="5.76734">
        <ele>1488.8</ele>
        <time>2018-02-02T10:01:36Z</time>
      </trkpt>
      <trkpt lat="45.31931" lon="5.76736">
        <ele>1490.8</ele>
        <time>2018-02-02T10:01:41Z</time>
      </trkpt>
      <trkpt lat="45.31934" lon="5.76739">
        <ele>1491.6</ele>
        <time>2018-02-02T10:01:47Z</time>
      </trkpt>
      <trkpt lat="45.31937" lon="5.76741">
        <ele>1490.6</ele>
        <time>2018-02-02T10:01:52Z</time>
      </trkpt>
      <trkpt lat="45.3194" lon="5.76743">
        <ele>1494.6</ele>
        <time>2018-02-02T10:01:57Z</time>
      </trkpt>
      <trkpt lat="45.31942" lon="5.76745">
        <ele>1494</ele>
        <time>2018-02-02T10:02:02Z</time>
      </trkpt>
      <trkpt lat="45.31945" lon="5.76747">
        <ele>1493.8</ele>
        <time>2018-02-02T10:02:07Z</time>
      </trkpt>
      <trkpt lat="45.31946" lon="5.76748">
        <ele>1492.8</ele>
        <time>2018-02-02T10:02:12Z</time>
      </trkpt>
      <trkpt lat="45.31945" lon="5.76749">
        <ele>1494</ele>
        <time>2018-02-02T10:05:23Z</time>
      </trkpt>
      <trkpt lat="45.31946" lon="5.7675">
        <ele>1493.8</ele>
        <time>2018-02-02T10:05:33Z</time>
      </trkpt>
      <trkpt lat="45.31947" lon="5.76751">
        <ele>1493.6</ele>
        <time>2018-02-02T10:05:38Z</time>
      </trkpt>
      <trkpt lat="45.31947" lon="5.76751">
        <ele>1493.4</ele>
        <time>2018-02-02T10:06:13Z</time>
      </trkpt>
      <trkpt lat="45.3195" lon="5.76751">
        <ele>1492</ele>
        <time>2018-02-02T10:06:18Z</time>
      </trkpt>
      <trkpt lat="45.31952" lon="5.7675">
        <ele>1493.2</ele>
        <time>2018-02-02T10:06:23Z</time>
      </trkpt>
      <trkpt lat="45.31954" lon="5.76748">
        <ele>1495.2</ele>
        <time>2018-02-02T10:06:28Z</time>
      </trkpt>
      <trkpt lat="45.31955" lon="5.76745">
        <ele>1496.4</ele>
        <time>2018-02-02T10:06:33Z</time>
      </trkpt>
      <trkpt lat="45.31955" lon="5.76742">
        <ele>1493.2</ele>
        <time>2018-02-02T10:06:38Z</time>
      </trkpt>
      <trkpt lat="45.31956" lon="5.76741">
        <ele>1495</ele>
        <time>2018-02-02T10:06:43Z</time>
      </trkpt>
      <trkpt lat="45.31959" lon="5.76739">
        <ele>1494.2</ele>
        <time>2018-02-02T10:06:48Z</time>
      </trkpt>
      <trkpt lat="45.3196" lon="5.76736">
        <ele>1497.8</ele>
        <time>2018-02-02T10:06:53Z</time>
      </trkpt>
      <trkpt lat="45.31961" lon="5.76734">
        <ele>1499.2</ele>
        <time>2018-02-02T10:06:58Z</time>
      </trkpt>
      <trkpt lat="45.3196" lon="5.76732">
        <ele>1499</ele>
        <time>2018-02-02T10:07:03Z</time>
      </trkpt>
      <trkpt lat="45.31959" lon="5.76729">
        <ele>1498.6</ele>
        <time>2018-02-02T10:07:08Z</time>
      </trkpt>
      <trkpt lat="45.31959" lon="5.76726">
        <ele>1499.6</ele>
        <time>2018-02-02T10:07:13Z</time>
      </trkpt>
      <trkpt lat="45.31961" lon="5.76724">
        <ele>1499.8</ele>
        <time>2018-02-02T10:07:18Z</time>
      </trkpt>
      <trkpt lat="45.31961" lon="5.76724">
        <ele>1501.6</ele>
        <time>2018-02-02T10:07:23Z</time>
      </trkpt>
      <trkpt lat="45.31962" lon="5.76723">
        <ele>1502.8</ele>
        <time>2018-02-02T10:07:28Z</time>
      </trkpt>
      <trkpt lat="45.31963" lon="5.76722">
        <ele>1505.4</ele>
        <time>2018-02-02T10:07:33Z</time>
      </trkpt>
      <trkpt lat="45.31964" lon="5.76719">
        <ele>1505.6</ele>
        <time>2018-02-02T10:07:38Z</time>
      </trkpt>
      <trkpt lat="45.31963" lon="5.76716">
        <ele>1504.6</ele>
        <time>2018-02-02T10:07:43Z</time>
      </trkpt>
      <trkpt lat="45.31961" lon="5.76713">
        <ele>1509.8</ele>
        <time>2018-02-02T10:07:48Z</time>
      </trkpt>
      <trkpt lat="45.31961" lon="5.76711">
        <ele>1511.4</ele>
        <time>2018-02-02T10:07:53Z</time>
      </trkpt>
      <trkpt lat="45.3196" lon="5.76708">
        <ele>1512.2</ele>
        <time>2018-02-02T10:07:58Z</time>
      </trkpt>
      <trkpt lat="45.3196" lon="5.76705">
        <ele>1511</ele>
        <time>2018-02-02T10:08:03Z</time>
      </trkpt>
      <trkpt lat="45.3196" lon="5.76701">
        <ele>1512.6</ele>
        <time>2018-02-02T10:08:08Z</time>
      </trkpt>
      <trkpt lat="45.3196" lon="5.76699">
        <ele>1512.8</ele>
        <time>2018-02-02T10:08:13Z</time>
      </trkpt>
      <trkpt lat="45.31962" lon="5.76697">
        <ele>1515.2</ele>
        <time>2018-02-02T10:08:18Z</time>
      </trkpt>
      <trkpt lat="45.31963" lon="5.76696">
        <ele>1514</ele>
        <time>2018-02-02T10:08:23Z</time>
      </trkpt>
      <trkpt lat="45.31963" lon="5.76691">
        <ele>1515.2</ele>
        <time>2018-02-02T10:08:28Z</time>
      </trkpt>
      <trkpt lat="45.31964" lon="5.76687">
        <ele>1517.2</ele>
        <time>2018-02-02T10:08:33Z</time>
      </trkpt>
      <trkpt lat="45.31964" lon="5.76683">
        <ele>1516.4</ele>
        <time>2018-02-02T10:08:38Z</time>
      </trkpt>
      <trkpt lat="45.31964" lon="5.7668">
        <ele>1520.8</ele>
        <time>2018-02-02T10:08:43Z</time>
      </trkpt>
      <trkpt lat="45.31963" lon="5.76677">
        <ele>1519.4</ele>
        <time>2018-02-02T10:08:48Z</time>
      </trkpt>
      <trkpt lat="45.31962" lon="5.76674">
        <ele>1518.8</ele>
        <time>2018-02-02T10:08:53Z</time>
      </trkpt>
      <trkpt lat="45.31961" lon="5.76671">
        <ele>1516.8</ele>
        <time>2018-02-02T10:08:58Z</time>
      </trkpt>
      <trkpt lat="45.31961" lon="5.76668">
        <ele>1516.2</ele>
        <time>2018-02-02T10:09:03Z</time>
      </trkpt>
      <trkpt lat="45.3196" lon="5.76665">
        <ele>1522.6</ele>
        <time>2018-02-02T10:09:08Z</time>
      </trkpt>
      <trkpt lat="45.3196" lon="5.76662">
        <ele>1518</ele>
        <time>2018-02-02T10:09:13Z</time>
      </trkpt>
      <trkpt lat="45.3196" lon="5.76659">
        <ele>1520</ele>
        <time>2018-02-02T10:09:18Z</time>
      </trkpt>
      <trkpt lat="45.31958" lon="5.76656">
        <ele>1516.2</ele>
        <time>2018-02-02T10:09:23Z</time>
      </trkpt>
      <trkpt lat="45.31956" lon="5.76654">
        <ele>1520.8</ele>
        <time>2018-02-02T10:09:28Z</time>
      </trkpt>
      <trkpt lat="45.31955" lon="5.76651">
        <ele>1519.4</ele>
        <time>2018-02-02T10:09:33Z</time>
      </trkpt>
      <trkpt lat="45.31954" lon="5.76648">
        <ele>1521</ele>
        <time>2018-02-02T10:09:38Z</time>
      </trkpt>
      <trkpt lat="45.31954" lon="5.76644">
        <ele>1523.6</ele>
        <time>2018-02-02T10:09:43Z</time>
      </trkpt>
      <trkpt lat="45.31954" lon="5.76641">
        <ele>1525.4</ele>
        <time>2018-02-02T10:09:48Z</time>
      </trkpt>
      <trkpt lat="45.31954" lon="5.76637">
        <ele>1529</ele>
        <time>2018-02-02T10:09:53Z</time>
      </trkpt>
      <trkpt lat="45.31955" lon="5.76633">
        <ele>1529</ele>
        <time>2018-02-02T10:09:58Z</time>
      </trkpt>
      <trkpt lat="45.31955" lon="5.7663">
        <ele>1527</ele>
        <time>2018-02-02T10:10:03Z</time>
      </trkpt>
      <trkpt lat="45.31954" lon="5.76627">
        <ele>1528.2</ele>
        <time>2018-02-02T10:10:08Z</time>
      </trkpt>
      <trkpt lat="45.31953" lon="5.76624">
        <ele>1529.8</ele>
        <time>2018-02-02T10:10:13Z</time>
      </trkpt>
      <trkpt lat="45.31952" lon="5.7662">
        <ele>1530.2</ele>
        <time>2018-02-02T10:10:18Z</time>
      </trkpt>
      <trkpt lat="45.31949" lon="5.76618">
        <ele>1531.2</ele>
        <time>2018-02-02T10:10:23Z</time>
      </trkpt>
      <trkpt lat="45.31946" lon="5.76615">
        <ele>1529.8</ele>
        <time>2018-02-02T10:10:28Z</time>
      </trkpt>
      <trkpt lat="45.31944" lon="5.76612">
        <ele>1532.4</ele>
        <time>2018-02-02T10:10:33Z</time>
      </trkpt>
      <trkpt lat="45.31941" lon="5.7661">
        <ele>1534.8</ele>
        <time>2018-02-02T10:10:38Z</time>
      </trkpt>
      <trkpt lat="45.31939" lon="5.76607">
        <ele>1533</ele>
        <time>2018-02-02T10:10:43Z</time>
      </trkpt>
      <trkpt lat="45.31936" lon="5.76602">
        <ele>1533</ele>
        <time>2018-02-02T10:10:49Z</time>
      </trkpt>
      <trkpt lat="45.31935" lon="5.76598">
        <ele>1532.4</ele>
        <time>2018-02-02T10:10:54Z</time>
      </trkpt>
      <trkpt lat="45.31935" lon="5.76595">
        <ele>1535.4</ele>
        <time>2018-02-02T10:10:59Z</time>
      </trkpt>
      <trkpt lat="45.31935" lon="5.76591">
        <ele>1538.2</ele>
        <time>2018-02-02T10:11:04Z</time>
      </trkpt>
      <trkpt lat="45.31935" lon="5.76588">
        <ele>1534.8</ele>
        <time>2018-02-02T10:11:09Z</time>
      </trkpt>
      <trkpt lat="45.31934" lon="5.76585">
        <ele>1534</ele>
        <time>2018-02-02T10:11:14Z</time>
      </trkpt>
      <trkpt lat="45.31932" lon="5.76582">
        <ele>1536.6</ele>
        <time>2018-02-02T10:11:54Z</time>
      </trkpt>
      <trkpt lat="45.31932" lon="5.76579">
        <ele>1538</ele>
        <time>2018-02-02T10:11:59Z</time>
      </trkpt>
      <trkpt lat="45.3193" lon="5.76577">
        <ele>1539.6</ele>
        <time>2018-02-02T10:12:04Z</time>
      </trkpt>
      <trkpt lat="45.3193" lon="5.76574">
        <ele>1540.4</ele>
        <time>2018-02-02T10:12:09Z</time>
      </trkpt>
      <trkpt lat="45.3193" lon="5.76572">
        <ele>1541.8</ele>
        <time>2018-02-02T10:12:14Z</time>
      </trkpt>
      <trkpt lat="45.31929" lon="5.7657">
        <ele>1544.2</ele>
        <time>2018-02-02T10:12:19Z</time>
      </trkpt>
      <trkpt lat="45.31929" lon="5.76569">
        <ele>1545.6</ele>
        <time>2018-02-02T10:12:34Z</time>
      </trkpt>
      <trkpt lat="45.3193" lon="5.76568">
        <ele>1547.8</ele>
        <time>2018-02-02T10:12:39Z</time>
      </trkpt>
      <trkpt lat="45.31931" lon="5.76568">
        <ele>1549.6</ele>
        <time>2018-02-02T10:12:44Z</time>
      </trkpt>
      <trkpt lat="45.3193" lon="5.76565">
        <ele>1549.8</ele>
        <time>2018-02-02T10:12:49Z</time>
      </trkpt>
      <trkpt lat="45.31928" lon="5.76563">
        <ele>1554</ele>
        <time>2018-02-02T10:12:54Z</time>
      </trkpt>
      <trkpt lat="45.31925" lon="5.7656">
        <ele>1554.2</ele>
        <time>2018-02-02T10:12:59Z</time>
      </trkpt>
      <trkpt lat="45.31925" lon="5.76557">
        <ele>1554.2</ele>
        <time>2018-02-02T10:13:04Z</time>
      </trkpt>
      <trkpt lat="45.31924" lon="5.76554">
        <ele>1560</ele>
        <time>2018-02-02T10:13:09Z</time>
      </trkpt>
      <trkpt lat="45.31923" lon="5.76548">
        <ele>1556.6</ele>
        <time>2018-02-02T10:13:14Z</time>
      </trkpt>
      <trkpt lat="45.31923" lon="5.76543">
        <ele>1559.8</ele>
        <time>2018-02-02T10:13:19Z</time>
      </trkpt>
      <trkpt lat="45.31922" lon="5.76538">
        <ele>1557.2</ele>
        <time>2018-02-02T10:13:24Z</time>
      </trkpt>
      <trkpt lat="45.31922" lon="5.76534">
        <ele>1557.8</ele>
        <time>2018-02-02T10:13:29Z</time>
      </trkpt>
      <trkpt lat="45.31922" lon="5.76531">
        <ele>1556.2</ele>
        <time>2018-02-02T10:13:34Z</time>
      </trkpt>
      <trkpt lat="45.3192" lon="5.76526">
        <ele>1557.6</ele>
        <time>2018-02-02T10:13:44Z</time>
      </trkpt>
      <trkpt lat="45.31919" lon="5.76522">
        <ele>1558.6</ele>
        <time>2018-02-02T10:13:49Z</time>
      </trkpt>
      <trkpt lat="45.3192" lon="5.76519">
        <ele>1559</ele>
        <time>2018-02-02T10:13:54Z</time>
      </trkpt>
      <trkpt lat="45.3192" lon="5.76519">
        <ele>1558.8</ele>
        <time>2018-02-02T10:13:59Z</time>
      </trkpt>
      <trkpt lat="45.31922" lon="5.76516">
        <ele>1556.8</ele>
        <time>2018-02-02T10:14:14Z</time>
      </trkpt>
      <trkpt lat="45.31923" lon="5.76517">
        <ele>1557.4</ele>
        <time>2018-02-02T10:14:19Z</time>
      </trkpt>
      <trkpt lat="45.31923" lon="5.76516">
        <ele>1559.2</ele>
        <time>2018-02-02T10:14:34Z</time>
      </trkpt>
      <trkpt lat="45.31925" lon="5.76515">
        <ele>1559.8</ele>
        <time>2018-02-02T10:14:44Z</time>
      </trkpt>
      <trkpt lat="45.31925" lon="5.76513">
        <ele>1565.4</ele>
        <time>2018-02-02T10:15:04Z</time>
      </trkpt>
      <trkpt lat="45.31925" lon="5.76511">
        <ele>1565.8</ele>
        <time>2018-02-02T10:15:09Z</time>
      </trkpt>
      <trkpt lat="45.31925" lon="5.76507">
        <ele>1565.2</ele>
        <time>2018-02-02T10:15:14Z</time>
      </trkpt>
      <trkpt lat="45.31924" lon="5.76504">
        <ele>1565.4</ele>
        <time>2018-02-02T10:15:19Z</time>
      </trkpt>
      <trkpt lat="45.31922" lon="5.76501">
        <ele>1563.6</ele>
        <time>2018-02-02T10:15:24Z</time>
      </trkpt>
      <trkpt lat="45.31921" lon="5.76499">
        <ele>1565.4</ele>
        <time>2018-02-02T10:15:29Z</time>
      </trkpt>
      <trkpt lat="45.31919" lon="5.76498">
        <ele>1568</ele>
        <time>2018-02-02T10:15:34Z</time>
      </trkpt>
      <trkpt lat="45.31917" lon="5.76496">
        <ele>1568.2</ele>
        <time>2018-02-02T10:15:39Z</time>
      </trkpt>
      <trkpt lat="45.31917" lon="5.76493">
        <ele>1572.2</ele>
        <time>2018-02-02T10:15:44Z</time>
      </trkpt>
      <trkpt lat="45.31916" lon="5.7649">
        <ele>1570.4</ele>
        <time>2018-02-02T10:15:49Z</time>
      </trkpt>
      <trkpt lat="45.31915" lon="5.76488">
        <ele>1573.2</ele>
        <time>2018-02-02T10:15:54Z</time>
      </trkpt>
      <trkpt lat="45.31913" lon="5.76487">
        <ele>1573.6</ele>
        <time>2018-02-02T10:15:59Z</time>
      </trkpt>
      <trkpt lat="45.31912" lon="5.76484">
        <ele>1576.2</ele>
        <time>2018-02-02T10:16:24Z</time>
      </trkpt>
      <trkpt lat="45.31913" lon="5.76479">
        <ele>1575.6</ele>
        <time>2018-02-02T10:16:54Z</time>
      </trkpt>
      <trkpt lat="45.31915" lon="5.76474">
        <ele>1577.2</ele>
        <time>2018-02-02T10:17:54Z</time>
      </trkpt>
      <trkpt lat="45.31915" lon="5.76472">
        <ele>1575.4</ele>
        <time>2018-02-02T10:17:59Z</time>
      </trkpt>
      <trkpt lat="45.31915" lon="5.7647">
        <ele>1576.8</ele>
        <time>2018-02-02T10:18:04Z</time>
      </trkpt>
      <trkpt lat="45.31917" lon="5.76468">
        <ele>1581.6</ele>
        <time>2018-02-02T10:18:24Z</time>
      </trkpt>
      <trkpt lat="45.31919" lon="5.76469">
        <ele>1585</ele>
        <time>2018-02-02T10:18:29Z</time>
      </trkpt>
      <trkpt lat="45.31921" lon="5.7647">
        <ele>1587</ele>
        <time>2018-02-02T10:19:35Z</time>
      </trkpt>
      <trkpt lat="45.31924" lon="5.76471">
        <ele>1586.6</ele>
        <time>2018-02-02T10:19:45Z</time>
      </trkpt>
      <trkpt lat="45.31926" lon="5.76472">
        <ele>1586</ele>
        <time>2018-02-02T10:19:50Z</time>
      </trkpt>
      <trkpt lat="45.31927" lon="5.76473">
        <ele>1587.6</ele>
        <time>2018-02-02T10:19:55Z</time>
      </trkpt>
      <trkpt lat="45.31929" lon="5.76473">
        <ele>1584</ele>
        <time>2018-02-02T10:20:00Z</time>
      </trkpt>
      <trkpt lat="45.31932" lon="5.76473">
        <ele>1583.8</ele>
        <time>2018-02-02T10:20:05Z</time>
      </trkpt>
      <trkpt lat="45.31932" lon="5.76472">
        <ele>1584.6</ele>
        <time>2018-02-02T10:20:10Z</time>
      </trkpt>
      <trkpt lat="45.31933" lon="5.7647">
        <ele>1585.6</ele>
        <time>2018-02-02T10:20:20Z</time>
      </trkpt>
      <trkpt lat="45.31933" lon="5.76469">
        <ele>1585.8</ele>
        <time>2018-02-02T10:20:30Z</time>
      </trkpt>
      <trkpt lat="45.31932" lon="5.76467">
        <ele>1585.6</ele>
        <time>2018-02-02T10:20:35Z</time>
      </trkpt>
      <trkpt lat="45.31932" lon="5.76464">
        <ele>1584.2</ele>
        <time>2018-02-02T10:20:40Z</time>
      </trkpt>
      <trkpt lat="45.31931" lon="5.76462">
        <ele>1584.6</ele>
        <time>2018-02-02T10:20:45Z</time>
      </trkpt>
      <trkpt lat="45.31929" lon="5.76459">
        <ele>1587</ele>
        <time>2018-02-02T10:20:50Z</time>
      </trkpt>
      <trkpt lat="45.31928" lon="5.76457">
        <ele>1588</ele>
        <time>2018-02-02T10:20:55Z</time>
      </trkpt>
      <trkpt lat="45.3193" lon="5.76453">
        <ele>1594</ele>
        <time>2018-02-02T10:21:40Z</time>
      </trkpt>
      <trkpt lat="45.31932" lon="5.76452">
        <ele>1594.6</ele>
        <time>2018-02-02T10:21:45Z</time>
      </trkpt>
      <trkpt lat="45.31934" lon="5.76453">
        <ele>1597.6</ele>
        <time>2018-02-02T10:21:50Z</time>
      </trkpt>
      <trkpt lat="45.31935" lon="5.76452">
        <ele>1597</ele>
        <time>2018-02-02T10:21:55Z</time>
      </trkpt>
      <trkpt lat="45.31936" lon="5.76453">
        <ele>1596.2</ele>
        <time>2018-02-02T10:22:05Z</time>
      </trkpt>
      <trkpt lat="45.31937" lon="5.76453">
        <ele>1596</ele>
        <time>2018-02-02T10:22:10Z</time>
      </trkpt>
      <trkpt lat="45.31938" lon="5.76454">
        <ele>1597.4</ele>
        <time>2018-02-02T10:22:15Z</time>
      </trkpt>
      <trkpt lat="45.3194" lon="5.76454">
        <ele>1597.6</ele>
        <time>2018-02-02T10:22:20Z</time>
      </trkpt>
      <trkpt lat="45.31941" lon="5.76452">
        <ele>1597</ele>
        <time>2018-02-02T10:22:25Z</time>
      </trkpt>
      <trkpt lat="45.31941" lon="5.76452">
        <ele>1595.4</ele>
        <time>2018-02-02T10:22:55Z</time>
      </trkpt>
      <trkpt lat="45.31942" lon="5.76451">
        <ele>1595.4</ele>
        <time>2018-02-02T10:23:00Z</time>
      </trkpt>
      <trkpt lat="45.31942" lon="5.7645">
        <ele>1595.4</ele>
        <time>2018-02-02T10:23:05Z</time>
      </trkpt>
      <trkpt lat="45.31941" lon="5.76448">
        <ele>1592.2</ele>
        <time>2018-02-02T10:23:10Z</time>
      </trkpt>
      <trkpt lat="45.3194" lon="5.76445">
        <ele>1591.2</ele>
        <time>2018-02-02T10:23:15Z</time>
      </trkpt>
      <trkpt lat="45.31938" lon="5.76442">
        <ele>1592.6</ele>
        <time>2018-02-02T10:23:20Z</time>
      </trkpt>
      <trkpt lat="45.31937" lon="5.7644">
        <ele>1593.6</ele>
        <time>2018-02-02T10:23:25Z</time>
      </trkpt>
      <trkpt lat="45.31936" lon="5.76438">
        <ele>1592.8</ele>
        <time>2018-02-02T10:23:30Z</time>
      </trkpt>
      <trkpt lat="45.31936" lon="5.76435">
        <ele>1601</ele>
        <time>2018-02-02T10:23:35Z</time>
      </trkpt>
      <trkpt lat="45.31935" lon="5.76433">
        <ele>1600.2</ele>
        <time>2018-02-02T10:23:40Z</time>
      </trkpt>
      <trkpt lat="45.31935" lon="5.76431">
        <ele>1602.6</ele>
        <time>2018-02-02T10:23:55Z</time>
      </trkpt>
      <trkpt lat="45.31936" lon="5.76432">
        <ele>1603.2</ele>
        <time>2018-02-02T10:24:00Z</time>
      </trkpt>
      <trkpt lat="45.31937" lon="5.76434">
        <ele>1602.2</ele>
        <time>2018-02-02T10:24:05Z</time>
      </trkpt>
      <trkpt lat="45.31938" lon="5.76436">
        <ele>1602.4</ele>
        <time>2018-02-02T10:24:10Z</time>
      </trkpt>
      <trkpt lat="45.31939" lon="5.76438">
        <ele>1603.8</ele>
        <time>2018-02-02T10:24:15Z</time>
      </trkpt>
      <trkpt lat="45.31941" lon="5.7644">
        <ele>1603.2</ele>
        <time>2018-02-02T10:24:20Z</time>
      </trkpt>
      <trkpt lat="45.31944" lon="5.76441">
        <ele>1607.6</ele>
        <time>2018-02-02T10:24:25Z</time>
      </trkpt>
      <trkpt lat="45.31946" lon="5.76442">
        <ele>1608.8</ele>
        <time>2018-02-02T10:24:30Z</time>
      </trkpt>
      <trkpt lat="45.31947" lon="5.76441">
        <ele>1608.2</ele>
        <time>2018-02-02T10:24:35Z</time>
      </trkpt>
      <trkpt lat="45.31948" lon="5.7644">
        <ele>1610</ele>
        <time>2018-02-02T10:24:40Z</time>
      </trkpt>
      <trkpt lat="45.31947" lon="5.76437">
        <ele>1612.8</ele>
        <time>2018-02-02T10:24:45Z</time>
      </trkpt>
      <trkpt lat="45.31946" lon="5.76434">
        <ele>1609.4</ele>
        <time>2018-02-02T10:24:50Z</time>
      </trkpt>
      <trkpt lat="45.31945" lon="5.76432">
        <ele>1608.6</ele>
        <time>2018-02-02T10:24:55Z</time>
      </trkpt>
      <trkpt lat="45.31944" lon="5.76429">
        <ele>1608.4</ele>
        <time>2018-02-02T10:25:00Z</time>
      </trkpt>
      <trkpt lat="45.31945" lon="5.76424">
        <ele>1616</ele>
        <time>2018-02-02T10:25:25Z</time>
      </trkpt>
      <trkpt lat="45.31945" lon="5.76424">
        <ele>1612.8</ele>
        <time>2018-02-02T10:25:45Z</time>
      </trkpt>
      <trkpt lat="45.31946" lon="5.76424">
        <ele>1613</ele>
        <time>2018-02-02T10:26:00Z</time>
      </trkpt>
      <trkpt lat="45.31947" lon="5.76425">
        <ele>1610.8</ele>
        <time>2018-02-02T10:26:05Z</time>
      </trkpt>
      <trkpt lat="45.3195" lon="5.76426">
        <ele>1613</ele>
        <time>2018-02-02T10:26:10Z</time>
      </trkpt>
      <trkpt lat="45.31951" lon="5.76431">
        <ele>1620.2</ele>
        <time>2018-02-02T10:26:20Z</time>
      </trkpt>
      <trkpt lat="45.31951" lon="5.76433">
        <ele>1617.4</ele>
        <time>2018-02-02T10:26:25Z</time>
      </trkpt>
      <trkpt lat="45.31952" lon="5.76436">
        <ele>1617</ele>
        <time>2018-02-02T10:26:30Z</time>
      </trkpt>
      <trkpt lat="45.31952" lon="5.76437">
        <ele>1619.8</ele>
        <time>2018-02-02T10:26:35Z</time>
      </trkpt>
      <trkpt lat="45.31953" lon="5.76436">
        <ele>1619</ele>
        <time>2018-02-02T10:26:40Z</time>
      </trkpt>
      <trkpt lat="45.31953" lon="5.76434">
        <ele>1619</ele>
        <time>2018-02-02T10:26:45Z</time>
      </trkpt>
      <trkpt lat="45.31952" lon="5.76431">
        <ele>1620</ele>
        <time>2018-02-02T10:26:50Z</time>
      </trkpt>
      <trkpt lat="45.31951" lon="5.76427">
        <ele>1617</ele>
        <time>2018-02-02T10:26:55Z</time>
      </trkpt>
      <trkpt lat="45.3195" lon="5.76424">
        <ele>1620.8</ele>
        <time>2018-02-02T10:27:00Z</time>
      </trkpt>
      <trkpt lat="45.31949" lon="5.76421">
        <ele>1622.2</ele>
        <time>2018-02-02T10:27:05Z</time>
      </trkpt>
      <trkpt lat="45.31948" lon="5.76417">
        <ele>1622</ele>
        <time>2018-02-02T10:27:10Z</time>
      </trkpt>
      <trkpt lat="45.31948" lon="5.76414">
        <ele>1623</ele>
        <time>2018-02-02T10:27:15Z</time>
      </trkpt>
      <trkpt lat="45.31947" lon="5.7641">
        <ele>1623.8</ele>
        <time>2018-02-02T10:27:20Z</time>
      </trkpt>
      <trkpt lat="45.31945" lon="5.76408">
        <ele>1622.8</ele>
        <time>2018-02-02T10:27:25Z</time>
      </trkpt>
      <trkpt lat="45.31944" lon="5.76406">
        <ele>1624.2</ele>
        <time>2018-02-02T10:27:30Z</time>
      </trkpt>
      <trkpt lat="45.31942" lon="5.76404">
        <ele>1625.2</ele>
        <time>2018-02-02T10:27:35Z</time>
      </trkpt>
      <trkpt lat="45.31941" lon="5.76401">
        <ele>1623</ele>
        <time>2018-02-02T10:27:40Z</time>
      </trkpt>
      <trkpt lat="45.3194" lon="5.76398">
        <ele>1622.4</ele>
        <time>2018-02-02T10:27:45Z</time>
      </trkpt>
      <trkpt lat="45.31939" lon="5.76395">
        <ele>1622</ele>
        <time>2018-02-02T10:27:50Z</time>
      </trkpt>
      <trkpt lat="45.31938" lon="5.76393">
        <ele>1625.4</ele>
        <time>2018-02-02T10:27:55Z</time>
      </trkpt>
      <trkpt lat="45.31938" lon="5.76389">
        <ele>1627.2</ele>
        <time>2018-02-02T10:28:00Z</time>
      </trkpt>
      <trkpt lat="45.31937" lon="5.76386">
        <ele>1629.4</ele>
        <time>2018-02-02T10:28:05Z</time>
      </trkpt>
      <trkpt lat="45.31936" lon="5.76383">
        <ele>1629.2</ele>
        <time>2018-02-02T10:28:10Z</time>
      </trkpt>
      <trkpt lat="45.31935" lon="5.76381">
        <ele>1628.2</ele>
        <time>2018-02-02T10:28:15Z</time>
      </trkpt>
      <trkpt lat="45.31934" lon="5.76378">
        <ele>1629.6</ele>
        <time>2018-02-02T10:28:20Z</time>
      </trkpt>
      <trkpt lat="45.31932" lon="5.76376">
        <ele>1629.2</ele>
        <time>2018-02-02T10:28:25Z</time>
      </trkpt>
      <trkpt lat="45.31931" lon="5.76373">
        <ele>1630.4</ele>
        <time>2018-02-02T10:28:30Z</time>
      </trkpt>
      <trkpt lat="45.31929" lon="5.76371">
        <ele>1634.4</ele>
        <time>2018-02-02T10:28:35Z</time>
      </trkpt>
      <trkpt lat="45.31928" lon="5.76368">
        <ele>1634.6</ele>
        <time>2018-02-02T10:28:40Z</time>
      </trkpt>
      <trkpt lat="45.31928" lon="5.76366">
        <ele>1631.6</ele>
        <time>2018-02-02T10:28:55Z</time>
      </trkpt>
      <trkpt lat="45.31928" lon="5.76366">
        <ele>1631.4</ele>
        <time>2018-02-02T10:29:00Z</time>
      </trkpt>
      <trkpt lat="45.3193" lon="5.76368">
        <ele>1636.2</ele>
        <time>2018-02-02T10:29:05Z</time>
      </trkpt>
      <trkpt lat="45.31933" lon="5.76369">
        <ele>1635.2</ele>
        <time>2018-02-02T10:29:10Z</time>
      </trkpt>
      <trkpt lat="45.31934" lon="5.7637">
        <ele>1634.8</ele>
        <time>2018-02-02T10:29:15Z</time>
      </trkpt>
      <trkpt lat="45.31935" lon="5.7637">
        <ele>1637</ele>
        <time>2018-02-02T10:29:25Z</time>
      </trkpt>
      <trkpt lat="45.31937" lon="5.76371">
        <ele>1639.6</ele>
        <time>2018-02-02T10:29:30Z</time>
      </trkpt>
      <trkpt lat="45.3194" lon="5.76371">
        <ele>1638.8</ele>
        <time>2018-02-02T10:29:35Z</time>
      </trkpt>
      <trkpt lat="45.31943" lon="5.76371">
        <ele>1638.6</ele>
        <time>2018-02-02T10:29:40Z</time>
      </trkpt>
      <trkpt lat="45.31945" lon="5.76372">
        <ele>1640.6</ele>
        <time>2018-02-02T10:29:45Z</time>
      </trkpt>
      <trkpt lat="45.31947" lon="5.76374">
        <ele>1640.2</ele>
        <time>2018-02-02T10:29:50Z</time>
      </trkpt>
      <trkpt lat="45.31949" lon="5.76375">
        <ele>1641.6</ele>
        <time>2018-02-02T10:29:55Z</time>
      </trkpt>
      <trkpt lat="45.31951" lon="5.76377">
        <ele>1639.6</ele>
        <time>2018-02-02T10:30:00Z</time>
      </trkpt>
      <trkpt lat="45.31954" lon="5.76378">
        <ele>1641.4</ele>
        <time>2018-02-02T10:30:05Z</time>
      </trkpt>
      <trkpt lat="45.31956" lon="5.76379">
        <ele>1641.4</ele>
        <time>2018-02-02T10:30:10Z</time>
      </trkpt>
      <trkpt lat="45.31958" lon="5.7638">
        <ele>1642.6</ele>
        <time>2018-02-02T10:30:15Z</time>
      </trkpt>
      <trkpt lat="45.31958" lon="5.76381">
        <ele>1643.4</ele>
        <time>2018-02-02T10:30:25Z</time>
      </trkpt>
      <trkpt lat="45.31959" lon="5.76381">
        <ele>1647.2</ele>
        <time>2018-02-02T10:30:30Z</time>
      </trkpt>
      <trkpt lat="45.31959" lon="5.7638">
        <ele>1645.4</ele>
        <time>2018-02-02T10:30:45Z</time>
      </trkpt>
      <trkpt lat="45.31959" lon="5.76379">
        <ele>1646.4</ele>
        <time>2018-02-02T10:30:50Z</time>
      </trkpt>
      <trkpt lat="45.31958" lon="5.76378">
        <ele>1646</ele>
        <time>2018-02-02T10:31:15Z</time>
      </trkpt>
      <trkpt lat="45.31958" lon="5.76378">
        <ele>1646</ele>
        <time>2018-02-02T10:31:20Z</time>
      </trkpt>
      <trkpt lat="45.31957" lon="5.76376">
        <ele>1645.2</ele>
        <time>2018-02-02T10:31:25Z</time>
      </trkpt>
      <trkpt lat="45.31955" lon="5.76372">
        <ele>1645.8</ele>
        <time>2018-02-02T10:31:30Z</time>
      </trkpt>
      <trkpt lat="45.31954" lon="5.76368">
        <ele>1645.4</ele>
        <time>2018-02-02T10:31:35Z</time>
      </trkpt>
      <trkpt lat="45.31954" lon="5.76367">
        <ele>1646.6</ele>
        <time>2018-02-02T10:31:40Z</time>
      </trkpt>
      <trkpt lat="45.31955" lon="5.76366">
        <ele>1645.8</ele>
        <time>2018-02-02T10:31:45Z</time>
      </trkpt>
      <trkpt lat="45.31955" lon="5.76367">
        <ele>1649.6</ele>
        <time>2018-02-02T10:31:55Z</time>
      </trkpt>
      <trkpt lat="45.31957" lon="5.76367">
        <ele>1648.4</ele>
        <time>2018-02-02T10:32:00Z</time>
      </trkpt>
      <trkpt lat="45.31959" lon="5.76367">
        <ele>1649</ele>
        <time>2018-02-02T10:32:05Z</time>
      </trkpt>
      <trkpt lat="45.31961" lon="5.76366">
        <ele>1651.2</ele>
        <time>2018-02-02T10:32:30Z</time>
      </trkpt>
      <trkpt lat="45.31961" lon="5.76365">
        <ele>1649.4</ele>
        <time>2018-02-02T10:32:40Z</time>
      </trkpt>
      <trkpt lat="45.3196" lon="5.76365">
        <ele>1651.2</ele>
        <time>2018-02-02T10:33:00Z</time>
      </trkpt>
      <trkpt lat="45.3196" lon="5.76362">
        <ele>1652.2</ele>
        <time>2018-02-02T10:33:05Z</time>
      </trkpt>
      <trkpt lat="45.3196" lon="5.76359">
        <ele>1651.4</ele>
        <time>2018-02-02T10:33:10Z</time>
      </trkpt>
      <trkpt lat="45.3196" lon="5.76357">
        <ele>1653.8</ele>
        <time>2018-02-02T10:33:15Z</time>
      </trkpt>
      <trkpt lat="45.3196" lon="5.76355">
        <ele>1652.6</ele>
        <time>2018-02-02T10:33:20Z</time>
      </trkpt>
      <trkpt lat="45.31959" lon="5.76354">
        <ele>1653.4</ele>
        <time>2018-02-02T10:33:25Z</time>
      </trkpt>
      <trkpt lat="45.31958" lon="5.76351">
        <ele>1653.8</ele>
        <time>2018-02-02T10:33:30Z</time>
      </trkpt>
      <trkpt lat="45.31958" lon="5.76349">
        <ele>1653.2</ele>
        <time>2018-02-02T10:33:35Z</time>
      </trkpt>
      <trkpt lat="45.31961" lon="5.76342">
        <ele>1659.4</ele>
        <time>2018-02-02T10:34:15Z</time>
      </trkpt>
      <trkpt lat="45.3196" lon="5.7634">
        <ele>1661.2</ele>
        <time>2018-02-02T10:34:20Z</time>
      </trkpt>
      <trkpt lat="45.31959" lon="5.76338">
        <ele>1662.8</ele>
        <time>2018-02-02T10:34:25Z</time>
      </trkpt>
      <trkpt lat="45.31959" lon="5.76337">
        <ele>1663.2</ele>
        <time>2018-02-02T10:34:35Z</time>
      </trkpt>
      <trkpt lat="45.3196" lon="5.76336">
        <ele>1661.6</ele>
        <time>2018-02-02T10:34:40Z</time>
      </trkpt>
      <trkpt lat="45.31961" lon="5.76335">
        <ele>1662.4</ele>
        <time>2018-02-02T10:34:45Z</time>
      </trkpt>
      <trkpt lat="45.3196" lon="5.76332">
        <ele>1664.4</ele>
        <time>2018-02-02T10:34:50Z</time>
      </trkpt>
      <trkpt lat="45.3196" lon="5.7633">
        <ele>1664.8</ele>
        <time>2018-02-02T10:34:55Z</time>
      </trkpt>
      <trkpt lat="45.3196" lon="5.76328">
        <ele>1665.8</ele>
        <time>2018-02-02T10:35:00Z</time>
      </trkpt>
      <trkpt lat="45.3196" lon="5.76328">
        <ele>1666</ele>
        <time>2018-02-02T10:35:05Z</time>
      </trkpt>
      <trkpt lat="45.31961" lon="5.76328">
        <ele>1666.2</ele>
        <time>2018-02-02T10:35:10Z</time>
      </trkpt>
      <trkpt lat="45.31963" lon="5.76329">
        <ele>1664.8</ele>
        <time>2018-02-02T10:35:15Z</time>
      </trkpt>
      <trkpt lat="45.31965" lon="5.76329">
        <ele>1664.8</ele>
        <time>2018-02-02T10:35:20Z</time>
      </trkpt>
      <trkpt lat="45.31967" lon="5.76329">
        <ele>1666.4</ele>
        <time>2018-02-02T10:35:25Z</time>
      </trkpt>
      <trkpt lat="45.31969" lon="5.76329">
        <ele>1668.2</ele>
        <time>2018-02-02T10:35:30Z</time>
      </trkpt>
      <trkpt lat="45.3197" lon="5.76329">
        <ele>1668.6</ele>
        <time>2018-02-02T10:35:35Z</time>
      </trkpt>
      <trkpt lat="45.3197" lon="5.76327">
        <ele>1670.8</ele>
        <time>2018-02-02T10:35:40Z</time>
      </trkpt>
      <trkpt lat="45.31968" lon="5.76325">
        <ele>1671.6</ele>
        <time>2018-02-02T10:35:45Z</time>
      </trkpt>
      <trkpt lat="45.31967" lon="5.76323">
        <ele>1672</ele>
        <time>2018-02-02T10:35:50Z</time>
      </trkpt>
      <trkpt lat="45.31966" lon="5.7632">
        <ele>1675.2</ele>
        <time>2018-02-02T10:35:55Z</time>
      </trkpt>
      <trkpt lat="45.31965" lon="5.76317">
        <ele>1672.2</ele>
        <time>2018-02-02T10:36:00Z</time>
      </trkpt>
      <trkpt lat="45.31965" lon="5.76314">
        <ele>1672.4</ele>
        <time>2018-02-02T10:36:05Z</time>
      </trkpt>
      <trkpt lat="45.31965" lon="5.76309">
        <ele>1669</ele>
        <time>2018-02-02T10:36:21Z</time>
      </trkpt>
      <trkpt lat="45.31968" lon="5.76312">
        <ele>1675.6</ele>
        <time>2018-02-02T10:37:01Z</time>
      </trkpt>
      <trkpt lat="45.31971" lon="5.76313">
        <ele>1677.6</ele>
        <time>2018-02-02T10:37:06Z</time>
      </trkpt>
      <trkpt lat="45.31974" lon="5.76313">
        <ele>1675.6</ele>
        <time>2018-02-02T10:37:11Z</time>
      </trkpt>
      <trkpt lat="45.31974" lon="5.76312">
        <ele>1679</ele>
        <time>2018-02-02T10:37:16Z</time>
      </trkpt>
      <trkpt lat="45.31973" lon="5.7631">
        <ele>1675.8</ele>
        <time>2018-02-02T10:37:21Z</time>
      </trkpt>
      <trkpt lat="45.31972" lon="5.76308">
        <ele>1676.8</ele>
        <time>2018-02-02T10:37:26Z</time>
      </trkpt>
      <trkpt lat="45.31971" lon="5.76305">
        <ele>1679.4</ele>
        <time>2018-02-02T10:37:31Z</time>
      </trkpt>
      <trkpt lat="45.3197" lon="5.76301">
        <ele>1679.4</ele>
        <time>2018-02-02T10:37:36Z</time>
      </trkpt>
      <trkpt lat="45.3197" lon="5.76299">
        <ele>1680</ele>
        <time>2018-02-02T10:37:41Z</time>
      </trkpt>
      <trkpt lat="45.31971" lon="5.76298">
        <ele>1684</ele>
        <time>2018-02-02T10:37:46Z</time>
      </trkpt>
      <trkpt lat="45.31972" lon="5.76297">
        <ele>1683.8</ele>
        <time>2018-02-02T10:37:51Z</time>
      </trkpt>
      <trkpt lat="45.31974" lon="5.76297">
        <ele>1683.4</ele>
        <time>2018-02-02T10:37:56Z</time>
      </trkpt>
      <trkpt lat="45.31976" lon="5.76296">
        <ele>1682</ele>
        <time>2018-02-02T10:38:01Z</time>
      </trkpt>
      <trkpt lat="45.31978" lon="5.76296">
        <ele>1683.6</ele>
        <time>2018-02-02T10:38:06Z</time>
      </trkpt>
      <trkpt lat="45.31979" lon="5.76292">
        <ele>1683.4</ele>
        <time>2018-02-02T10:38:21Z</time>
      </trkpt>
      <trkpt lat="45.3198" lon="5.7629">
        <ele>1687.6</ele>
        <time>2018-02-02T10:38:46Z</time>
      </trkpt>
      <trkpt lat="45.31983" lon="5.76291">
        <ele>1689.8</ele>
        <time>2018-02-02T10:38:51Z</time>
      </trkpt>
      <trkpt lat="45.31985" lon="5.76291">
        <ele>1687</ele>
        <time>2018-02-02T10:38:56Z</time>
      </trkpt>
      <trkpt lat="45.31988" lon="5.76292">
        <ele>1692.8</ele>
        <time>2018-02-02T10:39:01Z</time>
      </trkpt>
      <trkpt lat="45.3199" lon="5.76293">
        <ele>1692</ele>
        <time>2018-02-02T10:39:06Z</time>
      </trkpt>
      <trkpt lat="45.31993" lon="5.76294">
        <ele>1691.2</ele>
        <time>2018-02-02T10:39:11Z</time>
      </trkpt>
      <trkpt lat="45.31995" lon="5.76295">
        <ele>1692.2</ele>
        <time>2018-02-02T10:39:16Z</time>
      </trkpt>
      <trkpt lat="45.31997" lon="5.76295">
        <ele>1691.6</ele>
        <time>2018-02-02T10:39:21Z</time>
      </trkpt>
      <trkpt lat="45.32" lon="5.76295">
        <ele>1693</ele>
        <time>2018-02-02T10:39:26Z</time>
      </trkpt>
      <trkpt lat="45.32002" lon="5.76296">
        <ele>1696.2</ele>
        <time>2018-02-02T10:39:31Z</time>
      </trkpt>
      <trkpt lat="45.32004" lon="5.76296">
        <ele>1693.6</ele>
        <time>2018-02-02T10:39:36Z</time>
      </trkpt>
      <trkpt lat="45.32005" lon="5.76296">
        <ele>1694</ele>
        <time>2018-02-02T10:39:41Z</time>
      </trkpt>
      <trkpt lat="45.32007" lon="5.76296">
        <ele>1693.8</ele>
        <time>2018-02-02T10:39:46Z</time>
      </trkpt>
      <trkpt lat="45.32008" lon="5.76296">
        <ele>1695.2</ele>
        <time>2018-02-02T10:39:51Z</time>
      </trkpt>
      <trkpt lat="45.32009" lon="5.76297">
        <ele>1698.6</ele>
        <time>2018-02-02T10:39:56Z</time>
      </trkpt>
      <trkpt lat="45.32011" lon="5.76299">
        <ele>1697.6</ele>
        <time>2018-02-02T10:40:01Z</time>
      </trkpt>
      <trkpt lat="45.32012" lon="5.76301">
        <ele>1697.6</ele>
        <time>2018-02-02T10:40:06Z</time>
      </trkpt>
      <trkpt lat="45.32015" lon="5.76302">
        <ele>1697.6</ele>
        <time>2018-02-02T10:40:11Z</time>
      </trkpt>
      <trkpt lat="45.32018" lon="5.76304">
        <ele>1704.4</ele>
        <time>2018-02-02T10:40:16Z</time>
      </trkpt>
      <trkpt lat="45.32018" lon="5.76303">
        <ele>1702.2</ele>
        <time>2018-02-02T10:41:06Z</time>
      </trkpt>
      <trkpt lat="45.32019" lon="5.76305">
        <ele>1701.2</ele>
        <time>2018-02-02T10:41:11Z</time>
      </trkpt>
      <trkpt lat="45.32021" lon="5.76306">
        <ele>1700</ele>
        <time>2018-02-02T10:41:16Z</time>
      </trkpt>
      <trkpt lat="45.32023" lon="5.76308">
        <ele>1700.2</ele>
        <time>2018-02-02T10:41:21Z</time>
      </trkpt>
      <trkpt lat="45.32025" lon="5.76309">
        <ele>1701.6</ele>
        <time>2018-02-02T10:41:26Z</time>
      </trkpt>
      <trkpt lat="45.32027" lon="5.7631">
        <ele>1706.4</ele>
        <time>2018-02-02T10:41:31Z</time>
      </trkpt>
      <trkpt lat="45.32029" lon="5.76311">
        <ele>1706.6</ele>
        <time>2018-02-02T10:41:36Z</time>
      </trkpt>
      <trkpt lat="45.32031" lon="5.76312">
        <ele>1707.4</ele>
        <time>2018-02-02T10:41:41Z</time>
      </trkpt>
      <trkpt lat="45.32033" lon="5.76314">
        <ele>1708.6</ele>
        <time>2018-02-02T10:41:47Z</time>
      </trkpt>
      <trkpt lat="45.32035" lon="5.76316">
        <ele>1711.6</ele>
        <time>2018-02-02T10:41:52Z</time>
      </trkpt>
      <trkpt lat="45.32037" lon="5.76317">
        <ele>1713.8</ele>
        <time>2018-02-02T10:41:57Z</time>
      </trkpt>
      <trkpt lat="45.32039" lon="5.76319">
        <ele>1711.8</ele>
        <time>2018-02-02T10:42:02Z</time>
      </trkpt>
      <trkpt lat="45.3204" lon="5.7632">
        <ele>1711.8</ele>
        <time>2018-02-02T10:42:07Z</time>
      </trkpt>
      <trkpt lat="45.32042" lon="5.76321">
        <ele>1712.6</ele>
        <time>2018-02-02T10:42:12Z</time>
      </trkpt>
      <trkpt lat="45.32042" lon="5.76321">
        <ele>1712.6</ele>
        <time>2018-02-02T10:42:17Z</time>
      </trkpt>
      <trkpt lat="45.32044" lon="5.76322">
        <ele>1712</ele>
        <time>2018-02-02T10:42:22Z</time>
      </trkpt>
      <trkpt lat="45.32046" lon="5.76324">
        <ele>1712</ele>
        <time>2018-02-02T10:42:27Z</time>
      </trkpt>
      <trkpt lat="45.32048" lon="5.76326">
        <ele>1716.2</ele>
        <time>2018-02-02T10:42:32Z</time>
      </trkpt>
      <trkpt lat="45.3205" lon="5.76328">
        <ele>1715</ele>
        <time>2018-02-02T10:42:37Z</time>
      </trkpt>
      <trkpt lat="45.32053" lon="5.7633">
        <ele>1715.8</ele>
        <time>2018-02-02T10:42:42Z</time>
      </trkpt>
      <trkpt lat="45.32055" lon="5.76331">
        <ele>1714.2</ele>
        <time>2018-02-02T10:42:47Z</time>
      </trkpt>
      <trkpt lat="45.32057" lon="5.76331">
        <ele>1714.6</ele>
        <time>2018-02-02T10:42:52Z</time>
      </trkpt>
      <trkpt lat="45.32059" lon="5.7633">
        <ele>1714.2</ele>
        <time>2018-02-02T10:42:57Z</time>
      </trkpt>
      <trkpt lat="45.32058" lon="5.76328">
        <ele>1713.6</ele>
        <time>2018-02-02T10:43:02Z</time>
      </trkpt>
      <trkpt lat="45.32058" lon="5.76325">
        <ele>1716.4</ele>
        <time>2018-02-02T10:43:07Z</time>
      </trkpt>
      <trkpt lat="45.32057" lon="5.76322">
        <ele>1715.4</ele>
        <time>2018-02-02T10:43:12Z</time>
      </trkpt>
      <trkpt lat="45.32057" lon="5.7632">
        <ele>1716.6</ele>
        <time>2018-02-02T10:43:17Z</time>
      </trkpt>
      <trkpt lat="45.32057" lon="5.76317">
        <ele>1717.4</ele>
        <time>2018-02-02T10:43:22Z</time>
      </trkpt>
      <trkpt lat="45.32056" lon="5.76314">
        <ele>1721.8</ele>
        <time>2018-02-02T10:43:27Z</time>
      </trkpt>
      <trkpt lat="45.32056" lon="5.76311">
        <ele>1722.6</ele>
        <time>2018-02-02T10:43:32Z</time>
      </trkpt>
      <trkpt lat="45.32056" lon="5.76308">
        <ele>1721.4</ele>
        <time>2018-02-02T10:43:37Z</time>
      </trkpt>
      <trkpt lat="45.32056" lon="5.76305">
        <ele>1723.4</ele>
        <time>2018-02-02T10:43:42Z</time>
      </trkpt>
      <trkpt lat="45.32056" lon="5.76301">
        <ele>1722.8</ele>
        <time>2018-02-02T10:43:47Z</time>
      </trkpt>
      <trkpt lat="45.32056" lon="5.76297">
        <ele>1723.8</ele>
        <time>2018-02-02T10:43:52Z</time>
      </trkpt>
      <trkpt lat="45.32056" lon="5.76294">
        <ele>1725.6</ele>
        <time>2018-02-02T10:43:57Z</time>
      </trkpt>
      <trkpt lat="45.32055" lon="5.76291">
        <ele>1723.6</ele>
        <time>2018-02-02T10:44:02Z</time>
      </trkpt>
      <trkpt lat="45.32055" lon="5.76287">
        <ele>1722.8</ele>
        <time>2018-02-02T10:44:07Z</time>
      </trkpt>
      <trkpt lat="45.32054" lon="5.76284">
        <ele>1723.2</ele>
        <time>2018-02-02T10:44:12Z</time>
      </trkpt>
      <trkpt lat="45.32054" lon="5.76281">
        <ele>1727</ele>
        <time>2018-02-02T10:44:17Z</time>
      </trkpt>
      <trkpt lat="45.32054" lon="5.76277">
        <ele>1728.6</ele>
        <time>2018-02-02T10:44:22Z</time>
      </trkpt>
      <trkpt lat="45.32053" lon="5.76274">
        <ele>1728.4</ele>
        <time>2018-02-02T10:44:27Z</time>
      </trkpt>
      <trkpt lat="45.32053" lon="5.7627">
        <ele>1727.2</ele>
        <time>2018-02-02T10:44:32Z</time>
      </trkpt>
      <trkpt lat="45.32053" lon="5.76267">
        <ele>1729.6</ele>
        <time>2018-02-02T10:44:37Z</time>
      </trkpt>
      <trkpt lat="45.32052" lon="5.76263">
        <ele>1726.8</ele>
        <time>2018-02-02T10:44:42Z</time>
      </trkpt>
      <trkpt lat="45.32052" lon="5.76259">
        <ele>1730.6</ele>
        <time>2018-02-02T10:44:47Z</time>
      </trkpt>
      <trkpt lat="45.32051" lon="5.76255">
        <ele>1730</ele>
        <time>2018-02-02T10:44:52Z</time>
      </trkpt>
      <trkpt lat="45.3205" lon="5.76251">
        <ele>1733.8</ele>
        <time>2018-02-02T10:44:57Z</time>
      </trkpt>
      <trkpt lat="45.32049" lon="5.76247">
        <ele>1731.8</ele>
        <time>2018-02-02T10:45:02Z</time>
      </trkpt>
      <trkpt lat="45.32048" lon="5.76244">
        <ele>1730.6</ele>
        <time>2018-02-02T10:45:07Z</time>
      </trkpt>
      <trkpt lat="45.32047" lon="5.7624">
        <ele>1730.6</ele>
        <time>2018-02-02T10:45:12Z</time>
      </trkpt>
      <trkpt lat="45.32046" lon="5.76236">
        <ele>1731</ele>
        <time>2018-02-02T10:45:17Z</time>
      </trkpt>
      <trkpt lat="45.32045" lon="5.76232">
        <ele>1731.4</ele>
        <time>2018-02-02T10:45:22Z</time>
      </trkpt>
      <trkpt lat="45.32043" lon="5.76229">
        <ele>1732.6</ele>
        <time>2018-02-02T10:45:27Z</time>
      </trkpt>
      <trkpt lat="45.32042" lon="5.76226">
        <ele>1730.8</ele>
        <time>2018-02-02T10:45:32Z</time>
      </trkpt>
      <trkpt lat="45.32041" lon="5.76223">
        <ele>1736.4</ele>
        <time>2018-02-02T10:45:37Z</time>
      </trkpt>
      <trkpt lat="45.3204" lon="5.76219">
        <ele>1732.4</ele>
        <time>2018-02-02T10:45:42Z</time>
      </trkpt>
      <trkpt lat="45.32039" lon="5.76216">
        <ele>1732</ele>
        <time>2018-02-02T10:45:47Z</time>
      </trkpt>
      <trkpt lat="45.32037" lon="5.76213">
        <ele>1733.6</ele>
        <time>2018-02-02T10:45:52Z</time>
      </trkpt>
      <trkpt lat="45.32036" lon="5.7621">
        <ele>1731.2</ele>
        <time>2018-02-02T10:45:57Z</time>
      </trkpt>
      <trkpt lat="45.32034" lon="5.76208">
        <ele>1735</ele>
        <time>2018-02-02T10:46:02Z</time>
      </trkpt>
      <trkpt lat="45.32033" lon="5.76205">
        <ele>1735</ele>
        <time>2018-02-02T10:46:07Z</time>
      </trkpt>
      <trkpt lat="45.32032" lon="5.76204">
        <ele>1736.6</ele>
        <time>2018-02-02T10:46:12Z</time>
      </trkpt>
      <trkpt lat="45.32033" lon="5.76203">
        <ele>1736.6</ele>
        <time>2018-02-02T10:46:17Z</time>
      </trkpt>
      <trkpt lat="45.32034" lon="5.76203">
        <ele>1735.6</ele>
        <time>2018-02-02T10:46:22Z</time>
      </trkpt>
      <trkpt lat="45.32034" lon="5.76204">
        <ele>1735.8</ele>
        <time>2018-02-02T10:46:27Z</time>
      </trkpt>
      <trkpt lat="45.32035" lon="5.76204">
        <ele>1735.6</ele>
        <time>2018-02-02T10:46:32Z</time>
      </trkpt>
      <trkpt lat="45.32036" lon="5.76204">
        <ele>1736.8</ele>
        <time>2018-02-02T10:46:47Z</time>
      </trkpt>
      <trkpt lat="45.32035" lon="5.76201">
        <ele>1739.4</ele>
        <time>2018-02-02T10:46:52Z</time>
      </trkpt>
      <trkpt lat="45.32034" lon="5.76199">
        <ele>1739.2</ele>
        <time>2018-02-02T10:46:57Z</time>
      </trkpt>
      <trkpt lat="45.32034" lon="5.76198">
        <ele>1738.4</ele>
        <time>2018-02-02T10:47:07Z</time>
      </trkpt>
      <trkpt lat="45.32033" lon="5.76197">
        <ele>1736.6</ele>
        <time>2018-02-02T10:47:12Z</time>
      </trkpt>
      <trkpt lat="45.32032" lon="5.76195">
        <ele>1737.4</ele>
        <time>2018-02-02T10:47:17Z</time>
      </trkpt>
      <trkpt lat="45.3203" lon="5.76193">
        <ele>1735.4</ele>
        <time>2018-02-02T10:47:22Z</time>
      </trkpt>
      <trkpt lat="45.32029" lon="5.76192">
        <ele>1737</ele>
        <time>2018-02-02T10:47:27Z</time>
      </trkpt>
      <trkpt lat="45.32027" lon="5.76188">
        <ele>1735.6</ele>
        <time>2018-02-02T10:47:32Z</time>
      </trkpt>
      <trkpt lat="45.32025" lon="5.76184">
        <ele>1738</ele>
        <time>2018-02-02T10:47:37Z</time>
      </trkpt>
      <trkpt lat="45.32024" lon="5.76181">
        <ele>1740.6</ele>
        <time>2018-02-02T10:47:42Z</time>
      </trkpt>
      <trkpt lat="45.32023" lon="5.76177">
        <ele>1738.6</ele>
        <time>2018-02-02T10:47:47Z</time>
      </trkpt>
      <trkpt lat="45.32022" lon="5.76174">
        <ele>1739</ele>
        <time>2018-02-02T10:47:52Z</time>
      </trkpt>
      <trkpt lat="45.3202" lon="5.76171">
        <ele>1742.4</ele>
        <time>2018-02-02T10:47:57Z</time>
      </trkpt>
      <trkpt lat="45.32019" lon="5.76167">
        <ele>1741.4</ele>
        <time>2018-02-02T10:48:02Z</time>
      </trkpt>
      <trkpt lat="45.32017" lon="5.76163">
        <ele>1743.6</ele>
        <time>2018-02-02T10:48:07Z</time>
      </trkpt>
      <trkpt lat="45.32015" lon="5.7616">
        <ele>1744</ele>
        <time>2018-02-02T10:48:12Z</time>
      </trkpt>
      <trkpt lat="45.32014" lon="5.76156">
        <ele>1743.2</ele>
        <time>2018-02-02T10:48:17Z</time>
      </trkpt>
      <trkpt lat="45.32013" lon="5.76153">
        <ele>1747</ele>
        <time>2018-02-02T10:48:22Z</time>
      </trkpt>
      <trkpt lat="45.32012" lon="5.7615">
        <ele>1745.2</ele>
        <time>2018-02-02T10:48:27Z</time>
      </trkpt>
      <trkpt lat="45.32012" lon="5.7615">
        <ele>1746.4</ele>
        <time>2018-02-02T10:48:32Z</time>
      </trkpt>
      <trkpt lat="45.3201" lon="5.76147">
        <ele>1747</ele>
        <time>2018-02-02T10:48:37Z</time>
      </trkpt>
      <trkpt lat="45.32009" lon="5.76143">
        <ele>1744.6</ele>
        <time>2018-02-02T10:48:42Z</time>
      </trkpt>
      <trkpt lat="45.32007" lon="5.76139">
        <ele>1748</ele>
        <time>2018-02-02T10:48:47Z</time>
      </trkpt>
      <trkpt lat="45.32005" lon="5.76133">
        <ele>1745.4</ele>
        <time>2018-02-02T10:48:52Z</time>
      </trkpt>
      <trkpt lat="45.32004" lon="5.76128">
        <ele>1745.8</ele>
        <time>2018-02-02T10:48:57Z</time>
      </trkpt>
      <trkpt lat="45.32002" lon="5.76123">
        <ele>1746</ele>
        <time>2018-02-02T10:49:02Z</time>
      </trkpt>
      <trkpt lat="45.32001" lon="5.76119">
        <ele>1742.6</ele>
        <time>2018-02-02T10:49:07Z</time>
      </trkpt>
      <trkpt lat="45.32001" lon="5.76118">
        <ele>1744</ele>
        <time>2018-02-02T10:49:22Z</time>
      </trkpt>
      <trkpt lat="45.32001" lon="5.76115">
        <ele>1741.2</ele>
        <time>2018-02-02T10:49:27Z</time>
      </trkpt>
      <trkpt lat="45.32" lon="5.76109">
        <ele>1743.6</ele>
        <time>2018-02-02T10:49:32Z</time>
      </trkpt>
      <trkpt lat="45.32" lon="5.76109">
        <ele>1744</ele>
        <time>2018-02-02T10:49:37Z</time>
      </trkpt>
      <trkpt lat="45.31999" lon="5.76104">
        <ele>1744.4</ele>
        <time>2018-02-02T10:49:42Z</time>
      </trkpt>
      <trkpt lat="45.31999" lon="5.76097">
        <ele>1744.4</ele>
        <time>2018-02-02T10:49:47Z</time>
      </trkpt>
      <trkpt lat="45.31999" lon="5.7609">
        <ele>1743.4</ele>
        <time>2018-02-02T10:49:52Z</time>
      </trkpt>
      <trkpt lat="45.32" lon="5.7608">
        <ele>1744.2</ele>
        <time>2018-02-02T10:49:57Z</time>
      </trkpt>
      <trkpt lat="45.32002" lon="5.76073">
        <ele>1744</ele>
        <time>2018-02-02T10:50:02Z</time>
      </trkpt>
      <trkpt lat="45.32005" lon="5.76066">
        <ele>1743.2</ele>
        <time>2018-02-02T10:50:07Z</time>
      </trkpt>
      <trkpt lat="45.32007" lon="5.76062">
        <ele>1742.4</ele>
        <time>2018-02-02T10:50:12Z</time>
      </trkpt>
      <trkpt lat="45.3201" lon="5.76056">
        <ele>1742.8</ele>
        <time>2018-02-02T10:50:17Z</time>
      </trkpt>
      <trkpt lat="45.32015" lon="5.76045">
        <ele>1741</ele>
        <time>2018-02-02T10:50:22Z</time>
      </trkpt>
      <trkpt lat="45.32022" lon="5.76026">
        <ele>1736.4</ele>
        <time>2018-02-02T10:50:27Z</time>
      </trkpt>
      <trkpt lat="45.32032" lon="5.75995">
        <ele>1731.2</ele>
        <time>2018-02-02T10:50:32Z</time>
      </trkpt>
      <trkpt lat="45.32041" lon="5.75967">
        <ele>1722.8</ele>
        <time>2018-02-02T10:50:37Z</time>
      </trkpt>
      <trkpt lat="45.32049" lon="5.75952">
        <ele>1717</ele>
        <time>2018-02-02T10:50:42Z</time>
      </trkpt>
      <trkpt lat="45.32044" lon="5.75934">
        <ele>1713</ele>
        <time>2018-02-02T10:50:47Z</time>
      </trkpt>
      <trkpt lat="45.32029" lon="5.75919">
        <ele>1711.8</ele>
        <time>2018-02-02T10:50:52Z</time>
      </trkpt>
      <trkpt lat="45.32021" lon="5.75889">
        <ele>1697.8</ele>
        <time>2018-02-02T10:50:57Z</time>
      </trkpt>
      <trkpt lat="45.32006" lon="5.75851">
        <ele>1686.4</ele>
        <time>2018-02-02T10:51:02Z</time>
      </trkpt>
      <trkpt lat="45.31996" lon="5.75824">
        <ele>1680</ele>
        <time>2018-02-02T10:51:07Z</time>
      </trkpt>
      <trkpt lat="45.31993" lon="5.75818">
        <ele>1679.2</ele>
        <time>2018-02-02T10:51:12Z</time>
      </trkpt>
      <trkpt lat="45.31993" lon="5.75817">
        <ele>1676</ele>
        <time>2018-02-02T10:51:27Z</time>
      </trkpt>
      <trkpt lat="45.31993" lon="5.75815">
        <ele>1674.2</ele>
        <time>2018-02-02T10:51:32Z</time>
      </trkpt>
      <trkpt lat="45.31993" lon="5.75807">
        <ele>1674.2</ele>
        <time>2018-02-02T10:51:37Z</time>
      </trkpt>
      <trkpt lat="45.31988" lon="5.75801">
        <ele>1672</ele>
        <time>2018-02-02T10:51:42Z</time>
      </trkpt>
      <trkpt lat="45.31984" lon="5.75796">
        <ele>1671.6</ele>
        <time>2018-02-02T10:51:47Z</time>
      </trkpt>
      <trkpt lat="45.3198" lon="5.7579">
        <ele>1671.8</ele>
        <time>2018-02-02T10:51:52Z</time>
      </trkpt>
      <trkpt lat="45.31976" lon="5.75784">
        <ele>1670.8</ele>
        <time>2018-02-02T10:51:57Z</time>
      </trkpt>
      <trkpt lat="45.31973" lon="5.75778">
        <ele>1672</ele>
        <time>2018-02-02T10:52:02Z</time>
      </trkpt>
      <trkpt lat="45.31971" lon="5.75771">
        <ele>1674.4</ele>
        <time>2018-02-02T10:52:07Z</time>
      </trkpt>
      <trkpt lat="45.31972" lon="5.75769">
        <ele>1674.2</ele>
        <time>2018-02-02T10:52:12Z</time>
      </trkpt>
      <trkpt lat="45.31969" lon="5.75765">
        <ele>1673.4</ele>
        <time>2018-02-02T10:52:17Z</time>
      </trkpt>
      <trkpt lat="45.31967" lon="5.75758">
        <ele>1671.4</ele>
        <time>2018-02-02T10:52:22Z</time>
      </trkpt>
      <trkpt lat="45.31964" lon="5.75753">
        <ele>1674.4</ele>
        <time>2018-02-02T10:52:27Z</time>
      </trkpt>
      <trkpt lat="45.31961" lon="5.75746">
        <ele>1672.2</ele>
        <time>2018-02-02T10:52:32Z</time>
      </trkpt>
      <trkpt lat="45.31958" lon="5.75741">
        <ele>1669.8</ele>
        <time>2018-02-02T10:52:37Z</time>
      </trkpt>
      <trkpt lat="45.31956" lon="5.75738">
        <ele>1672</ele>
        <time>2018-02-02T10:52:42Z</time>
      </trkpt>
      <trkpt lat="45.31953" lon="5.75734">
        <ele>1671.4</ele>
        <time>2018-02-02T10:52:47Z</time>
      </trkpt>
      <trkpt lat="45.31948" lon="5.75731">
        <ele>1670.4</ele>
        <time>2018-02-02T10:52:52Z</time>
      </trkpt>
      <trkpt lat="45.31944" lon="5.75731">
        <ele>1672.4</ele>
        <time>2018-02-02T10:52:57Z</time>
      </trkpt>
      <trkpt lat="45.3194" lon="5.7573">
        <ele>1670.2</ele>
        <time>2018-02-02T10:53:02Z</time>
      </trkpt>
      <trkpt lat="45.31935" lon="5.75727">
        <ele>1671.4</ele>
        <time>2018-02-02T10:53:07Z</time>
      </trkpt>
      <trkpt lat="45.3193" lon="5.75725">
        <ele>1672</ele>
        <time>2018-02-02T10:53:12Z</time>
      </trkpt>
      <trkpt lat="45.31925" lon="5.75722">
        <ele>1672.8</ele>
        <time>2018-02-02T10:53:17Z</time>
      </trkpt>
      <trkpt lat="45.3192" lon="5.75718">
        <ele>1671.6</ele>
        <time>2018-02-02T10:53:22Z</time>
      </trkpt>
      <trkpt lat="45.31916" lon="5.75712">
        <ele>1674.6</ele>
        <time>2018-02-02T10:53:27Z</time>
      </trkpt>
      <trkpt lat="45.31914" lon="5.75705">
        <ele>1672.8</ele>
        <time>2018-02-02T10:53:32Z</time>
      </trkpt>
      <trkpt lat="45.31911" lon="5.75698">
        <ele>1671</ele>
        <time>2018-02-02T10:53:37Z</time>
      </trkpt>
      <trkpt lat="45.3191" lon="5.75691">
        <ele>1672.2</ele>
        <time>2018-02-02T10:53:42Z</time>
      </trkpt>
      <trkpt lat="45.31909" lon="5.75688">
        <ele>1673.2</ele>
        <time>2018-02-02T10:53:47Z</time>
      </trkpt>
      <trkpt lat="45.31907" lon="5.75681">
        <ele>1672.8</ele>
        <time>2018-02-02T10:53:52Z</time>
      </trkpt>
      <trkpt lat="45.31906" lon="5.75674">
        <ele>1673.8</ele>
        <time>2018-02-02T10:53:57Z</time>
      </trkpt>
      <trkpt lat="45.31905" lon="5.75666">
        <ele>1673</ele>
        <time>2018-02-02T10:54:02Z</time>
      </trkpt>
      <trkpt lat="45.31904" lon="5.75659">
        <ele>1672.4</ele>
        <time>2018-02-02T10:54:07Z</time>
      </trkpt>
      <trkpt lat="45.31903" lon="5.75652">
        <ele>1673</ele>
        <time>2018-02-02T10:54:12Z</time>
      </trkpt>
      <trkpt lat="45.31902" lon="5.75646">
        <ele>1676</ele>
        <time>2018-02-02T10:54:17Z</time>
      </trkpt>
      <trkpt lat="45.319" lon="5.7564">
        <ele>1676.8</ele>
        <time>2018-02-02T10:54:22Z</time>
      </trkpt>
      <trkpt lat="45.31898" lon="5.75635">
        <ele>1675.2</ele>
        <time>2018-02-02T10:54:27Z</time>
      </trkpt>
      <trkpt lat="45.31897" lon="5.7563">
        <ele>1672.2</ele>
        <time>2018-02-02T10:54:32Z</time>
      </trkpt>
      <trkpt lat="45.31895" lon="5.75625">
        <ele>1674</ele>
        <time>2018-02-02T10:54:37Z</time>
      </trkpt>
      <trkpt lat="45.31893" lon="5.7562">
        <ele>1676.4</ele>
        <time>2018-02-02T10:54:42Z</time>
      </trkpt>
      <trkpt lat="45.31891" lon="5.75615">
        <ele>1677.6</ele>
        <time>2018-02-02T10:54:47Z</time>
      </trkpt>
      <trkpt lat="45.31889" lon="5.75609">
        <ele>1675</ele>
        <time>2018-02-02T10:54:52Z</time>
      </trkpt>
      <trkpt lat="45.31888" lon="5.75604">
        <ele>1677.6</ele>
        <time>2018-02-02T10:54:57Z</time>
      </trkpt>
      <trkpt lat="45.31886" lon="5.75599">
        <ele>1676.8</ele>
        <time>2018-02-02T10:55:02Z</time>
      </trkpt>
      <trkpt lat="45.31885" lon="5.75594">
        <ele>1676.6</ele>
        <time>2018-02-02T10:55:07Z</time>
      </trkpt>
      <trkpt lat="45.31883" lon="5.75589">
        <ele>1680</ele>
        <time>2018-02-02T10:55:12Z</time>
      </trkpt>
      <trkpt lat="45.31882" lon="5.75585">
        <ele>1679.6</ele>
        <time>2018-02-02T10:55:17Z</time>
      </trkpt>
      <trkpt lat="45.3188" lon="5.7558">
        <ele>1679.6</ele>
        <time>2018-02-02T10:55:22Z</time>
      </trkpt>
      <trkpt lat="45.31878" lon="5.75575">
        <ele>1681.6</ele>
        <time>2018-02-02T10:55:27Z</time>
      </trkpt>
      <trkpt lat="45.31877" lon="5.75571">
        <ele>1680.8</ele>
        <time>2018-02-02T10:55:32Z</time>
      </trkpt>
      <trkpt lat="45.31876" lon="5.75565">
        <ele>1681.4</ele>
        <time>2018-02-02T10:55:38Z</time>
      </trkpt>
      <trkpt lat="45.31874" lon="5.75561">
        <ele>1681.4</ele>
        <time>2018-02-02T10:55:43Z</time>
      </trkpt>
      <trkpt lat="45.31873" lon="5.75556">
        <ele>1681.4</ele>
        <time>2018-02-02T10:55:48Z</time>
      </trkpt>
      <trkpt lat="45.31872" lon="5.75552">
        <ele>1685.2</ele>
        <time>2018-02-02T10:55:53Z</time>
      </trkpt>
      <trkpt lat="45.31871" lon="5.75547">
        <ele>1685.2</ele>
        <time>2018-02-02T10:55:58Z</time>
      </trkpt>
      <trkpt lat="45.3187" lon="5.75542">
        <ele>1682.6</ele>
        <time>2018-02-02T10:56:03Z</time>
      </trkpt>
      <trkpt lat="45.31869" lon="5.75538">
        <ele>1684.8</ele>
        <time>2018-02-02T10:56:08Z</time>
      </trkpt>
      <trkpt lat="45.31868" lon="5.75534">
        <ele>1686</ele>
        <time>2018-02-02T10:56:13Z</time>
      </trkpt>
      <trkpt lat="45.31867" lon="5.75529">
        <ele>1687</ele>
        <time>2018-02-02T10:56:18Z</time>
      </trkpt>
      <trkpt lat="45.31866" lon="5.75524">
        <ele>1684.6</ele>
        <time>2018-02-02T10:56:23Z</time>
      </trkpt>
      <trkpt lat="45.31865" lon="5.75519">
        <ele>1687.2</ele>
        <time>2018-02-02T10:56:28Z</time>
      </trkpt>
      <trkpt lat="45.31864" lon="5.75515">
        <ele>1686.6</ele>
        <time>2018-02-02T10:56:33Z</time>
      </trkpt>
      <trkpt lat="45.31863" lon="5.7551">
        <ele>1688.4</ele>
        <time>2018-02-02T10:56:38Z</time>
      </trkpt>
      <trkpt lat="45.31862" lon="5.75506">
        <ele>1689.4</ele>
        <time>2018-02-02T10:56:43Z</time>
      </trkpt>
      <trkpt lat="45.31861" lon="5.75501">
        <ele>1690.6</ele>
        <time>2018-02-02T10:56:48Z</time>
      </trkpt>
      <trkpt lat="45.3186" lon="5.75497">
        <ele>1690</ele>
        <time>2018-02-02T10:56:53Z</time>
      </trkpt>
      <trkpt lat="45.31859" lon="5.75492">
        <ele>1688.8</ele>
        <time>2018-02-02T10:56:58Z</time>
      </trkpt>
      <trkpt lat="45.31857" lon="5.75488">
        <ele>1686.8</ele>
        <time>2018-02-02T10:57:03Z</time>
      </trkpt>
      <trkpt lat="45.31855" lon="5.75484">
        <ele>1692</ele>
        <time>2018-02-02T10:57:08Z</time>
      </trkpt>
      <trkpt lat="45.31854" lon="5.7548">
        <ele>1693.2</ele>
        <time>2018-02-02T10:57:13Z</time>
      </trkpt>
      <trkpt lat="45.31852" lon="5.75476">
        <ele>1692.8</ele>
        <time>2018-02-02T10:57:18Z</time>
      </trkpt>
      <trkpt lat="45.3185" lon="5.75472">
        <ele>1693.8</ele>
        <time>2018-02-02T10:57:23Z</time>
      </trkpt>
      <trkpt lat="45.31849" lon="5.75467">
        <ele>1692.8</ele>
        <time>2018-02-02T10:57:28Z</time>
      </trkpt>
      <trkpt lat="45.31847" lon="5.75463">
        <ele>1693.8</ele>
        <time>2018-02-02T10:57:33Z</time>
      </trkpt>
      <trkpt lat="45.31846" lon="5.75459">
        <ele>1693.4</ele>
        <time>2018-02-02T10:57:38Z</time>
      </trkpt>
      <trkpt lat="45.31844" lon="5.75455">
        <ele>1695.2</ele>
        <time>2018-02-02T10:57:43Z</time>
      </trkpt>
      <trkpt lat="45.31843" lon="5.75451">
        <ele>1694.2</ele>
        <time>2018-02-02T10:57:48Z</time>
      </trkpt>
      <trkpt lat="45.31842" lon="5.75448">
        <ele>1694.8</ele>
        <time>2018-02-02T10:57:53Z</time>
      </trkpt>
      <trkpt lat="45.3184" lon="5.75445">
        <ele>1699.6</ele>
        <time>2018-02-02T10:57:58Z</time>
      </trkpt>
      <trkpt lat="45.31838" lon="5.75441">
        <ele>1697</ele>
        <time>2018-02-02T10:58:03Z</time>
      </trkpt>
      <trkpt lat="45.31836" lon="5.75438">
        <ele>1695.8</ele>
        <time>2018-02-02T10:58:08Z</time>
      </trkpt>
      <trkpt lat="45.31834" lon="5.75434">
        <ele>1698.4</ele>
        <time>2018-02-02T10:58:13Z</time>
      </trkpt>
      <trkpt lat="45.31832" lon="5.7543">
        <ele>1700</ele>
        <time>2018-02-02T10:58:18Z</time>
      </trkpt>
      <trkpt lat="45.3183" lon="5.75426">
        <ele>1699.2</ele>
        <time>2018-02-02T10:58:23Z</time>
      </trkpt>
      <trkpt lat="45.31829" lon="5.75423">
        <ele>1700.8</ele>
        <time>2018-02-02T10:58:28Z</time>
      </trkpt>
      <trkpt lat="45.31827" lon="5.7542">
        <ele>1702.8</ele>
        <time>2018-02-02T10:58:33Z</time>
      </trkpt>
      <trkpt lat="45.31826" lon="5.75417">
        <ele>1702.4</ele>
        <time>2018-02-02T10:58:38Z</time>
      </trkpt>
      <trkpt lat="45.31824" lon="5.75414">
        <ele>1705</ele>
        <time>2018-02-02T10:58:43Z</time>
      </trkpt>
      <trkpt lat="45.31822" lon="5.75411">
        <ele>1703.2</ele>
        <time>2018-02-02T10:58:48Z</time>
      </trkpt>
      <trkpt lat="45.31821" lon="5.75408">
        <ele>1703.6</ele>
        <time>2018-02-02T10:58:53Z</time>
      </trkpt>
      <trkpt lat="45.31819" lon="5.75405">
        <ele>1705.4</ele>
        <time>2018-02-02T10:58:58Z</time>
      </trkpt>
      <trkpt lat="45.31816" lon="5.75402">
        <ele>1707.2</ele>
        <time>2018-02-02T10:59:03Z</time>
      </trkpt>
      <trkpt lat="45.31814" lon="5.754">
        <ele>1706.2</ele>
        <time>2018-02-02T10:59:08Z</time>
      </trkpt>
      <trkpt lat="45.31812" lon="5.75397">
        <ele>1706.6</ele>
        <time>2018-02-02T10:59:13Z</time>
      </trkpt>
      <trkpt lat="45.3181" lon="5.75395">
        <ele>1709</ele>
        <time>2018-02-02T10:59:18Z</time>
      </trkpt>
      <trkpt lat="45.31808" lon="5.75392">
        <ele>1710.8</ele>
        <time>2018-02-02T10:59:23Z</time>
      </trkpt>
      <trkpt lat="45.31805" lon="5.7539">
        <ele>1711.4</ele>
        <time>2018-02-02T10:59:28Z</time>
      </trkpt>
      <trkpt lat="45.31803" lon="5.75387">
        <ele>1709.6</ele>
        <time>2018-02-02T10:59:33Z</time>
      </trkpt>
      <trkpt lat="45.31802" lon="5.75385">
        <ele>1713.6</ele>
        <time>2018-02-02T10:59:38Z</time>
      </trkpt>
      <trkpt lat="45.318" lon="5.75383">
        <ele>1712.4</ele>
        <time>2018-02-02T10:59:43Z</time>
      </trkpt>
      <trkpt lat="45.31799" lon="5.7538">
        <ele>1717.2</ele>
        <time>2018-02-02T10:59:48Z</time>
      </trkpt>
      <trkpt lat="45.31798" lon="5.75378">
        <ele>1716.6</ele>
        <time>2018-02-02T10:59:53Z</time>
      </trkpt>
      <trkpt lat="45.31797" lon="5.75376">
        <ele>1714.2</ele>
        <time>2018-02-02T10:59:58Z</time>
      </trkpt>
      <trkpt lat="45.31795" lon="5.75374">
        <ele>1714.8</ele>
        <time>2018-02-02T11:00:03Z</time>
      </trkpt>
      <trkpt lat="45.31794" lon="5.75372">
        <ele>1714.8</ele>
        <time>2018-02-02T11:00:08Z</time>
      </trkpt>
      <trkpt lat="45.31793" lon="5.75369">
        <ele>1715.2</ele>
        <time>2018-02-02T11:00:13Z</time>
      </trkpt>
      <trkpt lat="45.31792" lon="5.75367">
        <ele>1715.8</ele>
        <time>2018-02-02T11:00:18Z</time>
      </trkpt>
      <trkpt lat="45.31791" lon="5.75364">
        <ele>1716.2</ele>
        <time>2018-02-02T11:00:23Z</time>
      </trkpt>
      <trkpt lat="45.3179" lon="5.75362">
        <ele>1719.4</ele>
        <time>2018-02-02T11:00:28Z</time>
      </trkpt>
      <trkpt lat="45.31788" lon="5.75359">
        <ele>1720.6</ele>
        <time>2018-02-02T11:00:33Z</time>
      </trkpt>
      <trkpt lat="45.31786" lon="5.75356">
        <ele>1721.4</ele>
        <time>2018-02-02T11:00:38Z</time>
      </trkpt>
      <trkpt lat="45.31785" lon="5.75353">
        <ele>1720</ele>
        <time>2018-02-02T11:00:43Z</time>
      </trkpt>
      <trkpt lat="45.31784" lon="5.7535">
        <ele>1724.6</ele>
        <time>2018-02-02T11:00:48Z</time>
      </trkpt>
      <trkpt lat="45.31783" lon="5.75348">
        <ele>1722.8</ele>
        <time>2018-02-02T11:00:53Z</time>
      </trkpt>
      <trkpt lat="45.31783" lon="5.75345">
        <ele>1724.6</ele>
        <time>2018-02-02T11:00:58Z</time>
      </trkpt>
      <trkpt lat="45.31782" lon="5.75343">
        <ele>1724.2</ele>
        <time>2018-02-02T11:01:03Z</time>
      </trkpt>
      <trkpt lat="45.31783" lon="5.7534">
        <ele>1723.8</ele>
        <time>2018-02-02T11:01:08Z</time>
      </trkpt>
      <trkpt lat="45.31782" lon="5.75336">
        <ele>1723</ele>
        <time>2018-02-02T11:01:13Z</time>
      </trkpt>
      <trkpt lat="45.31783" lon="5.75334">
        <ele>1725.6</ele>
        <time>2018-02-02T11:01:18Z</time>
      </trkpt>
      <trkpt lat="45.31783" lon="5.75331">
        <ele>1724.4</ele>
        <time>2018-02-02T11:01:23Z</time>
      </trkpt>
      <trkpt lat="45.31784" lon="5.75328">
        <ele>1723.8</ele>
        <time>2018-02-02T11:01:28Z</time>
      </trkpt>
      <trkpt lat="45.31783" lon="5.75325">
        <ele>1723.6</ele>
        <time>2018-02-02T11:01:33Z</time>
      </trkpt>
      <trkpt lat="45.31783" lon="5.75321">
        <ele>1725.6</ele>
        <time>2018-02-02T11:01:38Z</time>
      </trkpt>
      <trkpt lat="45.31783" lon="5.75321">
        <ele>1722.8</ele>
        <time>2018-02-02T11:01:48Z</time>
      </trkpt>
      <trkpt lat="45.31782" lon="5.75318">
        <ele>1721</ele>
        <time>2018-02-02T11:01:53Z</time>
      </trkpt>
      <trkpt lat="45.31782" lon="5.75314">
        <ele>1720.2</ele>
        <time>2018-02-02T11:01:58Z</time>
      </trkpt>
      <trkpt lat="45.31781" lon="5.75313">
        <ele>1720.6</ele>
        <time>2018-02-02T11:02:03Z</time>
      </trkpt>
      <trkpt lat="45.3178" lon="5.75309">
        <ele>1718.6</ele>
        <time>2018-02-02T11:02:08Z</time>
      </trkpt>
      <trkpt lat="45.3178" lon="5.75306">
        <ele>1720.6</ele>
        <time>2018-02-02T11:02:13Z</time>
      </trkpt>
      <trkpt lat="45.31777" lon="5.75303">
        <ele>1723</ele>
        <time>2018-02-02T11:02:18Z</time>
      </trkpt>
      <trkpt lat="45.31774" lon="5.753">
        <ele>1723</ele>
        <time>2018-02-02T11:02:23Z</time>
      </trkpt>
      <trkpt lat="45.31771" lon="5.75297">
        <ele>1722.8</ele>
        <time>2018-02-02T11:02:28Z</time>
      </trkpt>
      <trkpt lat="45.31767" lon="5.75295">
        <ele>1725.2</ele>
        <time>2018-02-02T11:02:33Z</time>
      </trkpt>
      <trkpt lat="45.31763" lon="5.75293">
        <ele>1724.4</ele>
        <time>2018-02-02T11:02:38Z</time>
      </trkpt>
      <trkpt lat="45.31759" lon="5.7529">
        <ele>1724</ele>
        <time>2018-02-02T11:02:43Z</time>
      </trkpt>
      <trkpt lat="45.31755" lon="5.75288">
        <ele>1724.6</ele>
        <time>2018-02-02T11:02:48Z</time>
      </trkpt>
      <trkpt lat="45.31751" lon="5.75285">
        <ele>1724.2</ele>
        <time>2018-02-02T11:02:53Z</time>
      </trkpt>
      <trkpt lat="45.31746" lon="5.75283">
        <ele>1721.2</ele>
        <time>2018-02-02T11:02:58Z</time>
      </trkpt>
      <trkpt lat="45.31742" lon="5.75281">
        <ele>1724.8</ele>
        <time>2018-02-02T11:03:03Z</time>
      </trkpt>
      <trkpt lat="45.31737" lon="5.75279">
        <ele>1725.8</ele>
        <time>2018-02-02T11:03:08Z</time>
      </trkpt>
      <trkpt lat="45.31733" lon="5.75278">
        <ele>1725.4</ele>
        <time>2018-02-02T11:03:13Z</time>
      </trkpt>
      <trkpt lat="45.31729" lon="5.75276">
        <ele>1724.8</ele>
        <time>2018-02-02T11:03:18Z</time>
      </trkpt>
      <trkpt lat="45.31725" lon="5.75274">
        <ele>1726.8</ele>
        <time>2018-02-02T11:03:23Z</time>
      </trkpt>
      <trkpt lat="45.31721" lon="5.75272">
        <ele>1724.8</ele>
        <time>2018-02-02T11:03:28Z</time>
      </trkpt>
      <trkpt lat="45.31719" lon="5.75268">
        <ele>1724.4</ele>
        <time>2018-02-02T11:03:33Z</time>
      </trkpt>
      <trkpt lat="45.31718" lon="5.75267">
        <ele>1720.8</ele>
        <time>2018-02-02T11:03:58Z</time>
      </trkpt>
      <trkpt lat="45.31718" lon="5.75266">
        <ele>1719.6</ele>
        <time>2018-02-02T11:11:54Z</time>
      </trkpt>
      <trkpt lat="45.3172" lon="5.7526">
        <ele>1721.2</ele>
        <time>2018-02-02T11:14:14Z</time>
      </trkpt>
      <trkpt lat="45.31722" lon="5.75249">
        <ele>1721</ele>
        <time>2018-02-02T11:14:19Z</time>
      </trkpt>
      <trkpt lat="45.3172" lon="5.75237">
        <ele>1721</ele>
        <time>2018-02-02T11:14:24Z</time>
      </trkpt>
      <trkpt lat="45.3172" lon="5.75236">
        <ele>1717.6</ele>
        <time>2018-02-02T11:15:19Z</time>
      </trkpt>
      <trkpt lat="45.31726" lon="5.75226">
        <ele>1714.6</ele>
        <time>2018-02-02T11:15:24Z</time>
      </trkpt>
      <trkpt lat="45.31729" lon="5.752">
        <ele>1707.6</ele>
        <time>2018-02-02T11:15:29Z</time>
      </trkpt>
      <trkpt lat="45.31722" lon="5.75173">
        <ele>1693.6</ele>
        <time>2018-02-02T11:15:39Z</time>
      </trkpt>
      <trkpt lat="45.31729" lon="5.75165">
        <ele>1687.8</ele>
        <time>2018-02-02T11:15:59Z</time>
      </trkpt>
      <trkpt lat="45.31735" lon="5.75138">
        <ele>1673.8</ele>
        <time>2018-02-02T11:16:04Z</time>
      </trkpt>
      <trkpt lat="45.31742" lon="5.75118">
        <ele>1671.4</ele>
        <time>2018-02-02T11:16:09Z</time>
      </trkpt>
      <trkpt lat="45.31757" lon="5.751">
        <ele>1658.2</ele>
        <time>2018-02-02T11:16:14Z</time>
      </trkpt>
      <trkpt lat="45.31773" lon="5.75067">
        <ele>1647</ele>
        <time>2018-02-02T11:16:19Z</time>
      </trkpt>
      <trkpt lat="45.31774" lon="5.75025">
        <ele>1636.6</ele>
        <time>2018-02-02T11:16:24Z</time>
      </trkpt>
      <trkpt lat="45.31774" lon="5.74995">
        <ele>1624.4</ele>
        <time>2018-02-02T11:16:29Z</time>
      </trkpt>
      <trkpt lat="45.31775" lon="5.74981">
        <ele>1616.8</ele>
        <time>2018-02-02T11:16:34Z</time>
      </trkpt>
      <trkpt lat="45.31775" lon="5.74981">
        <ele>1612</ele>
        <time>2018-02-02T11:16:44Z</time>
      </trkpt>
      <trkpt lat="45.31776" lon="5.74982">
        <ele>1610.6</ele>
        <time>2018-02-02T11:16:49Z</time>
      </trkpt>
      <trkpt lat="45.31778" lon="5.74985">
        <ele>1609.4</ele>
        <time>2018-02-02T11:16:54Z</time>
      </trkpt>
      <trkpt lat="45.3178" lon="5.74987">
        <ele>1607.6</ele>
        <time>2018-02-02T11:16:59Z</time>
      </trkpt>
      <trkpt lat="45.31785" lon="5.74985">
        <ele>1602.8</ele>
        <time>2018-02-02T11:17:29Z</time>
      </trkpt>
      <trkpt lat="45.31802" lon="5.74989">
        <ele>1598.8</ele>
        <time>2018-02-02T11:17:34Z</time>
      </trkpt>
      <trkpt lat="45.31821" lon="5.7498">
        <ele>1589.8</ele>
        <time>2018-02-02T11:17:39Z</time>
      </trkpt>
      <trkpt lat="45.31848" lon="5.74978">
        <ele>1579.4</ele>
        <time>2018-02-02T11:17:44Z</time>
      </trkpt>
      <trkpt lat="45.31865" lon="5.74983">
        <ele>1569.8</ele>
        <time>2018-02-02T11:18:19Z</time>
      </trkpt>
      <trkpt lat="45.31883" lon="5.74979">
        <ele>1569</ele>
        <time>2018-02-02T11:18:24Z</time>
      </trkpt>
      <trkpt lat="45.31906" lon="5.74997">
        <ele>1564.2</ele>
        <time>2018-02-02T11:18:39Z</time>
      </trkpt>
      <trkpt lat="45.31923" lon="5.75013">
        <ele>1559.4</ele>
        <time>2018-02-02T11:18:44Z</time>
      </trkpt>
      <trkpt lat="45.31933" lon="5.75038">
        <ele>1558.4</ele>
        <time>2018-02-02T11:18:49Z</time>
      </trkpt>
      <trkpt lat="45.31947" lon="5.75046">
        <ele>1552.2</ele>
        <time>2018-02-02T11:18:54Z</time>
      </trkpt>
      <trkpt lat="45.31961" lon="5.75054">
        <ele>1551.4</ele>
        <time>2018-02-02T11:18:59Z</time>
      </trkpt>
      <trkpt lat="45.31982" lon="5.75066">
        <ele>1551.2</ele>
        <time>2018-02-02T11:19:04Z</time>
      </trkpt>
      <trkpt lat="45.31996" lon="5.75076">
        <ele>1549.4</ele>
        <time>2018-02-02T11:19:14Z</time>
      </trkpt>
      <trkpt lat="45.31996" lon="5.75076">
        <ele>1549.2</ele>
        <time>2018-02-02T11:19:19Z</time>
      </trkpt>
      <trkpt lat="45.31998" lon="5.75077">
        <ele>1549</ele>
        <time>2018-02-02T11:19:24Z</time>
      </trkpt>
      <trkpt lat="45.32004" lon="5.75084">
        <ele>1548.6</ele>
        <time>2018-02-02T11:19:29Z</time>
      </trkpt>
      <trkpt lat="45.32005" lon="5.75088">
        <ele>1546.8</ele>
        <time>2018-02-02T11:19:34Z</time>
      </trkpt>
      <trkpt lat="45.32009" lon="5.7509">
        <ele>1544.6</ele>
        <time>2018-02-02T11:19:39Z</time>
      </trkpt>
      <trkpt lat="45.32011" lon="5.75089">
        <ele>1537.6</ele>
        <time>2018-02-02T11:19:44Z</time>
      </trkpt>
      <trkpt lat="45.32021" lon="5.75099">
        <ele>1532.6</ele>
        <time>2018-02-02T11:19:49Z</time>
      </trkpt>
      <trkpt lat="45.32023" lon="5.75104">
        <ele>1529.8</ele>
        <time>2018-02-02T11:19:54Z</time>
      </trkpt>
      <trkpt lat="45.32026" lon="5.75107">
        <ele>1526.4</ele>
        <time>2018-02-02T11:19:59Z</time>
      </trkpt>
      <trkpt lat="45.32036" lon="5.75117">
        <ele>1518.8</ele>
        <time>2018-02-02T11:20:04Z</time>
      </trkpt>
      <trkpt lat="45.32052" lon="5.75123">
        <ele>1514.2</ele>
        <time>2018-02-02T11:20:09Z</time>
      </trkpt>
      <trkpt lat="45.32083" lon="5.75125">
        <ele>1505.4</ele>
        <time>2018-02-02T11:20:15Z</time>
      </trkpt>
      <trkpt lat="45.32109" lon="5.75125">
        <ele>1505.4</ele>
        <time>2018-02-02T11:20:21Z</time>
      </trkpt>
      <trkpt lat="45.32129" lon="5.75132">
        <ele>1501</ele>
        <time>2018-02-02T11:20:26Z</time>
      </trkpt>
      <trkpt lat="45.32155" lon="5.75141">
        <ele>1499.2</ele>
        <time>2018-02-02T11:20:31Z</time>
      </trkpt>
      <trkpt lat="45.32188" lon="5.75147">
        <ele>1496.6</ele>
        <time>2018-02-02T11:20:36Z</time>
      </trkpt>
      <trkpt lat="45.32223" lon="5.75136">
        <ele>1490.2</ele>
        <time>2018-02-02T11:20:41Z</time>
      </trkpt>
      <trkpt lat="45.32249" lon="5.75131">
        <ele>1491</ele>
        <time>2018-02-02T11:20:46Z</time>
      </trkpt>
      <trkpt lat="45.32268" lon="5.75134">
        <ele>1489</ele>
        <time>2018-02-02T11:20:51Z</time>
      </trkpt>
      <trkpt lat="45.32294" lon="5.75133">
        <ele>1488.8</ele>
        <time>2018-02-02T11:20:56Z</time>
      </trkpt>
      <trkpt lat="45.32299" lon="5.75128">
        <ele>1484</ele>
        <time>2018-02-02T11:21:01Z</time>
      </trkpt>
      <trkpt lat="45.32308" lon="5.75127">
        <ele>1480.2</ele>
        <time>2018-02-02T11:21:06Z</time>
      </trkpt>
      <trkpt lat="45.32316" lon="5.75135">
        <ele>1478.8</ele>
        <time>2018-02-02T11:21:11Z</time>
      </trkpt>
      <trkpt lat="45.32328" lon="5.75141">
        <ele>1473.2</ele>
        <time>2018-02-02T11:21:16Z</time>
      </trkpt>
      <trkpt lat="45.32332" lon="5.7515">
        <ele>1466.2</ele>
        <time>2018-02-02T11:21:26Z</time>
      </trkpt>
      <trkpt lat="45.32331" lon="5.75152">
        <ele>1455.2</ele>
        <time>2018-02-02T11:21:46Z</time>
      </trkpt>
      <trkpt lat="45.32332" lon="5.75152">
        <ele>1453.4</ele>
        <time>2018-02-02T11:21:51Z</time>
      </trkpt>
      <trkpt lat="45.32333" lon="5.75152">
        <ele>1451.8</ele>
        <time>2018-02-02T11:21:56Z</time>
      </trkpt>
      <trkpt lat="45.32335" lon="5.75157">
        <ele>1447.8</ele>
        <time>2018-02-02T11:22:06Z</time>
      </trkpt>
      <trkpt lat="45.32336" lon="5.75159">
        <ele>1446.8</ele>
        <time>2018-02-02T11:22:11Z</time>
      </trkpt>
      <trkpt lat="45.32337" lon="5.75163">
        <ele>1444.8</ele>
        <time>2018-02-02T11:22:16Z</time>
      </trkpt>
      <trkpt lat="45.32338" lon="5.75167">
        <ele>1443.6</ele>
        <time>2018-02-02T11:22:21Z</time>
      </trkpt>
      <trkpt lat="45.3234" lon="5.75168">
        <ele>1440</ele>
        <time>2018-02-02T11:22:26Z</time>
      </trkpt>
      <trkpt lat="45.32345" lon="5.7517">
        <ele>1440.4</ele>
        <time>2018-02-02T11:22:31Z</time>
      </trkpt>
      <trkpt lat="45.32347" lon="5.75171">
        <ele>1440.6</ele>
        <time>2018-02-02T11:22:36Z</time>
      </trkpt>
      <trkpt lat="45.32349" lon="5.75168">
        <ele>1439.6</ele>
        <time>2018-02-02T11:22:41Z</time>
      </trkpt>
      <trkpt lat="45.32354" lon="5.75165">
        <ele>1436.8</ele>
        <time>2018-02-02T11:22:46Z</time>
      </trkpt>
      <trkpt lat="45.32356" lon="5.75161">
        <ele>1434.6</ele>
        <time>2018-02-02T11:22:51Z</time>
      </trkpt>
      <trkpt lat="45.32359" lon="5.7516">
        <ele>1432.6</ele>
        <time>2018-02-02T11:22:56Z</time>
      </trkpt>
      <trkpt lat="45.32363" lon="5.75159">
        <ele>1429.4</ele>
        <time>2018-02-02T11:23:01Z</time>
      </trkpt>
      <trkpt lat="45.32368" lon="5.75156">
        <ele>1428.8</ele>
        <time>2018-02-02T11:23:06Z</time>
      </trkpt>
      <trkpt lat="45.32372" lon="5.75152">
        <ele>1428.4</ele>
        <time>2018-02-02T11:23:11Z</time>
      </trkpt>
      <trkpt lat="45.32377" lon="5.75145">
        <ele>1427.2</ele>
        <time>2018-02-02T11:23:16Z</time>
      </trkpt>
      <trkpt lat="45.32382" lon="5.75139">
        <ele>1425.4</ele>
        <time>2018-02-02T11:23:21Z</time>
      </trkpt>
      <trkpt lat="45.32388" lon="5.75136">
        <ele>1427.2</ele>
        <time>2018-02-02T11:23:26Z</time>
      </trkpt>
      <trkpt lat="45.3239" lon="5.75133">
        <ele>1422.8</ele>
        <time>2018-02-02T11:23:31Z</time>
      </trkpt>
      <trkpt lat="45.32393" lon="5.75133">
        <ele>1419</ele>
        <time>2018-02-02T11:23:36Z</time>
      </trkpt>
      <trkpt lat="45.32399" lon="5.75133">
        <ele>1420.8</ele>
        <time>2018-02-02T11:23:41Z</time>
      </trkpt>
      <trkpt lat="45.32401" lon="5.75132">
        <ele>1417.8</ele>
        <time>2018-02-02T11:23:46Z</time>
      </trkpt>
      <trkpt lat="45.32404" lon="5.75132">
        <ele>1418.4</ele>
        <time>2018-02-02T11:23:51Z</time>
      </trkpt>
      <trkpt lat="45.32406" lon="5.75131">
        <ele>1417.6</ele>
        <time>2018-02-02T11:23:56Z</time>
      </trkpt>
      <trkpt lat="45.32409" lon="5.75132">
        <ele>1418.2</ele>
        <time>2018-02-02T11:24:01Z</time>
      </trkpt>
      <trkpt lat="45.32412" lon="5.75133">
        <ele>1417.8</ele>
        <time>2018-02-02T11:24:06Z</time>
      </trkpt>
      <trkpt lat="45.32413" lon="5.75133">
        <ele>1418.2</ele>
        <time>2018-02-02T11:24:11Z</time>
      </trkpt>
      <trkpt lat="45.32416" lon="5.75134">
        <ele>1419.8</ele>
        <time>2018-02-02T11:24:16Z</time>
      </trkpt>
      <trkpt lat="45.32425" lon="5.75136">
        <ele>1417.8</ele>
        <time>2018-02-02T11:24:21Z</time>
      </trkpt>
      <trkpt lat="45.32443" lon="5.7515">
        <ele>1416.6</ele>
        <time>2018-02-02T11:24:26Z</time>
      </trkpt>
      <trkpt lat="45.3246" lon="5.75165">
        <ele>1413.6</ele>
        <time>2018-02-02T11:24:31Z</time>
      </trkpt>
      <trkpt lat="45.32465" lon="5.75168">
        <ele>1414.8</ele>
        <time>2018-02-02T11:24:36Z</time>
      </trkpt>
      <trkpt lat="45.32466" lon="5.75168">
        <ele>1416</ele>
        <time>2018-02-02T11:24:41Z</time>
      </trkpt>
      <trkpt lat="45.32467" lon="5.75171">
        <ele>1416.8</ele>
        <time>2018-02-02T11:24:46Z</time>
      </trkpt>
      <trkpt lat="45.32466" lon="5.75177">
        <ele>1415.6</ele>
        <time>2018-02-02T11:24:51Z</time>
      </trkpt>
      <trkpt lat="45.32468" lon="5.75194">
        <ele>1414</ele>
        <time>2018-02-02T11:24:56Z</time>
      </trkpt>
      <trkpt lat="45.3247" lon="5.75206">
        <ele>1407</ele>
        <time>2018-02-02T11:25:01Z</time>
      </trkpt>
      <trkpt lat="45.32481" lon="5.75215">
        <ele>1406.6</ele>
        <time>2018-02-02T11:25:06Z</time>
      </trkpt>
      <trkpt lat="45.32484" lon="5.75209">
        <ele>1409.2</ele>
        <time>2018-02-02T11:25:11Z</time>
      </trkpt>
      <trkpt lat="45.3249" lon="5.75207">
        <ele>1406.8</ele>
        <time>2018-02-02T11:25:16Z</time>
      </trkpt>
      <trkpt lat="45.32497" lon="5.75207">
        <ele>1405.8</ele>
        <time>2018-02-02T11:25:21Z</time>
      </trkpt>
      <trkpt lat="45.32511" lon="5.7521">
        <ele>1405.2</ele>
        <time>2018-02-02T11:25:26Z</time>
      </trkpt>
      <trkpt lat="45.32512" lon="5.7521">
        <ele>1405.2</ele>
        <time>2018-02-02T11:25:31Z</time>
      </trkpt>
      <trkpt lat="45.32512" lon="5.7521">
        <ele>1405.4</ele>
        <time>2018-02-02T11:25:41Z</time>
      </trkpt>
      <trkpt lat="45.32513" lon="5.7521">
        <ele>1407.4</ele>
        <time>2018-02-02T11:27:17Z</time>
      </trkpt>
      <trkpt lat="45.32514" lon="5.75211">
        <ele>1407.6</ele>
        <time>2018-02-02T11:28:22Z</time>
      </trkpt>
      <trkpt lat="45.32514" lon="5.75212">
        <ele>1407.2</ele>
        <time>2018-02-02T11:32:33Z</time>
      </trkpt>
      <trkpt lat="45.32515" lon="5.75211">
        <ele>1407.4</ele>
        <time>2018-02-02T11:35:18Z</time>
      </trkpt>
      <trkpt lat="45.32517" lon="5.7521">
        <ele>1407.4</ele>
        <time>2018-02-02T11:35:23Z</time>
      </trkpt>
      <trkpt lat="45.32518" lon="5.7521">
        <ele>1407.2</ele>
        <time>2018-02-02T11:35:28Z</time>
      </trkpt>
      <trkpt lat="45.32519" lon="5.75211">
        <ele>1407</ele>
        <time>2018-02-02T11:35:33Z</time>
      </trkpt>
      <trkpt lat="45.3252" lon="5.75212">
        <ele>1406.6</ele>
        <time>2018-02-02T11:35:38Z</time>
      </trkpt>
      <trkpt lat="45.3252" lon="5.75212">
        <ele>1406</ele>
        <time>2018-02-02T11:35:43Z</time>
      </trkpt>
      <trkpt lat="45.32521" lon="5.75213">
        <ele>1405.6</ele>
        <time>2018-02-02T11:35:48Z</time>
      </trkpt>
      <trkpt lat="45.32521" lon="5.75214">
        <ele>1404.4</ele>
        <time>2018-02-02T11:35:58Z</time>
      </trkpt>
      <trkpt lat="45.3252" lon="5.75215">
        <ele>1403.8</ele>
        <time>2018-02-02T11:36:03Z</time>
      </trkpt>
      <trkpt lat="45.32519" lon="5.75216">
        <ele>1403</ele>
        <time>2018-02-02T11:36:08Z</time>
      </trkpt>
      <trkpt lat="45.32519" lon="5.75217">
        <ele>1401.6</ele>
        <time>2018-02-02T11:36:23Z</time>
      </trkpt>
      <trkpt lat="45.32518" lon="5.75219">
        <ele>1401.2</ele>
        <time>2018-02-02T11:36:28Z</time>
      </trkpt>
      <trkpt lat="45.32517" lon="5.75221">
        <ele>1401</ele>
        <time>2018-02-02T11:36:33Z</time>
      </trkpt>
      <trkpt lat="45.32516" lon="5.75223">
        <ele>1400.6</ele>
        <time>2018-02-02T11:36:38Z</time>
      </trkpt>
      <trkpt lat="45.32515" lon="5.75226">
        <ele>1400.2</ele>
        <time>2018-02-02T11:36:43Z</time>
      </trkpt>
      <trkpt lat="45.32513" lon="5.75227">
        <ele>1399.6</ele>
        <time>2018-02-02T11:36:48Z</time>
      </trkpt>
      <trkpt lat="45.32512" lon="5.75229">
        <ele>1399.2</ele>
        <time>2018-02-02T11:36:53Z</time>
      </trkpt>
      <trkpt lat="45.32512" lon="5.7523">
        <ele>1398.8</ele>
        <time>2018-02-02T11:36:58Z</time>
      </trkpt>
      <trkpt lat="45.32511" lon="5.7523">
        <ele>1398.6</ele>
        <time>2018-02-02T11:37:03Z</time>
      </trkpt>
      <trkpt lat="45.3251" lon="5.75231">
        <ele>1398.6</ele>
        <time>2018-02-02T11:37:08Z</time>
      </trkpt>
      <trkpt lat="45.3251" lon="5.7523">
        <ele>1398.6</ele>
        <time>2018-02-02T11:37:13Z</time>
      </trkpt>
      <trkpt lat="45.3251" lon="5.75228">
        <ele>1398.4</ele>
        <time>2018-02-02T11:37:23Z</time>
      </trkpt>
      <trkpt lat="45.3251" lon="5.75227">
        <ele>1398.4</ele>
        <time>2018-02-02T11:37:28Z</time>
      </trkpt>
      <trkpt lat="45.3251" lon="5.75224">
        <ele>1397.8</ele>
        <time>2018-02-02T11:37:33Z</time>
      </trkpt>
      <trkpt lat="45.3251" lon="5.75224">
        <ele>1396.2</ele>
        <time>2018-02-02T11:37:48Z</time>
      </trkpt>
      <trkpt lat="45.32511" lon="5.75223">
        <ele>1396</ele>
        <time>2018-02-02T11:37:53Z</time>
      </trkpt>
      <trkpt lat="45.32511" lon="5.75223">
        <ele>1396</ele>
        <time>2018-02-02T11:37:58Z</time>
      </trkpt>
      <trkpt lat="45.32513" lon="5.75221">
        <ele>1395.8</ele>
        <time>2018-02-02T11:38:03Z</time>
      </trkpt>
      <trkpt lat="45.32513" lon="5.7522">
        <ele>1396</ele>
        <time>2018-02-02T11:38:08Z</time>
      </trkpt>
      <trkpt lat="45.32513" lon="5.75217">
        <ele>1395.8</ele>
        <time>2018-02-02T11:38:33Z</time>
      </trkpt>
      <trkpt lat="45.32512" lon="5.75217">
        <ele>1397</ele>
        <time>2018-02-02T11:38:43Z</time>
      </trkpt>
      <trkpt lat="45.32511" lon="5.75218">
        <ele>1397.2</ele>
        <time>2018-02-02T11:38:48Z</time>
      </trkpt>
      <trkpt lat="45.3251" lon="5.75218">
        <ele>1397.4</ele>
        <time>2018-02-02T11:38:53Z</time>
      </trkpt>
      <trkpt lat="45.3251" lon="5.75218">
        <ele>1395.8</ele>
        <time>2018-02-02T11:39:18Z</time>
      </trkpt>
      <trkpt lat="45.32509" lon="5.75222">
        <ele>1396.4</ele>
        <time>2018-02-02T11:39:23Z</time>
      </trkpt>
      <trkpt lat="45.3251" lon="5.75225">
        <ele>1396.2</ele>
        <time>2018-02-02T11:39:28Z</time>
      </trkpt>
      <trkpt lat="45.32511" lon="5.75229">
        <ele>1394.8</ele>
        <time>2018-02-02T11:39:33Z</time>
      </trkpt>
      <trkpt lat="45.3251" lon="5.75232">
        <ele>1394.6</ele>
        <time>2018-02-02T11:39:38Z</time>
      </trkpt>
      <trkpt lat="45.3251" lon="5.75235">
        <ele>1395.4</ele>
        <time>2018-02-02T11:39:43Z</time>
      </trkpt>
      <trkpt lat="45.32509" lon="5.75238">
        <ele>1395.6</ele>
        <time>2018-02-02T11:39:48Z</time>
      </trkpt>
      <trkpt lat="45.3251" lon="5.75241">
        <ele>1393</ele>
        <time>2018-02-02T11:39:53Z</time>
      </trkpt>
      <trkpt lat="45.32509" lon="5.75244">
        <ele>1395.2</ele>
        <time>2018-02-02T11:39:58Z</time>
      </trkpt>
      <trkpt lat="45.32508" lon="5.75247">
        <ele>1391</ele>
        <time>2018-02-02T11:40:03Z</time>
      </trkpt>
      <trkpt lat="45.32507" lon="5.7525">
        <ele>1391</ele>
        <time>2018-02-02T11:40:08Z</time>
      </trkpt>
      <trkpt lat="45.32505" lon="5.75254">
        <ele>1389.8</ele>
        <time>2018-02-02T11:40:13Z</time>
      </trkpt>
      <trkpt lat="45.32503" lon="5.75257">
        <ele>1392</ele>
        <time>2018-02-02T11:40:18Z</time>
      </trkpt>
      <trkpt lat="45.32503" lon="5.75259">
        <ele>1390.6</ele>
        <time>2018-02-02T11:40:23Z</time>
      </trkpt>
      <trkpt lat="45.325" lon="5.75261">
        <ele>1387.6</ele>
        <time>2018-02-02T11:40:28Z</time>
      </trkpt>
      <trkpt lat="45.32499" lon="5.75264">
        <ele>1389.2</ele>
        <time>2018-02-02T11:40:33Z</time>
      </trkpt>
      <trkpt lat="45.32499" lon="5.75267">
        <ele>1388.2</ele>
        <time>2018-02-02T11:40:38Z</time>
      </trkpt>
      <trkpt lat="45.325" lon="5.7527">
        <ele>1385</ele>
        <time>2018-02-02T11:40:43Z</time>
      </trkpt>
      <trkpt lat="45.32504" lon="5.75272">
        <ele>1388.8</ele>
        <time>2018-02-02T11:40:48Z</time>
      </trkpt>
      <trkpt lat="45.32506" lon="5.75275">
        <ele>1387.8</ele>
        <time>2018-02-02T11:40:53Z</time>
      </trkpt>
      <trkpt lat="45.32509" lon="5.75279">
        <ele>1388.2</ele>
        <time>2018-02-02T11:40:58Z</time>
      </trkpt>
      <trkpt lat="45.3251" lon="5.75281">
        <ele>1389</ele>
        <time>2018-02-02T11:41:03Z</time>
      </trkpt>
      <trkpt lat="45.3251" lon="5.75281">
        <ele>1387.2</ele>
        <time>2018-02-02T11:41:08Z</time>
      </trkpt>
      <trkpt lat="45.3251" lon="5.75283">
        <ele>1381.6</ele>
        <time>2018-02-02T11:41:13Z</time>
      </trkpt>
      <trkpt lat="45.32509" lon="5.75286">
        <ele>1386.6</ele>
        <time>2018-02-02T11:41:18Z</time>
      </trkpt>
      <trkpt lat="45.32509" lon="5.75289">
        <ele>1384.6</ele>
        <time>2018-02-02T11:41:23Z</time>
      </trkpt>
      <trkpt lat="45.32509" lon="5.75293">
        <ele>1386.8</ele>
        <time>2018-02-02T11:41:28Z</time>
      </trkpt>
      <trkpt lat="45.32509" lon="5.75297">
        <ele>1384.2</ele>
        <time>2018-02-02T11:41:33Z</time>
      </trkpt>
      <trkpt lat="45.32508" lon="5.75299">
        <ele>1384.2</ele>
        <time>2018-02-02T11:41:38Z</time>
      </trkpt>
      <trkpt lat="45.32509" lon="5.75301">
        <ele>1385.4</ele>
        <time>2018-02-02T11:41:43Z</time>
      </trkpt>
      <trkpt lat="45.32511" lon="5.75304">
        <ele>1386</ele>
        <time>2018-02-02T11:41:48Z</time>
      </trkpt>
      <trkpt lat="45.32513" lon="5.75308">
        <ele>1383.8</ele>
        <time>2018-02-02T11:41:53Z</time>
      </trkpt>
      <trkpt lat="45.32516" lon="5.7531">
        <ele>1384.4</ele>
        <time>2018-02-02T11:41:58Z</time>
      </trkpt>
      <trkpt lat="45.32522" lon="5.75309">
        <ele>1383.6</ele>
        <time>2018-02-02T11:42:03Z</time>
      </trkpt>
      <trkpt lat="45.32526" lon="5.75311">
        <ele>1384.4</ele>
        <time>2018-02-02T11:42:08Z</time>
      </trkpt>
      <trkpt lat="45.32527" lon="5.75313">
        <ele>1389.6</ele>
        <time>2018-02-02T11:42:13Z</time>
      </trkpt>
      <trkpt lat="45.32531" lon="5.75314">
        <ele>1391.2</ele>
        <time>2018-02-02T11:42:18Z</time>
      </trkpt>
      <trkpt lat="45.32538" lon="5.75315">
        <ele>1391.2</ele>
        <time>2018-02-02T11:42:23Z</time>
      </trkpt>
      <trkpt lat="45.3254" lon="5.75317">
        <ele>1394.4</ele>
        <time>2018-02-02T11:42:28Z</time>
      </trkpt>
      <trkpt lat="45.32541" lon="5.7532">
        <ele>1397.6</ele>
        <time>2018-02-02T11:42:33Z</time>
      </trkpt>
      <trkpt lat="45.32545" lon="5.75321">
        <ele>1401.6</ele>
        <time>2018-02-02T11:42:38Z</time>
      </trkpt>
      <trkpt lat="45.32546" lon="5.75323">
        <ele>1405</ele>
        <time>2018-02-02T11:42:43Z</time>
      </trkpt>
      <trkpt lat="45.32547" lon="5.75326">
        <ele>1406.8</ele>
        <time>2018-02-02T11:42:48Z</time>
      </trkpt>
      <trkpt lat="45.32547" lon="5.75328">
        <ele>1409.6</ele>
        <time>2018-02-02T11:42:53Z</time>
      </trkpt>
      <trkpt lat="45.32549" lon="5.7533">
        <ele>1411.2</ele>
        <time>2018-02-02T11:42:58Z</time>
      </trkpt>
      <trkpt lat="45.32551" lon="5.75332">
        <ele>1416.2</ele>
        <time>2018-02-02T11:43:03Z</time>
      </trkpt>
      <trkpt lat="45.32552" lon="5.75335">
        <ele>1416.2</ele>
        <time>2018-02-02T11:43:08Z</time>
      </trkpt>
      <trkpt lat="45.32554" lon="5.75338">
        <ele>1417.8</ele>
        <time>2018-02-02T11:43:13Z</time>
      </trkpt>
      <trkpt lat="45.32555" lon="5.75341">
        <ele>1417.6</ele>
        <time>2018-02-02T11:43:18Z</time>
      </trkpt>
      <trkpt lat="45.32556" lon="5.75343">
        <ele>1418.4</ele>
        <time>2018-02-02T11:43:23Z</time>
      </trkpt>
      <trkpt lat="45.32556" lon="5.75346">
        <ele>1421.2</ele>
        <time>2018-02-02T11:43:28Z</time>
      </trkpt>
      <trkpt lat="45.32556" lon="5.75349">
        <ele>1418.2</ele>
        <time>2018-02-02T11:43:33Z</time>
      </trkpt>
      <trkpt lat="45.32557" lon="5.75351">
        <ele>1418.2</ele>
        <time>2018-02-02T11:43:38Z</time>
      </trkpt>
      <trkpt lat="45.32558" lon="5.75354">
        <ele>1417.6</ele>
        <time>2018-02-02T11:43:43Z</time>
      </trkpt>
      <trkpt lat="45.32558" lon="5.75357">
        <ele>1416.2</ele>
        <time>2018-02-02T11:43:48Z</time>
      </trkpt>
      <trkpt lat="45.32558" lon="5.75359">
        <ele>1417.2</ele>
        <time>2018-02-02T11:43:53Z</time>
      </trkpt>
      <trkpt lat="45.32556" lon="5.75361">
        <ele>1417.2</ele>
        <time>2018-02-02T11:43:58Z</time>
      </trkpt>
      <trkpt lat="45.32557" lon="5.75363">
        <ele>1417</ele>
        <time>2018-02-02T11:44:03Z</time>
      </trkpt>
      <trkpt lat="45.32557" lon="5.75365">
        <ele>1416.8</ele>
        <time>2018-02-02T11:44:08Z</time>
      </trkpt>
      <trkpt lat="45.32557" lon="5.75367">
        <ele>1417.2</ele>
        <time>2018-02-02T11:44:13Z</time>
      </trkpt>
      <trkpt lat="45.32558" lon="5.7537">
        <ele>1421.4</ele>
        <time>2018-02-02T11:44:18Z</time>
      </trkpt>
      <trkpt lat="45.32557" lon="5.75373">
        <ele>1420.2</ele>
        <time>2018-02-02T11:44:23Z</time>
      </trkpt>
      <trkpt lat="45.32557" lon="5.75374">
        <ele>1420.2</ele>
        <time>2018-02-02T11:44:28Z</time>
      </trkpt>
      <trkpt lat="45.32558" lon="5.75377">
        <ele>1420.4</ele>
        <time>2018-02-02T11:44:34Z</time>
      </trkpt>
      <trkpt lat="45.3256" lon="5.75378">
        <ele>1422.6</ele>
        <time>2018-02-02T11:44:39Z</time>
      </trkpt>
      <trkpt lat="45.32561" lon="5.75381">
        <ele>1421.8</ele>
        <time>2018-02-02T11:44:44Z</time>
      </trkpt>
      <trkpt lat="45.32561" lon="5.75383">
        <ele>1422.4</ele>
        <time>2018-02-02T11:44:49Z</time>
      </trkpt>
      <trkpt lat="45.32563" lon="5.75385">
        <ele>1422.4</ele>
        <time>2018-02-02T11:44:54Z</time>
      </trkpt>
      <trkpt lat="45.32569" lon="5.75387">
        <ele>1424.4</ele>
        <time>2018-02-02T11:45:04Z</time>
      </trkpt>
      <trkpt lat="45.32573" lon="5.75389">
        <ele>1425.8</ele>
        <time>2018-02-02T11:45:09Z</time>
      </trkpt>
      <trkpt lat="45.32576" lon="5.75392">
        <ele>1426</ele>
        <time>2018-02-02T11:45:14Z</time>
      </trkpt>
      <trkpt lat="45.32577" lon="5.75394">
        <ele>1428.8</ele>
        <time>2018-02-02T11:45:19Z</time>
      </trkpt>
      <trkpt lat="45.32579" lon="5.75397">
        <ele>1430.6</ele>
        <time>2018-02-02T11:45:24Z</time>
      </trkpt>
      <trkpt lat="45.32579" lon="5.754">
        <ele>1432.8</ele>
        <time>2018-02-02T11:45:29Z</time>
      </trkpt>
      <trkpt lat="45.32579" lon="5.75402">
        <ele>1432</ele>
        <time>2018-02-02T11:45:34Z</time>
      </trkpt>
      <trkpt lat="45.3258" lon="5.75405">
        <ele>1436.2</ele>
        <time>2018-02-02T11:45:39Z</time>
      </trkpt>
      <trkpt lat="45.32582" lon="5.75407">
        <ele>1436.2</ele>
        <time>2018-02-02T11:45:44Z</time>
      </trkpt>
      <trkpt lat="45.32582" lon="5.75409">
        <ele>1437.2</ele>
        <time>2018-02-02T11:45:49Z</time>
      </trkpt>
      <trkpt lat="45.32584" lon="5.75413">
        <ele>1437.8</ele>
        <time>2018-02-02T11:45:54Z</time>
      </trkpt>
      <trkpt lat="45.32586" lon="5.75414">
        <ele>1435.6</ele>
        <time>2018-02-02T11:45:59Z</time>
      </trkpt>
      <trkpt lat="45.32588" lon="5.75417">
        <ele>1439.4</ele>
        <time>2018-02-02T11:46:04Z</time>
      </trkpt>
      <trkpt lat="45.32589" lon="5.75418">
        <ele>1440</ele>
        <time>2018-02-02T11:46:09Z</time>
      </trkpt>
      <trkpt lat="45.3259" lon="5.75419">
        <ele>1439.4</ele>
        <time>2018-02-02T11:46:14Z</time>
      </trkpt>
      <trkpt lat="45.3259" lon="5.7542">
        <ele>1435.4</ele>
        <time>2018-02-02T11:46:19Z</time>
      </trkpt>
      <trkpt lat="45.32592" lon="5.75421">
        <ele>1437.2</ele>
        <time>2018-02-02T11:46:24Z</time>
      </trkpt>
      <trkpt lat="45.32593" lon="5.75422">
        <ele>1439</ele>
        <time>2018-02-02T11:46:29Z</time>
      </trkpt>
      <trkpt lat="45.32594" lon="5.75423">
        <ele>1439.8</ele>
        <time>2018-02-02T11:46:34Z</time>
      </trkpt>
      <trkpt lat="45.32595" lon="5.75425">
        <ele>1441.6</ele>
        <time>2018-02-02T11:46:39Z</time>
      </trkpt>
      <trkpt lat="45.32596" lon="5.75426">
        <ele>1446.6</ele>
        <time>2018-02-02T11:46:44Z</time>
      </trkpt>
      <trkpt lat="45.32596" lon="5.75429">
        <ele>1447</ele>
        <time>2018-02-02T11:46:49Z</time>
      </trkpt>
      <trkpt lat="45.32598" lon="5.75432">
        <ele>1447.2</ele>
        <time>2018-02-02T11:46:54Z</time>
      </trkpt>
      <trkpt lat="45.326" lon="5.75435">
        <ele>1451.8</ele>
        <time>2018-02-02T11:46:59Z</time>
      </trkpt>
      <trkpt lat="45.326" lon="5.75438">
        <ele>1450.4</ele>
        <time>2018-02-02T11:47:04Z</time>
      </trkpt>
      <trkpt lat="45.32603" lon="5.75439">
        <ele>1447.4</ele>
        <time>2018-02-02T11:47:09Z</time>
      </trkpt>
      <trkpt lat="45.32607" lon="5.75441">
        <ele>1450.8</ele>
        <time>2018-02-02T11:47:14Z</time>
      </trkpt>
      <trkpt lat="45.32609" lon="5.75444">
        <ele>1451</ele>
        <time>2018-02-02T11:47:19Z</time>
      </trkpt>
      <trkpt lat="45.32611" lon="5.75446">
        <ele>1453.2</ele>
        <time>2018-02-02T11:47:24Z</time>
      </trkpt>
      <trkpt lat="45.32612" lon="5.75448">
        <ele>1452</ele>
        <time>2018-02-02T11:47:29Z</time>
      </trkpt>
      <trkpt lat="45.32613" lon="5.7545">
        <ele>1450.2</ele>
        <time>2018-02-02T11:47:34Z</time>
      </trkpt>
      <trkpt lat="45.32614" lon="5.75454">
        <ele>1453</ele>
        <time>2018-02-02T11:47:39Z</time>
      </trkpt>
      <trkpt lat="45.32616" lon="5.75457">
        <ele>1452.8</ele>
        <time>2018-02-02T11:47:44Z</time>
      </trkpt>
      <trkpt lat="45.32617" lon="5.75459">
        <ele>1453.2</ele>
        <time>2018-02-02T11:47:49Z</time>
      </trkpt>
      <trkpt lat="45.32618" lon="5.75462">
        <ele>1455.2</ele>
        <time>2018-02-02T11:47:54Z</time>
      </trkpt>
      <trkpt lat="45.32619" lon="5.75464">
        <ele>1454.2</ele>
        <time>2018-02-02T11:47:59Z</time>
      </trkpt>
      <trkpt lat="45.3262" lon="5.75468">
        <ele>1456.2</ele>
        <time>2018-02-02T11:48:04Z</time>
      </trkpt>
      <trkpt lat="45.3262" lon="5.75471">
        <ele>1456.6</ele>
        <time>2018-02-02T11:48:09Z</time>
      </trkpt>
      <trkpt lat="45.3262" lon="5.75474">
        <ele>1454.4</ele>
        <time>2018-02-02T11:48:14Z</time>
      </trkpt>
      <trkpt lat="45.32622" lon="5.75479">
        <ele>1456.4</ele>
        <time>2018-02-02T11:48:19Z</time>
      </trkpt>
      <trkpt lat="45.32623" lon="5.75484">
        <ele>1452.6</ele>
        <time>2018-02-02T11:48:24Z</time>
      </trkpt>
      <trkpt lat="45.32624" lon="5.75487">
        <ele>1453.6</ele>
        <time>2018-02-02T11:48:29Z</time>
      </trkpt>
      <trkpt lat="45.32625" lon="5.7549">
        <ele>1456.4</ele>
        <time>2018-02-02T11:48:34Z</time>
      </trkpt>
      <trkpt lat="45.32627" lon="5.75493">
        <ele>1455.2</ele>
        <time>2018-02-02T11:48:39Z</time>
      </trkpt>
      <trkpt lat="45.32628" lon="5.75497">
        <ele>1454.6</ele>
        <time>2018-02-02T11:48:44Z</time>
      </trkpt>
      <trkpt lat="45.3263" lon="5.755">
        <ele>1455.8</ele>
        <time>2018-02-02T11:48:49Z</time>
      </trkpt>
      <trkpt lat="45.32631" lon="5.75502">
        <ele>1455.4</ele>
        <time>2018-02-02T11:48:54Z</time>
      </trkpt>
      <trkpt lat="45.32633" lon="5.75504">
        <ele>1452.2</ele>
        <time>2018-02-02T11:48:59Z</time>
      </trkpt>
      <trkpt lat="45.32633" lon="5.75508">
        <ele>1457</ele>
        <time>2018-02-02T11:49:04Z</time>
      </trkpt>
      <trkpt lat="45.32635" lon="5.75512">
        <ele>1458.2</ele>
        <time>2018-02-02T11:49:09Z</time>
      </trkpt>
      <trkpt lat="45.32638" lon="5.75513">
        <ele>1457.4</ele>
        <time>2018-02-02T11:49:14Z</time>
      </trkpt>
      <trkpt lat="45.32641" lon="5.75515">
        <ele>1456.8</ele>
        <time>2018-02-02T11:49:19Z</time>
      </trkpt>
      <trkpt lat="45.32643" lon="5.75516">
        <ele>1456.4</ele>
        <time>2018-02-02T11:49:24Z</time>
      </trkpt>
      <trkpt lat="45.32646" lon="5.75517">
        <ele>1457.8</ele>
        <time>2018-02-02T11:49:29Z</time>
      </trkpt>
      <trkpt lat="45.32648" lon="5.75519">
        <ele>1460.4</ele>
        <time>2018-02-02T11:49:34Z</time>
      </trkpt>
      <trkpt lat="45.32651" lon="5.7552">
        <ele>1458.4</ele>
        <time>2018-02-02T11:49:39Z</time>
      </trkpt>
      <trkpt lat="45.32653" lon="5.75522">
        <ele>1462.8</ele>
        <time>2018-02-02T11:49:44Z</time>
      </trkpt>
      <trkpt lat="45.32654" lon="5.75523">
        <ele>1461.8</ele>
        <time>2018-02-02T11:49:49Z</time>
      </trkpt>
      <trkpt lat="45.32657" lon="5.75523">
        <ele>1460.4</ele>
        <time>2018-02-02T11:49:54Z</time>
      </trkpt>
      <trkpt lat="45.32661" lon="5.75523">
        <ele>1457.4</ele>
        <time>2018-02-02T11:49:59Z</time>
      </trkpt>
      <trkpt lat="45.32665" lon="5.75523">
        <ele>1459.4</ele>
        <time>2018-02-02T11:50:04Z</time>
      </trkpt>
      <trkpt lat="45.32669" lon="5.75523">
        <ele>1458.2</ele>
        <time>2018-02-02T11:50:09Z</time>
      </trkpt>
      <trkpt lat="45.32672" lon="5.75523">
        <ele>1459.4</ele>
        <time>2018-02-02T11:50:14Z</time>
      </trkpt>
      <trkpt lat="45.32675" lon="5.75524">
        <ele>1460</ele>
        <time>2018-02-02T11:50:19Z</time>
      </trkpt>
      <trkpt lat="45.32677" lon="5.75525">
        <ele>1458.2</ele>
        <time>2018-02-02T11:50:24Z</time>
      </trkpt>
      <trkpt lat="45.3268" lon="5.75525">
        <ele>1462.2</ele>
        <time>2018-02-02T11:50:29Z</time>
      </trkpt>
      <trkpt lat="45.32682" lon="5.75526">
        <ele>1463.6</ele>
        <time>2018-02-02T11:50:34Z</time>
      </trkpt>
      <trkpt lat="45.32683" lon="5.75528">
        <ele>1464.8</ele>
        <time>2018-02-02T11:50:39Z</time>
      </trkpt>
      <trkpt lat="45.32685" lon="5.75529">
        <ele>1465</ele>
        <time>2018-02-02T11:50:44Z</time>
      </trkpt>
      <trkpt lat="45.32688" lon="5.7553">
        <ele>1462.6</ele>
        <time>2018-02-02T11:50:49Z</time>
      </trkpt>
      <trkpt lat="45.3269" lon="5.7553">
        <ele>1462.2</ele>
        <time>2018-02-02T11:50:54Z</time>
      </trkpt>
      <trkpt lat="45.32694" lon="5.75529">
        <ele>1459.6</ele>
        <time>2018-02-02T11:50:59Z</time>
      </trkpt>
      <trkpt lat="45.32695" lon="5.75529">
        <ele>1461.4</ele>
        <time>2018-02-02T11:51:04Z</time>
      </trkpt>
      <trkpt lat="45.32696" lon="5.75529">
        <ele>1463.8</ele>
        <time>2018-02-02T11:51:19Z</time>
      </trkpt>
      <trkpt lat="45.32699" lon="5.75528">
        <ele>1463.6</ele>
        <time>2018-02-02T11:51:24Z</time>
      </trkpt>
      <trkpt lat="45.32702" lon="5.75528">
        <ele>1462.8</ele>
        <time>2018-02-02T11:51:29Z</time>
      </trkpt>
      <trkpt lat="45.32704" lon="5.75528">
        <ele>1465.2</ele>
        <time>2018-02-02T11:51:34Z</time>
      </trkpt>
      <trkpt lat="45.32706" lon="5.75529">
        <ele>1463.8</ele>
        <time>2018-02-02T11:51:39Z</time>
      </trkpt>
      <trkpt lat="45.32708" lon="5.75529">
        <ele>1465.6</ele>
        <time>2018-02-02T11:51:44Z</time>
      </trkpt>
      <trkpt lat="45.32709" lon="5.7553">
        <ele>1465.2</ele>
        <time>2018-02-02T11:51:49Z</time>
      </trkpt>
      <trkpt lat="45.32712" lon="5.75532">
        <ele>1469.8</ele>
        <time>2018-02-02T11:51:54Z</time>
      </trkpt>
      <trkpt lat="45.32714" lon="5.75534">
        <ele>1473.4</ele>
        <time>2018-02-02T11:51:59Z</time>
      </trkpt>
      <trkpt lat="45.32716" lon="5.75535">
        <ele>1469.2</ele>
        <time>2018-02-02T11:52:04Z</time>
      </trkpt>
      <trkpt lat="45.32718" lon="5.75535">
        <ele>1471.4</ele>
        <time>2018-02-02T11:52:09Z</time>
      </trkpt>
      <trkpt lat="45.3272" lon="5.75537">
        <ele>1474.8</ele>
        <time>2018-02-02T11:52:14Z</time>
      </trkpt>
      <trkpt lat="45.32722" lon="5.75538">
        <ele>1472.4</ele>
        <time>2018-02-02T11:52:19Z</time>
      </trkpt>
      <trkpt lat="45.32724" lon="5.7554">
        <ele>1471.6</ele>
        <time>2018-02-02T11:52:24Z</time>
      </trkpt>
      <trkpt lat="45.32726" lon="5.75542">
        <ele>1471.2</ele>
        <time>2018-02-02T11:52:29Z</time>
      </trkpt>
      <trkpt lat="45.32728" lon="5.75543">
        <ele>1474.4</ele>
        <time>2018-02-02T11:52:34Z</time>
      </trkpt>
      <trkpt lat="45.32731" lon="5.75542">
        <ele>1473.6</ele>
        <time>2018-02-02T11:52:39Z</time>
      </trkpt>
      <trkpt lat="45.32733" lon="5.7554">
        <ele>1476</ele>
        <time>2018-02-02T11:52:44Z</time>
      </trkpt>
      <trkpt lat="45.32735" lon="5.75539">
        <ele>1477.6</ele>
        <time>2018-02-02T11:52:49Z</time>
      </trkpt>
      <trkpt lat="45.32736" lon="5.75536">
        <ele>1477.6</ele>
        <time>2018-02-02T11:52:54Z</time>
      </trkpt>
      <trkpt lat="45.32737" lon="5.75534">
        <ele>1475</ele>
        <time>2018-02-02T11:52:59Z</time>
      </trkpt>
      <trkpt lat="45.32739" lon="5.75532">
        <ele>1475.8</ele>
        <time>2018-02-02T11:53:04Z</time>
      </trkpt>
      <trkpt lat="45.3274" lon="5.7553">
        <ele>1478.2</ele>
        <time>2018-02-02T11:53:09Z</time>
      </trkpt>
      <trkpt lat="45.32741" lon="5.75529">
        <ele>1472.8</ele>
        <time>2018-02-02T11:53:14Z</time>
      </trkpt>
      <trkpt lat="45.32743" lon="5.75528">
        <ele>1475.8</ele>
        <time>2018-02-02T11:53:19Z</time>
      </trkpt>
      <trkpt lat="45.32744" lon="5.75529">
        <ele>1474.6</ele>
        <time>2018-02-02T11:53:24Z</time>
      </trkpt>
      <trkpt lat="45.32746" lon="5.75531">
        <ele>1475.6</ele>
        <time>2018-02-02T11:53:29Z</time>
      </trkpt>
      <trkpt lat="45.32747" lon="5.75533">
        <ele>1477.4</ele>
        <time>2018-02-02T11:53:34Z</time>
      </trkpt>
      <trkpt lat="45.32748" lon="5.75535">
        <ele>1479.8</ele>
        <time>2018-02-02T11:53:39Z</time>
      </trkpt>
      <trkpt lat="45.32749" lon="5.75538">
        <ele>1477.2</ele>
        <time>2018-02-02T11:53:44Z</time>
      </trkpt>
      <trkpt lat="45.3275" lon="5.75538">
        <ele>1478.4</ele>
        <time>2018-02-02T11:53:49Z</time>
      </trkpt>
      <trkpt lat="45.32751" lon="5.75535">
        <ele>1481.2</ele>
        <time>2018-02-02T11:53:54Z</time>
      </trkpt>
      <trkpt lat="45.32752" lon="5.75532">
        <ele>1485.2</ele>
        <time>2018-02-02T11:53:59Z</time>
      </trkpt>
      <trkpt lat="45.32753" lon="5.75529">
        <ele>1484.4</ele>
        <time>2018-02-02T11:54:04Z</time>
      </trkpt>
      <trkpt lat="45.32754" lon="5.75527">
        <ele>1484.8</ele>
        <time>2018-02-02T11:54:09Z</time>
      </trkpt>
      <trkpt lat="45.32755" lon="5.75525">
        <ele>1487</ele>
        <time>2018-02-02T11:54:14Z</time>
      </trkpt>
      <trkpt lat="45.32756" lon="5.75523">
        <ele>1488.4</ele>
        <time>2018-02-02T11:54:19Z</time>
      </trkpt>
      <trkpt lat="45.32756" lon="5.75521">
        <ele>1487.2</ele>
        <time>2018-02-02T11:54:24Z</time>
      </trkpt>
      <trkpt lat="45.32758" lon="5.7552">
        <ele>1487</ele>
        <time>2018-02-02T11:54:29Z</time>
      </trkpt>
      <trkpt lat="45.3276" lon="5.7552">
        <ele>1489</ele>
        <time>2018-02-02T11:54:35Z</time>
      </trkpt>
      <trkpt lat="45.32762" lon="5.75522">
        <ele>1490</ele>
        <time>2018-02-02T11:54:41Z</time>
      </trkpt>
      <trkpt lat="45.32763" lon="5.75524">
        <ele>1491</ele>
        <time>2018-02-02T11:54:46Z</time>
      </trkpt>
      <trkpt lat="45.32765" lon="5.75525">
        <ele>1492.6</ele>
        <time>2018-02-02T11:54:51Z</time>
      </trkpt>
      <trkpt lat="45.32767" lon="5.75526">
        <ele>1492.8</ele>
        <time>2018-02-02T11:54:56Z</time>
      </trkpt>
      <trkpt lat="45.32769" lon="5.75527">
        <ele>1494.4</ele>
        <time>2018-02-02T11:55:01Z</time>
      </trkpt>
      <trkpt lat="45.3277" lon="5.75528">
        <ele>1494</ele>
        <time>2018-02-02T11:55:06Z</time>
      </trkpt>
      <trkpt lat="45.32771" lon="5.7553">
        <ele>1494.8</ele>
        <time>2018-02-02T11:55:11Z</time>
      </trkpt>
      <trkpt lat="45.32772" lon="5.75533">
        <ele>1492.4</ele>
        <time>2018-02-02T11:55:16Z</time>
      </trkpt>
      <trkpt lat="45.32774" lon="5.75535">
        <ele>1493.8</ele>
        <time>2018-02-02T11:55:21Z</time>
      </trkpt>
      <trkpt lat="45.32776" lon="5.75537">
        <ele>1495</ele>
        <time>2018-02-02T11:55:26Z</time>
      </trkpt>
      <trkpt lat="45.32778" lon="5.75539">
        <ele>1494.2</ele>
        <time>2018-02-02T11:55:31Z</time>
      </trkpt>
      <trkpt lat="45.3278" lon="5.7554">
        <ele>1494</ele>
        <time>2018-02-02T11:55:36Z</time>
      </trkpt>
      <trkpt lat="45.32782" lon="5.75541">
        <ele>1494.2</ele>
        <time>2018-02-02T11:55:41Z</time>
      </trkpt>
      <trkpt lat="45.32784" lon="5.75542">
        <ele>1494.8</ele>
        <time>2018-02-02T11:55:46Z</time>
      </trkpt>
      <trkpt lat="45.32787" lon="5.75544">
        <ele>1496.8</ele>
        <time>2018-02-02T11:55:51Z</time>
      </trkpt>
      <trkpt lat="45.32789" lon="5.75544">
        <ele>1498.4</ele>
        <time>2018-02-02T11:55:56Z</time>
      </trkpt>
      <trkpt lat="45.32789" lon="5.75542">
        <ele>1497.8</ele>
        <time>2018-02-02T11:56:01Z</time>
      </trkpt>
      <trkpt lat="45.32789" lon="5.7554">
        <ele>1500.6</ele>
        <time>2018-02-02T11:56:06Z</time>
      </trkpt>
      <trkpt lat="45.3279" lon="5.75538">
        <ele>1499.8</ele>
        <time>2018-02-02T11:56:11Z</time>
      </trkpt>
      <trkpt lat="45.32791" lon="5.75535">
        <ele>1501.4</ele>
        <time>2018-02-02T11:56:16Z</time>
      </trkpt>
      <trkpt lat="45.32792" lon="5.75533">
        <ele>1504</ele>
        <time>2018-02-02T11:56:21Z</time>
      </trkpt>
      <trkpt lat="45.32793" lon="5.7553">
        <ele>1502.6</ele>
        <time>2018-02-02T11:56:26Z</time>
      </trkpt>
      <trkpt lat="45.32794" lon="5.75528">
        <ele>1501.2</ele>
        <time>2018-02-02T11:56:31Z</time>
      </trkpt>
      <trkpt lat="45.32795" lon="5.75526">
        <ele>1500</ele>
        <time>2018-02-02T11:56:36Z</time>
      </trkpt>
      <trkpt lat="45.32797" lon="5.75525">
        <ele>1500.2</ele>
        <time>2018-02-02T11:56:41Z</time>
      </trkpt>
      <trkpt lat="45.32798" lon="5.75526">
        <ele>1505.6</ele>
        <time>2018-02-02T11:56:46Z</time>
      </trkpt>
      <trkpt lat="45.328" lon="5.75527">
        <ele>1506</ele>
        <time>2018-02-02T11:56:51Z</time>
      </trkpt>
      <trkpt lat="45.32802" lon="5.75528">
        <ele>1503.6</ele>
        <time>2018-02-02T11:56:56Z</time>
      </trkpt>
      <trkpt lat="45.32805" lon="5.75528">
        <ele>1505.8</ele>
        <time>2018-02-02T11:57:01Z</time>
      </trkpt>
      <trkpt lat="45.32807" lon="5.75528">
        <ele>1504.2</ele>
        <time>2018-02-02T11:57:06Z</time>
      </trkpt>
      <trkpt lat="45.3281" lon="5.75529">
        <ele>1503.4</ele>
        <time>2018-02-02T11:57:11Z</time>
      </trkpt>
      <trkpt lat="45.32812" lon="5.7553">
        <ele>1506.6</ele>
        <time>2018-02-02T11:57:16Z</time>
      </trkpt>
      <trkpt lat="45.32814" lon="5.75531">
        <ele>1505</ele>
        <time>2018-02-02T11:57:21Z</time>
      </trkpt>
      <trkpt lat="45.32816" lon="5.75532">
        <ele>1506.8</ele>
        <time>2018-02-02T11:57:26Z</time>
      </trkpt>
      <trkpt lat="45.32818" lon="5.75534">
        <ele>1507</ele>
        <time>2018-02-02T11:57:31Z</time>
      </trkpt>
      <trkpt lat="45.3282" lon="5.75536">
        <ele>1506.2</ele>
        <time>2018-02-02T11:57:36Z</time>
      </trkpt>
      <trkpt lat="45.32822" lon="5.75538">
        <ele>1507.8</ele>
        <time>2018-02-02T11:57:41Z</time>
      </trkpt>
      <trkpt lat="45.32824" lon="5.75538">
        <ele>1508.6</ele>
        <time>2018-02-02T11:57:46Z</time>
      </trkpt>
      <trkpt lat="45.32826" lon="5.75538">
        <ele>1510.8</ele>
        <time>2018-02-02T11:57:51Z</time>
      </trkpt>
      <trkpt lat="45.32828" lon="5.75538">
        <ele>1512.6</ele>
        <time>2018-02-02T11:57:56Z</time>
      </trkpt>
      <trkpt lat="45.3283" lon="5.75538">
        <ele>1510.8</ele>
        <time>2018-02-02T11:58:01Z</time>
      </trkpt>
      <trkpt lat="45.32832" lon="5.75538">
        <ele>1512.8</ele>
        <time>2018-02-02T11:58:06Z</time>
      </trkpt>
      <trkpt lat="45.32834" lon="5.75539">
        <ele>1513</ele>
        <time>2018-02-02T11:58:11Z</time>
      </trkpt>
      <trkpt lat="45.32836" lon="5.7554">
        <ele>1512.4</ele>
        <time>2018-02-02T11:58:16Z</time>
      </trkpt>
      <trkpt lat="45.32838" lon="5.7554">
        <ele>1511.2</ele>
        <time>2018-02-02T11:58:21Z</time>
      </trkpt>
      <trkpt lat="45.3284" lon="5.75541">
        <ele>1511.2</ele>
        <time>2018-02-02T11:58:26Z</time>
      </trkpt>
      <trkpt lat="45.32843" lon="5.75542">
        <ele>1514.6</ele>
        <time>2018-02-02T11:58:31Z</time>
      </trkpt>
      <trkpt lat="45.32845" lon="5.75542">
        <ele>1519.8</ele>
        <time>2018-02-02T11:58:36Z</time>
      </trkpt>
      <trkpt lat="45.32847" lon="5.75542">
        <ele>1514.6</ele>
        <time>2018-02-02T11:58:41Z</time>
      </trkpt>
      <trkpt lat="45.3285" lon="5.75542">
        <ele>1516.2</ele>
        <time>2018-02-02T11:58:46Z</time>
      </trkpt>
      <trkpt lat="45.32852" lon="5.75543">
        <ele>1518.4</ele>
        <time>2018-02-02T11:58:51Z</time>
      </trkpt>
      <trkpt lat="45.32854" lon="5.75544">
        <ele>1518.6</ele>
        <time>2018-02-02T11:58:56Z</time>
      </trkpt>
      <trkpt lat="45.32856" lon="5.75544">
        <ele>1516.6</ele>
        <time>2018-02-02T11:59:01Z</time>
      </trkpt>
      <trkpt lat="45.32858" lon="5.75544">
        <ele>1516.8</ele>
        <time>2018-02-02T11:59:06Z</time>
      </trkpt>
      <trkpt lat="45.3286" lon="5.75543">
        <ele>1519</ele>
        <time>2018-02-02T11:59:11Z</time>
      </trkpt>
      <trkpt lat="45.3286" lon="5.75541">
        <ele>1519.6</ele>
        <time>2018-02-02T11:59:16Z</time>
      </trkpt>
      <trkpt lat="45.32862" lon="5.75539">
        <ele>1520</ele>
        <time>2018-02-02T11:59:21Z</time>
      </trkpt>
      <trkpt lat="45.32863" lon="5.75538">
        <ele>1520.8</ele>
        <time>2018-02-02T11:59:26Z</time>
      </trkpt>
      <trkpt lat="45.32865" lon="5.75538">
        <ele>1522.2</ele>
        <time>2018-02-02T11:59:31Z</time>
      </trkpt>
      <trkpt lat="45.32867" lon="5.75537">
        <ele>1521.2</ele>
        <time>2018-02-02T11:59:36Z</time>
      </trkpt>
      <trkpt lat="45.32869" lon="5.75537">
        <ele>1520.8</ele>
        <time>2018-02-02T11:59:41Z</time>
      </trkpt>
      <trkpt lat="45.32871" lon="5.75537">
        <ele>1522.4</ele>
        <time>2018-02-02T11:59:46Z</time>
      </trkpt>
      <trkpt lat="45.32873" lon="5.75537">
        <ele>1522.6</ele>
        <time>2018-02-02T11:59:51Z</time>
      </trkpt>
      <trkpt lat="45.32875" lon="5.75537">
        <ele>1523.2</ele>
        <time>2018-02-02T11:59:56Z</time>
      </trkpt>
      <trkpt lat="45.32877" lon="5.75537">
        <ele>1522.6</ele>
        <time>2018-02-02T12:00:01Z</time>
      </trkpt>
      <trkpt lat="45.32879" lon="5.75538">
        <ele>1523.2</ele>
        <time>2018-02-02T12:00:06Z</time>
      </trkpt>
      <trkpt lat="45.32881" lon="5.75539">
        <ele>1527.6</ele>
        <time>2018-02-02T12:00:11Z</time>
      </trkpt>
      <trkpt lat="45.32883" lon="5.7554">
        <ele>1527</ele>
        <time>2018-02-02T12:00:16Z</time>
      </trkpt>
      <trkpt lat="45.32885" lon="5.7554">
        <ele>1525.8</ele>
        <time>2018-02-02T12:00:21Z</time>
      </trkpt>
      <trkpt lat="45.32887" lon="5.75541">
        <ele>1527.4</ele>
        <time>2018-02-02T12:00:26Z</time>
      </trkpt>
      <trkpt lat="45.32889" lon="5.75542">
        <ele>1527.4</ele>
        <time>2018-02-02T12:00:31Z</time>
      </trkpt>
      <trkpt lat="45.32891" lon="5.75542">
        <ele>1528</ele>
        <time>2018-02-02T12:00:36Z</time>
      </trkpt>
      <trkpt lat="45.32893" lon="5.75543">
        <ele>1527.2</ele>
        <time>2018-02-02T12:00:41Z</time>
      </trkpt>
      <trkpt lat="45.32896" lon="5.75544">
        <ele>1530.6</ele>
        <time>2018-02-02T12:00:47Z</time>
      </trkpt>
      <trkpt lat="45.32897" lon="5.75545">
        <ele>1529.6</ele>
        <time>2018-02-02T12:00:52Z</time>
      </trkpt>
      <trkpt lat="45.32899" lon="5.75547">
        <ele>1530.2</ele>
        <time>2018-02-02T12:00:57Z</time>
      </trkpt>
      <trkpt lat="45.32901" lon="5.75549">
        <ele>1532.4</ele>
        <time>2018-02-02T12:01:02Z</time>
      </trkpt>
      <trkpt lat="45.32902" lon="5.7555">
        <ele>1533.4</ele>
        <time>2018-02-02T12:01:07Z</time>
      </trkpt>
      <trkpt lat="45.32904" lon="5.75551">
        <ele>1536.8</ele>
        <time>2018-02-02T12:01:12Z</time>
      </trkpt>
      <trkpt lat="45.32906" lon="5.7555">
        <ele>1535.8</ele>
        <time>2018-02-02T12:01:17Z</time>
      </trkpt>
      <trkpt lat="45.32908" lon="5.7555">
        <ele>1536.4</ele>
        <time>2018-02-02T12:01:22Z</time>
      </trkpt>
      <trkpt lat="45.3291" lon="5.75551">
        <ele>1533.6</ele>
        <time>2018-02-02T12:01:27Z</time>
      </trkpt>
      <trkpt lat="45.32912" lon="5.75552">
        <ele>1534.2</ele>
        <time>2018-02-02T12:01:32Z</time>
      </trkpt>
      <trkpt lat="45.32914" lon="5.75552">
        <ele>1537.2</ele>
        <time>2018-02-02T12:01:37Z</time>
      </trkpt>
      <trkpt lat="45.32916" lon="5.75552">
        <ele>1539.6</ele>
        <time>2018-02-02T12:01:42Z</time>
      </trkpt>
      <trkpt lat="45.32918" lon="5.75551">
        <ele>1539.4</ele>
        <time>2018-02-02T12:01:47Z</time>
      </trkpt>
      <trkpt lat="45.3292" lon="5.75551">
        <ele>1537.2</ele>
        <time>2018-02-02T12:01:52Z</time>
      </trkpt>
      <trkpt lat="45.32922" lon="5.75551">
        <ele>1536.8</ele>
        <time>2018-02-02T12:01:57Z</time>
      </trkpt>
      <trkpt lat="45.32924" lon="5.75551">
        <ele>1538.2</ele>
        <time>2018-02-02T12:02:02Z</time>
      </trkpt>
      <trkpt lat="45.32926" lon="5.75551">
        <ele>1537.8</ele>
        <time>2018-02-02T12:02:07Z</time>
      </trkpt>
      <trkpt lat="45.32928" lon="5.75552">
        <ele>1540</ele>
        <time>2018-02-02T12:02:12Z</time>
      </trkpt>
      <trkpt lat="45.3293" lon="5.75553">
        <ele>1537.8</ele>
        <time>2018-02-02T12:02:17Z</time>
      </trkpt>
      <trkpt lat="45.32932" lon="5.75553">
        <ele>1539.8</ele>
        <time>2018-02-02T12:02:22Z</time>
      </trkpt>
      <trkpt lat="45.32934" lon="5.75553">
        <ele>1540</ele>
        <time>2018-02-02T12:02:27Z</time>
      </trkpt>
      <trkpt lat="45.32936" lon="5.75554">
        <ele>1540.4</ele>
        <time>2018-02-02T12:02:32Z</time>
      </trkpt>
      <trkpt lat="45.32938" lon="5.75554">
        <ele>1541.4</ele>
        <time>2018-02-02T12:02:37Z</time>
      </trkpt>
      <trkpt lat="45.3294" lon="5.75555">
        <ele>1540.6</ele>
        <time>2018-02-02T12:02:42Z</time>
      </trkpt>
      <trkpt lat="45.32942" lon="5.75557">
        <ele>1542.2</ele>
        <time>2018-02-02T12:02:47Z</time>
      </trkpt>
      <trkpt lat="45.32944" lon="5.75558">
        <ele>1544.2</ele>
        <time>2018-02-02T12:02:52Z</time>
      </trkpt>
      <trkpt lat="45.32947" lon="5.75558">
        <ele>1544</ele>
        <time>2018-02-02T12:02:57Z</time>
      </trkpt>
      <trkpt lat="45.32948" lon="5.75559">
        <ele>1551.6</ele>
        <time>2018-02-02T12:06:12Z</time>
      </trkpt>
      <trkpt lat="45.32948" lon="5.75559">
        <ele>1549.4</ele>
        <time>2018-02-02T12:07:32Z</time>
      </trkpt>
      <trkpt lat="45.32951" lon="5.75561">
        <ele>1552</ele>
        <time>2018-02-02T12:07:37Z</time>
      </trkpt>
      <trkpt lat="45.32954" lon="5.7556">
        <ele>1554</ele>
        <time>2018-02-02T12:07:42Z</time>
      </trkpt>
      <trkpt lat="45.32957" lon="5.7556">
        <ele>1552.8</ele>
        <time>2018-02-02T12:07:47Z</time>
      </trkpt>
      <trkpt lat="45.32959" lon="5.7556">
        <ele>1555</ele>
        <time>2018-02-02T12:07:52Z</time>
      </trkpt>
      <trkpt lat="45.3296" lon="5.7556">
        <ele>1553.8</ele>
        <time>2018-02-02T12:08:02Z</time>
      </trkpt>
      <trkpt lat="45.32963" lon="5.7556">
        <ele>1554.8</ele>
        <time>2018-02-02T12:08:07Z</time>
      </trkpt>
      <trkpt lat="45.32966" lon="5.75561">
        <ele>1553.4</ele>
        <time>2018-02-02T12:08:12Z</time>
      </trkpt>
      <trkpt lat="45.32969" lon="5.75562">
        <ele>1552.8</ele>
        <time>2018-02-02T12:08:17Z</time>
      </trkpt>
      <trkpt lat="45.32972" lon="5.75562">
        <ele>1551.2</ele>
        <time>2018-02-02T12:08:22Z</time>
      </trkpt>
      <trkpt lat="45.32975" lon="5.75563">
        <ele>1551.2</ele>
        <time>2018-02-02T12:08:27Z</time>
      </trkpt>
      <trkpt lat="45.32977" lon="5.75564">
        <ele>1552</ele>
        <time>2018-02-02T12:08:32Z</time>
      </trkpt>
      <trkpt lat="45.32979" lon="5.75565">
        <ele>1552.8</ele>
        <time>2018-02-02T12:08:37Z</time>
      </trkpt>
      <trkpt lat="45.32982" lon="5.75567">
        <ele>1551.8</ele>
        <time>2018-02-02T12:08:42Z</time>
      </trkpt>
      <trkpt lat="45.32985" lon="5.75568">
        <ele>1556.6</ele>
        <time>2018-02-02T12:08:47Z</time>
      </trkpt>
      <trkpt lat="45.32987" lon="5.75569">
        <ele>1552.6</ele>
        <time>2018-02-02T12:08:52Z</time>
      </trkpt>
      <trkpt lat="45.32989" lon="5.7557">
        <ele>1556.4</ele>
        <time>2018-02-02T12:08:57Z</time>
      </trkpt>
      <trkpt lat="45.32992" lon="5.75571">
        <ele>1556.8</ele>
        <time>2018-02-02T12:09:02Z</time>
      </trkpt>
      <trkpt lat="45.32995" lon="5.75573">
        <ele>1556.6</ele>
        <time>2018-02-02T12:09:07Z</time>
      </trkpt>
      <trkpt lat="45.32997" lon="5.75574">
        <ele>1558.2</ele>
        <time>2018-02-02T12:09:12Z</time>
      </trkpt>
      <trkpt lat="45.33" lon="5.75575">
        <ele>1554.4</ele>
        <time>2018-02-02T12:09:17Z</time>
      </trkpt>
      <trkpt lat="45.33003" lon="5.75576">
        <ele>1559.2</ele>
        <time>2018-02-02T12:09:22Z</time>
      </trkpt>
      <trkpt lat="45.33005" lon="5.75577">
        <ele>1559.6</ele>
        <time>2018-02-02T12:09:27Z</time>
      </trkpt>
      <trkpt lat="45.33006" lon="5.75577">
        <ele>1559.8</ele>
        <time>2018-02-02T12:09:32Z</time>
      </trkpt>
      <trkpt lat="45.33006" lon="5.75578">
        <ele>1560</ele>
        <time>2018-02-02T12:09:47Z</time>
      </trkpt>
      <trkpt lat="45.3301" lon="5.75579">
        <ele>1563.4</ele>
        <time>2018-02-02T12:09:52Z</time>
      </trkpt>
      <trkpt lat="45.33015" lon="5.75581">
        <ele>1559.4</ele>
        <time>2018-02-02T12:09:57Z</time>
      </trkpt>
      <trkpt lat="45.33021" lon="5.75582">
        <ele>1561.6</ele>
        <time>2018-02-02T12:10:02Z</time>
      </trkpt>
      <trkpt lat="45.33025" lon="5.75584">
        <ele>1562</ele>
        <time>2018-02-02T12:10:07Z</time>
      </trkpt>
      <trkpt lat="45.33029" lon="5.75586">
        <ele>1560.6</ele>
        <time>2018-02-02T12:10:12Z</time>
      </trkpt>
      <trkpt lat="45.33031" lon="5.75587">
        <ele>1561.6</ele>
        <time>2018-02-02T12:10:17Z</time>
      </trkpt>
      <trkpt lat="45.33034" lon="5.75589">
        <ele>1562.4</ele>
        <time>2018-02-02T12:10:22Z</time>
      </trkpt>
      <trkpt lat="45.33037" lon="5.75591">
        <ele>1561.6</ele>
        <time>2018-02-02T12:10:27Z</time>
      </trkpt>
      <trkpt lat="45.33039" lon="5.75594">
        <ele>1563.8</ele>
        <time>2018-02-02T12:10:32Z</time>
      </trkpt>
      <trkpt lat="45.33042" lon="5.75596">
        <ele>1565</ele>
        <time>2018-02-02T12:10:37Z</time>
      </trkpt>
      <trkpt lat="45.33044" lon="5.75597">
        <ele>1566.6</ele>
        <time>2018-02-02T12:10:42Z</time>
      </trkpt>
      <trkpt lat="45.33046" lon="5.75599">
        <ele>1564.6</ele>
        <time>2018-02-02T12:10:47Z</time>
      </trkpt>
      <trkpt lat="45.33048" lon="5.75601">
        <ele>1564.2</ele>
        <time>2018-02-02T12:10:52Z</time>
      </trkpt>
      <trkpt lat="45.3305" lon="5.75603">
        <ele>1566.8</ele>
        <time>2018-02-02T12:10:57Z</time>
      </trkpt>
      <trkpt lat="45.33052" lon="5.75606">
        <ele>1566</ele>
        <time>2018-02-02T12:11:02Z</time>
      </trkpt>
      <trkpt lat="45.33054" lon="5.75608">
        <ele>1566.8</ele>
        <time>2018-02-02T12:11:07Z</time>
      </trkpt>
      <trkpt lat="45.33056" lon="5.75611">
        <ele>1569.6</ele>
        <time>2018-02-02T12:11:12Z</time>
      </trkpt>
      <trkpt lat="45.33057" lon="5.75613">
        <ele>1568.4</ele>
        <time>2018-02-02T12:11:17Z</time>
      </trkpt>
      <trkpt lat="45.33059" lon="5.75615">
        <ele>1569.6</ele>
        <time>2018-02-02T12:11:22Z</time>
      </trkpt>
      <trkpt lat="45.33061" lon="5.75617">
        <ele>1570</ele>
        <time>2018-02-02T12:11:27Z</time>
      </trkpt>
      <trkpt lat="45.33063" lon="5.75619">
        <ele>1571.2</ele>
        <time>2018-02-02T12:11:32Z</time>
      </trkpt>
      <trkpt lat="45.33065" lon="5.75622">
        <ele>1570.2</ele>
        <time>2018-02-02T12:11:37Z</time>
      </trkpt>
      <trkpt lat="45.33067" lon="5.75624">
        <ele>1575.2</ele>
        <time>2018-02-02T12:11:42Z</time>
      </trkpt>
      <trkpt lat="45.33069" lon="5.75627">
        <ele>1571.8</ele>
        <time>2018-02-02T12:11:47Z</time>
      </trkpt>
      <trkpt lat="45.33071" lon="5.75629">
        <ele>1573.6</ele>
        <time>2018-02-02T12:11:52Z</time>
      </trkpt>
      <trkpt lat="45.33073" lon="5.75632">
        <ele>1573.8</ele>
        <time>2018-02-02T12:11:57Z</time>
      </trkpt>
      <trkpt lat="45.33076" lon="5.75635">
        <ele>1577.2</ele>
        <time>2018-02-02T12:12:02Z</time>
      </trkpt>
      <trkpt lat="45.33078" lon="5.75637">
        <ele>1574.4</ele>
        <time>2018-02-02T12:12:07Z</time>
      </trkpt>
      <trkpt lat="45.3308" lon="5.7564">
        <ele>1576.4</ele>
        <time>2018-02-02T12:12:12Z</time>
      </trkpt>
      <trkpt lat="45.33082" lon="5.75643">
        <ele>1576.4</ele>
        <time>2018-02-02T12:12:17Z</time>
      </trkpt>
      <trkpt lat="45.33084" lon="5.75645">
        <ele>1576.6</ele>
        <time>2018-02-02T12:12:22Z</time>
      </trkpt>
      <trkpt lat="45.33086" lon="5.75648">
        <ele>1579.6</ele>
        <time>2018-02-02T12:12:27Z</time>
      </trkpt>
      <trkpt lat="45.33089" lon="5.7565">
        <ele>1579.4</ele>
        <time>2018-02-02T12:12:32Z</time>
      </trkpt>
      <trkpt lat="45.33091" lon="5.75653">
        <ele>1580</ele>
        <time>2018-02-02T12:12:37Z</time>
      </trkpt>
      <trkpt lat="45.33093" lon="5.75655">
        <ele>1579</ele>
        <time>2018-02-02T12:12:42Z</time>
      </trkpt>
      <trkpt lat="45.33094" lon="5.75657">
        <ele>1581.8</ele>
        <time>2018-02-02T12:12:47Z</time>
      </trkpt>
      <trkpt lat="45.33096" lon="5.7566">
        <ele>1582.2</ele>
        <time>2018-02-02T12:12:52Z</time>
      </trkpt>
      <trkpt lat="45.33098" lon="5.75662">
        <ele>1581</ele>
        <time>2018-02-02T12:12:57Z</time>
      </trkpt>
      <trkpt lat="45.331" lon="5.75665">
        <ele>1584.4</ele>
        <time>2018-02-02T12:13:02Z</time>
      </trkpt>
      <trkpt lat="45.33103" lon="5.75668">
        <ele>1581.8</ele>
        <time>2018-02-02T12:13:07Z</time>
      </trkpt>
      <trkpt lat="45.33105" lon="5.7567">
        <ele>1586.4</ele>
        <time>2018-02-02T12:13:12Z</time>
      </trkpt>
      <trkpt lat="45.33108" lon="5.75673">
        <ele>1584.8</ele>
        <time>2018-02-02T12:13:17Z</time>
      </trkpt>
      <trkpt lat="45.33111" lon="5.75675">
        <ele>1584</ele>
        <time>2018-02-02T12:13:22Z</time>
      </trkpt>
      <trkpt lat="45.33113" lon="5.75678">
        <ele>1583</ele>
        <time>2018-02-02T12:13:27Z</time>
      </trkpt>
      <trkpt lat="45.33115" lon="5.7568">
        <ele>1582.8</ele>
        <time>2018-02-02T12:13:32Z</time>
      </trkpt>
      <trkpt lat="45.33117" lon="5.75682">
        <ele>1586.2</ele>
        <time>2018-02-02T12:13:37Z</time>
      </trkpt>
      <trkpt lat="45.33119" lon="5.75684">
        <ele>1585.6</ele>
        <time>2018-02-02T12:13:42Z</time>
      </trkpt>
      <trkpt lat="45.3312" lon="5.75687">
        <ele>1590.2</ele>
        <time>2018-02-02T12:13:47Z</time>
      </trkpt>
      <trkpt lat="45.33121" lon="5.75691">
        <ele>1589</ele>
        <time>2018-02-02T12:13:52Z</time>
      </trkpt>
      <trkpt lat="45.33123" lon="5.75694">
        <ele>1587</ele>
        <time>2018-02-02T12:13:57Z</time>
      </trkpt>
      <trkpt lat="45.33123" lon="5.75697">
        <ele>1587.6</ele>
        <time>2018-02-02T12:14:02Z</time>
      </trkpt>
      <trkpt lat="45.33124" lon="5.757">
        <ele>1588.8</ele>
        <time>2018-02-02T12:14:07Z</time>
      </trkpt>
      <trkpt lat="45.33125" lon="5.75703">
        <ele>1591.6</ele>
        <time>2018-02-02T12:14:12Z</time>
      </trkpt>
      <trkpt lat="45.33127" lon="5.75705">
        <ele>1592.4</ele>
        <time>2018-02-02T12:14:17Z</time>
      </trkpt>
      <trkpt lat="45.33129" lon="5.75708">
        <ele>1592.4</ele>
        <time>2018-02-02T12:14:22Z</time>
      </trkpt>
      <trkpt lat="45.33131" lon="5.75709">
        <ele>1590.4</ele>
        <time>2018-02-02T12:14:27Z</time>
      </trkpt>
      <trkpt lat="45.33133" lon="5.75709">
        <ele>1592.8</ele>
        <time>2018-02-02T12:14:32Z</time>
      </trkpt>
      <trkpt lat="45.33136" lon="5.75709">
        <ele>1593</ele>
        <time>2018-02-02T12:14:37Z</time>
      </trkpt>
      <trkpt lat="45.33138" lon="5.75709">
        <ele>1594</ele>
        <time>2018-02-02T12:14:42Z</time>
      </trkpt>
      <trkpt lat="45.3314" lon="5.75709">
        <ele>1592.8</ele>
        <time>2018-02-02T12:14:47Z</time>
      </trkpt>
      <trkpt lat="45.33142" lon="5.75709">
        <ele>1593.2</ele>
        <time>2018-02-02T12:14:52Z</time>
      </trkpt>
      <trkpt lat="45.33144" lon="5.75709">
        <ele>1592.8</ele>
        <time>2018-02-02T12:14:57Z</time>
      </trkpt>
      <trkpt lat="45.33147" lon="5.75709">
        <ele>1593.4</ele>
        <time>2018-02-02T12:15:02Z</time>
      </trkpt>
      <trkpt lat="45.33149" lon="5.75708">
        <ele>1592.2</ele>
        <time>2018-02-02T12:15:07Z</time>
      </trkpt>
      <trkpt lat="45.33151" lon="5.75708">
        <ele>1598.4</ele>
        <time>2018-02-02T12:15:12Z</time>
      </trkpt>
      <trkpt lat="45.33153" lon="5.75707">
        <ele>1594</ele>
        <time>2018-02-02T12:15:17Z</time>
      </trkpt>
      <trkpt lat="45.33155" lon="5.75707">
        <ele>1597.6</ele>
        <time>2018-02-02T12:15:22Z</time>
      </trkpt>
      <trkpt lat="45.33157" lon="5.75706">
        <ele>1600.2</ele>
        <time>2018-02-02T12:15:27Z</time>
      </trkpt>
      <trkpt lat="45.33159" lon="5.75706">
        <ele>1598.2</ele>
        <time>2018-02-02T12:15:32Z</time>
      </trkpt>
      <trkpt lat="45.33161" lon="5.75707">
        <ele>1600.4</ele>
        <time>2018-02-02T12:15:37Z</time>
      </trkpt>
      <trkpt lat="45.33162" lon="5.75708">
        <ele>1600.8</ele>
        <time>2018-02-02T12:15:42Z</time>
      </trkpt>
      <trkpt lat="45.33163" lon="5.75711">
        <ele>1604</ele>
        <time>2018-02-02T12:15:47Z</time>
      </trkpt>
      <trkpt lat="45.33163" lon="5.75714">
        <ele>1602.8</ele>
        <time>2018-02-02T12:15:52Z</time>
      </trkpt>
      <trkpt lat="45.33164" lon="5.75717">
        <ele>1604.4</ele>
        <time>2018-02-02T12:15:57Z</time>
      </trkpt>
      <trkpt lat="45.33164" lon="5.75719">
        <ele>1603.6</ele>
        <time>2018-02-02T12:16:02Z</time>
      </trkpt>
      <trkpt lat="45.33165" lon="5.75722">
        <ele>1603.4</ele>
        <time>2018-02-02T12:16:07Z</time>
      </trkpt>
      <trkpt lat="45.33165" lon="5.75726">
        <ele>1607.2</ele>
        <time>2018-02-02T12:16:12Z</time>
      </trkpt>
      <trkpt lat="45.33165" lon="5.75728">
        <ele>1606.4</ele>
        <time>2018-02-02T12:16:17Z</time>
      </trkpt>
      <trkpt lat="45.33166" lon="5.75731">
        <ele>1606.8</ele>
        <time>2018-02-02T12:16:22Z</time>
      </trkpt>
      <trkpt lat="45.33168" lon="5.75734">
        <ele>1606.8</ele>
        <time>2018-02-02T12:16:27Z</time>
      </trkpt>
      <trkpt lat="45.33169" lon="5.75736">
        <ele>1607.2</ele>
        <time>2018-02-02T12:16:32Z</time>
      </trkpt>
      <trkpt lat="45.3317" lon="5.75738">
        <ele>1610</ele>
        <time>2018-02-02T12:16:37Z</time>
      </trkpt>
      <trkpt lat="45.33172" lon="5.7574">
        <ele>1608.6</ele>
        <time>2018-02-02T12:16:42Z</time>
      </trkpt>
      <trkpt lat="45.33174" lon="5.75742">
        <ele>1611</ele>
        <time>2018-02-02T12:16:47Z</time>
      </trkpt>
      <trkpt lat="45.33175" lon="5.75744">
        <ele>1610.2</ele>
        <time>2018-02-02T12:16:52Z</time>
      </trkpt>
      <trkpt lat="45.33177" lon="5.75747">
        <ele>1612.6</ele>
        <time>2018-02-02T12:16:57Z</time>
      </trkpt>
      <trkpt lat="45.33178" lon="5.75749">
        <ele>1614.4</ele>
        <time>2018-02-02T12:17:02Z</time>
      </trkpt>
      <trkpt lat="45.3318" lon="5.75749">
        <ele>1614.6</ele>
        <time>2018-02-02T12:17:07Z</time>
      </trkpt>
      <trkpt lat="45.33182" lon="5.75747">
        <ele>1614.4</ele>
        <time>2018-02-02T12:17:12Z</time>
      </trkpt>
      <trkpt lat="45.33183" lon="5.75745">
        <ele>1613.6</ele>
        <time>2018-02-02T12:17:17Z</time>
      </trkpt>
      <trkpt lat="45.33185" lon="5.75743">
        <ele>1612.6</ele>
        <time>2018-02-02T12:17:22Z</time>
      </trkpt>
      <trkpt lat="45.33187" lon="5.75741">
        <ele>1613.2</ele>
        <time>2018-02-02T12:17:27Z</time>
      </trkpt>
      <trkpt lat="45.33188" lon="5.75739">
        <ele>1612</ele>
        <time>2018-02-02T12:17:32Z</time>
      </trkpt>
      <trkpt lat="45.3319" lon="5.75737">
        <ele>1611.6</ele>
        <time>2018-02-02T12:17:37Z</time>
      </trkpt>
      <trkpt lat="45.33192" lon="5.75736">
        <ele>1614.2</ele>
        <time>2018-02-02T12:17:42Z</time>
      </trkpt>
      <trkpt lat="45.33194" lon="5.75736">
        <ele>1615</ele>
        <time>2018-02-02T12:17:47Z</time>
      </trkpt>
      <trkpt lat="45.33196" lon="5.75736">
        <ele>1616.8</ele>
        <time>2018-02-02T12:17:52Z</time>
      </trkpt>
      <trkpt lat="45.33198" lon="5.75737">
        <ele>1620</ele>
        <time>2018-02-02T12:17:57Z</time>
      </trkpt>
      <trkpt lat="45.33201" lon="5.75737">
        <ele>1617.4</ele>
        <time>2018-02-02T12:18:02Z</time>
      </trkpt>
      <trkpt lat="45.33203" lon="5.75738">
        <ele>1619.6</ele>
        <time>2018-02-02T12:18:07Z</time>
      </trkpt>
      <trkpt lat="45.33206" lon="5.75738">
        <ele>1619.6</ele>
        <time>2018-02-02T12:18:12Z</time>
      </trkpt>
      <trkpt lat="45.33208" lon="5.75739">
        <ele>1621</ele>
        <time>2018-02-02T12:18:17Z</time>
      </trkpt>
      <trkpt lat="45.3321" lon="5.7574">
        <ele>1623</ele>
        <time>2018-02-02T12:18:22Z</time>
      </trkpt>
      <trkpt lat="45.33212" lon="5.75741">
        <ele>1623.2</ele>
        <time>2018-02-02T12:18:27Z</time>
      </trkpt>
      <trkpt lat="45.33215" lon="5.75742">
        <ele>1624.2</ele>
        <time>2018-02-02T12:18:32Z</time>
      </trkpt>
      <trkpt lat="45.33217" lon="5.75743">
        <ele>1624.6</ele>
        <time>2018-02-02T12:18:37Z</time>
      </trkpt>
      <trkpt lat="45.33219" lon="5.75745">
        <ele>1626.8</ele>
        <time>2018-02-02T12:18:42Z</time>
      </trkpt>
      <trkpt lat="45.33221" lon="5.75746">
        <ele>1625.6</ele>
        <time>2018-02-02T12:18:47Z</time>
      </trkpt>
      <trkpt lat="45.33224" lon="5.75747">
        <ele>1627.8</ele>
        <time>2018-02-02T12:18:52Z</time>
      </trkpt>
      <trkpt lat="45.33226" lon="5.75748">
        <ele>1625.2</ele>
        <time>2018-02-02T12:18:57Z</time>
      </trkpt>
      <trkpt lat="45.33228" lon="5.7575">
        <ele>1625</ele>
        <time>2018-02-02T12:19:02Z</time>
      </trkpt>
      <trkpt lat="45.33231" lon="5.75751">
        <ele>1629</ele>
        <time>2018-02-02T12:19:07Z</time>
      </trkpt>
      <trkpt lat="45.33233" lon="5.75752">
        <ele>1628.2</ele>
        <time>2018-02-02T12:19:12Z</time>
      </trkpt>
      <trkpt lat="45.33235" lon="5.75753">
        <ele>1629</ele>
        <time>2018-02-02T12:19:17Z</time>
      </trkpt>
      <trkpt lat="45.33238" lon="5.75755">
        <ele>1630.2</ele>
        <time>2018-02-02T12:19:22Z</time>
      </trkpt>
      <trkpt lat="45.3324" lon="5.75756">
        <ele>1631.2</ele>
        <time>2018-02-02T12:19:27Z</time>
      </trkpt>
      <trkpt lat="45.33242" lon="5.75758">
        <ele>1631.6</ele>
        <time>2018-02-02T12:19:32Z</time>
      </trkpt>
      <trkpt lat="45.33245" lon="5.75759">
        <ele>1633</ele>
        <time>2018-02-02T12:19:37Z</time>
      </trkpt>
      <trkpt lat="45.33247" lon="5.7576">
        <ele>1632.2</ele>
        <time>2018-02-02T12:19:42Z</time>
      </trkpt>
      <trkpt lat="45.3325" lon="5.75762">
        <ele>1632.8</ele>
        <time>2018-02-02T12:19:47Z</time>
      </trkpt>
      <trkpt lat="45.33252" lon="5.75764">
        <ele>1633</ele>
        <time>2018-02-02T12:19:52Z</time>
      </trkpt>
      <trkpt lat="45.33255" lon="5.75766">
        <ele>1634.8</ele>
        <time>2018-02-02T12:19:57Z</time>
      </trkpt>
      <trkpt lat="45.33258" lon="5.75768">
        <ele>1639</ele>
        <time>2018-02-02T12:20:02Z</time>
      </trkpt>
      <trkpt lat="45.3326" lon="5.7577">
        <ele>1635.4</ele>
        <time>2018-02-02T12:20:07Z</time>
      </trkpt>
      <trkpt lat="45.33263" lon="5.75772">
        <ele>1635.6</ele>
        <time>2018-02-02T12:20:12Z</time>
      </trkpt>
      <trkpt lat="45.33266" lon="5.75774">
        <ele>1636</ele>
        <time>2018-02-02T12:20:17Z</time>
      </trkpt>
      <trkpt lat="45.33269" lon="5.75776">
        <ele>1639.8</ele>
        <time>2018-02-02T12:20:22Z</time>
      </trkpt>
      <trkpt lat="45.33272" lon="5.75778">
        <ele>1638.6</ele>
        <time>2018-02-02T12:20:27Z</time>
      </trkpt>
      <trkpt lat="45.33275" lon="5.7578">
        <ele>1638.4</ele>
        <time>2018-02-02T12:20:32Z</time>
      </trkpt>
      <trkpt lat="45.33277" lon="5.75781">
        <ele>1637.2</ele>
        <time>2018-02-02T12:20:37Z</time>
      </trkpt>
      <trkpt lat="45.3328" lon="5.75783">
        <ele>1639</ele>
        <time>2018-02-02T12:20:42Z</time>
      </trkpt>
      <trkpt lat="45.33282" lon="5.75786">
        <ele>1638</ele>
        <time>2018-02-02T12:20:47Z</time>
      </trkpt>
      <trkpt lat="45.33285" lon="5.75788">
        <ele>1642</ele>
        <time>2018-02-02T12:20:52Z</time>
      </trkpt>
      <trkpt lat="45.33287" lon="5.7579">
        <ele>1640.6</ele>
        <time>2018-02-02T12:20:57Z</time>
      </trkpt>
      <trkpt lat="45.33289" lon="5.75792">
        <ele>1644.6</ele>
        <time>2018-02-02T12:21:02Z</time>
      </trkpt>
      <trkpt lat="45.33291" lon="5.75795">
        <ele>1645.4</ele>
        <time>2018-02-02T12:21:07Z</time>
      </trkpt>
      <trkpt lat="45.33294" lon="5.75797">
        <ele>1643</ele>
        <time>2018-02-02T12:21:12Z</time>
      </trkpt>
      <trkpt lat="45.33296" lon="5.75799">
        <ele>1643.8</ele>
        <time>2018-02-02T12:21:17Z</time>
      </trkpt>
      <trkpt lat="45.33298" lon="5.75801">
        <ele>1644.6</ele>
        <time>2018-02-02T12:21:22Z</time>
      </trkpt>
      <trkpt lat="45.33301" lon="5.75803">
        <ele>1644.8</ele>
        <time>2018-02-02T12:21:27Z</time>
      </trkpt>
      <trkpt lat="45.33303" lon="5.75805">
        <ele>1644.2</ele>
        <time>2018-02-02T12:21:32Z</time>
      </trkpt>
      <trkpt lat="45.33306" lon="5.75807">
        <ele>1646.4</ele>
        <time>2018-02-02T12:21:37Z</time>
      </trkpt>
      <trkpt lat="45.33308" lon="5.7581">
        <ele>1647.8</ele>
        <time>2018-02-02T12:21:42Z</time>
      </trkpt>
      <trkpt lat="45.33309" lon="5.75813">
        <ele>1645</ele>
        <time>2018-02-02T12:21:47Z</time>
      </trkpt>
      <trkpt lat="45.33308" lon="5.75816">
        <ele>1646</ele>
        <time>2018-02-02T12:21:52Z</time>
      </trkpt>
      <trkpt lat="45.33306" lon="5.75819">
        <ele>1646.8</ele>
        <time>2018-02-02T12:21:57Z</time>
      </trkpt>
      <trkpt lat="45.33304" lon="5.75821">
        <ele>1647.4</ele>
        <time>2018-02-02T12:22:02Z</time>
      </trkpt>
      <trkpt lat="45.33302" lon="5.75824">
        <ele>1651.4</ele>
        <time>2018-02-02T12:22:07Z</time>
      </trkpt>
      <trkpt lat="45.33301" lon="5.75826">
        <ele>1649.6</ele>
        <time>2018-02-02T12:22:12Z</time>
      </trkpt>
      <trkpt lat="45.33299" lon="5.75829">
        <ele>1649.6</ele>
        <time>2018-02-02T12:22:17Z</time>
      </trkpt>
      <trkpt lat="45.33297" lon="5.75831">
        <ele>1649.4</ele>
        <time>2018-02-02T12:22:22Z</time>
      </trkpt>
      <trkpt lat="45.33296" lon="5.75833">
        <ele>1650.6</ele>
        <time>2018-02-02T12:22:27Z</time>
      </trkpt>
      <trkpt lat="45.33294" lon="5.75835">
        <ele>1648</ele>
        <time>2018-02-02T12:22:32Z</time>
      </trkpt>
      <trkpt lat="45.33294" lon="5.75837">
        <ele>1650.2</ele>
        <time>2018-02-02T12:22:42Z</time>
      </trkpt>
      <trkpt lat="45.33296" lon="5.75839">
        <ele>1651.4</ele>
        <time>2018-02-02T12:22:47Z</time>
      </trkpt>
      <trkpt lat="45.33298" lon="5.75841">
        <ele>1657</ele>
        <time>2018-02-02T12:22:52Z</time>
      </trkpt>
      <trkpt lat="45.33299" lon="5.75843">
        <ele>1651.6</ele>
        <time>2018-02-02T12:22:57Z</time>
      </trkpt>
      <trkpt lat="45.33301" lon="5.75846">
        <ele>1652.8</ele>
        <time>2018-02-02T12:23:02Z</time>
      </trkpt>
      <trkpt lat="45.33302" lon="5.75848">
        <ele>1655.4</ele>
        <time>2018-02-02T12:23:07Z</time>
      </trkpt>
      <trkpt lat="45.33303" lon="5.7585">
        <ele>1655.2</ele>
        <time>2018-02-02T12:23:12Z</time>
      </trkpt>
      <trkpt lat="45.33305" lon="5.75852">
        <ele>1655.8</ele>
        <time>2018-02-02T12:23:17Z</time>
      </trkpt>
      <trkpt lat="45.33306" lon="5.75854">
        <ele>1653.6</ele>
        <time>2018-02-02T12:23:22Z</time>
      </trkpt>
      <trkpt lat="45.33307" lon="5.75857">
        <ele>1659</ele>
        <time>2018-02-02T12:23:27Z</time>
      </trkpt>
      <trkpt lat="45.33308" lon="5.75859">
        <ele>1657</ele>
        <time>2018-02-02T12:23:32Z</time>
      </trkpt>
      <trkpt lat="45.33309" lon="5.75861">
        <ele>1659.2</ele>
        <time>2018-02-02T12:23:37Z</time>
      </trkpt>
      <trkpt lat="45.3331" lon="5.75863">
        <ele>1659.6</ele>
        <time>2018-02-02T12:23:42Z</time>
      </trkpt>
      <trkpt lat="45.33311" lon="5.75865">
        <ele>1657.6</ele>
        <time>2018-02-02T12:23:47Z</time>
      </trkpt>
      <trkpt lat="45.33312" lon="5.75867">
        <ele>1657.8</ele>
        <time>2018-02-02T12:23:52Z</time>
      </trkpt>
      <trkpt lat="45.33311" lon="5.75871">
        <ele>1663</ele>
        <time>2018-02-02T12:24:12Z</time>
      </trkpt>
      <trkpt lat="45.3331" lon="5.75871">
        <ele>1662.8</ele>
        <time>2018-02-02T12:25:07Z</time>
      </trkpt>
      <trkpt lat="45.33308" lon="5.75871">
        <ele>1662.2</ele>
        <time>2018-02-02T12:25:12Z</time>
      </trkpt>
      <trkpt lat="45.33305" lon="5.75871">
        <ele>1658.4</ele>
        <time>2018-02-02T12:25:17Z</time>
      </trkpt>
      <trkpt lat="45.33302" lon="5.75872">
        <ele>1661.4</ele>
        <time>2018-02-02T12:25:22Z</time>
      </trkpt>
      <trkpt lat="45.333" lon="5.75872">
        <ele>1662.2</ele>
        <time>2018-02-02T12:25:27Z</time>
      </trkpt>
      <trkpt lat="45.33298" lon="5.75873">
        <ele>1663.6</ele>
        <time>2018-02-02T12:25:32Z</time>
      </trkpt>
      <trkpt lat="45.33295" lon="5.75874">
        <ele>1661.4</ele>
        <time>2018-02-02T12:25:37Z</time>
      </trkpt>
      <trkpt lat="45.33295" lon="5.75874">
        <ele>1664.4</ele>
        <time>2018-02-02T12:25:42Z</time>
      </trkpt>
      <trkpt lat="45.33297" lon="5.75876">
        <ele>1665.4</ele>
        <time>2018-02-02T12:25:47Z</time>
      </trkpt>
      <trkpt lat="45.33298" lon="5.75878">
        <ele>1663.8</ele>
        <time>2018-02-02T12:25:52Z</time>
      </trkpt>
      <trkpt lat="45.333" lon="5.7588">
        <ele>1664.2</ele>
        <time>2018-02-02T12:25:57Z</time>
      </trkpt>
      <trkpt lat="45.33301" lon="5.7588">
        <ele>1664.2</ele>
        <time>2018-02-02T12:26:02Z</time>
      </trkpt>
      <trkpt lat="45.33301" lon="5.75881">
        <ele>1664</ele>
        <time>2018-02-02T12:26:07Z</time>
      </trkpt>
      <trkpt lat="45.33299" lon="5.75882">
        <ele>1665.8</ele>
        <time>2018-02-02T12:26:12Z</time>
      </trkpt>
      <trkpt lat="45.33297" lon="5.75883">
        <ele>1662.2</ele>
        <time>2018-02-02T12:26:17Z</time>
      </trkpt>
      <trkpt lat="45.33295" lon="5.75883">
        <ele>1665.2</ele>
        <time>2018-02-02T12:26:22Z</time>
      </trkpt>
      <trkpt lat="45.33294" lon="5.75883">
        <ele>1666.6</ele>
        <time>2018-02-02T12:26:27Z</time>
      </trkpt>
      <trkpt lat="45.33294" lon="5.75884">
        <ele>1667</ele>
        <time>2018-02-02T12:26:32Z</time>
      </trkpt>
      <trkpt lat="45.33295" lon="5.75885">
        <ele>1666.6</ele>
        <time>2018-02-02T12:26:37Z</time>
      </trkpt>
      <trkpt lat="45.33297" lon="5.75887">
        <ele>1668.2</ele>
        <time>2018-02-02T12:26:42Z</time>
      </trkpt>
      <trkpt lat="45.33299" lon="5.75889">
        <ele>1669.2</ele>
        <time>2018-02-02T12:26:47Z</time>
      </trkpt>
      <trkpt lat="45.333" lon="5.7589">
        <ele>1670.2</ele>
        <time>2018-02-02T12:26:52Z</time>
      </trkpt>
      <trkpt lat="45.33302" lon="5.75892">
        <ele>1675</ele>
        <time>2018-02-02T12:26:57Z</time>
      </trkpt>
      <trkpt lat="45.33303" lon="5.75894">
        <ele>1674.2</ele>
        <time>2018-02-02T12:27:02Z</time>
      </trkpt>
      <trkpt lat="45.33305" lon="5.75895">
        <ele>1674</ele>
        <time>2018-02-02T12:27:07Z</time>
      </trkpt>
      <trkpt lat="45.33306" lon="5.75897">
        <ele>1673.2</ele>
        <time>2018-02-02T12:27:12Z</time>
      </trkpt>
      <trkpt lat="45.33307" lon="5.75899">
        <ele>1673.4</ele>
        <time>2018-02-02T12:27:17Z</time>
      </trkpt>
      <trkpt lat="45.33308" lon="5.75901">
        <ele>1675</ele>
        <time>2018-02-02T12:27:22Z</time>
      </trkpt>
      <trkpt lat="45.3331" lon="5.75903">
        <ele>1677.4</ele>
        <time>2018-02-02T12:27:27Z</time>
      </trkpt>
      <trkpt lat="45.33311" lon="5.75905">
        <ele>1677.4</ele>
        <time>2018-02-02T12:27:32Z</time>
      </trkpt>
      <trkpt lat="45.33312" lon="5.75906">
        <ele>1677.8</ele>
        <time>2018-02-02T12:27:37Z</time>
      </trkpt>
      <trkpt lat="45.33313" lon="5.75908">
        <ele>1677.6</ele>
        <time>2018-02-02T12:27:42Z</time>
      </trkpt>
      <trkpt lat="45.33314" lon="5.75909">
        <ele>1678.2</ele>
        <time>2018-02-02T12:27:47Z</time>
      </trkpt>
      <trkpt lat="45.33316" lon="5.7591">
        <ele>1679.2</ele>
        <time>2018-02-02T12:27:52Z</time>
      </trkpt>
      <trkpt lat="45.33316" lon="5.75912">
        <ele>1676.6</ele>
        <time>2018-02-02T12:27:57Z</time>
      </trkpt>
      <trkpt lat="45.33318" lon="5.75914">
        <ele>1677.4</ele>
        <time>2018-02-02T12:28:02Z</time>
      </trkpt>
      <trkpt lat="45.33319" lon="5.75916">
        <ele>1680</ele>
        <time>2018-02-02T12:28:07Z</time>
      </trkpt>
      <trkpt lat="45.33321" lon="5.75918">
        <ele>1680.2</ele>
        <time>2018-02-02T12:28:12Z</time>
      </trkpt>
      <trkpt lat="45.33321" lon="5.75921">
        <ele>1680</ele>
        <time>2018-02-02T12:28:17Z</time>
      </trkpt>
      <trkpt lat="45.33321" lon="5.75922">
        <ele>1679</ele>
        <time>2018-02-02T12:28:22Z</time>
      </trkpt>
      <trkpt lat="45.33319" lon="5.75924">
        <ele>1680.2</ele>
        <time>2018-02-02T12:28:27Z</time>
      </trkpt>
      <trkpt lat="45.33318" lon="5.75925">
        <ele>1680.8</ele>
        <time>2018-02-02T12:28:32Z</time>
      </trkpt>
      <trkpt lat="45.33316" lon="5.75926">
        <ele>1681.6</ele>
        <time>2018-02-02T12:28:37Z</time>
      </trkpt>
      <trkpt lat="45.33314" lon="5.75927">
        <ele>1682.4</ele>
        <time>2018-02-02T12:28:42Z</time>
      </trkpt>
      <trkpt lat="45.33311" lon="5.75928">
        <ele>1683.8</ele>
        <time>2018-02-02T12:28:47Z</time>
      </trkpt>
      <trkpt lat="45.33309" lon="5.75929">
        <ele>1686.2</ele>
        <time>2018-02-02T12:28:52Z</time>
      </trkpt>
      <trkpt lat="45.33307" lon="5.75931">
        <ele>1684.8</ele>
        <time>2018-02-02T12:28:57Z</time>
      </trkpt>
      <trkpt lat="45.33304" lon="5.75932">
        <ele>1689.6</ele>
        <time>2018-02-02T12:29:02Z</time>
      </trkpt>
      <trkpt lat="45.33302" lon="5.75933">
        <ele>1687.4</ele>
        <time>2018-02-02T12:29:07Z</time>
      </trkpt>
      <trkpt lat="45.333" lon="5.75934">
        <ele>1690.6</ele>
        <time>2018-02-02T12:29:12Z</time>
      </trkpt>
      <trkpt lat="45.33298" lon="5.75936">
        <ele>1691.4</ele>
        <time>2018-02-02T12:29:17Z</time>
      </trkpt>
      <trkpt lat="45.33296" lon="5.75936">
        <ele>1692.8</ele>
        <time>2018-02-02T12:29:22Z</time>
      </trkpt>
      <trkpt lat="45.33294" lon="5.75937">
        <ele>1694.4</ele>
        <time>2018-02-02T12:29:27Z</time>
      </trkpt>
      <trkpt lat="45.33292" lon="5.75938">
        <ele>1692</ele>
        <time>2018-02-02T12:29:32Z</time>
      </trkpt>
      <trkpt lat="45.33289" lon="5.75939">
        <ele>1692.8</ele>
        <time>2018-02-02T12:29:37Z</time>
      </trkpt>
      <trkpt lat="45.33287" lon="5.75941">
        <ele>1693.8</ele>
        <time>2018-02-02T12:29:42Z</time>
      </trkpt>
      <trkpt lat="45.33284" lon="5.75942">
        <ele>1690.8</ele>
        <time>2018-02-02T12:29:47Z</time>
      </trkpt>
      <trkpt lat="45.33282" lon="5.75943">
        <ele>1695.2</ele>
        <time>2018-02-02T12:29:52Z</time>
      </trkpt>
      <trkpt lat="45.3328" lon="5.75944">
        <ele>1697.8</ele>
        <time>2018-02-02T12:29:57Z</time>
      </trkpt>
      <trkpt lat="45.33277" lon="5.75945">
        <ele>1695.6</ele>
        <time>2018-02-02T12:30:03Z</time>
      </trkpt>
      <trkpt lat="45.33275" lon="5.75947">
        <ele>1695.6</ele>
        <time>2018-02-02T12:30:08Z</time>
      </trkpt>
      <trkpt lat="45.33272" lon="5.75948">
        <ele>1697.8</ele>
        <time>2018-02-02T12:30:13Z</time>
      </trkpt>
      <trkpt lat="45.3327" lon="5.75949">
        <ele>1695.8</ele>
        <time>2018-02-02T12:30:18Z</time>
      </trkpt>
      <trkpt lat="45.33267" lon="5.75951">
        <ele>1698.4</ele>
        <time>2018-02-02T12:30:23Z</time>
      </trkpt>
      <trkpt lat="45.33264" lon="5.75951">
        <ele>1696.8</ele>
        <time>2018-02-02T12:30:28Z</time>
      </trkpt>
      <trkpt lat="45.33261" lon="5.75951">
        <ele>1700.4</ele>
        <time>2018-02-02T12:30:33Z</time>
      </trkpt>
      <trkpt lat="45.33258" lon="5.75952">
        <ele>1698.8</ele>
        <time>2018-02-02T12:30:38Z</time>
      </trkpt>
      <trkpt lat="45.33255" lon="5.75952">
        <ele>1700.4</ele>
        <time>2018-02-02T12:30:43Z</time>
      </trkpt>
      <trkpt lat="45.33251" lon="5.75953">
        <ele>1699.2</ele>
        <time>2018-02-02T12:30:48Z</time>
      </trkpt>
      <trkpt lat="45.33249" lon="5.75953">
        <ele>1699.4</ele>
        <time>2018-02-02T12:30:53Z</time>
      </trkpt>
      <trkpt lat="45.33245" lon="5.75954">
        <ele>1701</ele>
        <time>2018-02-02T12:30:58Z</time>
      </trkpt>
      <trkpt lat="45.33242" lon="5.75954">
        <ele>1701.8</ele>
        <time>2018-02-02T12:31:03Z</time>
      </trkpt>
      <trkpt lat="45.33239" lon="5.75955">
        <ele>1701.6</ele>
        <time>2018-02-02T12:31:08Z</time>
      </trkpt>
      <trkpt lat="45.33236" lon="5.75955">
        <ele>1700.8</ele>
        <time>2018-02-02T12:31:13Z</time>
      </trkpt>
      <trkpt lat="45.33233" lon="5.75956">
        <ele>1701.2</ele>
        <time>2018-02-02T12:31:18Z</time>
      </trkpt>
      <trkpt lat="45.33233" lon="5.75956">
        <ele>1702.4</ele>
        <time>2018-02-02T12:31:33Z</time>
      </trkpt>
      <trkpt lat="45.33229" lon="5.75956">
        <ele>1698.6</ele>
        <time>2018-02-02T12:31:38Z</time>
      </trkpt>
      <trkpt lat="45.33226" lon="5.75956">
        <ele>1700.4</ele>
        <time>2018-02-02T12:31:43Z</time>
      </trkpt>
      <trkpt lat="45.33222" lon="5.75956">
        <ele>1700.2</ele>
        <time>2018-02-02T12:31:48Z</time>
      </trkpt>
      <trkpt lat="45.33217" lon="5.75957">
        <ele>1699.2</ele>
        <time>2018-02-02T12:31:53Z</time>
      </trkpt>
      <trkpt lat="45.33213" lon="5.75958">
        <ele>1700.8</ele>
        <time>2018-02-02T12:31:58Z</time>
      </trkpt>
      <trkpt lat="45.33208" lon="5.75958">
        <ele>1700</ele>
        <time>2018-02-02T12:32:03Z</time>
      </trkpt>
      <trkpt lat="45.33205" lon="5.75958">
        <ele>1700.6</ele>
        <time>2018-02-02T12:32:08Z</time>
      </trkpt>
      <trkpt lat="45.33205" lon="5.75959">
        <ele>1700.2</ele>
        <time>2018-02-02T12:32:13Z</time>
      </trkpt>
      <trkpt lat="45.33202" lon="5.75959">
        <ele>1699</ele>
        <time>2018-02-02T12:32:18Z</time>
      </trkpt>
      <trkpt lat="45.33196" lon="5.75959">
        <ele>1700</ele>
        <time>2018-02-02T12:32:23Z</time>
      </trkpt>
      <trkpt lat="45.33191" lon="5.7596">
        <ele>1696.8</ele>
        <time>2018-02-02T12:32:28Z</time>
      </trkpt>
      <trkpt lat="45.33188" lon="5.75961">
        <ele>1699.4</ele>
        <time>2018-02-02T12:32:33Z</time>
      </trkpt>
      <trkpt lat="45.33184" lon="5.75962">
        <ele>1698.2</ele>
        <time>2018-02-02T12:32:38Z</time>
      </trkpt>
      <trkpt lat="45.33181" lon="5.75963">
        <ele>1699.2</ele>
        <time>2018-02-02T12:32:43Z</time>
      </trkpt>
      <trkpt lat="45.3318" lon="5.75963">
        <ele>1699.2</ele>
        <time>2018-02-02T12:32:48Z</time>
      </trkpt>
      <trkpt lat="45.33179" lon="5.75963">
        <ele>1699.2</ele>
        <time>2018-02-02T12:33:03Z</time>
      </trkpt>
      <trkpt lat="45.33177" lon="5.75964">
        <ele>1701.8</ele>
        <time>2018-02-02T12:33:08Z</time>
      </trkpt>
      <trkpt lat="45.33174" lon="5.75964">
        <ele>1699.4</ele>
        <time>2018-02-02T12:33:13Z</time>
      </trkpt>
      <trkpt lat="45.33172" lon="5.75965">
        <ele>1700.2</ele>
        <time>2018-02-02T12:33:18Z</time>
      </trkpt>
      <trkpt lat="45.33172" lon="5.75965">
        <ele>1699.8</ele>
        <time>2018-02-02T12:33:43Z</time>
      </trkpt>
      <trkpt lat="45.33169" lon="5.75965">
        <ele>1700.2</ele>
        <time>2018-02-02T12:33:48Z</time>
      </trkpt>
      <trkpt lat="45.33165" lon="5.75966">
        <ele>1698.6</ele>
        <time>2018-02-02T12:33:53Z</time>
      </trkpt>
      <trkpt lat="45.33161" lon="5.75967">
        <ele>1701.2</ele>
        <time>2018-02-02T12:33:59Z</time>
      </trkpt>
      <trkpt lat="45.33157" lon="5.75968">
        <ele>1699.6</ele>
        <time>2018-02-02T12:34:04Z</time>
      </trkpt>
      <trkpt lat="45.33154" lon="5.75969">
        <ele>1697.8</ele>
        <time>2018-02-02T12:34:09Z</time>
      </trkpt>
      <trkpt lat="45.3315" lon="5.75969">
        <ele>1704.4</ele>
        <time>2018-02-02T12:34:14Z</time>
      </trkpt>
      <trkpt lat="45.33147" lon="5.7597">
        <ele>1700.8</ele>
        <time>2018-02-02T12:34:19Z</time>
      </trkpt>
      <trkpt lat="45.33144" lon="5.7597">
        <ele>1702</ele>
        <time>2018-02-02T12:34:24Z</time>
      </trkpt>
      <trkpt lat="45.3314" lon="5.7597">
        <ele>1702.6</ele>
        <time>2018-02-02T12:34:29Z</time>
      </trkpt>
      <trkpt lat="45.33136" lon="5.75971">
        <ele>1700.8</ele>
        <time>2018-02-02T12:34:34Z</time>
      </trkpt>
      <trkpt lat="45.33133" lon="5.75972">
        <ele>1701.4</ele>
        <time>2018-02-02T12:34:39Z</time>
      </trkpt>
      <trkpt lat="45.33129" lon="5.75972">
        <ele>1702.6</ele>
        <time>2018-02-02T12:34:44Z</time>
      </trkpt>
      <trkpt lat="45.33125" lon="5.75973">
        <ele>1706.6</ele>
        <time>2018-02-02T12:34:49Z</time>
      </trkpt>
      <trkpt lat="45.33122" lon="5.75974">
        <ele>1700.6</ele>
        <time>2018-02-02T12:34:54Z</time>
      </trkpt>
      <trkpt lat="45.33118" lon="5.75974">
        <ele>1703.4</ele>
        <time>2018-02-02T12:34:59Z</time>
      </trkpt>
      <trkpt lat="45.33114" lon="5.75974">
        <ele>1702.2</ele>
        <time>2018-02-02T12:35:04Z</time>
      </trkpt>
      <trkpt lat="45.3311" lon="5.75975">
        <ele>1704.8</ele>
        <time>2018-02-02T12:35:09Z</time>
      </trkpt>
      <trkpt lat="45.33105" lon="5.75975">
        <ele>1704.8</ele>
        <time>2018-02-02T12:35:14Z</time>
      </trkpt>
      <trkpt lat="45.331" lon="5.75975">
        <ele>1705</ele>
        <time>2018-02-02T12:35:19Z</time>
      </trkpt>
      <trkpt lat="45.33094" lon="5.75974">
        <ele>1701</ele>
        <time>2018-02-02T12:35:24Z</time>
      </trkpt>
      <trkpt lat="45.3309" lon="5.75975">
        <ele>1702.8</ele>
        <time>2018-02-02T12:35:29Z</time>
      </trkpt>
      <trkpt lat="45.33089" lon="5.75975">
        <ele>1703.6</ele>
        <time>2018-02-02T12:35:34Z</time>
      </trkpt>
      <trkpt lat="45.33087" lon="5.75977">
        <ele>1702.2</ele>
        <time>2018-02-02T12:35:39Z</time>
      </trkpt>
      <trkpt lat="45.33085" lon="5.75977">
        <ele>1702.8</ele>
        <time>2018-02-02T12:35:44Z</time>
      </trkpt>
      <trkpt lat="45.33084" lon="5.75978">
        <ele>1705.4</ele>
        <time>2018-02-02T12:35:49Z</time>
      </trkpt>
      <trkpt lat="45.33082" lon="5.75979">
        <ele>1705.6</ele>
        <time>2018-02-02T12:35:54Z</time>
      </trkpt>
      <trkpt lat="45.3308" lon="5.7598">
        <ele>1707.2</ele>
        <time>2018-02-02T12:35:59Z</time>
      </trkpt>
      <trkpt lat="45.33079" lon="5.75981">
        <ele>1708</ele>
        <time>2018-02-02T12:36:09Z</time>
      </trkpt>
      <trkpt lat="45.33078" lon="5.75981">
        <ele>1709.4</ele>
        <time>2018-02-02T12:36:14Z</time>
      </trkpt>
      <trkpt lat="45.33077" lon="5.7598">
        <ele>1706.2</ele>
        <time>2018-02-02T12:37:44Z</time>
      </trkpt>
      <trkpt lat="45.33076" lon="5.7598">
        <ele>1709.4</ele>
        <time>2018-02-02T12:38:04Z</time>
      </trkpt>
      <trkpt lat="45.33074" lon="5.75981">
        <ele>1711</ele>
        <time>2018-02-02T12:38:09Z</time>
      </trkpt>
      <trkpt lat="45.33074" lon="5.75981">
        <ele>1710.2</ele>
        <time>2018-02-02T12:38:44Z</time>
      </trkpt>
      <trkpt lat="45.33071" lon="5.75981">
        <ele>1710.4</ele>
        <time>2018-02-02T12:38:49Z</time>
      </trkpt>
      <trkpt lat="45.33067" lon="5.75994">
        <ele>1714.4</ele>
        <time>2018-02-02T12:40:20Z</time>
      </trkpt>
      <trkpt lat="45.33066" lon="5.75995">
        <ele>1712.4</ele>
        <time>2018-02-02T12:40:25Z</time>
      </trkpt>
      <trkpt lat="45.33067" lon="5.75997">
        <ele>1710.8</ele>
        <time>2018-02-02T12:40:30Z</time>
      </trkpt>
      <trkpt lat="45.33067" lon="5.75997">
        <ele>1711.6</ele>
        <time>2018-02-02T12:40:50Z</time>
      </trkpt>
      <trkpt lat="45.33066" lon="5.76">
        <ele>1711.2</ele>
        <time>2018-02-02T12:41:15Z</time>
      </trkpt>
      <trkpt lat="45.33063" lon="5.76002">
        <ele>1716</ele>
        <time>2018-02-02T12:42:45Z</time>
      </trkpt>
      <trkpt lat="45.33061" lon="5.76007">
        <ele>1719.8</ele>
        <time>2018-02-02T12:45:41Z</time>
      </trkpt>
      <trkpt lat="45.33061" lon="5.76007">
        <ele>1720.8</ele>
        <time>2018-02-02T12:46:21Z</time>
      </trkpt>
      <trkpt lat="45.33059" lon="5.76012">
        <ele>1726.8</ele>
        <time>2018-02-02T12:47:26Z</time>
      </trkpt>
      <trkpt lat="45.33057" lon="5.76012">
        <ele>1727.6</ele>
        <time>2018-02-02T12:47:31Z</time>
      </trkpt>
      <trkpt lat="45.33055" lon="5.76012">
        <ele>1730.6</ele>
        <time>2018-02-02T12:47:36Z</time>
      </trkpt>
      <trkpt lat="45.33054" lon="5.76013">
        <ele>1730.8</ele>
        <time>2018-02-02T12:47:41Z</time>
      </trkpt>
      <trkpt lat="45.33052" lon="5.76015">
        <ele>1730.4</ele>
        <time>2018-02-02T12:47:46Z</time>
      </trkpt>
      <trkpt lat="45.33052" lon="5.76015">
        <ele>1728.8</ele>
        <time>2018-02-02T12:48:11Z</time>
      </trkpt>
      <trkpt lat="45.33051" lon="5.76015">
        <ele>1732.2</ele>
        <time>2018-02-02T12:48:16Z</time>
      </trkpt>
      <trkpt lat="45.33048" lon="5.76016">
        <ele>1731</ele>
        <time>2018-02-02T12:48:21Z</time>
      </trkpt>
      <trkpt lat="45.33046" lon="5.76017">
        <ele>1730.4</ele>
        <time>2018-02-02T12:48:26Z</time>
      </trkpt>
      <trkpt lat="45.33045" lon="5.76019">
        <ele>1733.8</ele>
        <time>2018-02-02T12:48:31Z</time>
      </trkpt>
      <trkpt lat="45.33045" lon="5.76022">
        <ele>1734.2</ele>
        <time>2018-02-02T12:48:36Z</time>
      </trkpt>
      <trkpt lat="45.33044" lon="5.76025">
        <ele>1733</ele>
        <time>2018-02-02T12:48:41Z</time>
      </trkpt>
      <trkpt lat="45.33044" lon="5.76028">
        <ele>1733.4</ele>
        <time>2018-02-02T12:48:46Z</time>
      </trkpt>
      <trkpt lat="45.33043" lon="5.76031">
        <ele>1733.6</ele>
        <time>2018-02-02T12:48:51Z</time>
      </trkpt>
      <trkpt lat="45.33041" lon="5.76032">
        <ele>1734</ele>
        <time>2018-02-02T12:48:56Z</time>
      </trkpt>
      <trkpt lat="45.3304" lon="5.76035">
        <ele>1736.4</ele>
        <time>2018-02-02T12:49:01Z</time>
      </trkpt>
      <trkpt lat="45.3304" lon="5.76038">
        <ele>1735.8</ele>
        <time>2018-02-02T12:49:06Z</time>
      </trkpt>
      <trkpt lat="45.33039" lon="5.76041">
        <ele>1738</ele>
        <time>2018-02-02T12:49:12Z</time>
      </trkpt>
      <trkpt lat="45.33038" lon="5.76043">
        <ele>1736.8</ele>
        <time>2018-02-02T12:49:17Z</time>
      </trkpt>
      <trkpt lat="45.33036" lon="5.76045">
        <ele>1738.8</ele>
        <time>2018-02-02T12:49:22Z</time>
      </trkpt>
      <trkpt lat="45.33034" lon="5.76045">
        <ele>1736.2</ele>
        <time>2018-02-02T12:49:27Z</time>
      </trkpt>
      <trkpt lat="45.33034" lon="5.76046">
        <ele>1739.4</ele>
        <time>2018-02-02T12:49:37Z</time>
      </trkpt>
      <trkpt lat="45.33033" lon="5.76047">
        <ele>1741.4</ele>
        <time>2018-02-02T12:49:42Z</time>
      </trkpt>
      <trkpt lat="45.33032" lon="5.76048">
        <ele>1740.8</ele>
        <time>2018-02-02T12:49:47Z</time>
      </trkpt>
      <trkpt lat="45.3303" lon="5.76048">
        <ele>1742</ele>
        <time>2018-02-02T12:49:52Z</time>
      </trkpt>
      <trkpt lat="45.33029" lon="5.7605">
        <ele>1743.8</ele>
        <time>2018-02-02T12:49:57Z</time>
      </trkpt>
      <trkpt lat="45.33028" lon="5.76053">
        <ele>1744.2</ele>
        <time>2018-02-02T12:50:02Z</time>
      </trkpt>
      <trkpt lat="45.33026" lon="5.76055">
        <ele>1744</ele>
        <time>2018-02-02T12:50:07Z</time>
      </trkpt>
      <trkpt lat="45.33024" lon="5.76057">
        <ele>1743.8</ele>
        <time>2018-02-02T12:50:12Z</time>
      </trkpt>
      <trkpt lat="45.33023" lon="5.76057">
        <ele>1743.6</ele>
        <time>2018-02-02T12:50:17Z</time>
      </trkpt>
      <trkpt lat="45.33021" lon="5.76057">
        <ele>1744.2</ele>
        <time>2018-02-02T12:50:22Z</time>
      </trkpt>
      <trkpt lat="45.3302" lon="5.76057">
        <ele>1741.2</ele>
        <time>2018-02-02T12:50:27Z</time>
      </trkpt>
      <trkpt lat="45.33019" lon="5.76058">
        <ele>1739.6</ele>
        <time>2018-02-02T12:50:32Z</time>
      </trkpt>
      <trkpt lat="45.33019" lon="5.76059">
        <ele>1739</ele>
        <time>2018-02-02T12:50:37Z</time>
      </trkpt>
      <trkpt lat="45.33018" lon="5.76066">
        <ele>1738</ele>
        <time>2018-02-02T12:50:42Z</time>
      </trkpt>
      <trkpt lat="45.33015" lon="5.76075">
        <ele>1739.6</ele>
        <time>2018-02-02T12:50:47Z</time>
      </trkpt>
      <trkpt lat="45.33012" lon="5.76079">
        <ele>1740.6</ele>
        <time>2018-02-02T12:50:52Z</time>
      </trkpt>
      <trkpt lat="45.3301" lon="5.76082">
        <ele>1737.2</ele>
        <time>2018-02-02T12:50:57Z</time>
      </trkpt>
      <trkpt lat="45.3301" lon="5.76082">
        <ele>1738</ele>
        <time>2018-02-02T12:51:02Z</time>
      </trkpt>
      <trkpt lat="45.33008" lon="5.76084">
        <ele>1738</ele>
        <time>2018-02-02T12:51:07Z</time>
      </trkpt>
      <trkpt lat="45.33005" lon="5.76088">
        <ele>1740.2</ele>
        <time>2018-02-02T12:51:12Z</time>
      </trkpt>
      <trkpt lat="45.33002" lon="5.76092">
        <ele>1740.8</ele>
        <time>2018-02-02T12:51:17Z</time>
      </trkpt>
      <trkpt lat="45.33001" lon="5.76097">
        <ele>1738.2</ele>
        <time>2018-02-02T12:51:22Z</time>
      </trkpt>
      <trkpt lat="45.33" lon="5.76101">
        <ele>1740.8</ele>
        <time>2018-02-02T12:51:27Z</time>
      </trkpt>
      <trkpt lat="45.32998" lon="5.76106">
        <ele>1744.6</ele>
        <time>2018-02-02T12:51:32Z</time>
      </trkpt>
      <trkpt lat="45.32997" lon="5.7611">
        <ele>1741.4</ele>
        <time>2018-02-02T12:51:37Z</time>
      </trkpt>
      <trkpt lat="45.32996" lon="5.76113">
        <ele>1742.6</ele>
        <time>2018-02-02T12:51:42Z</time>
      </trkpt>
      <trkpt lat="45.32995" lon="5.76117">
        <ele>1744.2</ele>
        <time>2018-02-02T12:51:47Z</time>
      </trkpt>
      <trkpt lat="45.32993" lon="5.76121">
        <ele>1743.6</ele>
        <time>2018-02-02T12:51:52Z</time>
      </trkpt>
      <trkpt lat="45.3299" lon="5.76124">
        <ele>1738.4</ele>
        <time>2018-02-02T12:51:57Z</time>
      </trkpt>
      <trkpt lat="45.32986" lon="5.76125">
        <ele>1745</ele>
        <time>2018-02-02T12:52:02Z</time>
      </trkpt>
      <trkpt lat="45.32983" lon="5.76126">
        <ele>1742.4</ele>
        <time>2018-02-02T12:52:07Z</time>
      </trkpt>
      <trkpt lat="45.32981" lon="5.76127">
        <ele>1743</ele>
        <time>2018-02-02T12:52:12Z</time>
      </trkpt>
      <trkpt lat="45.32979" lon="5.76128">
        <ele>1742.4</ele>
        <time>2018-02-02T12:52:17Z</time>
      </trkpt>
      <trkpt lat="45.32978" lon="5.76128">
        <ele>1742.6</ele>
        <time>2018-02-02T12:52:27Z</time>
      </trkpt>
      <trkpt lat="45.32977" lon="5.76129">
        <ele>1740.4</ele>
        <time>2018-02-02T12:52:32Z</time>
      </trkpt>
      <trkpt lat="45.32975" lon="5.7613">
        <ele>1741.6</ele>
        <time>2018-02-02T12:52:37Z</time>
      </trkpt>
      <trkpt lat="45.32973" lon="5.7613">
        <ele>1744</ele>
        <time>2018-02-02T12:52:42Z</time>
      </trkpt>
      <trkpt lat="45.32972" lon="5.7613">
        <ele>1744</ele>
        <time>2018-02-02T12:52:47Z</time>
      </trkpt>
      <trkpt lat="45.32972" lon="5.76129">
        <ele>1743.2</ele>
        <time>2018-02-02T12:52:52Z</time>
      </trkpt>
      <trkpt lat="45.32971" lon="5.76129">
        <ele>1743.2</ele>
        <time>2018-02-02T12:52:57Z</time>
      </trkpt>
      <trkpt lat="45.3297" lon="5.76128">
        <ele>1743.2</ele>
        <time>2018-02-02T12:53:02Z</time>
      </trkpt>
      <trkpt lat="45.3297" lon="5.76126">
        <ele>1742.8</ele>
        <time>2018-02-02T12:53:07Z</time>
      </trkpt>
      <trkpt lat="45.32969" lon="5.76126">
        <ele>1743.4</ele>
        <time>2018-02-02T12:53:12Z</time>
      </trkpt>
      <trkpt lat="45.32969" lon="5.76124">
        <ele>1743.4</ele>
        <time>2018-02-02T12:53:17Z</time>
      </trkpt>
      <trkpt lat="45.32968" lon="5.76123">
        <ele>1747.2</ele>
        <time>2018-02-02T12:53:22Z</time>
      </trkpt>
      <trkpt lat="45.32966" lon="5.76122">
        <ele>1746.6</ele>
        <time>2018-02-02T12:53:27Z</time>
      </trkpt>
      <trkpt lat="45.32965" lon="5.76123">
        <ele>1748</ele>
        <time>2018-02-02T12:53:32Z</time>
      </trkpt>
      <trkpt lat="45.32965" lon="5.76123">
        <ele>1746.8</ele>
        <time>2018-02-02T12:53:47Z</time>
      </trkpt>
      <trkpt lat="45.32963" lon="5.76126">
        <ele>1746.8</ele>
        <time>2018-02-02T12:53:52Z</time>
      </trkpt>
      <trkpt lat="45.32958" lon="5.76142">
        <ele>1743.4</ele>
        <time>2018-02-02T12:53:57Z</time>
      </trkpt>
      <trkpt lat="45.32955" lon="5.76153">
        <ele>1741</ele>
        <time>2018-02-02T12:54:02Z</time>
      </trkpt>
      <trkpt lat="45.32955" lon="5.76158">
        <ele>1741.6</ele>
        <time>2018-02-02T12:54:07Z</time>
      </trkpt>
      <trkpt lat="45.32955" lon="5.76163">
        <ele>1743.6</ele>
        <time>2018-02-02T12:54:12Z</time>
      </trkpt>
      <trkpt lat="45.32954" lon="5.76165">
        <ele>1744</ele>
        <time>2018-02-02T12:54:17Z</time>
      </trkpt>
      <trkpt lat="45.32952" lon="5.76167">
        <ele>1745.8</ele>
        <time>2018-02-02T12:54:22Z</time>
      </trkpt>
      <trkpt lat="45.32951" lon="5.76169">
        <ele>1743.2</ele>
        <time>2018-02-02T12:54:27Z</time>
      </trkpt>
      <trkpt lat="45.32949" lon="5.76173">
        <ele>1745.2</ele>
        <time>2018-02-02T12:54:32Z</time>
      </trkpt>
      <trkpt lat="45.32947" lon="5.76177">
        <ele>1745</ele>
        <time>2018-02-02T12:54:37Z</time>
      </trkpt>
      <trkpt lat="45.32946" lon="5.76181">
        <ele>1743.6</ele>
        <time>2018-02-02T12:54:42Z</time>
      </trkpt>
      <trkpt lat="45.32944" lon="5.76185">
        <ele>1744.4</ele>
        <time>2018-02-02T12:54:47Z</time>
      </trkpt>
      <trkpt lat="45.32944" lon="5.76185">
        <ele>1744.8</ele>
        <time>2018-02-02T12:54:52Z</time>
      </trkpt>
      <trkpt lat="45.32942" lon="5.76189">
        <ele>1751</ele>
        <time>2018-02-02T12:54:57Z</time>
      </trkpt>
      <trkpt lat="45.32941" lon="5.76192">
        <ele>1748.2</ele>
        <time>2018-02-02T12:55:02Z</time>
      </trkpt>
      <trkpt lat="45.3294" lon="5.76196">
        <ele>1747</ele>
        <time>2018-02-02T12:55:07Z</time>
      </trkpt>
      <trkpt lat="45.32938" lon="5.76199">
        <ele>1751</ele>
        <time>2018-02-02T12:55:12Z</time>
      </trkpt>
      <trkpt lat="45.32937" lon="5.76201">
        <ele>1748.6</ele>
        <time>2018-02-02T12:55:17Z</time>
      </trkpt>
      <trkpt lat="45.32936" lon="5.76201">
        <ele>1748.2</ele>
        <time>2018-02-02T12:55:22Z</time>
      </trkpt>
      <trkpt lat="45.32935" lon="5.76203">
        <ele>1744.4</ele>
        <time>2018-02-02T12:55:27Z</time>
      </trkpt>
      <trkpt lat="45.32933" lon="5.76204">
        <ele>1748</ele>
        <time>2018-02-02T12:55:32Z</time>
      </trkpt>
      <trkpt lat="45.32931" lon="5.76206">
        <ele>1749.6</ele>
        <time>2018-02-02T12:55:37Z</time>
      </trkpt>
      <trkpt lat="45.32931" lon="5.76206">
        <ele>1750</ele>
        <time>2018-02-02T12:55:42Z</time>
      </trkpt>
      <trkpt lat="45.32929" lon="5.76208">
        <ele>1753</ele>
        <time>2018-02-02T12:55:47Z</time>
      </trkpt>
      <trkpt lat="45.32929" lon="5.76209">
        <ele>1760.2</ele>
        <time>2018-02-02T12:55:57Z</time>
      </trkpt>
      <trkpt lat="45.32929" lon="5.76211">
        <ele>1758.8</ele>
        <time>2018-02-02T12:56:02Z</time>
      </trkpt>
      <trkpt lat="45.32929" lon="5.76212">
        <ele>1761.2</ele>
        <time>2018-02-02T12:56:07Z</time>
      </trkpt>
      <trkpt lat="45.32928" lon="5.76213">
        <ele>1760.4</ele>
        <time>2018-02-02T12:56:12Z</time>
      </trkpt>
      <trkpt lat="45.32927" lon="5.76214">
        <ele>1761.2</ele>
        <time>2018-02-02T12:56:17Z</time>
      </trkpt>
      <trkpt lat="45.32926" lon="5.76216">
        <ele>1758.2</ele>
        <time>2018-02-02T12:56:22Z</time>
      </trkpt>
      <trkpt lat="45.32925" lon="5.76218">
        <ele>1757.6</ele>
        <time>2018-02-02T12:56:27Z</time>
      </trkpt>
      <trkpt lat="45.32924" lon="5.7622">
        <ele>1759.4</ele>
        <time>2018-02-02T12:56:32Z</time>
      </trkpt>
      <trkpt lat="45.32923" lon="5.76223">
        <ele>1758.6</ele>
        <time>2018-02-02T12:56:37Z</time>
      </trkpt>
      <trkpt lat="45.32922" lon="5.76225">
        <ele>1758.2</ele>
        <time>2018-02-02T12:56:42Z</time>
      </trkpt>
      <trkpt lat="45.32922" lon="5.76228">
        <ele>1756.8</ele>
        <time>2018-02-02T12:56:47Z</time>
      </trkpt>
      <trkpt lat="45.32921" lon="5.7623">
        <ele>1757</ele>
        <time>2018-02-02T12:56:52Z</time>
      </trkpt>
      <trkpt lat="45.32921" lon="5.76233">
        <ele>1760.8</ele>
        <time>2018-02-02T12:56:57Z</time>
      </trkpt>
      <trkpt lat="45.32921" lon="5.76235">
        <ele>1760.2</ele>
        <time>2018-02-02T12:57:02Z</time>
      </trkpt>
      <trkpt lat="45.32921" lon="5.76235">
        <ele>1761.2</ele>
        <time>2018-02-02T12:57:17Z</time>
      </trkpt>
      <trkpt lat="45.3292" lon="5.76236">
        <ele>1759.6</ele>
        <time>2018-02-02T12:57:22Z</time>
      </trkpt>
      <trkpt lat="45.32919" lon="5.76238">
        <ele>1760.6</ele>
        <time>2018-02-02T12:57:27Z</time>
      </trkpt>
      <trkpt lat="45.32918" lon="5.76238">
        <ele>1761.8</ele>
        <time>2018-02-02T12:57:32Z</time>
      </trkpt>
      <trkpt lat="45.32918" lon="5.76239">
        <ele>1763.6</ele>
        <time>2018-02-02T12:57:42Z</time>
      </trkpt>
      <trkpt lat="45.32918" lon="5.7624">
        <ele>1763.8</ele>
        <time>2018-02-02T12:58:02Z</time>
      </trkpt>
      <trkpt lat="45.32917" lon="5.76241">
        <ele>1764.2</ele>
        <time>2018-02-02T12:58:07Z</time>
      </trkpt>
      <trkpt lat="45.32916" lon="5.76243">
        <ele>1764.8</ele>
        <time>2018-02-02T12:58:12Z</time>
      </trkpt>
      <trkpt lat="45.32916" lon="5.76243">
        <ele>1764.8</ele>
        <time>2018-02-02T12:58:17Z</time>
      </trkpt>
      <trkpt lat="45.32915" lon="5.76245">
        <ele>1763.2</ele>
        <time>2018-02-02T12:58:22Z</time>
      </trkpt>
      <trkpt lat="45.32914" lon="5.76248">
        <ele>1765.8</ele>
        <time>2018-02-02T12:58:27Z</time>
      </trkpt>
      <trkpt lat="45.32913" lon="5.7625">
        <ele>1767.4</ele>
        <time>2018-02-02T12:58:32Z</time>
      </trkpt>
      <trkpt lat="45.32912" lon="5.76252">
        <ele>1768</ele>
        <time>2018-02-02T12:58:37Z</time>
      </trkpt>
      <trkpt lat="45.32911" lon="5.76253">
        <ele>1770.6</ele>
        <time>2018-02-02T12:58:42Z</time>
      </trkpt>
      <trkpt lat="45.3291" lon="5.76253">
        <ele>1770.2</ele>
        <time>2018-02-02T12:58:47Z</time>
      </trkpt>
      <trkpt lat="45.32909" lon="5.76255">
        <ele>1768.6</ele>
        <time>2018-02-02T12:58:52Z</time>
      </trkpt>
      <trkpt lat="45.32908" lon="5.76257">
        <ele>1769</ele>
        <time>2018-02-02T12:58:57Z</time>
      </trkpt>
      <trkpt lat="45.32906" lon="5.76258">
        <ele>1767.4</ele>
        <time>2018-02-02T12:59:02Z</time>
      </trkpt>
      <trkpt lat="45.32906" lon="5.76259">
        <ele>1768</ele>
        <time>2018-02-02T12:59:07Z</time>
      </trkpt>
      <trkpt lat="45.32907" lon="5.76261">
        <ele>1768.2</ele>
        <time>2018-02-02T12:59:12Z</time>
      </trkpt>
      <trkpt lat="45.32908" lon="5.76262">
        <ele>1768.8</ele>
        <time>2018-02-02T12:59:17Z</time>
      </trkpt>
      <trkpt lat="45.32909" lon="5.76263">
        <ele>1770.2</ele>
        <time>2018-02-02T12:59:22Z</time>
      </trkpt>
      <trkpt lat="45.32909" lon="5.76265">
        <ele>1768.2</ele>
        <time>2018-02-02T12:59:27Z</time>
      </trkpt>
      <trkpt lat="45.32908" lon="5.76268">
        <ele>1769.2</ele>
        <time>2018-02-02T12:59:32Z</time>
      </trkpt>
      <trkpt lat="45.32907" lon="5.76271">
        <ele>1770</ele>
        <time>2018-02-02T12:59:37Z</time>
      </trkpt>
      <trkpt lat="45.32906" lon="5.76272">
        <ele>1769.6</ele>
        <time>2018-02-02T12:59:42Z</time>
      </trkpt>
      <trkpt lat="45.32906" lon="5.76273">
        <ele>1767.2</ele>
        <time>2018-02-02T12:59:52Z</time>
      </trkpt>
      <trkpt lat="45.32903" lon="5.76277">
        <ele>1774.2</ele>
        <time>2018-02-02T12:59:57Z</time>
      </trkpt>
      <trkpt lat="45.32901" lon="5.76279">
        <ele>1774.8</ele>
        <time>2018-02-02T13:00:02Z</time>
      </trkpt>
      <trkpt lat="45.32899" lon="5.76281">
        <ele>1770.8</ele>
        <time>2018-02-02T13:00:07Z</time>
      </trkpt>
      <trkpt lat="45.32895" lon="5.76283">
        <ele>1773.6</ele>
        <time>2018-02-02T13:00:12Z</time>
      </trkpt>
      <trkpt lat="45.32891" lon="5.76285">
        <ele>1771.8</ele>
        <time>2018-02-02T13:00:17Z</time>
      </trkpt>
      <trkpt lat="45.32885" lon="5.76286">
        <ele>1770.2</ele>
        <time>2018-02-02T13:00:22Z</time>
      </trkpt>
      <trkpt lat="45.32878" lon="5.76287">
        <ele>1767.6</ele>
        <time>2018-02-02T13:00:27Z</time>
      </trkpt>
      <trkpt lat="45.32873" lon="5.76287">
        <ele>1768</ele>
        <time>2018-02-02T13:00:32Z</time>
      </trkpt>
      <trkpt lat="45.32871" lon="5.76289">
        <ele>1771</ele>
        <time>2018-02-02T13:00:37Z</time>
      </trkpt>
      <trkpt lat="45.32868" lon="5.7629">
        <ele>1772.4</ele>
        <time>2018-02-02T13:00:42Z</time>
      </trkpt>
      <trkpt lat="45.32866" lon="5.76291">
        <ele>1769.8</ele>
        <time>2018-02-02T13:00:47Z</time>
      </trkpt>
      <trkpt lat="45.32863" lon="5.76293">
        <ele>1773.2</ele>
        <time>2018-02-02T13:00:52Z</time>
      </trkpt>
      <trkpt lat="45.32861" lon="5.76295">
        <ele>1770.4</ele>
        <time>2018-02-02T13:00:57Z</time>
      </trkpt>
      <trkpt lat="45.32859" lon="5.76296">
        <ele>1771.4</ele>
        <time>2018-02-02T13:01:02Z</time>
      </trkpt>
      <trkpt lat="45.32857" lon="5.76297">
        <ele>1772.2</ele>
        <time>2018-02-02T13:01:07Z</time>
      </trkpt>
      <trkpt lat="45.32855" lon="5.76298">
        <ele>1773.2</ele>
        <time>2018-02-02T13:01:12Z</time>
      </trkpt>
      <trkpt lat="45.32853" lon="5.76299">
        <ele>1773.8</ele>
        <time>2018-02-02T13:01:17Z</time>
      </trkpt>
      <trkpt lat="45.32852" lon="5.763">
        <ele>1774.6</ele>
        <time>2018-02-02T13:01:22Z</time>
      </trkpt>
      <trkpt lat="45.3285" lon="5.76301">
        <ele>1770.4</ele>
        <time>2018-02-02T13:01:27Z</time>
      </trkpt>
      <trkpt lat="45.32847" lon="5.76301">
        <ele>1770.2</ele>
        <time>2018-02-02T13:01:32Z</time>
      </trkpt>
      <trkpt lat="45.32845" lon="5.76302">
        <ele>1776.4</ele>
        <time>2018-02-02T13:01:37Z</time>
      </trkpt>
      <trkpt lat="45.32843" lon="5.76303">
        <ele>1776.6</ele>
        <time>2018-02-02T13:01:42Z</time>
      </trkpt>
      <trkpt lat="45.32841" lon="5.76303">
        <ele>1776.6</ele>
        <time>2018-02-02T13:01:47Z</time>
      </trkpt>
      <trkpt lat="45.32839" lon="5.76303">
        <ele>1780.4</ele>
        <time>2018-02-02T13:01:52Z</time>
      </trkpt>
      <trkpt lat="45.32837" lon="5.76303">
        <ele>1779</ele>
        <time>2018-02-02T13:01:57Z</time>
      </trkpt>
      <trkpt lat="45.32835" lon="5.76304">
        <ele>1777.6</ele>
        <time>2018-02-02T13:02:02Z</time>
      </trkpt>
      <trkpt lat="45.32835" lon="5.76303">
        <ele>1777.6</ele>
        <time>2018-02-02T13:02:12Z</time>
      </trkpt>
      <trkpt lat="45.32833" lon="5.76303">
        <ele>1779</ele>
        <time>2018-02-02T13:02:17Z</time>
      </trkpt>
      <trkpt lat="45.3283" lon="5.76303">
        <ele>1778.8</ele>
        <time>2018-02-02T13:02:22Z</time>
      </trkpt>
      <trkpt lat="45.32828" lon="5.76304">
        <ele>1775.8</ele>
        <time>2018-02-02T13:02:27Z</time>
      </trkpt>
      <trkpt lat="45.32826" lon="5.76305">
        <ele>1778</ele>
        <time>2018-02-02T13:02:32Z</time>
      </trkpt>
      <trkpt lat="45.32824" lon="5.76306">
        <ele>1781</ele>
        <time>2018-02-02T13:02:37Z</time>
      </trkpt>
      <trkpt lat="45.32823" lon="5.76307">
        <ele>1781</ele>
        <time>2018-02-02T13:02:42Z</time>
      </trkpt>
      <trkpt lat="45.32822" lon="5.76308">
        <ele>1778.8</ele>
        <time>2018-02-02T13:02:47Z</time>
      </trkpt>
      <trkpt lat="45.3282" lon="5.76309">
        <ele>1780.6</ele>
        <time>2018-02-02T13:02:52Z</time>
      </trkpt>
      <trkpt lat="45.32818" lon="5.7631">
        <ele>1782.2</ele>
        <time>2018-02-02T13:02:57Z</time>
      </trkpt>
      <trkpt lat="45.32816" lon="5.76311">
        <ele>1780.8</ele>
        <time>2018-02-02T13:03:02Z</time>
      </trkpt>
      <trkpt lat="45.32813" lon="5.76312">
        <ele>1782.6</ele>
        <time>2018-02-02T13:03:07Z</time>
      </trkpt>
      <trkpt lat="45.32811" lon="5.76313">
        <ele>1785.4</ele>
        <time>2018-02-02T13:03:12Z</time>
      </trkpt>
      <trkpt lat="45.32809" lon="5.76314">
        <ele>1783.2</ele>
        <time>2018-02-02T13:03:17Z</time>
      </trkpt>
      <trkpt lat="45.32807" lon="5.76315">
        <ele>1785.2</ele>
        <time>2018-02-02T13:03:22Z</time>
      </trkpt>
      <trkpt lat="45.32804" lon="5.76316">
        <ele>1784.8</ele>
        <time>2018-02-02T13:03:27Z</time>
      </trkpt>
      <trkpt lat="45.32802" lon="5.76318">
        <ele>1783.2</ele>
        <time>2018-02-02T13:03:32Z</time>
      </trkpt>
      <trkpt lat="45.328" lon="5.7632">
        <ele>1787.4</ele>
        <time>2018-02-02T13:03:37Z</time>
      </trkpt>
      <trkpt lat="45.32797" lon="5.76321">
        <ele>1785.6</ele>
        <time>2018-02-02T13:03:42Z</time>
      </trkpt>
      <trkpt lat="45.32795" lon="5.76322">
        <ele>1788.8</ele>
        <time>2018-02-02T13:03:47Z</time>
      </trkpt>
      <trkpt lat="45.32793" lon="5.76323">
        <ele>1791.2</ele>
        <time>2018-02-02T13:03:52Z</time>
      </trkpt>
      <trkpt lat="45.32791" lon="5.76325">
        <ele>1787.2</ele>
        <time>2018-02-02T13:03:57Z</time>
      </trkpt>
      <trkpt lat="45.3279" lon="5.76327">
        <ele>1791.2</ele>
        <time>2018-02-02T13:04:02Z</time>
      </trkpt>
      <trkpt lat="45.32788" lon="5.7633">
        <ele>1790</ele>
        <time>2018-02-02T13:04:07Z</time>
      </trkpt>
      <trkpt lat="45.32787" lon="5.76333">
        <ele>1793.6</ele>
        <time>2018-02-02T13:04:12Z</time>
      </trkpt>
      <trkpt lat="45.32787" lon="5.76334">
        <ele>1791.2</ele>
        <time>2018-02-02T13:04:17Z</time>
      </trkpt>
      <trkpt lat="45.32786" lon="5.76336">
        <ele>1790.4</ele>
        <time>2018-02-02T13:04:22Z</time>
      </trkpt>
      <trkpt lat="45.32784" lon="5.76339">
        <ele>1791.8</ele>
        <time>2018-02-02T13:04:27Z</time>
      </trkpt>
      <trkpt lat="45.32782" lon="5.76341">
        <ele>1789.8</ele>
        <time>2018-02-02T13:04:32Z</time>
      </trkpt>
      <trkpt lat="45.32781" lon="5.76344">
        <ele>1795</ele>
        <time>2018-02-02T13:04:37Z</time>
      </trkpt>
      <trkpt lat="45.32779" lon="5.76346">
        <ele>1796</ele>
        <time>2018-02-02T13:04:42Z</time>
      </trkpt>
      <trkpt lat="45.32778" lon="5.76348">
        <ele>1795.2</ele>
        <time>2018-02-02T13:04:47Z</time>
      </trkpt>
      <trkpt lat="45.32776" lon="5.76351">
        <ele>1798</ele>
        <time>2018-02-02T13:04:53Z</time>
      </trkpt>
      <trkpt lat="45.32775" lon="5.76353">
        <ele>1798.2</ele>
        <time>2018-02-02T13:04:59Z</time>
      </trkpt>
      <trkpt lat="45.32774" lon="5.76355">
        <ele>1798.2</ele>
        <time>2018-02-02T13:05:04Z</time>
      </trkpt>
      <trkpt lat="45.32773" lon="5.76357">
        <ele>1797.4</ele>
        <time>2018-02-02T13:05:09Z</time>
      </trkpt>
      <trkpt lat="45.32772" lon="5.76359">
        <ele>1798.4</ele>
        <time>2018-02-02T13:05:14Z</time>
      </trkpt>
      <trkpt lat="45.32771" lon="5.76361">
        <ele>1799.2</ele>
        <time>2018-02-02T13:05:19Z</time>
      </trkpt>
      <trkpt lat="45.32771" lon="5.76363">
        <ele>1801.4</ele>
        <time>2018-02-02T13:05:24Z</time>
      </trkpt>
      <trkpt lat="45.3277" lon="5.76365">
        <ele>1803.2</ele>
        <time>2018-02-02T13:05:29Z</time>
      </trkpt>
      <trkpt lat="45.32769" lon="5.76367">
        <ele>1800.2</ele>
        <time>2018-02-02T13:05:34Z</time>
      </trkpt>
      <trkpt lat="45.32768" lon="5.76369">
        <ele>1800.4</ele>
        <time>2018-02-02T13:05:44Z</time>
      </trkpt>
      <trkpt lat="45.3277" lon="5.7637">
        <ele>1800.8</ele>
        <time>2018-02-02T13:05:49Z</time>
      </trkpt>
      <trkpt lat="45.32772" lon="5.7637">
        <ele>1800.4</ele>
        <time>2018-02-02T13:05:54Z</time>
      </trkpt>
      <trkpt lat="45.32774" lon="5.7637">
        <ele>1800.6</ele>
        <time>2018-02-02T13:05:59Z</time>
      </trkpt>
      <trkpt lat="45.32776" lon="5.7637">
        <ele>1800</ele>
        <time>2018-02-02T13:06:04Z</time>
      </trkpt>
      <trkpt lat="45.32778" lon="5.76371">
        <ele>1800.8</ele>
        <time>2018-02-02T13:06:09Z</time>
      </trkpt>
      <trkpt lat="45.3278" lon="5.76371">
        <ele>1800.4</ele>
        <time>2018-02-02T13:06:14Z</time>
      </trkpt>
      <trkpt lat="45.32782" lon="5.76371">
        <ele>1803.6</ele>
        <time>2018-02-02T13:06:19Z</time>
      </trkpt>
      <trkpt lat="45.32782" lon="5.76371">
        <ele>1802</ele>
        <time>2018-02-02T13:06:29Z</time>
      </trkpt>
      <trkpt lat="45.32782" lon="5.76373">
        <ele>1801.8</ele>
        <time>2018-02-02T13:06:34Z</time>
      </trkpt>
      <trkpt lat="45.32781" lon="5.76375">
        <ele>1801.6</ele>
        <time>2018-02-02T13:06:39Z</time>
      </trkpt>
      <trkpt lat="45.3278" lon="5.76377">
        <ele>1799.2</ele>
        <time>2018-02-02T13:06:44Z</time>
      </trkpt>
      <trkpt lat="45.32778" lon="5.76378">
        <ele>1803.4</ele>
        <time>2018-02-02T13:06:49Z</time>
      </trkpt>
      <trkpt lat="45.32778" lon="5.76379">
        <ele>1803.8</ele>
        <time>2018-02-02T13:06:54Z</time>
      </trkpt>
      <trkpt lat="45.32777" lon="5.7638">
        <ele>1807.2</ele>
        <time>2018-02-02T13:06:59Z</time>
      </trkpt>
      <trkpt lat="45.32776" lon="5.76381">
        <ele>1806.4</ele>
        <time>2018-02-02T13:07:04Z</time>
      </trkpt>
      <trkpt lat="45.32775" lon="5.76383">
        <ele>1806.8</ele>
        <time>2018-02-02T13:07:09Z</time>
      </trkpt>
      <trkpt lat="45.32774" lon="5.76383">
        <ele>1806.2</ele>
        <time>2018-02-02T13:07:19Z</time>
      </trkpt>
      <trkpt lat="45.32774" lon="5.76384">
        <ele>1804.6</ele>
        <time>2018-02-02T13:07:24Z</time>
      </trkpt>
      <trkpt lat="45.32773" lon="5.76385">
        <ele>1804.4</ele>
        <time>2018-02-02T13:07:29Z</time>
      </trkpt>
      <trkpt lat="45.32772" lon="5.76386">
        <ele>1805.8</ele>
        <time>2018-02-02T13:07:34Z</time>
      </trkpt>
      <trkpt lat="45.32772" lon="5.76386">
        <ele>1806.6</ele>
        <time>2018-02-02T13:07:39Z</time>
      </trkpt>
      <trkpt lat="45.32771" lon="5.76387">
        <ele>1807</ele>
        <time>2018-02-02T13:07:44Z</time>
      </trkpt>
      <trkpt lat="45.3277" lon="5.76388">
        <ele>1807.4</ele>
        <time>2018-02-02T13:07:49Z</time>
      </trkpt>
      <trkpt lat="45.32769" lon="5.7639">
        <ele>1809.6</ele>
        <time>2018-02-02T13:07:54Z</time>
      </trkpt>
      <trkpt lat="45.32767" lon="5.76392">
        <ele>1809.8</ele>
        <time>2018-02-02T13:07:59Z</time>
      </trkpt>
      <trkpt lat="45.32765" lon="5.76395">
        <ele>1809.6</ele>
        <time>2018-02-02T13:08:04Z</time>
      </trkpt>
      <trkpt lat="45.32763" lon="5.76397">
        <ele>1812.8</ele>
        <time>2018-02-02T13:08:09Z</time>
      </trkpt>
      <trkpt lat="45.32763" lon="5.76397">
        <ele>1812</ele>
        <time>2018-02-02T13:08:54Z</time>
      </trkpt>
      <trkpt lat="45.32762" lon="5.76399">
        <ele>1815.2</ele>
        <time>2018-02-02T13:08:59Z</time>
      </trkpt>
      <trkpt lat="45.32759" lon="5.764">
        <ele>1813.4</ele>
        <time>2018-02-02T13:09:04Z</time>
      </trkpt>
      <trkpt lat="45.32757" lon="5.76401">
        <ele>1812</ele>
        <time>2018-02-02T13:09:09Z</time>
      </trkpt>
      <trkpt lat="45.32756" lon="5.76402">
        <ele>1812.4</ele>
        <time>2018-02-02T13:09:14Z</time>
      </trkpt>
      <trkpt lat="45.32754" lon="5.76402">
        <ele>1811.2</ele>
        <time>2018-02-02T13:09:19Z</time>
      </trkpt>
      <trkpt lat="45.32752" lon="5.76403">
        <ele>1810.4</ele>
        <time>2018-02-02T13:09:24Z</time>
      </trkpt>
      <trkpt lat="45.32751" lon="5.76405">
        <ele>1809.2</ele>
        <time>2018-02-02T13:09:29Z</time>
      </trkpt>
      <trkpt lat="45.32749" lon="5.76406">
        <ele>1814.4</ele>
        <time>2018-02-02T13:09:34Z</time>
      </trkpt>
      <trkpt lat="45.32748" lon="5.76408">
        <ele>1811.8</ele>
        <time>2018-02-02T13:09:39Z</time>
      </trkpt>
      <trkpt lat="45.32748" lon="5.76409">
        <ele>1814.4</ele>
        <time>2018-02-02T13:09:54Z</time>
      </trkpt>
      <trkpt lat="45.32748" lon="5.76409">
        <ele>1814.8</ele>
        <time>2018-02-02T13:09:59Z</time>
      </trkpt>
      <trkpt lat="45.32747" lon="5.7641">
        <ele>1818.2</ele>
        <time>2018-02-02T13:10:04Z</time>
      </trkpt>
      <trkpt lat="45.32746" lon="5.76411">
        <ele>1818.2</ele>
        <time>2018-02-02T13:10:09Z</time>
      </trkpt>
      <trkpt lat="45.32744" lon="5.76412">
        <ele>1817.4</ele>
        <time>2018-02-02T13:10:14Z</time>
      </trkpt>
      <trkpt lat="45.32743" lon="5.76413">
        <ele>1818.6</ele>
        <time>2018-02-02T13:10:19Z</time>
      </trkpt>
      <trkpt lat="45.32742" lon="5.76414">
        <ele>1816.4</ele>
        <time>2018-02-02T13:10:24Z</time>
      </trkpt>
      <trkpt lat="45.3274" lon="5.76416">
        <ele>1816.2</ele>
        <time>2018-02-02T13:10:29Z</time>
      </trkpt>
      <trkpt lat="45.32739" lon="5.76419">
        <ele>1816.6</ele>
        <time>2018-02-02T13:10:54Z</time>
      </trkpt>
      <trkpt lat="45.32738" lon="5.7642">
        <ele>1815.8</ele>
        <time>2018-02-02T13:12:44Z</time>
      </trkpt>
      <trkpt lat="45.32738" lon="5.76421">
        <ele>1818.6</ele>
        <time>2018-02-02T13:19:54Z</time>
      </trkpt>
      <trkpt lat="45.32737" lon="5.7642">
        <ele>1817.8</ele>
        <time>2018-02-02T13:25:39Z</time>
      </trkpt>
      <trkpt lat="45.32737" lon="5.76419">
        <ele>1817.6</ele>
        <time>2018-02-02T13:26:24Z</time>
      </trkpt>
      <trkpt lat="45.32737" lon="5.76418">
        <ele>1815.8</ele>
        <time>2018-02-02T13:26:29Z</time>
      </trkpt>
      <trkpt lat="45.32727" lon="5.76412">
        <ele>1810.6</ele>
        <time>2018-02-02T13:26:34Z</time>
      </trkpt>
      <trkpt lat="45.3272" lon="5.764">
        <ele>1805.8</ele>
        <time>2018-02-02T13:26:39Z</time>
      </trkpt>
      <trkpt lat="45.32722" lon="5.76399">
        <ele>1806.4</ele>
        <time>2018-02-02T13:26:44Z</time>
      </trkpt>
      <trkpt lat="45.32723" lon="5.76399">
        <ele>1809.2</ele>
        <time>2018-02-02T13:27:34Z</time>
      </trkpt>
      <trkpt lat="45.32723" lon="5.76399">
        <ele>1809</ele>
        <time>2018-02-02T13:27:39Z</time>
      </trkpt>
      <trkpt lat="45.3273" lon="5.76384">
        <ele>1803.4</ele>
        <time>2018-02-02T13:27:44Z</time>
      </trkpt>
      <trkpt lat="45.32727" lon="5.76359">
        <ele>1796.8</ele>
        <time>2018-02-02T13:27:49Z</time>
      </trkpt>
      <trkpt lat="45.3272" lon="5.76333">
        <ele>1785.6</ele>
        <time>2018-02-02T13:27:54Z</time>
      </trkpt>
      <trkpt lat="45.32715" lon="5.76307">
        <ele>1769.4</ele>
        <time>2018-02-02T13:27:59Z</time>
      </trkpt>
      <trkpt lat="45.3271" lon="5.76289">
        <ele>1761.8</ele>
        <time>2018-02-02T13:28:04Z</time>
      </trkpt>
      <trkpt lat="45.32703" lon="5.76272">
        <ele>1751.4</ele>
        <time>2018-02-02T13:28:09Z</time>
      </trkpt>
      <trkpt lat="45.32688" lon="5.76271">
        <ele>1741.6</ele>
        <time>2018-02-02T13:28:14Z</time>
      </trkpt>
      <trkpt lat="45.32686" lon="5.76273">
        <ele>1739</ele>
        <time>2018-02-02T13:28:19Z</time>
      </trkpt>
      <trkpt lat="45.32686" lon="5.76274">
        <ele>1737.8</ele>
        <time>2018-02-02T13:28:24Z</time>
      </trkpt>
      <trkpt lat="45.32685" lon="5.76275">
        <ele>1735</ele>
        <time>2018-02-02T13:29:25Z</time>
      </trkpt>
      <trkpt lat="45.32685" lon="5.76275">
        <ele>1735</ele>
        <time>2018-02-02T13:29:30Z</time>
      </trkpt>
      <trkpt lat="45.32676" lon="5.76274">
        <ele>1730.8</ele>
        <time>2018-02-02T13:29:35Z</time>
      </trkpt>
      <trkpt lat="45.32659" lon="5.76259">
        <ele>1724.2</ele>
        <time>2018-02-02T13:29:40Z</time>
      </trkpt>
      <trkpt lat="45.32646" lon="5.76235">
        <ele>1716.2</ele>
        <time>2018-02-02T13:29:45Z</time>
      </trkpt>
      <trkpt lat="45.32633" lon="5.76209">
        <ele>1700</ele>
        <time>2018-02-02T13:29:50Z</time>
      </trkpt>
      <trkpt lat="45.32634" lon="5.76176">
        <ele>1688.4</ele>
        <time>2018-02-02T13:29:55Z</time>
      </trkpt>
      <trkpt lat="45.32633" lon="5.76169">
        <ele>1685.8</ele>
        <time>2018-02-02T13:30:00Z</time>
      </trkpt>
      <trkpt lat="45.32632" lon="5.7617">
        <ele>1686.2</ele>
        <time>2018-02-02T13:30:05Z</time>
      </trkpt>
      <trkpt lat="45.32633" lon="5.7617">
        <ele>1686.6</ele>
        <time>2018-02-02T13:30:10Z</time>
      </trkpt>
      <trkpt lat="45.32629" lon="5.76167">
        <ele>1687</ele>
        <time>2018-02-02T13:30:15Z</time>
      </trkpt>
      <trkpt lat="45.32615" lon="5.76147">
        <ele>1679.2</ele>
        <time>2018-02-02T13:30:20Z</time>
      </trkpt>
      <trkpt lat="45.32608" lon="5.76118">
        <ele>1665.6</ele>
        <time>2018-02-02T13:30:25Z</time>
      </trkpt>
      <trkpt lat="45.32597" lon="5.76106">
        <ele>1662.8</ele>
        <time>2018-02-02T13:30:30Z</time>
      </trkpt>
      <trkpt lat="45.32596" lon="5.76104">
        <ele>1661</ele>
        <time>2018-02-02T13:30:35Z</time>
      </trkpt>
      <trkpt lat="45.32596" lon="5.76104">
        <ele>1652</ele>
        <time>2018-02-02T13:37:37Z</time>
      </trkpt>
      <trkpt lat="45.32595" lon="5.76104">
        <ele>1652</ele>
        <time>2018-02-02T13:37:57Z</time>
      </trkpt>
      <trkpt lat="45.32594" lon="5.76104">
        <ele>1651.6</ele>
        <time>2018-02-02T13:38:32Z</time>
      </trkpt>
      <trkpt lat="45.32594" lon="5.76103">
        <ele>1651</ele>
        <time>2018-02-02T13:39:42Z</time>
      </trkpt>
      <trkpt lat="45.32593" lon="5.76103">
        <ele>1651.2</ele>
        <time>2018-02-02T13:39:47Z</time>
      </trkpt>
      <trkpt lat="45.32593" lon="5.76103">
        <ele>1651.4</ele>
        <time>2018-02-02T13:39:52Z</time>
      </trkpt>
      <trkpt lat="45.32591" lon="5.76104">
        <ele>1651.4</ele>
        <time>2018-02-02T13:39:57Z</time>
      </trkpt>
      <trkpt lat="45.32588" lon="5.76101">
        <ele>1652.2</ele>
        <time>2018-02-02T13:41:22Z</time>
      </trkpt>
      <trkpt lat="45.32586" lon="5.76099">
        <ele>1650.6</ele>
        <time>2018-02-02T13:41:38Z</time>
      </trkpt>
      <trkpt lat="45.32586" lon="5.76096">
        <ele>1651.8</ele>
        <time>2018-02-02T13:41:43Z</time>
      </trkpt>
      <trkpt lat="45.32585" lon="5.7609">
        <ele>1650.2</ele>
        <time>2018-02-02T13:41:48Z</time>
      </trkpt>
      <trkpt lat="45.32582" lon="5.76087">
        <ele>1649.4</ele>
        <time>2018-02-02T13:41:53Z</time>
      </trkpt>
      <trkpt lat="45.32579" lon="5.76084">
        <ele>1652.4</ele>
        <time>2018-02-02T13:41:58Z</time>
      </trkpt>
      <trkpt lat="45.32577" lon="5.76082">
        <ele>1651.8</ele>
        <time>2018-02-02T13:42:03Z</time>
      </trkpt>
      <trkpt lat="45.32572" lon="5.76079">
        <ele>1648.8</ele>
        <time>2018-02-02T13:42:08Z</time>
      </trkpt>
      <trkpt lat="45.3257" lon="5.76076">
        <ele>1649.4</ele>
        <time>2018-02-02T13:42:13Z</time>
      </trkpt>
      <trkpt lat="45.32566" lon="5.76073">
        <ele>1651.6</ele>
        <time>2018-02-02T13:42:18Z</time>
      </trkpt>
      <trkpt lat="45.32562" lon="5.76071">
        <ele>1648.6</ele>
        <time>2018-02-02T13:42:23Z</time>
      </trkpt>
      <trkpt lat="45.32558" lon="5.76069">
        <ele>1649.2</ele>
        <time>2018-02-02T13:42:28Z</time>
      </trkpt>
      <trkpt lat="45.32554" lon="5.76067">
        <ele>1646.8</ele>
        <time>2018-02-02T13:42:33Z</time>
      </trkpt>
      <trkpt lat="45.32552" lon="5.76064">
        <ele>1651</ele>
        <time>2018-02-02T13:42:38Z</time>
      </trkpt>
      <trkpt lat="45.32549" lon="5.76061">
        <ele>1648.4</ele>
        <time>2018-02-02T13:42:43Z</time>
      </trkpt>
      <trkpt lat="45.32546" lon="5.76059">
        <ele>1651.4</ele>
        <time>2018-02-02T13:42:48Z</time>
      </trkpt>
      <trkpt lat="45.32544" lon="5.76057">
        <ele>1651.4</ele>
        <time>2018-02-02T13:42:53Z</time>
      </trkpt>
      <trkpt lat="45.32542" lon="5.76055">
        <ele>1650.8</ele>
        <time>2018-02-02T13:42:58Z</time>
      </trkpt>
      <trkpt lat="45.3254" lon="5.76053">
        <ele>1652.2</ele>
        <time>2018-02-02T13:43:03Z</time>
      </trkpt>
      <trkpt lat="45.32537" lon="5.76051">
        <ele>1650</ele>
        <time>2018-02-02T13:43:08Z</time>
      </trkpt>
      <trkpt lat="45.32535" lon="5.76049">
        <ele>1652.4</ele>
        <time>2018-02-02T13:43:13Z</time>
      </trkpt>
      <trkpt lat="45.32533" lon="5.76047">
        <ele>1651.4</ele>
        <time>2018-02-02T13:43:18Z</time>
      </trkpt>
      <trkpt lat="45.3253" lon="5.76044">
        <ele>1648.8</ele>
        <time>2018-02-02T13:43:23Z</time>
      </trkpt>
      <trkpt lat="45.32528" lon="5.76041">
        <ele>1650.2</ele>
        <time>2018-02-02T13:43:28Z</time>
      </trkpt>
      <trkpt lat="45.32525" lon="5.76038">
        <ele>1650.2</ele>
        <time>2018-02-02T13:43:33Z</time>
      </trkpt>
      <trkpt lat="45.32522" lon="5.76035">
        <ele>1651.6</ele>
        <time>2018-02-02T13:43:38Z</time>
      </trkpt>
      <trkpt lat="45.32519" lon="5.76032">
        <ele>1651.8</ele>
        <time>2018-02-02T13:43:43Z</time>
      </trkpt>
      <trkpt lat="45.32516" lon="5.76029">
        <ele>1652.6</ele>
        <time>2018-02-02T13:43:48Z</time>
      </trkpt>
      <trkpt lat="45.32514" lon="5.76027">
        <ele>1651.2</ele>
        <time>2018-02-02T13:43:53Z</time>
      </trkpt>
      <trkpt lat="45.32511" lon="5.76024">
        <ele>1652.4</ele>
        <time>2018-02-02T13:43:58Z</time>
      </trkpt>
      <trkpt lat="45.32509" lon="5.7602">
        <ele>1653.6</ele>
        <time>2018-02-02T13:44:03Z</time>
      </trkpt>
      <trkpt lat="45.32506" lon="5.76016">
        <ele>1650.2</ele>
        <time>2018-02-02T13:44:08Z</time>
      </trkpt>
      <trkpt lat="45.32503" lon="5.76013">
        <ele>1652.8</ele>
        <time>2018-02-02T13:44:13Z</time>
      </trkpt>
      <trkpt lat="45.32501" lon="5.76009">
        <ele>1650.8</ele>
        <time>2018-02-02T13:44:18Z</time>
      </trkpt>
      <trkpt lat="45.32498" lon="5.76007">
        <ele>1654.4</ele>
        <time>2018-02-02T13:44:23Z</time>
      </trkpt>
      <trkpt lat="45.32496" lon="5.76004">
        <ele>1657</ele>
        <time>2018-02-02T13:44:28Z</time>
      </trkpt>
      <trkpt lat="45.32494" lon="5.76">
        <ele>1654</ele>
        <time>2018-02-02T13:44:33Z</time>
      </trkpt>
      <trkpt lat="45.32493" lon="5.75996">
        <ele>1653.6</ele>
        <time>2018-02-02T13:44:38Z</time>
      </trkpt>
      <trkpt lat="45.3249" lon="5.75992">
        <ele>1652.8</ele>
        <time>2018-02-02T13:44:43Z</time>
      </trkpt>
      <trkpt lat="45.32489" lon="5.75986">
        <ele>1657</ele>
        <time>2018-02-02T13:44:48Z</time>
      </trkpt>
      <trkpt lat="45.32487" lon="5.75982">
        <ele>1657.4</ele>
        <time>2018-02-02T13:44:53Z</time>
      </trkpt>
      <trkpt lat="45.32486" lon="5.75977">
        <ele>1658</ele>
        <time>2018-02-02T13:44:58Z</time>
      </trkpt>
      <trkpt lat="45.32485" lon="5.75972">
        <ele>1659.2</ele>
        <time>2018-02-02T13:45:03Z</time>
      </trkpt>
      <trkpt lat="45.32484" lon="5.75966">
        <ele>1659</ele>
        <time>2018-02-02T13:45:08Z</time>
      </trkpt>
      <trkpt lat="45.32484" lon="5.75956">
        <ele>1659.8</ele>
        <time>2018-02-02T13:45:13Z</time>
      </trkpt>
      <trkpt lat="45.32484" lon="5.75949">
        <ele>1659.6</ele>
        <time>2018-02-02T13:45:18Z</time>
      </trkpt>
      <trkpt lat="45.32484" lon="5.75943">
        <ele>1663.8</ele>
        <time>2018-02-02T13:45:23Z</time>
      </trkpt>
      <trkpt lat="45.32485" lon="5.75938">
        <ele>1661.6</ele>
        <time>2018-02-02T13:45:28Z</time>
      </trkpt>
      <trkpt lat="45.32486" lon="5.75936">
        <ele>1664.8</ele>
        <time>2018-02-02T13:45:33Z</time>
      </trkpt>
      <trkpt lat="45.32488" lon="5.75934">
        <ele>1665.6</ele>
        <time>2018-02-02T13:45:38Z</time>
      </trkpt>
      <trkpt lat="45.3249" lon="5.7593">
        <ele>1663.2</ele>
        <time>2018-02-02T13:45:43Z</time>
      </trkpt>
      <trkpt lat="45.32491" lon="5.75923">
        <ele>1666.2</ele>
        <time>2018-02-02T13:45:48Z</time>
      </trkpt>
      <trkpt lat="45.32493" lon="5.75917">
        <ele>1665.2</ele>
        <time>2018-02-02T13:45:53Z</time>
      </trkpt>
      <trkpt lat="45.32494" lon="5.75909">
        <ele>1669</ele>
        <time>2018-02-02T13:45:58Z</time>
      </trkpt>
      <trkpt lat="45.32494" lon="5.75903">
        <ele>1670.4</ele>
        <time>2018-02-02T13:46:03Z</time>
      </trkpt>
      <trkpt lat="45.32493" lon="5.75898">
        <ele>1670.8</ele>
        <time>2018-02-02T13:46:08Z</time>
      </trkpt>
      <trkpt lat="45.32491" lon="5.75894">
        <ele>1671.4</ele>
        <time>2018-02-02T13:46:13Z</time>
      </trkpt>
      <trkpt lat="45.32487" lon="5.7589">
        <ele>1670.6</ele>
        <time>2018-02-02T13:46:18Z</time>
      </trkpt>
      <trkpt lat="45.32482" lon="5.75886">
        <ele>1668</ele>
        <time>2018-02-02T13:46:23Z</time>
      </trkpt>
      <trkpt lat="45.3248" lon="5.75882">
        <ele>1665.6</ele>
        <time>2018-02-02T13:46:28Z</time>
      </trkpt>
      <trkpt lat="45.32477" lon="5.75878">
        <ele>1665</ele>
        <time>2018-02-02T13:46:33Z</time>
      </trkpt>
      <trkpt lat="45.32476" lon="5.75876">
        <ele>1660</ele>
        <time>2018-02-02T13:46:38Z</time>
      </trkpt>
      <trkpt lat="45.32476" lon="5.75876">
        <ele>1660</ele>
        <time>2018-02-02T13:46:43Z</time>
      </trkpt>
      <trkpt lat="45.32475" lon="5.75876">
        <ele>1657</ele>
        <time>2018-02-02T13:46:48Z</time>
      </trkpt>
      <trkpt lat="45.3247" lon="5.75872">
        <ele>1656.6</ele>
        <time>2018-02-02T13:46:53Z</time>
      </trkpt>
      <trkpt lat="45.32467" lon="5.75868">
        <ele>1652</ele>
        <time>2018-02-02T13:46:58Z</time>
      </trkpt>
      <trkpt lat="45.32465" lon="5.75864">
        <ele>1652</ele>
        <time>2018-02-02T13:47:03Z</time>
      </trkpt>
      <trkpt lat="45.32464" lon="5.75857">
        <ele>1646</ele>
        <time>2018-02-02T13:47:13Z</time>
      </trkpt>
      <trkpt lat="45.32465" lon="5.75857">
        <ele>1645.4</ele>
        <time>2018-02-02T13:47:18Z</time>
      </trkpt>
      <trkpt lat="45.32465" lon="5.75857">
        <ele>1644</ele>
        <time>2018-02-02T13:47:23Z</time>
      </trkpt>
      <trkpt lat="45.32466" lon="5.75857">
        <ele>1643</ele>
        <time>2018-02-02T13:47:28Z</time>
      </trkpt>
      <trkpt lat="45.32467" lon="5.75857">
        <ele>1642.6</ele>
        <time>2018-02-02T13:47:33Z</time>
      </trkpt>
      <trkpt lat="45.32467" lon="5.75858">
        <ele>1641.6</ele>
        <time>2018-02-02T13:47:48Z</time>
      </trkpt>
      <trkpt lat="45.32468" lon="5.75858">
        <ele>1641.6</ele>
        <time>2018-02-02T13:47:53Z</time>
      </trkpt>
      <trkpt lat="45.32469" lon="5.75858">
        <ele>1641.6</ele>
        <time>2018-02-02T13:47:58Z</time>
      </trkpt>
      <trkpt lat="45.32471" lon="5.75858">
        <ele>1641.4</ele>
        <time>2018-02-02T13:48:03Z</time>
      </trkpt>
      <trkpt lat="45.32475" lon="5.75859">
        <ele>1641.8</ele>
        <time>2018-02-02T13:48:08Z</time>
      </trkpt>
      <trkpt lat="45.32482" lon="5.75859">
        <ele>1642.4</ele>
        <time>2018-02-02T13:48:13Z</time>
      </trkpt>
      <trkpt lat="45.32484" lon="5.75859">
        <ele>1643</ele>
        <time>2018-02-02T13:48:18Z</time>
      </trkpt>
      <trkpt lat="45.32485" lon="5.75859">
        <ele>1644.4</ele>
        <time>2018-02-02T13:48:43Z</time>
      </trkpt>
      <trkpt lat="45.32485" lon="5.75858">
        <ele>1643.4</ele>
        <time>2018-02-02T13:48:48Z</time>
      </trkpt>
      <trkpt lat="45.32485" lon="5.75857">
        <ele>1644</ele>
        <time>2018-02-02T13:48:53Z</time>
      </trkpt>
      <trkpt lat="45.32486" lon="5.75854">
        <ele>1642.2</ele>
        <time>2018-02-02T13:48:58Z</time>
      </trkpt>
      <trkpt lat="45.32487" lon="5.75851">
        <ele>1646</ele>
        <time>2018-02-02T13:49:03Z</time>
      </trkpt>
      <trkpt lat="45.32489" lon="5.75848">
        <ele>1643.8</ele>
        <time>2018-02-02T13:49:08Z</time>
      </trkpt>
      <trkpt lat="45.3249" lon="5.75845">
        <ele>1645.2</ele>
        <time>2018-02-02T13:49:13Z</time>
      </trkpt>
      <trkpt lat="45.32492" lon="5.75843">
        <ele>1645.2</ele>
        <time>2018-02-02T13:49:18Z</time>
      </trkpt>
      <trkpt lat="45.32493" lon="5.75838">
        <ele>1652.4</ele>
        <time>2018-02-02T13:49:43Z</time>
      </trkpt>
      <trkpt lat="45.32495" lon="5.75835">
        <ele>1652.6</ele>
        <time>2018-02-02T13:49:58Z</time>
      </trkpt>
      <trkpt lat="45.32496" lon="5.75834">
        <ele>1653</ele>
        <time>2018-02-02T13:50:03Z</time>
      </trkpt>
      <trkpt lat="45.325" lon="5.75833">
        <ele>1654</ele>
        <time>2018-02-02T13:50:08Z</time>
      </trkpt>
      <trkpt lat="45.32504" lon="5.75833">
        <ele>1650.4</ele>
        <time>2018-02-02T13:50:13Z</time>
      </trkpt>
      <trkpt lat="45.32508" lon="5.75832">
        <ele>1656.2</ele>
        <time>2018-02-02T13:50:18Z</time>
      </trkpt>
      <trkpt lat="45.32509" lon="5.7583">
        <ele>1656.6</ele>
        <time>2018-02-02T13:50:23Z</time>
      </trkpt>
      <trkpt lat="45.32511" lon="5.75827">
        <ele>1658.2</ele>
        <time>2018-02-02T13:50:28Z</time>
      </trkpt>
      <trkpt lat="45.32514" lon="5.75824">
        <ele>1656.2</ele>
        <time>2018-02-02T13:50:33Z</time>
      </trkpt>
      <trkpt lat="45.32515" lon="5.75822">
        <ele>1658.2</ele>
        <time>2018-02-02T13:50:38Z</time>
      </trkpt>
      <trkpt lat="45.32515" lon="5.75822">
        <ele>1661.8</ele>
        <time>2018-02-02T13:50:43Z</time>
      </trkpt>
      <trkpt lat="45.32513" lon="5.75822">
        <ele>1662.2</ele>
        <time>2018-02-02T13:50:48Z</time>
      </trkpt>
      <trkpt lat="45.32512" lon="5.75821">
        <ele>1660.8</ele>
        <time>2018-02-02T13:50:53Z</time>
      </trkpt>
      <trkpt lat="45.32511" lon="5.7582">
        <ele>1659.8</ele>
        <time>2018-02-02T13:50:58Z</time>
      </trkpt>
      <trkpt lat="45.3251" lon="5.75814">
        <ele>1660.6</ele>
        <time>2018-02-02T13:51:23Z</time>
      </trkpt>
      <trkpt lat="45.32513" lon="5.75811">
        <ele>1661.4</ele>
        <time>2018-02-02T13:51:28Z</time>
      </trkpt>
      <trkpt lat="45.32515" lon="5.75809">
        <ele>1664.8</ele>
        <time>2018-02-02T13:51:33Z</time>
      </trkpt>
      <trkpt lat="45.32517" lon="5.75807">
        <ele>1666.4</ele>
        <time>2018-02-02T13:51:43Z</time>
      </trkpt>
      <trkpt lat="45.32518" lon="5.75806">
        <ele>1668</ele>
        <time>2018-02-02T13:51:48Z</time>
      </trkpt>
      <trkpt lat="45.32519" lon="5.758">
        <ele>1670.6</ele>
        <time>2018-02-02T13:52:03Z</time>
      </trkpt>
      <trkpt lat="45.32519" lon="5.75797">
        <ele>1669</ele>
        <time>2018-02-02T13:52:08Z</time>
      </trkpt>
      <trkpt lat="45.32518" lon="5.75794">
        <ele>1672.4</ele>
        <time>2018-02-02T13:52:13Z</time>
      </trkpt>
      <trkpt lat="45.32518" lon="5.7579">
        <ele>1672</ele>
        <time>2018-02-02T13:52:18Z</time>
      </trkpt>
      <trkpt lat="45.32517" lon="5.75786">
        <ele>1676.4</ele>
        <time>2018-02-02T13:52:23Z</time>
      </trkpt>
      <trkpt lat="45.32517" lon="5.75782">
        <ele>1676.4</ele>
        <time>2018-02-02T13:52:28Z</time>
      </trkpt>
      <trkpt lat="45.32516" lon="5.75778">
        <ele>1675.8</ele>
        <time>2018-02-02T13:52:33Z</time>
      </trkpt>
      <trkpt lat="45.32516" lon="5.75774">
        <ele>1679</ele>
        <time>2018-02-02T13:52:38Z</time>
      </trkpt>
      <trkpt lat="45.32515" lon="5.75771">
        <ele>1678.8</ele>
        <time>2018-02-02T13:52:43Z</time>
      </trkpt>
      <trkpt lat="45.32515" lon="5.75769">
        <ele>1681.2</ele>
        <time>2018-02-02T13:52:48Z</time>
      </trkpt>
      <trkpt lat="45.32514" lon="5.7577">
        <ele>1681.8</ele>
        <time>2018-02-02T13:52:53Z</time>
      </trkpt>
      <trkpt lat="45.32514" lon="5.7577">
        <ele>1681.4</ele>
        <time>2018-02-02T13:52:58Z</time>
      </trkpt>
      <trkpt lat="45.3251" lon="5.75774">
        <ele>1681.6</ele>
        <time>2018-02-02T13:53:03Z</time>
      </trkpt>
      <trkpt lat="45.32507" lon="5.75777">
        <ele>1682.2</ele>
        <time>2018-02-02T13:53:08Z</time>
      </trkpt>
      <trkpt lat="45.32504" lon="5.75779">
        <ele>1685.2</ele>
        <time>2018-02-02T13:53:13Z</time>
      </trkpt>
      <trkpt lat="45.32503" lon="5.75778">
        <ele>1685.6</ele>
        <time>2018-02-02T13:53:18Z</time>
      </trkpt>
      <trkpt lat="45.32502" lon="5.75775">
        <ele>1684.4</ele>
        <time>2018-02-02T13:53:23Z</time>
      </trkpt>
      <trkpt lat="45.32501" lon="5.75771">
        <ele>1686</ele>
        <time>2018-02-02T13:53:28Z</time>
      </trkpt>
      <trkpt lat="45.32501" lon="5.75768">
        <ele>1686.4</ele>
        <time>2018-02-02T13:53:33Z</time>
      </trkpt>
      <trkpt lat="45.32501" lon="5.75765">
        <ele>1688.8</ele>
        <time>2018-02-02T13:53:38Z</time>
      </trkpt>
      <trkpt lat="45.32498" lon="5.75763">
        <ele>1690</ele>
        <time>2018-02-02T13:54:10Z</time>
      </trkpt>
      <trkpt lat="45.32491" lon="5.7576">
        <ele>1695.4</ele>
        <time>2018-02-02T13:54:50Z</time>
      </trkpt>
      <trkpt lat="45.32488" lon="5.75758">
        <ele>1694.2</ele>
        <time>2018-02-02T13:55:05Z</time>
      </trkpt>
      <trkpt lat="45.32488" lon="5.75756">
        <ele>1695.8</ele>
        <time>2018-02-02T13:55:10Z</time>
      </trkpt>
      <trkpt lat="45.32487" lon="5.75756">
        <ele>1696.4</ele>
        <time>2018-02-02T13:55:20Z</time>
      </trkpt>
      <trkpt lat="45.32484" lon="5.75759">
        <ele>1695.6</ele>
        <time>2018-02-02T13:55:25Z</time>
      </trkpt>
      <trkpt lat="45.32484" lon="5.75761">
        <ele>1696.8</ele>
        <time>2018-02-02T13:55:30Z</time>
      </trkpt>
      <trkpt lat="45.32483" lon="5.75763">
        <ele>1697.8</ele>
        <time>2018-02-02T13:55:35Z</time>
      </trkpt>
      <trkpt lat="45.32482" lon="5.75765">
        <ele>1699</ele>
        <time>2018-02-02T13:55:40Z</time>
      </trkpt>
      <trkpt lat="45.32481" lon="5.75768">
        <ele>1699.2</ele>
        <time>2018-02-02T13:55:45Z</time>
      </trkpt>
      <trkpt lat="45.3248" lon="5.75768">
        <ele>1705.4</ele>
        <time>2018-02-02T13:55:55Z</time>
      </trkpt>
      <trkpt lat="45.32478" lon="5.75768">
        <ele>1705</ele>
        <time>2018-02-02T13:56:00Z</time>
      </trkpt>
      <trkpt lat="45.32477" lon="5.75767">
        <ele>1705.6</ele>
        <time>2018-02-02T13:56:05Z</time>
      </trkpt>
      <trkpt lat="45.32477" lon="5.75766">
        <ele>1705.4</ele>
        <time>2018-02-02T13:56:10Z</time>
      </trkpt>
      <trkpt lat="45.32476" lon="5.75764">
        <ele>1706</ele>
        <time>2018-02-02T13:56:15Z</time>
      </trkpt>
      <trkpt lat="45.32476" lon="5.75765">
        <ele>1702.4</ele>
        <time>2018-02-02T13:56:20Z</time>
      </trkpt>
      <trkpt lat="45.32476" lon="5.75767">
        <ele>1705.2</ele>
        <time>2018-02-02T13:56:25Z</time>
      </trkpt>
      <trkpt lat="45.32474" lon="5.75769">
        <ele>1704.8</ele>
        <time>2018-02-02T13:56:30Z</time>
      </trkpt>
      <trkpt lat="45.32474" lon="5.75772">
        <ele>1708.4</ele>
        <time>2018-02-02T13:56:35Z</time>
      </trkpt>
      <trkpt lat="45.32473" lon="5.75776">
        <ele>1708.8</ele>
        <time>2018-02-02T13:57:05Z</time>
      </trkpt>
      <trkpt lat="45.32472" lon="5.75779">
        <ele>1707</ele>
        <time>2018-02-02T13:57:10Z</time>
      </trkpt>
      <trkpt lat="45.32471" lon="5.75781">
        <ele>1710.4</ele>
        <time>2018-02-02T13:57:15Z</time>
      </trkpt>
      <trkpt lat="45.32471" lon="5.75784">
        <ele>1710.4</ele>
        <time>2018-02-02T13:57:20Z</time>
      </trkpt>
      <trkpt lat="45.3247" lon="5.75784">
        <ele>1710.4</ele>
        <time>2018-02-02T13:57:25Z</time>
      </trkpt>
      <trkpt lat="45.32469" lon="5.75782">
        <ele>1708.2</ele>
        <time>2018-02-02T13:57:30Z</time>
      </trkpt>
      <trkpt lat="45.32466" lon="5.75782">
        <ele>1712.2</ele>
        <time>2018-02-02T13:57:35Z</time>
      </trkpt>
      <trkpt lat="45.32465" lon="5.75782">
        <ele>1713</ele>
        <time>2018-02-02T13:57:45Z</time>
      </trkpt>
      <trkpt lat="45.32465" lon="5.75785">
        <ele>1712.8</ele>
        <time>2018-02-02T13:57:50Z</time>
      </trkpt>
      <trkpt lat="45.32464" lon="5.75789">
        <ele>1718.6</ele>
        <time>2018-02-02T13:57:55Z</time>
      </trkpt>
      <trkpt lat="45.32464" lon="5.75793">
        <ele>1718.4</ele>
        <time>2018-02-02T13:58:00Z</time>
      </trkpt>
      <trkpt lat="45.32463" lon="5.75797">
        <ele>1717.6</ele>
        <time>2018-02-02T13:58:05Z</time>
      </trkpt>
      <trkpt lat="45.32463" lon="5.75801">
        <ele>1715.8</ele>
        <time>2018-02-02T13:58:10Z</time>
      </trkpt>
      <trkpt lat="45.32462" lon="5.75804">
        <ele>1715.4</ele>
        <time>2018-02-02T13:58:15Z</time>
      </trkpt>
      <trkpt lat="45.32461" lon="5.75807">
        <ele>1717.6</ele>
        <time>2018-02-02T13:58:20Z</time>
      </trkpt>
      <trkpt lat="45.32459" lon="5.7581">
        <ele>1718</ele>
        <time>2018-02-02T13:58:25Z</time>
      </trkpt>
      <trkpt lat="45.32457" lon="5.75813">
        <ele>1718</ele>
        <time>2018-02-02T13:58:30Z</time>
      </trkpt>
      <trkpt lat="45.32455" lon="5.75817">
        <ele>1717.6</ele>
        <time>2018-02-02T13:58:35Z</time>
      </trkpt>
      <trkpt lat="45.32455" lon="5.7582">
        <ele>1717.4</ele>
        <time>2018-02-02T13:58:40Z</time>
      </trkpt>
      <trkpt lat="45.32456" lon="5.75823">
        <ele>1721.4</ele>
        <time>2018-02-02T13:58:45Z</time>
      </trkpt>
      <trkpt lat="45.32457" lon="5.75825">
        <ele>1722.2</ele>
        <time>2018-02-02T13:58:50Z</time>
      </trkpt>
      <trkpt lat="45.32457" lon="5.75827">
        <ele>1721.8</ele>
        <time>2018-02-02T13:58:55Z</time>
      </trkpt>
      <trkpt lat="45.32455" lon="5.7583">
        <ele>1721.8</ele>
        <time>2018-02-02T13:59:00Z</time>
      </trkpt>
      <trkpt lat="45.32454" lon="5.75832">
        <ele>1722</ele>
        <time>2018-02-02T13:59:05Z</time>
      </trkpt>
      <trkpt lat="45.32453" lon="5.75833">
        <ele>1726.6</ele>
        <time>2018-02-02T13:59:10Z</time>
      </trkpt>
      <trkpt lat="45.32451" lon="5.75833">
        <ele>1726.2</ele>
        <time>2018-02-02T13:59:15Z</time>
      </trkpt>
      <trkpt lat="45.32448" lon="5.75833">
        <ele>1726.4</ele>
        <time>2018-02-02T13:59:20Z</time>
      </trkpt>
      <trkpt lat="45.32446" lon="5.75833">
        <ele>1729.2</ele>
        <time>2018-02-02T13:59:25Z</time>
      </trkpt>
      <trkpt lat="45.32444" lon="5.75834">
        <ele>1729</ele>
        <time>2018-02-02T13:59:30Z</time>
      </trkpt>
      <trkpt lat="45.32441" lon="5.75835">
        <ele>1729.2</ele>
        <time>2018-02-02T13:59:35Z</time>
      </trkpt>
      <trkpt lat="45.32438" lon="5.75836">
        <ele>1727.4</ele>
        <time>2018-02-02T13:59:41Z</time>
      </trkpt>
      <trkpt lat="45.32436" lon="5.75837">
        <ele>1730.2</ele>
        <time>2018-02-02T13:59:46Z</time>
      </trkpt>
      <trkpt lat="45.32434" lon="5.75837">
        <ele>1732.2</ele>
        <time>2018-02-02T13:59:51Z</time>
      </trkpt>
      <trkpt lat="45.32431" lon="5.75839">
        <ele>1726.4</ele>
        <time>2018-02-02T13:59:56Z</time>
      </trkpt>
      <trkpt lat="45.32431" lon="5.75839">
        <ele>1729.4</ele>
        <time>2018-02-02T14:00:26Z</time>
      </trkpt>
      <trkpt lat="45.32429" lon="5.7584">
        <ele>1726.2</ele>
        <time>2018-02-02T14:00:31Z</time>
      </trkpt>
      <trkpt lat="45.32426" lon="5.75842">
        <ele>1730</ele>
        <time>2018-02-02T14:00:36Z</time>
      </trkpt>
      <trkpt lat="45.32423" lon="5.75844">
        <ele>1731.2</ele>
        <time>2018-02-02T14:00:41Z</time>
      </trkpt>
      <trkpt lat="45.3242" lon="5.75845">
        <ele>1730</ele>
        <time>2018-02-02T14:00:46Z</time>
      </trkpt>
      <trkpt lat="45.32417" lon="5.75847">
        <ele>1730.4</ele>
        <time>2018-02-02T14:00:51Z</time>
      </trkpt>
      <trkpt lat="45.32415" lon="5.75849">
        <ele>1734.4</ele>
        <time>2018-02-02T14:00:56Z</time>
      </trkpt>
      <trkpt lat="45.32412" lon="5.75851">
        <ele>1732</ele>
        <time>2018-02-02T14:01:01Z</time>
      </trkpt>
      <trkpt lat="45.3241" lon="5.75853">
        <ele>1734</ele>
        <time>2018-02-02T14:01:06Z</time>
      </trkpt>
      <trkpt lat="45.32408" lon="5.75856">
        <ele>1732.2</ele>
        <time>2018-02-02T14:01:11Z</time>
      </trkpt>
      <trkpt lat="45.32405" lon="5.75858">
        <ele>1736</ele>
        <time>2018-02-02T14:01:16Z</time>
      </trkpt>
      <trkpt lat="45.32403" lon="5.75861">
        <ele>1735</ele>
        <time>2018-02-02T14:01:21Z</time>
      </trkpt>
      <trkpt lat="45.32401" lon="5.75863">
        <ele>1733.6</ele>
        <time>2018-02-02T14:01:26Z</time>
      </trkpt>
      <trkpt lat="45.32398" lon="5.75866">
        <ele>1734.6</ele>
        <time>2018-02-02T14:01:31Z</time>
      </trkpt>
      <trkpt lat="45.32396" lon="5.7587">
        <ele>1734.2</ele>
        <time>2018-02-02T14:01:36Z</time>
      </trkpt>
      <trkpt lat="45.32394" lon="5.75874">
        <ele>1733.6</ele>
        <time>2018-02-02T14:01:42Z</time>
      </trkpt>
      <trkpt lat="45.32391" lon="5.75877">
        <ele>1733.2</ele>
        <time>2018-02-02T14:01:47Z</time>
      </trkpt>
      <trkpt lat="45.32389" lon="5.7588">
        <ele>1736.6</ele>
        <time>2018-02-02T14:01:52Z</time>
      </trkpt>
      <trkpt lat="45.32386" lon="5.75883">
        <ele>1738.2</ele>
        <time>2018-02-02T14:01:57Z</time>
      </trkpt>
      <trkpt lat="45.32384" lon="5.75886">
        <ele>1736.2</ele>
        <time>2018-02-02T14:02:02Z</time>
      </trkpt>
      <trkpt lat="45.32381" lon="5.75891">
        <ele>1736.8</ele>
        <time>2018-02-02T14:02:07Z</time>
      </trkpt>
      <trkpt lat="45.32379" lon="5.75895">
        <ele>1737.4</ele>
        <time>2018-02-02T14:02:12Z</time>
      </trkpt>
      <trkpt lat="45.32378" lon="5.75899">
        <ele>1736.2</ele>
        <time>2018-02-02T14:02:17Z</time>
      </trkpt>
      <trkpt lat="45.32377" lon="5.75903">
        <ele>1735.2</ele>
        <time>2018-02-02T14:02:22Z</time>
      </trkpt>
      <trkpt lat="45.32376" lon="5.75907">
        <ele>1737.2</ele>
        <time>2018-02-02T14:02:27Z</time>
      </trkpt>
      <trkpt lat="45.32375" lon="5.7591">
        <ele>1740.2</ele>
        <time>2018-02-02T14:02:32Z</time>
      </trkpt>
      <trkpt lat="45.32374" lon="5.75913">
        <ele>1738.6</ele>
        <time>2018-02-02T14:02:37Z</time>
      </trkpt>
      <trkpt lat="45.32374" lon="5.75917">
        <ele>1742</ele>
        <time>2018-02-02T14:02:42Z</time>
      </trkpt>
      <trkpt lat="45.32373" lon="5.7592">
        <ele>1741.6</ele>
        <time>2018-02-02T14:02:47Z</time>
      </trkpt>
      <trkpt lat="45.32373" lon="5.75923">
        <ele>1742.2</ele>
        <time>2018-02-02T14:02:52Z</time>
      </trkpt>
      <trkpt lat="45.32372" lon="5.75926">
        <ele>1743.4</ele>
        <time>2018-02-02T14:02:57Z</time>
      </trkpt>
      <trkpt lat="45.32372" lon="5.7593">
        <ele>1745.8</ele>
        <time>2018-02-02T14:03:02Z</time>
      </trkpt>
      <trkpt lat="45.32372" lon="5.75933">
        <ele>1743.4</ele>
        <time>2018-02-02T14:03:07Z</time>
      </trkpt>
      <trkpt lat="45.32372" lon="5.75937">
        <ele>1747</ele>
        <time>2018-02-02T14:03:12Z</time>
      </trkpt>
      <trkpt lat="45.32372" lon="5.75942">
        <ele>1744.6</ele>
        <time>2018-02-02T14:03:17Z</time>
      </trkpt>
      <trkpt lat="45.32372" lon="5.75945">
        <ele>1746.6</ele>
        <time>2018-02-02T14:03:22Z</time>
      </trkpt>
      <trkpt lat="45.32372" lon="5.75949">
        <ele>1744.8</ele>
        <time>2018-02-02T14:03:27Z</time>
      </trkpt>
      <trkpt lat="45.32373" lon="5.75952">
        <ele>1744.6</ele>
        <time>2018-02-02T14:03:32Z</time>
      </trkpt>
      <trkpt lat="45.32373" lon="5.75956">
        <ele>1746.2</ele>
        <time>2018-02-02T14:03:37Z</time>
      </trkpt>
      <trkpt lat="45.32374" lon="5.75958">
        <ele>1746.2</ele>
        <time>2018-02-02T14:03:42Z</time>
      </trkpt>
      <trkpt lat="45.32374" lon="5.75962">
        <ele>1745.2</ele>
        <time>2018-02-02T14:03:47Z</time>
      </trkpt>
      <trkpt lat="45.32374" lon="5.75965">
        <ele>1747.6</ele>
        <time>2018-02-02T14:03:52Z</time>
      </trkpt>
      <trkpt lat="45.32375" lon="5.75967">
        <ele>1749.2</ele>
        <time>2018-02-02T14:03:57Z</time>
      </trkpt>
      <trkpt lat="45.32375" lon="5.75971">
        <ele>1746.2</ele>
        <time>2018-02-02T14:04:02Z</time>
      </trkpt>
      <trkpt lat="45.32375" lon="5.75974">
        <ele>1749.4</ele>
        <time>2018-02-02T14:04:07Z</time>
      </trkpt>
      <trkpt lat="45.32375" lon="5.75977">
        <ele>1750.2</ele>
        <time>2018-02-02T14:04:12Z</time>
      </trkpt>
      <trkpt lat="45.32376" lon="5.75979">
        <ele>1753.2</ele>
        <time>2018-02-02T14:04:17Z</time>
      </trkpt>
      <trkpt lat="45.32376" lon="5.75982">
        <ele>1752.2</ele>
        <time>2018-02-02T14:04:22Z</time>
      </trkpt>
      <trkpt lat="45.32376" lon="5.75985">
        <ele>1751.4</ele>
        <time>2018-02-02T14:04:27Z</time>
      </trkpt>
      <trkpt lat="45.32377" lon="5.75988">
        <ele>1751.4</ele>
        <time>2018-02-02T14:04:32Z</time>
      </trkpt>
      <trkpt lat="45.32377" lon="5.75991">
        <ele>1751.8</ele>
        <time>2018-02-02T14:04:37Z</time>
      </trkpt>
      <trkpt lat="45.32378" lon="5.75994">
        <ele>1753</ele>
        <time>2018-02-02T14:04:42Z</time>
      </trkpt>
      <trkpt lat="45.32378" lon="5.75996">
        <ele>1752.4</ele>
        <time>2018-02-02T14:04:47Z</time>
      </trkpt>
      <trkpt lat="45.32379" lon="5.75999">
        <ele>1754.2</ele>
        <time>2018-02-02T14:04:52Z</time>
      </trkpt>
      <trkpt lat="45.32379" lon="5.76002">
        <ele>1753.2</ele>
        <time>2018-02-02T14:04:57Z</time>
      </trkpt>
      <trkpt lat="45.32379" lon="5.76005">
        <ele>1755.4</ele>
        <time>2018-02-02T14:05:02Z</time>
      </trkpt>
      <trkpt lat="45.32379" lon="5.76007">
        <ele>1757.8</ele>
        <time>2018-02-02T14:05:07Z</time>
      </trkpt>
      <trkpt lat="45.3238" lon="5.76009">
        <ele>1758</ele>
        <time>2018-02-02T14:05:12Z</time>
      </trkpt>
      <trkpt lat="45.32381" lon="5.76012">
        <ele>1759.6</ele>
        <time>2018-02-02T14:05:17Z</time>
      </trkpt>
      <trkpt lat="45.32381" lon="5.76015">
        <ele>1759.2</ele>
        <time>2018-02-02T14:05:22Z</time>
      </trkpt>
      <trkpt lat="45.32382" lon="5.76018">
        <ele>1760.8</ele>
        <time>2018-02-02T14:05:27Z</time>
      </trkpt>
      <trkpt lat="45.32381" lon="5.76019">
        <ele>1758.2</ele>
        <time>2018-02-02T14:05:32Z</time>
      </trkpt>
      <trkpt lat="45.3238" lon="5.76019">
        <ele>1758.6</ele>
        <time>2018-02-02T14:05:37Z</time>
      </trkpt>
      <trkpt lat="45.32379" lon="5.76019">
        <ele>1758.8</ele>
        <time>2018-02-02T14:05:47Z</time>
      </trkpt>
      <trkpt lat="45.32378" lon="5.76019">
        <ele>1758.2</ele>
        <time>2018-02-02T14:05:52Z</time>
      </trkpt>
      <trkpt lat="45.32377" lon="5.7602">
        <ele>1760.2</ele>
        <time>2018-02-02T14:05:57Z</time>
      </trkpt>
      <trkpt lat="45.32376" lon="5.76021">
        <ele>1763.2</ele>
        <time>2018-02-02T14:06:02Z</time>
      </trkpt>
      <trkpt lat="45.32374" lon="5.76022">
        <ele>1763.2</ele>
        <time>2018-02-02T14:06:07Z</time>
      </trkpt>
      <trkpt lat="45.32372" lon="5.76023">
        <ele>1763</ele>
        <time>2018-02-02T14:06:12Z</time>
      </trkpt>
      <trkpt lat="45.3237" lon="5.76025">
        <ele>1765</ele>
        <time>2018-02-02T14:06:27Z</time>
      </trkpt>
      <trkpt lat="45.3237" lon="5.76026">
        <ele>1765.2</ele>
        <time>2018-02-02T14:09:18Z</time>
      </trkpt>
      <trkpt lat="45.32371" lon="5.76026">
        <ele>1765</ele>
        <time>2018-02-02T14:11:08Z</time>
      </trkpt>
      <trkpt lat="45.32373" lon="5.76028">
        <ele>1769.4</ele>
        <time>2018-02-02T14:11:43Z</time>
      </trkpt>
      <trkpt lat="45.32373" lon="5.76029">
        <ele>1768.6</ele>
        <time>2018-02-02T14:11:48Z</time>
      </trkpt>
      <trkpt lat="45.32374" lon="5.7603">
        <ele>1764</ele>
        <time>2018-02-02T14:11:53Z</time>
      </trkpt>
      <trkpt lat="45.32376" lon="5.76033">
        <ele>1765.6</ele>
        <time>2018-02-02T14:11:58Z</time>
      </trkpt>
      <trkpt lat="45.32377" lon="5.76036">
        <ele>1761.6</ele>
        <time>2018-02-02T14:12:03Z</time>
      </trkpt>
      <trkpt lat="45.32378" lon="5.76038">
        <ele>1764.6</ele>
        <time>2018-02-02T14:12:08Z</time>
      </trkpt>
      <trkpt lat="45.32379" lon="5.76041">
        <ele>1765.8</ele>
        <time>2018-02-02T14:12:13Z</time>
      </trkpt>
      <trkpt lat="45.32379" lon="5.76044">
        <ele>1770.4</ele>
        <time>2018-02-02T14:12:18Z</time>
      </trkpt>
      <trkpt lat="45.3238" lon="5.76046">
        <ele>1771</ele>
        <time>2018-02-02T14:12:23Z</time>
      </trkpt>
      <trkpt lat="45.3238" lon="5.76049">
        <ele>1772.2</ele>
        <time>2018-02-02T14:12:28Z</time>
      </trkpt>
      <trkpt lat="45.32382" lon="5.76051">
        <ele>1777.4</ele>
        <time>2018-02-02T14:12:33Z</time>
      </trkpt>
      <trkpt lat="45.32381" lon="5.76052">
        <ele>1778.8</ele>
        <time>2018-02-02T14:12:38Z</time>
      </trkpt>
      <trkpt lat="45.32379" lon="5.76053">
        <ele>1779.2</ele>
        <time>2018-02-02T14:12:43Z</time>
      </trkpt>
      <trkpt lat="45.32377" lon="5.76053">
        <ele>1778.2</ele>
        <time>2018-02-02T14:12:48Z</time>
      </trkpt>
      <trkpt lat="45.32375" lon="5.76054">
        <ele>1777.6</ele>
        <time>2018-02-02T14:12:53Z</time>
      </trkpt>
      <trkpt lat="45.32373" lon="5.76055">
        <ele>1777</ele>
        <time>2018-02-02T14:12:58Z</time>
      </trkpt>
      <trkpt lat="45.32371" lon="5.76055">
        <ele>1778.2</ele>
        <time>2018-02-02T14:13:03Z</time>
      </trkpt>
      <trkpt lat="45.32371" lon="5.76059">
        <ele>1779.8</ele>
        <time>2018-02-02T14:13:18Z</time>
      </trkpt>
      <trkpt lat="45.32372" lon="5.76061">
        <ele>1777.8</ele>
        <time>2018-02-02T14:13:23Z</time>
      </trkpt>
      <trkpt lat="45.32373" lon="5.76063">
        <ele>1778</ele>
        <time>2018-02-02T14:13:28Z</time>
      </trkpt>
      <trkpt lat="45.32375" lon="5.76066">
        <ele>1779.4</ele>
        <time>2018-02-02T14:13:33Z</time>
      </trkpt>
      <trkpt lat="45.32376" lon="5.76069">
        <ele>1782</ele>
        <time>2018-02-02T14:13:38Z</time>
      </trkpt>
      <trkpt lat="45.32376" lon="5.76072">
        <ele>1780</ele>
        <time>2018-02-02T14:13:43Z</time>
      </trkpt>
      <trkpt lat="45.32377" lon="5.76074">
        <ele>1782.2</ele>
        <time>2018-02-02T14:13:48Z</time>
      </trkpt>
      <trkpt lat="45.32378" lon="5.76077">
        <ele>1787.6</ele>
        <time>2018-02-02T14:13:53Z</time>
      </trkpt>
      <trkpt lat="45.32379" lon="5.76079">
        <ele>1783</ele>
        <time>2018-02-02T14:13:58Z</time>
      </trkpt>
      <trkpt lat="45.3238" lon="5.76082">
        <ele>1784.6</ele>
        <time>2018-02-02T14:14:03Z</time>
      </trkpt>
      <trkpt lat="45.3238" lon="5.76084">
        <ele>1782.8</ele>
        <time>2018-02-02T14:14:08Z</time>
      </trkpt>
      <trkpt lat="45.32379" lon="5.76085">
        <ele>1783.4</ele>
        <time>2018-02-02T14:14:13Z</time>
      </trkpt>
      <trkpt lat="45.32377" lon="5.76086">
        <ele>1783.8</ele>
        <time>2018-02-02T14:14:18Z</time>
      </trkpt>
      <trkpt lat="45.32375" lon="5.76086">
        <ele>1787</ele>
        <time>2018-02-02T14:14:23Z</time>
      </trkpt>
      <trkpt lat="45.32374" lon="5.76087">
        <ele>1787.4</ele>
        <time>2018-02-02T14:14:28Z</time>
      </trkpt>
      <trkpt lat="45.32372" lon="5.76088">
        <ele>1788.4</ele>
        <time>2018-02-02T14:14:33Z</time>
      </trkpt>
      <trkpt lat="45.3237" lon="5.76088">
        <ele>1787.2</ele>
        <time>2018-02-02T14:14:38Z</time>
      </trkpt>
      <trkpt lat="45.32368" lon="5.76089">
        <ele>1788.4</ele>
        <time>2018-02-02T14:14:43Z</time>
      </trkpt>
      <trkpt lat="45.32368" lon="5.76089">
        <ele>1790.8</ele>
        <time>2018-02-02T14:14:48Z</time>
      </trkpt>
      <trkpt lat="45.32369" lon="5.7609">
        <ele>1789.4</ele>
        <time>2018-02-02T14:14:53Z</time>
      </trkpt>
      <trkpt lat="45.32371" lon="5.76092">
        <ele>1790.4</ele>
        <time>2018-02-02T14:14:58Z</time>
      </trkpt>
      <trkpt lat="45.32372" lon="5.76095">
        <ele>1788.6</ele>
        <time>2018-02-02T14:15:03Z</time>
      </trkpt>
      <trkpt lat="45.32374" lon="5.76097">
        <ele>1787.8</ele>
        <time>2018-02-02T14:15:08Z</time>
      </trkpt>
      <trkpt lat="45.32375" lon="5.76099">
        <ele>1786.4</ele>
        <time>2018-02-02T14:15:13Z</time>
      </trkpt>
      <trkpt lat="45.32377" lon="5.76101">
        <ele>1786.4</ele>
        <time>2018-02-02T14:15:18Z</time>
      </trkpt>
      <trkpt lat="45.32378" lon="5.76104">
        <ele>1787.2</ele>
        <time>2018-02-02T14:15:23Z</time>
      </trkpt>
      <trkpt lat="45.32379" lon="5.76106">
        <ele>1786.2</ele>
        <time>2018-02-02T14:15:28Z</time>
      </trkpt>
      <trkpt lat="45.3238" lon="5.76109">
        <ele>1786.8</ele>
        <time>2018-02-02T14:15:33Z</time>
      </trkpt>
      <trkpt lat="45.32381" lon="5.76111">
        <ele>1788.6</ele>
        <time>2018-02-02T14:15:38Z</time>
      </trkpt>
      <trkpt lat="45.32381" lon="5.76114">
        <ele>1788.8</ele>
        <time>2018-02-02T14:15:43Z</time>
      </trkpt>
      <trkpt lat="45.32381" lon="5.76114">
        <ele>1791</ele>
        <time>2018-02-02T14:15:48Z</time>
      </trkpt>
      <trkpt lat="45.32379" lon="5.76115">
        <ele>1791.2</ele>
        <time>2018-02-02T14:15:53Z</time>
      </trkpt>
      <trkpt lat="45.32376" lon="5.76115">
        <ele>1787.2</ele>
        <time>2018-02-02T14:15:58Z</time>
      </trkpt>
      <trkpt lat="45.32374" lon="5.76115">
        <ele>1790.8</ele>
        <time>2018-02-02T14:16:03Z</time>
      </trkpt>
      <trkpt lat="45.32372" lon="5.76115">
        <ele>1793.8</ele>
        <time>2018-02-02T14:16:08Z</time>
      </trkpt>
      <trkpt lat="45.3237" lon="5.76115">
        <ele>1795.4</ele>
        <time>2018-02-02T14:16:13Z</time>
      </trkpt>
      <trkpt lat="45.32368" lon="5.76115">
        <ele>1798.2</ele>
        <time>2018-02-02T14:16:18Z</time>
      </trkpt>
      <trkpt lat="45.32366" lon="5.76115">
        <ele>1798.8</ele>
        <time>2018-02-02T14:16:23Z</time>
      </trkpt>
      <trkpt lat="45.32366" lon="5.76116">
        <ele>1798.8</ele>
        <time>2018-02-02T14:16:28Z</time>
      </trkpt>
      <trkpt lat="45.32365" lon="5.76116">
        <ele>1796.6</ele>
        <time>2018-02-02T14:16:33Z</time>
      </trkpt>
      <trkpt lat="45.32365" lon="5.76116">
        <ele>1798.2</ele>
        <time>2018-02-02T14:16:38Z</time>
      </trkpt>
      <trkpt lat="45.32366" lon="5.76117">
        <ele>1797.6</ele>
        <time>2018-02-02T14:16:43Z</time>
      </trkpt>
      <trkpt lat="45.32367" lon="5.76118">
        <ele>1800</ele>
        <time>2018-02-02T14:16:48Z</time>
      </trkpt>
      <trkpt lat="45.3237" lon="5.76119">
        <ele>1802</ele>
        <time>2018-02-02T14:16:53Z</time>
      </trkpt>
      <trkpt lat="45.32372" lon="5.76121">
        <ele>1802</ele>
        <time>2018-02-02T14:16:58Z</time>
      </trkpt>
      <trkpt lat="45.32373" lon="5.76122">
        <ele>1802.4</ele>
        <time>2018-02-02T14:17:03Z</time>
      </trkpt>
      <trkpt lat="45.32375" lon="5.76124">
        <ele>1801.2</ele>
        <time>2018-02-02T14:17:08Z</time>
      </trkpt>
      <trkpt lat="45.32376" lon="5.76126">
        <ele>1802</ele>
        <time>2018-02-02T14:17:13Z</time>
      </trkpt>
      <trkpt lat="45.32378" lon="5.76128">
        <ele>1798.6</ele>
        <time>2018-02-02T14:17:18Z</time>
      </trkpt>
      <trkpt lat="45.32378" lon="5.76129">
        <ele>1799.4</ele>
        <time>2018-02-02T14:17:33Z</time>
      </trkpt>
      <trkpt lat="45.32377" lon="5.76131">
        <ele>1802.2</ele>
        <time>2018-02-02T14:17:38Z</time>
      </trkpt>
      <trkpt lat="45.32376" lon="5.76131">
        <ele>1800</ele>
        <time>2018-02-02T14:17:43Z</time>
      </trkpt>
      <trkpt lat="45.32374" lon="5.76131">
        <ele>1802.6</ele>
        <time>2018-02-02T14:17:48Z</time>
      </trkpt>
      <trkpt lat="45.32372" lon="5.7613">
        <ele>1801.8</ele>
        <time>2018-02-02T14:17:53Z</time>
      </trkpt>
      <trkpt lat="45.3237" lon="5.7613">
        <ele>1803.4</ele>
        <time>2018-02-02T14:17:58Z</time>
      </trkpt>
      <trkpt lat="45.32368" lon="5.76129">
        <ele>1804.2</ele>
        <time>2018-02-02T14:18:03Z</time>
      </trkpt>
      <trkpt lat="45.32366" lon="5.76128">
        <ele>1802.8</ele>
        <time>2018-02-02T14:18:08Z</time>
      </trkpt>
      <trkpt lat="45.32365" lon="5.76127">
        <ele>1803.6</ele>
        <time>2018-02-02T14:18:13Z</time>
      </trkpt>
      <trkpt lat="45.32363" lon="5.76131">
        <ele>1807.8</ele>
        <time>2018-02-02T14:18:38Z</time>
      </trkpt>
      <trkpt lat="45.32364" lon="5.76133">
        <ele>1808.8</ele>
        <time>2018-02-02T14:18:43Z</time>
      </trkpt>
      <trkpt lat="45.32366" lon="5.76135">
        <ele>1812.2</ele>
        <time>2018-02-02T14:18:48Z</time>
      </trkpt>
      <trkpt lat="45.32366" lon="5.76137">
        <ele>1809.2</ele>
        <time>2018-02-02T14:18:53Z</time>
      </trkpt>
      <trkpt lat="45.32367" lon="5.7614">
        <ele>1810.4</ele>
        <time>2018-02-02T14:18:58Z</time>
      </trkpt>
      <trkpt lat="45.32368" lon="5.76142">
        <ele>1809.2</ele>
        <time>2018-02-02T14:19:03Z</time>
      </trkpt>
      <trkpt lat="45.32369" lon="5.76144">
        <ele>1812.6</ele>
        <time>2018-02-02T14:19:08Z</time>
      </trkpt>
      <trkpt lat="45.32369" lon="5.76148">
        <ele>1810.6</ele>
        <time>2018-02-02T14:19:13Z</time>
      </trkpt>
      <trkpt lat="45.32368" lon="5.76151">
        <ele>1811</ele>
        <time>2018-02-02T14:19:18Z</time>
      </trkpt>
      <trkpt lat="45.32367" lon="5.76152">
        <ele>1810.6</ele>
        <time>2018-02-02T14:19:23Z</time>
      </trkpt>
      <trkpt lat="45.32368" lon="5.76153">
        <ele>1810</ele>
        <time>2018-02-02T14:19:28Z</time>
      </trkpt>
      <trkpt lat="45.32369" lon="5.76156">
        <ele>1817</ele>
        <time>2018-02-02T14:19:33Z</time>
      </trkpt>
      <trkpt lat="45.32371" lon="5.76158">
        <ele>1815.6</ele>
        <time>2018-02-02T14:19:38Z</time>
      </trkpt>
      <trkpt lat="45.32372" lon="5.76159">
        <ele>1815.4</ele>
        <time>2018-02-02T14:19:43Z</time>
      </trkpt>
      <trkpt lat="45.32372" lon="5.76162">
        <ele>1815.4</ele>
        <time>2018-02-02T14:19:48Z</time>
      </trkpt>
      <trkpt lat="45.32373" lon="5.76164">
        <ele>1816.2</ele>
        <time>2018-02-02T14:19:53Z</time>
      </trkpt>
      <trkpt lat="45.32375" lon="5.76167">
        <ele>1816.6</ele>
        <time>2018-02-02T14:19:58Z</time>
      </trkpt>
      <trkpt lat="45.32375" lon="5.76169">
        <ele>1814.8</ele>
        <time>2018-02-02T14:20:03Z</time>
      </trkpt>
      <trkpt lat="45.32376" lon="5.76171">
        <ele>1819.8</ele>
        <time>2018-02-02T14:20:08Z</time>
      </trkpt>
      <trkpt lat="45.32376" lon="5.76172">
        <ele>1822</ele>
        <time>2018-02-02T14:20:13Z</time>
      </trkpt>
      <trkpt lat="45.32375" lon="5.76175">
        <ele>1820.6</ele>
        <time>2018-02-02T14:21:18Z</time>
      </trkpt>
      <trkpt lat="45.32376" lon="5.76175">
        <ele>1819.2</ele>
        <time>2018-02-02T14:22:43Z</time>
      </trkpt>
      <trkpt lat="45.32373" lon="5.7618">
        <ele>1819.2</ele>
        <time>2018-02-02T14:23:43Z</time>
      </trkpt>
      <trkpt lat="45.32373" lon="5.76183">
        <ele>1817.8</ele>
        <time>2018-02-02T14:23:48Z</time>
      </trkpt>
      <trkpt lat="45.32373" lon="5.76186">
        <ele>1820.6</ele>
        <time>2018-02-02T14:23:53Z</time>
      </trkpt>
      <trkpt lat="45.32372" lon="5.76189">
        <ele>1824.2</ele>
        <time>2018-02-02T14:23:58Z</time>
      </trkpt>
      <trkpt lat="45.32371" lon="5.76193">
        <ele>1824.8</ele>
        <time>2018-02-02T14:24:03Z</time>
      </trkpt>
      <trkpt lat="45.3237" lon="5.76197">
        <ele>1824</ele>
        <time>2018-02-02T14:24:08Z</time>
      </trkpt>
      <trkpt lat="45.3237" lon="5.762">
        <ele>1824.6</ele>
        <time>2018-02-02T14:24:13Z</time>
      </trkpt>
      <trkpt lat="45.32369" lon="5.76203">
        <ele>1822.2</ele>
        <time>2018-02-02T14:24:18Z</time>
      </trkpt>
      <trkpt lat="45.32368" lon="5.76205">
        <ele>1822.2</ele>
        <time>2018-02-02T14:24:23Z</time>
      </trkpt>
      <trkpt lat="45.32367" lon="5.76207">
        <ele>1823.8</ele>
        <time>2018-02-02T14:24:28Z</time>
      </trkpt>
      <trkpt lat="45.32365" lon="5.7621">
        <ele>1824.2</ele>
        <time>2018-02-02T14:24:33Z</time>
      </trkpt>
      <trkpt lat="45.32364" lon="5.76213">
        <ele>1827.6</ele>
        <time>2018-02-02T14:24:38Z</time>
      </trkpt>
      <trkpt lat="45.32363" lon="5.76215">
        <ele>1825.4</ele>
        <time>2018-02-02T14:24:43Z</time>
      </trkpt>
      <trkpt lat="45.32362" lon="5.76218">
        <ele>1827</ele>
        <time>2018-02-02T14:24:48Z</time>
      </trkpt>
      <trkpt lat="45.3236" lon="5.76221">
        <ele>1825.2</ele>
        <time>2018-02-02T14:24:53Z</time>
      </trkpt>
      <trkpt lat="45.32359" lon="5.76225">
        <ele>1827.8</ele>
        <time>2018-02-02T14:24:58Z</time>
      </trkpt>
      <trkpt lat="45.32359" lon="5.76228">
        <ele>1827.8</ele>
        <time>2018-02-02T14:25:03Z</time>
      </trkpt>
      <trkpt lat="45.32359" lon="5.7623">
        <ele>1830.6</ele>
        <time>2018-02-02T14:25:08Z</time>
      </trkpt>
      <trkpt lat="45.32359" lon="5.76233">
        <ele>1833</ele>
        <time>2018-02-02T14:25:13Z</time>
      </trkpt>
      <trkpt lat="45.3236" lon="5.76236">
        <ele>1831.2</ele>
        <time>2018-02-02T14:25:18Z</time>
      </trkpt>
      <trkpt lat="45.3236" lon="5.7624">
        <ele>1827.8</ele>
        <time>2018-02-02T14:25:23Z</time>
      </trkpt>
      <trkpt lat="45.32361" lon="5.76243">
        <ele>1827.8</ele>
        <time>2018-02-02T14:25:28Z</time>
      </trkpt>
      <trkpt lat="45.32363" lon="5.76248">
        <ele>1831.4</ele>
        <time>2018-02-02T14:25:34Z</time>
      </trkpt>
      <trkpt lat="45.32365" lon="5.76254">
        <ele>1830.4</ele>
        <time>2018-02-02T14:25:39Z</time>
      </trkpt>
      <trkpt lat="45.32367" lon="5.7626">
        <ele>1829.4</ele>
        <time>2018-02-02T14:25:44Z</time>
      </trkpt>
      <trkpt lat="45.32369" lon="5.76266">
        <ele>1832.6</ele>
        <time>2018-02-02T14:25:49Z</time>
      </trkpt>
      <trkpt lat="45.32371" lon="5.76272">
        <ele>1832.6</ele>
        <time>2018-02-02T14:25:54Z</time>
      </trkpt>
      <trkpt lat="45.32373" lon="5.76275">
        <ele>1832.6</ele>
        <time>2018-02-02T14:25:59Z</time>
      </trkpt>
      <trkpt lat="45.32374" lon="5.7628">
        <ele>1832.4</ele>
        <time>2018-02-02T14:26:04Z</time>
      </trkpt>
      <trkpt lat="45.32375" lon="5.76284">
        <ele>1834</ele>
        <time>2018-02-02T14:26:09Z</time>
      </trkpt>
      <trkpt lat="45.32376" lon="5.76288">
        <ele>1834.4</ele>
        <time>2018-02-02T14:26:14Z</time>
      </trkpt>
      <trkpt lat="45.32378" lon="5.76291">
        <ele>1834.2</ele>
        <time>2018-02-02T14:26:19Z</time>
      </trkpt>
      <trkpt lat="45.32379" lon="5.76296">
        <ele>1834.8</ele>
        <time>2018-02-02T14:26:24Z</time>
      </trkpt>
      <trkpt lat="45.3238" lon="5.763">
        <ele>1836.6</ele>
        <time>2018-02-02T14:26:29Z</time>
      </trkpt>
      <trkpt lat="45.3238" lon="5.76303">
        <ele>1836.6</ele>
        <time>2018-02-02T14:26:34Z</time>
      </trkpt>
      <trkpt lat="45.32381" lon="5.76307">
        <ele>1838</ele>
        <time>2018-02-02T14:26:39Z</time>
      </trkpt>
      <trkpt lat="45.32383" lon="5.7631">
        <ele>1838.8</ele>
        <time>2018-02-02T14:26:44Z</time>
      </trkpt>
      <trkpt lat="45.32385" lon="5.76312">
        <ele>1839.6</ele>
        <time>2018-02-02T14:26:49Z</time>
      </trkpt>
      <trkpt lat="45.32388" lon="5.76316">
        <ele>1840.4</ele>
        <time>2018-02-02T14:26:54Z</time>
      </trkpt>
      <trkpt lat="45.32389" lon="5.76319">
        <ele>1839.2</ele>
        <time>2018-02-02T14:26:59Z</time>
      </trkpt>
      <trkpt lat="45.32391" lon="5.76321">
        <ele>1841.6</ele>
        <time>2018-02-02T14:27:04Z</time>
      </trkpt>
      <trkpt lat="45.32392" lon="5.76323">
        <ele>1841.4</ele>
        <time>2018-02-02T14:27:09Z</time>
      </trkpt>
      <trkpt lat="45.32394" lon="5.76326">
        <ele>1839.6</ele>
        <time>2018-02-02T14:27:14Z</time>
      </trkpt>
      <trkpt lat="45.32396" lon="5.7633">
        <ele>1839</ele>
        <time>2018-02-02T14:27:19Z</time>
      </trkpt>
      <trkpt lat="45.32397" lon="5.76332">
        <ele>1837.4</ele>
        <time>2018-02-02T14:27:24Z</time>
      </trkpt>
      <trkpt lat="45.32399" lon="5.76334">
        <ele>1838.4</ele>
        <time>2018-02-02T14:27:29Z</time>
      </trkpt>
      <trkpt lat="45.324" lon="5.76337">
        <ele>1837.8</ele>
        <time>2018-02-02T14:27:34Z</time>
      </trkpt>
      <trkpt lat="45.32402" lon="5.76339">
        <ele>1839</ele>
        <time>2018-02-02T14:27:39Z</time>
      </trkpt>
      <trkpt lat="45.32404" lon="5.76341">
        <ele>1837.4</ele>
        <time>2018-02-02T14:27:44Z</time>
      </trkpt>
      <trkpt lat="45.32406" lon="5.76342">
        <ele>1839</ele>
        <time>2018-02-02T14:27:49Z</time>
      </trkpt>
      <trkpt lat="45.32408" lon="5.76345">
        <ele>1843.4</ele>
        <time>2018-02-02T14:27:54Z</time>
      </trkpt>
      <trkpt lat="45.32409" lon="5.76346">
        <ele>1845.2</ele>
        <time>2018-02-02T14:27:59Z</time>
      </trkpt>
      <trkpt lat="45.32411" lon="5.76348">
        <ele>1842.8</ele>
        <time>2018-02-02T14:28:04Z</time>
      </trkpt>
      <trkpt lat="45.32413" lon="5.7635">
        <ele>1846.8</ele>
        <time>2018-02-02T14:28:09Z</time>
      </trkpt>
      <trkpt lat="45.32416" lon="5.76352">
        <ele>1845.6</ele>
        <time>2018-02-02T14:28:14Z</time>
      </trkpt>
      <trkpt lat="45.32417" lon="5.76354">
        <ele>1843.4</ele>
        <time>2018-02-02T14:28:19Z</time>
      </trkpt>
      <trkpt lat="45.3242" lon="5.76357">
        <ele>1846.2</ele>
        <time>2018-02-02T14:28:24Z</time>
      </trkpt>
      <trkpt lat="45.32422" lon="5.76359">
        <ele>1848.2</ele>
        <time>2018-02-02T14:28:29Z</time>
      </trkpt>
      <trkpt lat="45.32424" lon="5.76359">
        <ele>1850.2</ele>
        <time>2018-02-02T14:28:34Z</time>
      </trkpt>
      <trkpt lat="45.32427" lon="5.76362">
        <ele>1846.8</ele>
        <time>2018-02-02T14:28:39Z</time>
      </trkpt>
      <trkpt lat="45.32429" lon="5.76365">
        <ele>1851.4</ele>
        <time>2018-02-02T14:28:44Z</time>
      </trkpt>
      <trkpt lat="45.3243" lon="5.76366">
        <ele>1852.8</ele>
        <time>2018-02-02T14:28:49Z</time>
      </trkpt>
      <trkpt lat="45.32433" lon="5.76369">
        <ele>1851.2</ele>
        <time>2018-02-02T14:28:54Z</time>
      </trkpt>
      <trkpt lat="45.32435" lon="5.7637">
        <ele>1855.6</ele>
        <time>2018-02-02T14:28:59Z</time>
      </trkpt>
      <trkpt lat="45.32436" lon="5.76373">
        <ele>1853.2</ele>
        <time>2018-02-02T14:29:04Z</time>
      </trkpt>
      <trkpt lat="45.32438" lon="5.76374">
        <ele>1851.4</ele>
        <time>2018-02-02T14:29:09Z</time>
      </trkpt>
      <trkpt lat="45.32441" lon="5.76376">
        <ele>1853.8</ele>
        <time>2018-02-02T14:29:14Z</time>
      </trkpt>
      <trkpt lat="45.32443" lon="5.76378">
        <ele>1854.6</ele>
        <time>2018-02-02T14:29:19Z</time>
      </trkpt>
      <trkpt lat="45.32445" lon="5.7638">
        <ele>1855.6</ele>
        <time>2018-02-02T14:29:24Z</time>
      </trkpt>
      <trkpt lat="45.32447" lon="5.76381">
        <ele>1852.8</ele>
        <time>2018-02-02T14:29:29Z</time>
      </trkpt>
      <trkpt lat="45.32449" lon="5.76383">
        <ele>1853.6</ele>
        <time>2018-02-02T14:29:34Z</time>
      </trkpt>
      <trkpt lat="45.32451" lon="5.76384">
        <ele>1855.6</ele>
        <time>2018-02-02T14:29:39Z</time>
      </trkpt>
      <trkpt lat="45.32453" lon="5.76386">
        <ele>1852</ele>
        <time>2018-02-02T14:29:44Z</time>
      </trkpt>
      <trkpt lat="45.32455" lon="5.76388">
        <ele>1858.4</ele>
        <time>2018-02-02T14:29:49Z</time>
      </trkpt>
      <trkpt lat="45.32457" lon="5.76389">
        <ele>1857.2</ele>
        <time>2018-02-02T14:29:54Z</time>
      </trkpt>
      <trkpt lat="45.32459" lon="5.7639">
        <ele>1858</ele>
        <time>2018-02-02T14:29:59Z</time>
      </trkpt>
      <trkpt lat="45.32461" lon="5.76392">
        <ele>1856.6</ele>
        <time>2018-02-02T14:30:04Z</time>
      </trkpt>
      <trkpt lat="45.32463" lon="5.76393">
        <ele>1856.4</ele>
        <time>2018-02-02T14:30:09Z</time>
      </trkpt>
      <trkpt lat="45.32465" lon="5.76395">
        <ele>1857.6</ele>
        <time>2018-02-02T14:30:14Z</time>
      </trkpt>
      <trkpt lat="45.32467" lon="5.76396">
        <ele>1860.2</ele>
        <time>2018-02-02T14:30:19Z</time>
      </trkpt>
      <trkpt lat="45.32469" lon="5.76397">
        <ele>1860.8</ele>
        <time>2018-02-02T14:30:24Z</time>
      </trkpt>
      <trkpt lat="45.32471" lon="5.76399">
        <ele>1859.8</ele>
        <time>2018-02-02T14:30:29Z</time>
      </trkpt>
      <trkpt lat="45.32474" lon="5.764">
        <ele>1860</ele>
        <time>2018-02-02T14:30:34Z</time>
      </trkpt>
      <trkpt lat="45.32476" lon="5.76402">
        <ele>1861</ele>
        <time>2018-02-02T14:30:39Z</time>
      </trkpt>
      <trkpt lat="45.32479" lon="5.76403">
        <ele>1864.8</ele>
        <time>2018-02-02T14:30:44Z</time>
      </trkpt>
      <trkpt lat="45.32482" lon="5.76404">
        <ele>1863</ele>
        <time>2018-02-02T14:30:49Z</time>
      </trkpt>
      <trkpt lat="45.32485" lon="5.76406">
        <ele>1862.8</ele>
        <time>2018-02-02T14:30:55Z</time>
      </trkpt>
      <trkpt lat="45.32488" lon="5.76409">
        <ele>1863.8</ele>
        <time>2018-02-02T14:31:01Z</time>
      </trkpt>
      <trkpt lat="45.32489" lon="5.7641">
        <ele>1863.6</ele>
        <time>2018-02-02T14:31:06Z</time>
      </trkpt>
      <trkpt lat="45.32491" lon="5.76412">
        <ele>1866.6</ele>
        <time>2018-02-02T14:31:11Z</time>
      </trkpt>
      <trkpt lat="45.32494" lon="5.76413">
        <ele>1864.2</ele>
        <time>2018-02-02T14:31:16Z</time>
      </trkpt>
      <trkpt lat="45.32497" lon="5.76413">
        <ele>1869.2</ele>
        <time>2018-02-02T14:31:21Z</time>
      </trkpt>
      <trkpt lat="45.325" lon="5.76413">
        <ele>1867.4</ele>
        <time>2018-02-02T14:31:26Z</time>
      </trkpt>
      <trkpt lat="45.32504" lon="5.76413">
        <ele>1871</ele>
        <time>2018-02-02T14:32:01Z</time>
      </trkpt>
      <trkpt lat="45.32505" lon="5.76413">
        <ele>1867.8</ele>
        <time>2018-02-02T14:33:01Z</time>
      </trkpt>
      <trkpt lat="45.32505" lon="5.76413">
        <ele>1867</ele>
        <time>2018-02-02T14:38:41Z</time>
      </trkpt>
      <trkpt lat="45.32505" lon="5.76413">
        <ele>1868.8</ele>
        <time>2018-02-02T14:44:12Z</time>
      </trkpt>
      <trkpt lat="45.32505" lon="5.76414">
        <ele>1867.8</ele>
        <time>2018-02-02T14:45:07Z</time>
      </trkpt>
      <trkpt lat="45.32503" lon="5.76416">
        <ele>1870.2</ele>
        <time>2018-02-02T14:45:12Z</time>
      </trkpt>
      <trkpt lat="45.32497" lon="5.76418">
        <ele>1870.2</ele>
        <time>2018-02-02T14:45:17Z</time>
      </trkpt>
      <trkpt lat="45.32492" lon="5.76416">
        <ele>1867.8</ele>
        <time>2018-02-02T14:45:22Z</time>
      </trkpt>
      <trkpt lat="45.32491" lon="5.76413">
        <ele>1868.4</ele>
        <time>2018-02-02T14:45:27Z</time>
      </trkpt>
      <trkpt lat="45.3248" lon="5.76403">
        <ele>1867.4</ele>
        <time>2018-02-02T14:45:32Z</time>
      </trkpt>
      <trkpt lat="45.32464" lon="5.76397">
        <ele>1863.6</ele>
        <time>2018-02-02T14:45:37Z</time>
      </trkpt>
      <trkpt lat="45.32456" lon="5.76384">
        <ele>1862.2</ele>
        <time>2018-02-02T14:45:42Z</time>
      </trkpt>
      <trkpt lat="45.32439" lon="5.76375">
        <ele>1859.2</ele>
        <time>2018-02-02T14:45:47Z</time>
      </trkpt>
      <trkpt lat="45.32419" lon="5.76363">
        <ele>1853</ele>
        <time>2018-02-02T14:45:52Z</time>
      </trkpt>
      <trkpt lat="45.32414" lon="5.76354">
        <ele>1849.6</ele>
        <time>2018-02-02T14:45:57Z</time>
      </trkpt>
      <trkpt lat="45.32414" lon="5.76355">
        <ele>1849.6</ele>
        <time>2018-02-02T14:46:07Z</time>
      </trkpt>
      <trkpt lat="45.32412" lon="5.76355">
        <ele>1851</ele>
        <time>2018-02-02T14:46:12Z</time>
      </trkpt>
      <trkpt lat="45.32404" lon="5.76339">
        <ele>1846.8</ele>
        <time>2018-02-02T14:46:18Z</time>
      </trkpt>
      <trkpt lat="45.32394" lon="5.76327">
        <ele>1844</ele>
        <time>2018-02-02T14:46:23Z</time>
      </trkpt>
      <trkpt lat="45.32382" lon="5.76313">
        <ele>1840.4</ele>
        <time>2018-02-02T14:46:28Z</time>
      </trkpt>
      <trkpt lat="45.32372" lon="5.76299">
        <ele>1836</ele>
        <time>2018-02-02T14:46:33Z</time>
      </trkpt>
      <trkpt lat="45.32366" lon="5.76288">
        <ele>1836.6</ele>
        <time>2018-02-02T14:46:38Z</time>
      </trkpt>
      <trkpt lat="45.32359" lon="5.76281">
        <ele>1836.6</ele>
        <time>2018-02-02T14:46:43Z</time>
      </trkpt>
      <trkpt lat="45.32354" lon="5.76274">
        <ele>1836.8</ele>
        <time>2018-02-02T14:46:48Z</time>
      </trkpt>
      <trkpt lat="45.32351" lon="5.7627">
        <ele>1836.8</ele>
        <time>2018-02-02T14:46:53Z</time>
      </trkpt>
      <trkpt lat="45.32349" lon="5.76267">
        <ele>1834.2</ele>
        <time>2018-02-02T14:46:58Z</time>
      </trkpt>
      <trkpt lat="45.32348" lon="5.76266">
        <ele>1834</ele>
        <time>2018-02-02T14:47:03Z</time>
      </trkpt>
      <trkpt lat="45.32345" lon="5.76262">
        <ele>1837</ele>
        <time>2018-02-02T14:47:08Z</time>
      </trkpt>
      <trkpt lat="45.32343" lon="5.76259">
        <ele>1835.8</ele>
        <time>2018-02-02T14:47:13Z</time>
      </trkpt>
      <trkpt lat="45.32341" lon="5.76255">
        <ele>1832.6</ele>
        <time>2018-02-02T14:47:18Z</time>
      </trkpt>
      <trkpt lat="45.32338" lon="5.76251">
        <ele>1835</ele>
        <time>2018-02-02T14:47:23Z</time>
      </trkpt>
      <trkpt lat="45.32336" lon="5.76249">
        <ele>1839.8</ele>
        <time>2018-02-02T14:47:28Z</time>
      </trkpt>
      <trkpt lat="45.32333" lon="5.76243">
        <ele>1837.4</ele>
        <time>2018-02-02T14:47:33Z</time>
      </trkpt>
      <trkpt lat="45.3233" lon="5.76237">
        <ele>1836.4</ele>
        <time>2018-02-02T14:47:38Z</time>
      </trkpt>
      <trkpt lat="45.32329" lon="5.76231">
        <ele>1833.2</ele>
        <time>2018-02-02T14:47:43Z</time>
      </trkpt>
      <trkpt lat="45.32328" lon="5.76227">
        <ele>1836.2</ele>
        <time>2018-02-02T14:47:48Z</time>
      </trkpt>
      <trkpt lat="45.32327" lon="5.76226">
        <ele>1837.4</ele>
        <time>2018-02-02T14:47:53Z</time>
      </trkpt>
      <trkpt lat="45.32324" lon="5.76226">
        <ele>1836.8</ele>
        <time>2018-02-02T14:47:58Z</time>
      </trkpt>
      <trkpt lat="45.32321" lon="5.76223">
        <ele>1837</ele>
        <time>2018-02-02T14:48:03Z</time>
      </trkpt>
      <trkpt lat="45.32319" lon="5.76221">
        <ele>1838.2</ele>
        <time>2018-02-02T14:48:08Z</time>
      </trkpt>
      <trkpt lat="45.32316" lon="5.76219">
        <ele>1837.8</ele>
        <time>2018-02-02T14:48:13Z</time>
      </trkpt>
      <trkpt lat="45.32313" lon="5.76222">
        <ele>1838.2</ele>
        <time>2018-02-02T14:48:18Z</time>
      </trkpt>
      <trkpt lat="45.32309" lon="5.76221">
        <ele>1837.6</ele>
        <time>2018-02-02T14:48:23Z</time>
      </trkpt>
      <trkpt lat="45.32306" lon="5.7622">
        <ele>1837.4</ele>
        <time>2018-02-02T14:48:28Z</time>
      </trkpt>
      <trkpt lat="45.32304" lon="5.7622">
        <ele>1840.8</ele>
        <time>2018-02-02T14:48:33Z</time>
      </trkpt>
      <trkpt lat="45.32302" lon="5.7622">
        <ele>1837</ele>
        <time>2018-02-02T14:48:38Z</time>
      </trkpt>
      <trkpt lat="45.32301" lon="5.7622">
        <ele>1838</ele>
        <time>2018-02-02T14:48:43Z</time>
      </trkpt>
      <trkpt lat="45.323" lon="5.76218">
        <ele>1837.4</ele>
        <time>2018-02-02T14:48:48Z</time>
      </trkpt>
      <trkpt lat="45.323" lon="5.76215">
        <ele>1839.4</ele>
        <time>2018-02-02T14:48:53Z</time>
      </trkpt>
      <trkpt lat="45.32301" lon="5.76212">
        <ele>1840.4</ele>
        <time>2018-02-02T14:48:58Z</time>
      </trkpt>
      <trkpt lat="45.32301" lon="5.76209">
        <ele>1839.2</ele>
        <time>2018-02-02T14:49:03Z</time>
      </trkpt>
      <trkpt lat="45.323" lon="5.76206">
        <ele>1839</ele>
        <time>2018-02-02T14:49:08Z</time>
      </trkpt>
      <trkpt lat="45.323" lon="5.76204">
        <ele>1839.6</ele>
        <time>2018-02-02T14:49:13Z</time>
      </trkpt>
      <trkpt lat="45.32299" lon="5.76203">
        <ele>1841.8</ele>
        <time>2018-02-02T14:49:38Z</time>
      </trkpt>
      <trkpt lat="45.323" lon="5.762">
        <ele>1839.4</ele>
        <time>2018-02-02T14:49:43Z</time>
      </trkpt>
      <trkpt lat="45.32299" lon="5.76199">
        <ele>1842</ele>
        <time>2018-02-02T14:49:53Z</time>
      </trkpt>
      <trkpt lat="45.32289" lon="5.7619">
        <ele>1838.4</ele>
        <time>2018-02-02T14:49:58Z</time>
      </trkpt>
      <trkpt lat="45.32262" lon="5.76178">
        <ele>1836.6</ele>
        <time>2018-02-02T14:50:03Z</time>
      </trkpt>
      <trkpt lat="45.32238" lon="5.76167">
        <ele>1832.8</ele>
        <time>2018-02-02T14:50:08Z</time>
      </trkpt>
      <trkpt lat="45.32234" lon="5.76159">
        <ele>1833.8</ele>
        <time>2018-02-02T14:50:13Z</time>
      </trkpt>
      <trkpt lat="45.32231" lon="5.76157">
        <ele>1832</ele>
        <time>2018-02-02T14:50:18Z</time>
      </trkpt>
      <trkpt lat="45.32232" lon="5.76157">
        <ele>1832.8</ele>
        <time>2018-02-02T14:50:28Z</time>
      </trkpt>
      <trkpt lat="45.3222" lon="5.76159">
        <ele>1828.4</ele>
        <time>2018-02-02T14:50:33Z</time>
      </trkpt>
      <trkpt lat="45.32213" lon="5.76139">
        <ele>1822.2</ele>
        <time>2018-02-02T14:50:38Z</time>
      </trkpt>
      <trkpt lat="45.32191" lon="5.76147">
        <ele>1820.2</ele>
        <time>2018-02-02T14:50:43Z</time>
      </trkpt>
      <trkpt lat="45.32176" lon="5.76131">
        <ele>1810.4</ele>
        <time>2018-02-02T14:50:48Z</time>
      </trkpt>
      <trkpt lat="45.32165" lon="5.76112">
        <ele>1800.4</ele>
        <time>2018-02-02T14:50:53Z</time>
      </trkpt>
      <trkpt lat="45.32149" lon="5.76093">
        <ele>1791.4</ele>
        <time>2018-02-02T14:50:58Z</time>
      </trkpt>
      <trkpt lat="45.3214" lon="5.7607">
        <ele>1785.2</ele>
        <time>2018-02-02T14:51:03Z</time>
      </trkpt>
      <trkpt lat="45.32136" lon="5.76061">
        <ele>1779.6</ele>
        <time>2018-02-02T14:51:08Z</time>
      </trkpt>
      <trkpt lat="45.32135" lon="5.76061">
        <ele>1779.2</ele>
        <time>2018-02-02T14:51:13Z</time>
      </trkpt>
      <trkpt lat="45.32134" lon="5.76061">
        <ele>1778.8</ele>
        <time>2018-02-02T14:51:18Z</time>
      </trkpt>
      <trkpt lat="45.32135" lon="5.76058">
        <ele>1776.8</ele>
        <time>2018-02-02T14:51:23Z</time>
      </trkpt>
      <trkpt lat="45.32146" lon="5.76048">
        <ele>1774.4</ele>
        <time>2018-02-02T14:51:28Z</time>
      </trkpt>
      <trkpt lat="45.32148" lon="5.76031">
        <ele>1763</ele>
        <time>2018-02-02T14:51:33Z</time>
      </trkpt>
      <trkpt lat="45.32141" lon="5.76014">
        <ele>1754.6</ele>
        <time>2018-02-02T14:51:38Z</time>
      </trkpt>
      <trkpt lat="45.32133" lon="5.75986">
        <ele>1742.6</ele>
        <time>2018-02-02T14:51:43Z</time>
      </trkpt>
      <trkpt lat="45.32121" lon="5.75951">
        <ele>1730</ele>
        <time>2018-02-02T14:51:48Z</time>
      </trkpt>
      <trkpt lat="45.32109" lon="5.75911">
        <ele>1710.6</ele>
        <time>2018-02-02T14:51:53Z</time>
      </trkpt>
      <trkpt lat="45.32074" lon="5.75884">
        <ele>1703</ele>
        <time>2018-02-02T14:51:58Z</time>
      </trkpt>
      <trkpt lat="45.32051" lon="5.75866">
        <ele>1695.2</ele>
        <time>2018-02-02T14:52:03Z</time>
      </trkpt>
      <trkpt lat="45.32028" lon="5.75833">
        <ele>1687.4</ele>
        <time>2018-02-02T14:52:08Z</time>
      </trkpt>
      <trkpt lat="45.32005" lon="5.7581">
        <ele>1683.4</ele>
        <time>2018-02-02T14:52:13Z</time>
      </trkpt>
      <trkpt lat="45.31992" lon="5.75802">
        <ele>1679.6</ele>
        <time>2018-02-02T14:52:18Z</time>
      </trkpt>
      <trkpt lat="45.31991" lon="5.75801">
        <ele>1681.2</ele>
        <time>2018-02-02T14:52:23Z</time>
      </trkpt>
      <trkpt lat="45.3199" lon="5.75801">
        <ele>1680.2</ele>
        <time>2018-02-02T14:52:33Z</time>
      </trkpt>
      <trkpt lat="45.31987" lon="5.75799">
        <ele>1682.4</ele>
        <time>2018-02-02T14:52:38Z</time>
      </trkpt>
      <trkpt lat="45.31983" lon="5.75793">
        <ele>1678</ele>
        <time>2018-02-02T14:52:43Z</time>
      </trkpt>
      <trkpt lat="45.3198" lon="5.75787">
        <ele>1679.4</ele>
        <time>2018-02-02T14:52:48Z</time>
      </trkpt>
      <trkpt lat="45.31976" lon="5.7578">
        <ele>1678.2</ele>
        <time>2018-02-02T14:52:53Z</time>
      </trkpt>
      <trkpt lat="45.31973" lon="5.7577">
        <ele>1672.8</ele>
        <time>2018-02-02T14:52:58Z</time>
      </trkpt>
      <trkpt lat="45.31969" lon="5.7576">
        <ele>1676.4</ele>
        <time>2018-02-02T14:53:03Z</time>
      </trkpt>
      <trkpt lat="45.31967" lon="5.75755">
        <ele>1675.2</ele>
        <time>2018-02-02T14:53:08Z</time>
      </trkpt>
      <trkpt lat="45.31963" lon="5.75747">
        <ele>1676.4</ele>
        <time>2018-02-02T14:53:13Z</time>
      </trkpt>
      <trkpt lat="45.31961" lon="5.75741">
        <ele>1676.2</ele>
        <time>2018-02-02T14:53:18Z</time>
      </trkpt>
      <trkpt lat="45.31957" lon="5.75737">
        <ele>1676.8</ele>
        <time>2018-02-02T14:53:23Z</time>
      </trkpt>
      <trkpt lat="45.31952" lon="5.75735">
        <ele>1673.4</ele>
        <time>2018-02-02T14:53:28Z</time>
      </trkpt>
      <trkpt lat="45.31948" lon="5.75733">
        <ele>1675.4</ele>
        <time>2018-02-02T14:53:33Z</time>
      </trkpt>
      <trkpt lat="45.31944" lon="5.75731">
        <ele>1679.4</ele>
        <time>2018-02-02T14:53:38Z</time>
      </trkpt>
      <trkpt lat="45.3194" lon="5.75729">
        <ele>1673</ele>
        <time>2018-02-02T14:53:43Z</time>
      </trkpt>
      <trkpt lat="45.31936" lon="5.75727">
        <ele>1673</ele>
        <time>2018-02-02T14:53:48Z</time>
      </trkpt>
      <trkpt lat="45.31932" lon="5.75725">
        <ele>1676.4</ele>
        <time>2018-02-02T14:53:53Z</time>
      </trkpt>
      <trkpt lat="45.31928" lon="5.75722">
        <ele>1675.6</ele>
        <time>2018-02-02T14:53:58Z</time>
      </trkpt>
      <trkpt lat="45.31925" lon="5.7572">
        <ele>1676.6</ele>
        <time>2018-02-02T14:54:03Z</time>
      </trkpt>
      <trkpt lat="45.3192" lon="5.75715">
        <ele>1675.8</ele>
        <time>2018-02-02T14:54:09Z</time>
      </trkpt>
      <trkpt lat="45.31915" lon="5.75708">
        <ele>1671.8</ele>
        <time>2018-02-02T14:54:15Z</time>
      </trkpt>
      <trkpt lat="45.31913" lon="5.75705">
        <ele>1675.2</ele>
        <time>2018-02-02T14:54:20Z</time>
      </trkpt>
      <trkpt lat="45.31909" lon="5.757">
        <ele>1673.6</ele>
        <time>2018-02-02T14:54:25Z</time>
      </trkpt>
      <trkpt lat="45.31906" lon="5.75696">
        <ele>1675</ele>
        <time>2018-02-02T14:54:30Z</time>
      </trkpt>
      <trkpt lat="45.31904" lon="5.75692">
        <ele>1675</ele>
        <time>2018-02-02T14:54:35Z</time>
      </trkpt>
      <trkpt lat="45.31902" lon="5.75689">
        <ele>1674.4</ele>
        <time>2018-02-02T14:54:40Z</time>
      </trkpt>
      <trkpt lat="45.319" lon="5.75686">
        <ele>1675.8</ele>
        <time>2018-02-02T14:54:45Z</time>
      </trkpt>
      <trkpt lat="45.31898" lon="5.75683">
        <ele>1675.2</ele>
        <time>2018-02-02T14:54:50Z</time>
      </trkpt>
      <trkpt lat="45.31896" lon="5.75681">
        <ele>1676.4</ele>
        <time>2018-02-02T14:54:55Z</time>
      </trkpt>
      <trkpt lat="45.31894" lon="5.75678">
        <ele>1676.6</ele>
        <time>2018-02-02T14:55:00Z</time>
      </trkpt>
      <trkpt lat="45.31892" lon="5.75675">
        <ele>1676.6</ele>
        <time>2018-02-02T14:55:05Z</time>
      </trkpt>
      <trkpt lat="45.31891" lon="5.75672">
        <ele>1676.6</ele>
        <time>2018-02-02T14:55:10Z</time>
      </trkpt>
      <trkpt lat="45.31888" lon="5.75668">
        <ele>1679.4</ele>
        <time>2018-02-02T14:55:15Z</time>
      </trkpt>
      <trkpt lat="45.31886" lon="5.75664">
        <ele>1678</ele>
        <time>2018-02-02T14:55:20Z</time>
      </trkpt>
      <trkpt lat="45.31884" lon="5.75661">
        <ele>1678.8</ele>
        <time>2018-02-02T14:55:25Z</time>
      </trkpt>
      <trkpt lat="45.31882" lon="5.75657">
        <ele>1676.8</ele>
        <time>2018-02-02T14:55:30Z</time>
      </trkpt>
      <trkpt lat="45.3188" lon="5.75653">
        <ele>1676.6</ele>
        <time>2018-02-02T14:55:35Z</time>
      </trkpt>
      <trkpt lat="45.31878" lon="5.75649">
        <ele>1681.6</ele>
        <time>2018-02-02T14:55:40Z</time>
      </trkpt>
      <trkpt lat="45.31876" lon="5.75645">
        <ele>1678.6</ele>
        <time>2018-02-02T14:55:45Z</time>
      </trkpt>
      <trkpt lat="45.31873" lon="5.75641">
        <ele>1677.4</ele>
        <time>2018-02-02T14:55:50Z</time>
      </trkpt>
      <trkpt lat="45.3187" lon="5.75636">
        <ele>1678.6</ele>
        <time>2018-02-02T14:55:55Z</time>
      </trkpt>
      <trkpt lat="45.31867" lon="5.75631">
        <ele>1676.2</ele>
        <time>2018-02-02T14:56:00Z</time>
      </trkpt>
      <trkpt lat="45.31865" lon="5.75627">
        <ele>1680.2</ele>
        <time>2018-02-02T14:56:05Z</time>
      </trkpt>
      <trkpt lat="45.31863" lon="5.75624">
        <ele>1678.8</ele>
        <time>2018-02-02T14:56:10Z</time>
      </trkpt>
      <trkpt lat="45.31861" lon="5.75621">
        <ele>1677.2</ele>
        <time>2018-02-02T14:56:15Z</time>
      </trkpt>
      <trkpt lat="45.31858" lon="5.75615">
        <ele>1677.4</ele>
        <time>2018-02-02T14:56:20Z</time>
      </trkpt>
      <trkpt lat="45.31855" lon="5.7561">
        <ele>1679.4</ele>
        <time>2018-02-02T14:56:25Z</time>
      </trkpt>
      <trkpt lat="45.31853" lon="5.75605">
        <ele>1679.2</ele>
        <time>2018-02-02T14:56:30Z</time>
      </trkpt>
      <trkpt lat="45.3185" lon="5.75601">
        <ele>1680.6</ele>
        <time>2018-02-02T14:56:35Z</time>
      </trkpt>
      <trkpt lat="45.31849" lon="5.75597">
        <ele>1678.6</ele>
        <time>2018-02-02T14:56:40Z</time>
      </trkpt>
      <trkpt lat="45.31847" lon="5.75595">
        <ele>1677.8</ele>
        <time>2018-02-02T14:56:45Z</time>
      </trkpt>
      <trkpt lat="45.31843" lon="5.75592">
        <ele>1680</ele>
        <time>2018-02-02T14:56:50Z</time>
      </trkpt>
      <trkpt lat="45.31839" lon="5.75589">
        <ele>1678</ele>
        <time>2018-02-02T14:56:55Z</time>
      </trkpt>
      <trkpt lat="45.31835" lon="5.75585">
        <ele>1680.4</ele>
        <time>2018-02-02T14:57:00Z</time>
      </trkpt>
      <trkpt lat="45.3183" lon="5.75581">
        <ele>1681.4</ele>
        <time>2018-02-02T14:57:05Z</time>
      </trkpt>
      <trkpt lat="45.31824" lon="5.75576">
        <ele>1678.8</ele>
        <time>2018-02-02T14:57:10Z</time>
      </trkpt>
      <trkpt lat="45.31816" lon="5.75571">
        <ele>1678.6</ele>
        <time>2018-02-02T14:57:15Z</time>
      </trkpt>
      <trkpt lat="45.31804" lon="5.7557">
        <ele>1677.6</ele>
        <time>2018-02-02T14:57:20Z</time>
      </trkpt>
      <trkpt lat="45.31797" lon="5.75573">
        <ele>1674.4</ele>
        <time>2018-02-02T14:57:25Z</time>
      </trkpt>
      <trkpt lat="45.31792" lon="5.75575">
        <ele>1673</ele>
        <time>2018-02-02T14:57:30Z</time>
      </trkpt>
      <trkpt lat="45.31785" lon="5.7558">
        <ele>1672.2</ele>
        <time>2018-02-02T14:57:35Z</time>
      </trkpt>
      <trkpt lat="45.31776" lon="5.75585">
        <ele>1672</ele>
        <time>2018-02-02T14:57:40Z</time>
      </trkpt>
      <trkpt lat="45.31766" lon="5.7559">
        <ele>1670.4</ele>
        <time>2018-02-02T14:57:45Z</time>
      </trkpt>
      <trkpt lat="45.31757" lon="5.75589">
        <ele>1670.8</ele>
        <time>2018-02-02T14:57:50Z</time>
      </trkpt>
      <trkpt lat="45.31747" lon="5.75581">
        <ele>1670.6</ele>
        <time>2018-02-02T14:57:55Z</time>
      </trkpt>
      <trkpt lat="45.31741" lon="5.75574">
        <ele>1669.4</ele>
        <time>2018-02-02T14:58:00Z</time>
      </trkpt>
      <trkpt lat="45.31732" lon="5.75561">
        <ele>1671.2</ele>
        <time>2018-02-02T14:58:05Z</time>
      </trkpt>
      <trkpt lat="45.31717" lon="5.7555">
        <ele>1670.4</ele>
        <time>2018-02-02T14:58:10Z</time>
      </trkpt>
      <trkpt lat="45.31701" lon="5.75544">
        <ele>1672.8</ele>
        <time>2018-02-02T14:58:15Z</time>
      </trkpt>
      <trkpt lat="45.31688" lon="5.75536">
        <ele>1669.4</ele>
        <time>2018-02-02T14:58:20Z</time>
      </trkpt>
      <trkpt lat="45.31679" lon="5.75528">
        <ele>1668.8</ele>
        <time>2018-02-02T14:58:25Z</time>
      </trkpt>
      <trkpt lat="45.31671" lon="5.7552">
        <ele>1673</ele>
        <time>2018-02-02T14:58:30Z</time>
      </trkpt>
      <trkpt lat="45.31662" lon="5.75511">
        <ele>1667.4</ele>
        <time>2018-02-02T14:58:35Z</time>
      </trkpt>
      <trkpt lat="45.31655" lon="5.75502">
        <ele>1668.8</ele>
        <time>2018-02-02T14:58:40Z</time>
      </trkpt>
      <trkpt lat="45.31647" lon="5.75492">
        <ele>1666.2</ele>
        <time>2018-02-02T14:58:45Z</time>
      </trkpt>
      <trkpt lat="45.31637" lon="5.75479">
        <ele>1666.8</ele>
        <time>2018-02-02T14:58:51Z</time>
      </trkpt>
      <trkpt lat="45.31628" lon="5.7547">
        <ele>1668.6</ele>
        <time>2018-02-02T14:58:56Z</time>
      </trkpt>
      <trkpt lat="45.31619" lon="5.75461">
        <ele>1669</ele>
        <time>2018-02-02T14:59:01Z</time>
      </trkpt>
      <trkpt lat="45.3161" lon="5.75453">
        <ele>1666.6</ele>
        <time>2018-02-02T14:59:06Z</time>
      </trkpt>
      <trkpt lat="45.31598" lon="5.75446">
        <ele>1667.4</ele>
        <time>2018-02-02T14:59:11Z</time>
      </trkpt>
      <trkpt lat="45.31584" lon="5.75442">
        <ele>1664.2</ele>
        <time>2018-02-02T14:59:16Z</time>
      </trkpt>
      <trkpt lat="45.31571" lon="5.7544">
        <ele>1662.6</ele>
        <time>2018-02-02T14:59:21Z</time>
      </trkpt>
      <trkpt lat="45.31556" lon="5.75436">
        <ele>1662.6</ele>
        <time>2018-02-02T14:59:26Z</time>
      </trkpt>
      <trkpt lat="45.31542" lon="5.75429">
        <ele>1661.8</ele>
        <time>2018-02-02T14:59:31Z</time>
      </trkpt>
      <trkpt lat="45.31531" lon="5.75421">
        <ele>1661.6</ele>
        <time>2018-02-02T14:59:36Z</time>
      </trkpt>
      <trkpt lat="45.3152" lon="5.75411">
        <ele>1661.2</ele>
        <time>2018-02-02T14:59:41Z</time>
      </trkpt>
      <trkpt lat="45.31509" lon="5.75401">
        <ele>1657.8</ele>
        <time>2018-02-02T14:59:46Z</time>
      </trkpt>
      <trkpt lat="45.31496" lon="5.75393">
        <ele>1657.2</ele>
        <time>2018-02-02T14:59:51Z</time>
      </trkpt>
      <trkpt lat="45.31484" lon="5.75391">
        <ele>1657.6</ele>
        <time>2018-02-02T14:59:56Z</time>
      </trkpt>
      <trkpt lat="45.31472" lon="5.75392">
        <ele>1656.8</ele>
        <time>2018-02-02T15:00:01Z</time>
      </trkpt>
      <trkpt lat="45.31461" lon="5.75393">
        <ele>1656.6</ele>
        <time>2018-02-02T15:00:06Z</time>
      </trkpt>
      <trkpt lat="45.31448" lon="5.75391">
        <ele>1655.4</ele>
        <time>2018-02-02T15:00:11Z</time>
      </trkpt>
      <trkpt lat="45.31436" lon="5.75386">
        <ele>1656.2</ele>
        <time>2018-02-02T15:00:16Z</time>
      </trkpt>
      <trkpt lat="45.31427" lon="5.75384">
        <ele>1655.6</ele>
        <time>2018-02-02T15:00:21Z</time>
      </trkpt>
      <trkpt lat="45.31422" lon="5.75383">
        <ele>1656</ele>
        <time>2018-02-02T15:00:26Z</time>
      </trkpt>
      <trkpt lat="45.31414" lon="5.75382">
        <ele>1655.4</ele>
        <time>2018-02-02T15:00:31Z</time>
      </trkpt>
      <trkpt lat="45.31403" lon="5.7538">
        <ele>1654.4</ele>
        <time>2018-02-02T15:00:36Z</time>
      </trkpt>
      <trkpt lat="45.31387" lon="5.75378">
        <ele>1651</ele>
        <time>2018-02-02T15:00:41Z</time>
      </trkpt>
      <trkpt lat="45.31373" lon="5.75376">
        <ele>1648.6</ele>
        <time>2018-02-02T15:00:46Z</time>
      </trkpt>
      <trkpt lat="45.31362" lon="5.75376">
        <ele>1649.4</ele>
        <time>2018-02-02T15:00:51Z</time>
      </trkpt>
      <trkpt lat="45.31349" lon="5.75377">
        <ele>1652.6</ele>
        <time>2018-02-02T15:00:56Z</time>
      </trkpt>
      <trkpt lat="45.31337" lon="5.75381">
        <ele>1650.8</ele>
        <time>2018-02-02T15:01:01Z</time>
      </trkpt>
      <trkpt lat="45.31326" lon="5.75389">
        <ele>1650.6</ele>
        <time>2018-02-02T15:01:06Z</time>
      </trkpt>
      <trkpt lat="45.31316" lon="5.75396">
        <ele>1648.2</ele>
        <time>2018-02-02T15:01:11Z</time>
      </trkpt>
      <trkpt lat="45.31313" lon="5.75397">
        <ele>1649.4</ele>
        <time>2018-02-02T15:01:16Z</time>
      </trkpt>
      <trkpt lat="45.31309" lon="5.75399">
        <ele>1649.2</ele>
        <time>2018-02-02T15:01:21Z</time>
      </trkpt>
      <trkpt lat="45.31306" lon="5.75401">
        <ele>1649.4</ele>
        <time>2018-02-02T15:01:26Z</time>
      </trkpt>
      <trkpt lat="45.31302" lon="5.75401">
        <ele>1648.8</ele>
        <time>2018-02-02T15:01:31Z</time>
      </trkpt>
      <trkpt lat="45.31296" lon="5.75403">
        <ele>1647.2</ele>
        <time>2018-02-02T15:01:36Z</time>
      </trkpt>
      <trkpt lat="45.31289" lon="5.75406">
        <ele>1647.6</ele>
        <time>2018-02-02T15:01:41Z</time>
      </trkpt>
      <trkpt lat="45.31282" lon="5.75408">
        <ele>1649.6</ele>
        <time>2018-02-02T15:01:46Z</time>
      </trkpt>
      <trkpt lat="45.31277" lon="5.7541">
        <ele>1646.8</ele>
        <time>2018-02-02T15:01:51Z</time>
      </trkpt>
      <trkpt lat="45.31272" lon="5.75412">
        <ele>1646.8</ele>
        <time>2018-02-02T15:01:56Z</time>
      </trkpt>
      <trkpt lat="45.31267" lon="5.75414">
        <ele>1649</ele>
        <time>2018-02-02T15:02:01Z</time>
      </trkpt>
      <trkpt lat="45.31261" lon="5.75417">
        <ele>1646.8</ele>
        <time>2018-02-02T15:02:06Z</time>
      </trkpt>
      <trkpt lat="45.31257" lon="5.75418">
        <ele>1649</ele>
        <time>2018-02-02T15:02:11Z</time>
      </trkpt>
      <trkpt lat="45.3125" lon="5.75424">
        <ele>1646.8</ele>
        <time>2018-02-02T15:02:16Z</time>
      </trkpt>
      <trkpt lat="45.31242" lon="5.75434">
        <ele>1647.6</ele>
        <time>2018-02-02T15:02:21Z</time>
      </trkpt>
      <trkpt lat="45.31237" lon="5.7544">
        <ele>1647</ele>
        <time>2018-02-02T15:02:26Z</time>
      </trkpt>
      <trkpt lat="45.31233" lon="5.75446">
        <ele>1647.4</ele>
        <time>2018-02-02T15:02:31Z</time>
      </trkpt>
      <trkpt lat="45.31231" lon="5.75448">
        <ele>1646.8</ele>
        <time>2018-02-02T15:02:36Z</time>
      </trkpt>
      <trkpt lat="45.31229" lon="5.75451">
        <ele>1645</ele>
        <time>2018-02-02T15:02:41Z</time>
      </trkpt>
      <trkpt lat="45.31227" lon="5.75454">
        <ele>1647.6</ele>
        <time>2018-02-02T15:02:46Z</time>
      </trkpt>
      <trkpt lat="45.31221" lon="5.75459">
        <ele>1646.6</ele>
        <time>2018-02-02T15:02:51Z</time>
      </trkpt>
      <trkpt lat="45.31218" lon="5.75463">
        <ele>1644.2</ele>
        <time>2018-02-02T15:02:56Z</time>
      </trkpt>
      <trkpt lat="45.31216" lon="5.75466">
        <ele>1642.6</ele>
        <time>2018-02-02T15:03:01Z</time>
      </trkpt>
      <trkpt lat="45.31214" lon="5.75469">
        <ele>1646.6</ele>
        <time>2018-02-02T15:03:06Z</time>
      </trkpt>
      <trkpt lat="45.31212" lon="5.75471">
        <ele>1645.6</ele>
        <time>2018-02-02T15:03:11Z</time>
      </trkpt>
      <trkpt lat="45.31209" lon="5.75473">
        <ele>1644</ele>
        <time>2018-02-02T15:03:16Z</time>
      </trkpt>
      <trkpt lat="45.31205" lon="5.75474">
        <ele>1646</ele>
        <time>2018-02-02T15:03:21Z</time>
      </trkpt>
      <trkpt lat="45.31202" lon="5.75476">
        <ele>1645.8</ele>
        <time>2018-02-02T15:03:26Z</time>
      </trkpt>
      <trkpt lat="45.31199" lon="5.75477">
        <ele>1647</ele>
        <time>2018-02-02T15:03:31Z</time>
      </trkpt>
      <trkpt lat="45.31196" lon="5.75477">
        <ele>1644.6</ele>
        <time>2018-02-02T15:03:36Z</time>
      </trkpt>
      <trkpt lat="45.31191" lon="5.75478">
        <ele>1645.8</ele>
        <time>2018-02-02T15:03:41Z</time>
      </trkpt>
      <trkpt lat="45.31188" lon="5.75478">
        <ele>1648</ele>
        <time>2018-02-02T15:03:46Z</time>
      </trkpt>
      <trkpt lat="45.31184" lon="5.75478">
        <ele>1646.4</ele>
        <time>2018-02-02T15:03:51Z</time>
      </trkpt>
      <trkpt lat="45.3118" lon="5.75478">
        <ele>1647.8</ele>
        <time>2018-02-02T15:03:56Z</time>
      </trkpt>
      <trkpt lat="45.31175" lon="5.75478">
        <ele>1649</ele>
        <time>2018-02-02T15:04:01Z</time>
      </trkpt>
      <trkpt lat="45.3117" lon="5.75477">
        <ele>1646.8</ele>
        <time>2018-02-02T15:04:06Z</time>
      </trkpt>
      <trkpt lat="45.31167" lon="5.75477">
        <ele>1651.4</ele>
        <time>2018-02-02T15:04:11Z</time>
      </trkpt>
      <trkpt lat="45.31162" lon="5.75477">
        <ele>1650.8</ele>
        <time>2018-02-02T15:04:16Z</time>
      </trkpt>
      <trkpt lat="45.31158" lon="5.75477">
        <ele>1649.8</ele>
        <time>2018-02-02T15:04:21Z</time>
      </trkpt>
      <trkpt lat="45.31154" lon="5.75477">
        <ele>1652.6</ele>
        <time>2018-02-02T15:04:26Z</time>
      </trkpt>
      <trkpt lat="45.3115" lon="5.75477">
        <ele>1652</ele>
        <time>2018-02-02T15:04:31Z</time>
      </trkpt>
      <trkpt lat="45.31145" lon="5.75476">
        <ele>1651.6</ele>
        <time>2018-02-02T15:04:36Z</time>
      </trkpt>
      <trkpt lat="45.31141" lon="5.75475">
        <ele>1652.4</ele>
        <time>2018-02-02T15:04:41Z</time>
      </trkpt>
      <trkpt lat="45.31136" lon="5.75473">
        <ele>1652</ele>
        <time>2018-02-02T15:04:46Z</time>
      </trkpt>
      <trkpt lat="45.31129" lon="5.75469">
        <ele>1648.8</ele>
        <time>2018-02-02T15:04:51Z</time>
      </trkpt>
      <trkpt lat="45.31123" lon="5.75466">
        <ele>1650.8</ele>
        <time>2018-02-02T15:04:56Z</time>
      </trkpt>
      <trkpt lat="45.31119" lon="5.75464">
        <ele>1653.2</ele>
        <time>2018-02-02T15:05:01Z</time>
      </trkpt>
      <trkpt lat="45.31115" lon="5.75462">
        <ele>1656</ele>
        <time>2018-02-02T15:05:06Z</time>
      </trkpt>
      <trkpt lat="45.31111" lon="5.7546">
        <ele>1652</ele>
        <time>2018-02-02T15:05:11Z</time>
      </trkpt>
      <trkpt lat="45.31108" lon="5.75459">
        <ele>1651.4</ele>
        <time>2018-02-02T15:05:16Z</time>
      </trkpt>
      <trkpt lat="45.31107" lon="5.75458">
        <ele>1650.8</ele>
        <time>2018-02-02T15:05:21Z</time>
      </trkpt>
      <trkpt lat="45.31107" lon="5.75458">
        <ele>1650.8</ele>
        <time>2018-02-02T15:05:36Z</time>
      </trkpt>
      <trkpt lat="45.31105" lon="5.75458">
        <ele>1649.2</ele>
        <time>2018-02-02T15:05:41Z</time>
      </trkpt>
      <trkpt lat="45.31105" lon="5.75458">
        <ele>1648.4</ele>
        <time>2018-02-02T15:06:56Z</time>
      </trkpt>
      <trkpt lat="45.31105" lon="5.75458">
        <ele>1648</ele>
        <time>2018-02-02T15:07:16Z</time>
      </trkpt>
      <trkpt lat="45.31103" lon="5.75457">
        <ele>1648.6</ele>
        <time>2018-02-02T15:07:21Z</time>
      </trkpt>
      <trkpt lat="45.31097" lon="5.75457">
        <ele>1646.4</ele>
        <time>2018-02-02T15:07:26Z</time>
      </trkpt>
      <trkpt lat="45.31093" lon="5.75455">
        <ele>1647.2</ele>
        <time>2018-02-02T15:07:31Z</time>
      </trkpt>
      <trkpt lat="45.3109" lon="5.75451">
        <ele>1648.4</ele>
        <time>2018-02-02T15:07:36Z</time>
      </trkpt>
      <trkpt lat="45.31081" lon="5.75444">
        <ele>1650</ele>
        <time>2018-02-02T15:07:41Z</time>
      </trkpt>
      <trkpt lat="45.31068" lon="5.75432">
        <ele>1648.4</ele>
        <time>2018-02-02T15:07:46Z</time>
      </trkpt>
      <trkpt lat="45.31054" lon="5.75419">
        <ele>1646.4</ele>
        <time>2018-02-02T15:07:51Z</time>
      </trkpt>
      <trkpt lat="45.3104" lon="5.75412">
        <ele>1646.2</ele>
        <time>2018-02-02T15:07:56Z</time>
      </trkpt>
      <trkpt lat="45.31026" lon="5.7541">
        <ele>1644</ele>
        <time>2018-02-02T15:08:01Z</time>
      </trkpt>
      <trkpt lat="45.31008" lon="5.75409">
        <ele>1641.8</ele>
        <time>2018-02-02T15:08:06Z</time>
      </trkpt>
      <trkpt lat="45.30987" lon="5.7541">
        <ele>1636.8</ele>
        <time>2018-02-02T15:08:11Z</time>
      </trkpt>
      <trkpt lat="45.30959" lon="5.75407">
        <ele>1634.8</ele>
        <time>2018-02-02T15:08:16Z</time>
      </trkpt>
      <trkpt lat="45.30934" lon="5.75387">
        <ele>1631.4</ele>
        <time>2018-02-02T15:08:21Z</time>
      </trkpt>
      <trkpt lat="45.30914" lon="5.75364">
        <ele>1629.6</ele>
        <time>2018-02-02T15:08:26Z</time>
      </trkpt>
      <trkpt lat="45.30892" lon="5.75342">
        <ele>1627.6</ele>
        <time>2018-02-02T15:08:31Z</time>
      </trkpt>
      <trkpt lat="45.3087" lon="5.75334">
        <ele>1628.4</ele>
        <time>2018-02-02T15:08:36Z</time>
      </trkpt>
      <trkpt lat="45.30848" lon="5.75326">
        <ele>1624.8</ele>
        <time>2018-02-02T15:08:41Z</time>
      </trkpt>
      <trkpt lat="45.30831" lon="5.7531">
        <ele>1622</ele>
        <time>2018-02-02T15:08:46Z</time>
      </trkpt>
      <trkpt lat="45.30814" lon="5.75292">
        <ele>1623.6</ele>
        <time>2018-02-02T15:08:51Z</time>
      </trkpt>
      <trkpt lat="45.30794" lon="5.75273">
        <ele>1618.2</ele>
        <time>2018-02-02T15:08:56Z</time>
      </trkpt>
      <trkpt lat="45.30772" lon="5.75245">
        <ele>1613.4</ele>
        <time>2018-02-02T15:09:01Z</time>
      </trkpt>
      <trkpt lat="45.30753" lon="5.75215">
        <ele>1616.4</ele>
        <time>2018-02-02T15:09:06Z</time>
      </trkpt>
      <trkpt lat="45.30741" lon="5.75219">
        <ele>1614</ele>
        <time>2018-02-02T15:09:11Z</time>
      </trkpt>
      <trkpt lat="45.3074" lon="5.75237">
        <ele>1609.4</ele>
        <time>2018-02-02T15:09:16Z</time>
      </trkpt>
      <trkpt lat="45.30746" lon="5.75253">
        <ele>1609</ele>
        <time>2018-02-02T15:09:21Z</time>
      </trkpt>
      <trkpt lat="45.30747" lon="5.75256">
        <ele>1605.8</ele>
        <time>2018-02-02T15:09:26Z</time>
      </trkpt>
      <trkpt lat="45.30751" lon="5.75262">
        <ele>1605.6</ele>
        <time>2018-02-02T15:09:31Z</time>
      </trkpt>
      <trkpt lat="45.30758" lon="5.75273">
        <ele>1603.6</ele>
        <time>2018-02-02T15:09:36Z</time>
      </trkpt>
      <trkpt lat="45.30768" lon="5.7529">
        <ele>1601.8</ele>
        <time>2018-02-02T15:09:41Z</time>
      </trkpt>
      <trkpt lat="45.30785" lon="5.75315">
        <ele>1598.6</ele>
        <time>2018-02-02T15:09:46Z</time>
      </trkpt>
      <trkpt lat="45.308" lon="5.75341">
        <ele>1591.4</ele>
        <time>2018-02-02T15:09:51Z</time>
      </trkpt>
      <trkpt lat="45.30814" lon="5.75371">
        <ele>1589.2</ele>
        <time>2018-02-02T15:09:56Z</time>
      </trkpt>
      <trkpt lat="45.30831" lon="5.75405">
        <ele>1588.4</ele>
        <time>2018-02-02T15:10:01Z</time>
      </trkpt>
      <trkpt lat="45.30843" lon="5.75426">
        <ele>1584</ele>
        <time>2018-02-02T15:10:06Z</time>
      </trkpt>
      <trkpt lat="45.30852" lon="5.75452">
        <ele>1580.2</ele>
        <time>2018-02-02T15:10:11Z</time>
      </trkpt>
      <trkpt lat="45.3086" lon="5.75488">
        <ele>1577</ele>
        <time>2018-02-02T15:10:16Z</time>
      </trkpt>
      <trkpt lat="45.30865" lon="5.75509">
        <ele>1578</ele>
        <time>2018-02-02T15:10:21Z</time>
      </trkpt>
      <trkpt lat="45.30875" lon="5.75525">
        <ele>1574.8</ele>
        <time>2018-02-02T15:10:26Z</time>
      </trkpt>
      <trkpt lat="45.30872" lon="5.75534">
        <ele>1574.2</ele>
        <time>2018-02-02T15:10:31Z</time>
      </trkpt>
      <trkpt lat="45.30853" lon="5.75526">
        <ele>1566.6</ele>
        <time>2018-02-02T15:10:36Z</time>
      </trkpt>
      <trkpt lat="45.30836" lon="5.75513">
        <ele>1560.4</ele>
        <time>2018-02-02T15:10:41Z</time>
      </trkpt>
      <trkpt lat="45.30823" lon="5.75501">
        <ele>1557.4</ele>
        <time>2018-02-02T15:10:46Z</time>
      </trkpt>
      <trkpt lat="45.30806" lon="5.75491">
        <ele>1554.8</ele>
        <time>2018-02-02T15:10:51Z</time>
      </trkpt>
      <trkpt lat="45.30779" lon="5.75484">
        <ele>1554.4</ele>
        <time>2018-02-02T15:10:56Z</time>
      </trkpt>
      <trkpt lat="45.30754" lon="5.7546">
        <ele>1549.2</ele>
        <time>2018-02-02T15:11:01Z</time>
      </trkpt>
      <trkpt lat="45.30726" lon="5.75438">
        <ele>1544.6</ele>
        <time>2018-02-02T15:11:06Z</time>
      </trkpt>
      <trkpt lat="45.30705" lon="5.7542">
        <ele>1539.8</ele>
        <time>2018-02-02T15:11:11Z</time>
      </trkpt>
      <trkpt lat="45.3069" lon="5.75407">
        <ele>1540.8</ele>
        <time>2018-02-02T15:11:16Z</time>
      </trkpt>
      <trkpt lat="45.30677" lon="5.75388">
        <ele>1535.8</ele>
        <time>2018-02-02T15:11:21Z</time>
      </trkpt>
      <trkpt lat="45.3066" lon="5.75367">
        <ele>1534.8</ele>
        <time>2018-02-02T15:11:26Z</time>
      </trkpt>
      <trkpt lat="45.30635" lon="5.75356">
        <ele>1531.8</ele>
        <time>2018-02-02T15:11:31Z</time>
      </trkpt>
      <trkpt lat="45.30608" lon="5.75342">
        <ele>1531.4</ele>
        <time>2018-02-02T15:11:36Z</time>
      </trkpt>
      <trkpt lat="45.3058" lon="5.75322">
        <ele>1526</ele>
        <time>2018-02-02T15:11:41Z</time>
      </trkpt>
      <trkpt lat="45.30553" lon="5.75306">
        <ele>1523.8</ele>
        <time>2018-02-02T15:11:46Z</time>
      </trkpt>
      <trkpt lat="45.30528" lon="5.75286">
        <ele>1523.2</ele>
        <time>2018-02-02T15:11:52Z</time>
      </trkpt>
      <trkpt lat="45.30514" lon="5.75282">
        <ele>1521</ele>
        <time>2018-02-02T15:11:57Z</time>
      </trkpt>
      <trkpt lat="45.305" lon="5.75283">
        <ele>1520.6</ele>
        <time>2018-02-02T15:12:02Z</time>
      </trkpt>
      <trkpt lat="45.30489" lon="5.75286">
        <ele>1520</ele>
        <time>2018-02-02T15:12:07Z</time>
      </trkpt>
      <trkpt lat="45.3048" lon="5.75288">
        <ele>1517.4</ele>
        <time>2018-02-02T15:12:12Z</time>
      </trkpt>
      <trkpt lat="45.30472" lon="5.75288">
        <ele>1520</ele>
        <time>2018-02-02T15:12:17Z</time>
      </trkpt>
      <trkpt lat="45.30463" lon="5.75288">
        <ele>1519.8</ele>
        <time>2018-02-02T15:12:22Z</time>
      </trkpt>
      <trkpt lat="45.30458" lon="5.75287">
        <ele>1515.8</ele>
        <time>2018-02-02T15:12:27Z</time>
      </trkpt>
      <trkpt lat="45.30455" lon="5.75286">
        <ele>1513.8</ele>
        <time>2018-02-02T15:12:32Z</time>
      </trkpt>
      <trkpt lat="45.30453" lon="5.75287">
        <ele>1512.6</ele>
        <time>2018-02-02T15:12:37Z</time>
      </trkpt>
      <trkpt lat="45.30445" lon="5.75295">
        <ele>1510.8</ele>
        <time>2018-02-02T15:12:42Z</time>
      </trkpt>
      <trkpt lat="45.30454" lon="5.75314">
        <ele>1507.4</ele>
        <time>2018-02-02T15:12:47Z</time>
      </trkpt>
      <trkpt lat="45.30463" lon="5.75339">
        <ele>1497.4</ele>
        <time>2018-02-02T15:12:52Z</time>
      </trkpt>
      <trkpt lat="45.30476" lon="5.75361">
        <ele>1493.8</ele>
        <time>2018-02-02T15:12:57Z</time>
      </trkpt>
      <trkpt lat="45.30477" lon="5.75388">
        <ele>1489.4</ele>
        <time>2018-02-02T15:13:02Z</time>
      </trkpt>
      <trkpt lat="45.30473" lon="5.75402">
        <ele>1489.2</ele>
        <time>2018-02-02T15:13:07Z</time>
      </trkpt>
      <trkpt lat="45.30477" lon="5.75421">
        <ele>1482.8</ele>
        <time>2018-02-02T15:13:12Z</time>
      </trkpt>
      <trkpt lat="45.30468" lon="5.75443">
        <ele>1475.2</ele>
        <time>2018-02-02T15:13:17Z</time>
      </trkpt>
      <trkpt lat="45.30464" lon="5.75463">
        <ele>1466.8</ele>
        <time>2018-02-02T15:13:22Z</time>
      </trkpt>
      <trkpt lat="45.30463" lon="5.75487">
        <ele>1460.8</ele>
        <time>2018-02-02T15:13:27Z</time>
      </trkpt>
      <trkpt lat="45.30474" lon="5.75518">
        <ele>1451</ele>
        <time>2018-02-02T15:13:32Z</time>
      </trkpt>
      <trkpt lat="45.30472" lon="5.75545">
        <ele>1453.6</ele>
        <time>2018-02-02T15:13:37Z</time>
      </trkpt>
      <trkpt lat="45.30487" lon="5.75571">
        <ele>1445.4</ele>
        <time>2018-02-02T15:13:47Z</time>
      </trkpt>
      <trkpt lat="45.30487" lon="5.75571">
        <ele>1448</ele>
        <time>2018-02-02T15:13:52Z</time>
      </trkpt>
      <trkpt lat="45.30486" lon="5.75572">
        <ele>1449.6</ele>
        <time>2018-02-02T15:13:57Z</time>
      </trkpt>
      <trkpt lat="45.30486" lon="5.75572">
        <ele>1451</ele>
        <time>2018-02-02T15:14:07Z</time>
      </trkpt>
      <trkpt lat="45.30496" lon="5.75583">
        <ele>1448.2</ele>
        <time>2018-02-02T15:14:12Z</time>
      </trkpt>
      <trkpt lat="45.30507" lon="5.75604">
        <ele>1442</ele>
        <time>2018-02-02T15:14:17Z</time>
      </trkpt>
      <trkpt lat="45.30511" lon="5.75611">
        <ele>1442.4</ele>
        <time>2018-02-02T15:14:22Z</time>
      </trkpt>
      <trkpt lat="45.30511" lon="5.75611">
        <ele>1444.4</ele>
        <time>2018-02-02T15:14:32Z</time>
      </trkpt>
      <trkpt lat="45.30516" lon="5.75618">
        <ele>1440.2</ele>
        <time>2018-02-02T15:14:37Z</time>
      </trkpt>
      <trkpt lat="45.30532" lon="5.75636">
        <ele>1436</ele>
        <time>2018-02-02T15:14:42Z</time>
      </trkpt>
      <trkpt lat="45.30542" lon="5.75659">
        <ele>1425.6</ele>
        <time>2018-02-02T15:14:47Z</time>
      </trkpt>
      <trkpt lat="45.30547" lon="5.75691">
        <ele>1413.2</ele>
        <time>2018-02-02T15:14:52Z</time>
      </trkpt>
      <trkpt lat="45.30546" lon="5.75719">
        <ele>1405</ele>
        <time>2018-02-02T15:14:57Z</time>
      </trkpt>
      <trkpt lat="45.30551" lon="5.75748">
        <ele>1399.8</ele>
        <time>2018-02-02T15:15:02Z</time>
      </trkpt>
      <trkpt lat="45.30554" lon="5.75749">
        <ele>1399.2</ele>
        <time>2018-02-02T15:15:07Z</time>
      </trkpt>
      <trkpt lat="45.30561" lon="5.75754">
        <ele>1402.8</ele>
        <time>2018-02-02T15:15:22Z</time>
      </trkpt>
      <trkpt lat="45.30566" lon="5.75771">
        <ele>1397.8</ele>
        <time>2018-02-02T15:15:27Z</time>
      </trkpt>
      <trkpt lat="45.30572" lon="5.75799">
        <ele>1386</ele>
        <time>2018-02-02T15:15:32Z</time>
      </trkpt>
      <trkpt lat="45.30576" lon="5.75821">
        <ele>1378</ele>
        <time>2018-02-02T15:15:37Z</time>
      </trkpt>
      <trkpt lat="45.30581" lon="5.75842">
        <ele>1373.2</ele>
        <time>2018-02-02T15:15:42Z</time>
      </trkpt>
      <trkpt lat="45.30587" lon="5.75866">
        <ele>1369.6</ele>
        <time>2018-02-02T15:15:47Z</time>
      </trkpt>
      <trkpt lat="45.30596" lon="5.7587">
        <ele>1370</ele>
        <time>2018-02-02T15:15:57Z</time>
      </trkpt>
      <trkpt lat="45.30596" lon="5.75869">
        <ele>1368</ele>
        <time>2018-02-02T15:16:17Z</time>
      </trkpt>
      <trkpt lat="45.30596" lon="5.75875">
        <ele>1366</ele>
        <time>2018-02-02T15:16:22Z</time>
      </trkpt>
      <trkpt lat="45.30605" lon="5.75895">
        <ele>1357.4</ele>
        <time>2018-02-02T15:16:27Z</time>
      </trkpt>
      <trkpt lat="45.30606" lon="5.75916">
        <ele>1352.4</ele>
        <time>2018-02-02T15:16:32Z</time>
      </trkpt>
      <trkpt lat="45.30613" lon="5.75937">
        <ele>1345.8</ele>
        <time>2018-02-02T15:16:37Z</time>
      </trkpt>
      <trkpt lat="45.30621" lon="5.75943">
        <ele>1341.6</ele>
        <time>2018-02-02T15:16:42Z</time>
      </trkpt>
      <trkpt lat="45.30637" lon="5.75954">
        <ele>1338.8</ele>
        <time>2018-02-02T15:16:47Z</time>
      </trkpt>
      <trkpt lat="45.30632" lon="5.75983">
        <ele>1332.8</ele>
        <time>2018-02-02T15:16:52Z</time>
      </trkpt>
      <trkpt lat="45.3063" lon="5.76003">
        <ele>1325.2</ele>
        <time>2018-02-02T15:16:57Z</time>
      </trkpt>
      <trkpt lat="45.3063" lon="5.76024">
        <ele>1323</ele>
        <time>2018-02-02T15:17:02Z</time>
      </trkpt>
      <trkpt lat="45.30635" lon="5.76049">
        <ele>1314.2</ele>
        <time>2018-02-02T15:17:07Z</time>
      </trkpt>
      <trkpt lat="45.30649" lon="5.7607">
        <ele>1308</ele>
        <time>2018-02-02T15:17:12Z</time>
      </trkpt>
      <trkpt lat="45.30652" lon="5.76074">
        <ele>1301.6</ele>
        <time>2018-02-02T15:17:17Z</time>
      </trkpt>
      <trkpt lat="45.3065" lon="5.76073">
        <ele>1301.8</ele>
        <time>2018-02-02T15:17:22Z</time>
      </trkpt>
      <trkpt lat="45.30649" lon="5.76073">
        <ele>1300.6</ele>
        <time>2018-02-02T15:17:28Z</time>
      </trkpt>
      <trkpt lat="45.30649" lon="5.76072">
        <ele>1297.2</ele>
        <time>2018-02-02T15:17:48Z</time>
      </trkpt>
      <trkpt lat="45.30649" lon="5.76071">
        <ele>1297</ele>
        <time>2018-02-02T15:17:53Z</time>
      </trkpt>
      <trkpt lat="45.30648" lon="5.7607">
        <ele>1296.4</ele>
        <time>2018-02-02T15:17:58Z</time>
      </trkpt>
      <trkpt lat="45.30648" lon="5.7607">
        <ele>1293.4</ele>
        <time>2018-02-02T15:18:13Z</time>
      </trkpt>
      <trkpt lat="45.30656" lon="5.76082">
        <ele>1290.8</ele>
        <time>2018-02-02T15:18:23Z</time>
      </trkpt>
      <trkpt lat="45.3067" lon="5.76096">
        <ele>1284.8</ele>
        <time>2018-02-02T15:18:28Z</time>
      </trkpt>
      <trkpt lat="45.30686" lon="5.76117">
        <ele>1281.8</ele>
        <time>2018-02-02T15:18:33Z</time>
      </trkpt>
      <trkpt lat="45.30704" lon="5.76139">
        <ele>1278</ele>
        <time>2018-02-02T15:18:38Z</time>
      </trkpt>
      <trkpt lat="45.30716" lon="5.76162">
        <ele>1269.4</ele>
        <time>2018-02-02T15:18:43Z</time>
      </trkpt>
      <trkpt lat="45.30731" lon="5.76185">
        <ele>1267.4</ele>
        <time>2018-02-02T15:18:48Z</time>
      </trkpt>
      <trkpt lat="45.30748" lon="5.76212">
        <ele>1264.4</ele>
        <time>2018-02-02T15:18:53Z</time>
      </trkpt>
      <trkpt lat="45.30768" lon="5.76239">
        <ele>1260</ele>
        <time>2018-02-02T15:18:58Z</time>
      </trkpt>
      <trkpt lat="45.30784" lon="5.76266">
        <ele>1256.4</ele>
        <time>2018-02-02T15:19:03Z</time>
      </trkpt>
      <trkpt lat="45.30796" lon="5.76293">
        <ele>1250.6</ele>
        <time>2018-02-02T15:19:08Z</time>
      </trkpt>
      <trkpt lat="45.30808" lon="5.76325">
        <ele>1247.6</ele>
        <time>2018-02-02T15:19:13Z</time>
      </trkpt>
      <trkpt lat="45.30818" lon="5.76359">
        <ele>1244.4</ele>
        <time>2018-02-02T15:19:18Z</time>
      </trkpt>
      <trkpt lat="45.30828" lon="5.76392">
        <ele>1233</ele>
        <time>2018-02-02T15:19:23Z</time>
      </trkpt>
      <trkpt lat="45.30838" lon="5.76421">
        <ele>1233.2</ele>
        <time>2018-02-02T15:19:28Z</time>
      </trkpt>
      <trkpt lat="45.30847" lon="5.76458">
        <ele>1229.2</ele>
        <time>2018-02-02T15:19:33Z</time>
      </trkpt>
      <trkpt lat="45.3084" lon="5.76491">
        <ele>1225.8</ele>
        <time>2018-02-02T15:19:38Z</time>
      </trkpt>
      <trkpt lat="45.30823" lon="5.76517">
        <ele>1224.4</ele>
        <time>2018-02-02T15:19:43Z</time>
      </trkpt>
      <trkpt lat="45.30806" lon="5.76536">
        <ele>1225.6</ele>
        <time>2018-02-02T15:19:48Z</time>
      </trkpt>
      <trkpt lat="45.30802" lon="5.76553">
        <ele>1224</ele>
        <time>2018-02-02T15:19:53Z</time>
      </trkpt>
      <trkpt lat="45.30801" lon="5.76559">
        <ele>1225.6</ele>
        <time>2018-02-02T15:20:03Z</time>
      </trkpt>
      <trkpt lat="45.30799" lon="5.76585">
        <ele>1222.8</ele>
        <time>2018-02-02T15:20:08Z</time>
      </trkpt>
      <trkpt lat="45.3079" lon="5.76612">
        <ele>1213.4</ele>
        <time>2018-02-02T15:20:13Z</time>
      </trkpt>
      <trkpt lat="45.30788" lon="5.76636">
        <ele>1206.6</ele>
        <time>2018-02-02T15:20:18Z</time>
      </trkpt>
      <trkpt lat="45.30792" lon="5.76662">
        <ele>1203.2</ele>
        <time>2018-02-02T15:20:23Z</time>
      </trkpt>
      <trkpt lat="45.30799" lon="5.76687">
        <ele>1199.2</ele>
        <time>2018-02-02T15:20:28Z</time>
      </trkpt>
      <trkpt lat="45.30796" lon="5.76718">
        <ele>1195.4</ele>
        <time>2018-02-02T15:20:33Z</time>
      </trkpt>
      <trkpt lat="45.30809" lon="5.76731">
        <ele>1189.6</ele>
        <time>2018-02-02T15:20:38Z</time>
      </trkpt>
      <trkpt lat="45.30828" lon="5.76748">
        <ele>1183.2</ele>
        <time>2018-02-02T15:20:43Z</time>
      </trkpt>
      <trkpt lat="45.30848" lon="5.76761">
        <ele>1180.8</ele>
        <time>2018-02-02T15:20:48Z</time>
      </trkpt>
      <trkpt lat="45.30859" lon="5.76771">
        <ele>1176.2</ele>
        <time>2018-02-02T15:20:53Z</time>
      </trkpt>
      <trkpt lat="45.30873" lon="5.76779">
        <ele>1170.8</ele>
        <time>2018-02-02T15:20:58Z</time>
      </trkpt>
      <trkpt lat="45.30873" lon="5.76779">
        <ele>1172.2</ele>
        <time>2018-02-02T15:21:03Z</time>
      </trkpt>
      <trkpt lat="45.30881" lon="5.76784">
        <ele>1170.8</ele>
        <time>2018-02-02T15:21:08Z</time>
      </trkpt>
      <trkpt lat="45.30896" lon="5.76798">
        <ele>1168</ele>
        <time>2018-02-02T15:21:13Z</time>
      </trkpt>
      <trkpt lat="45.30909" lon="5.76821">
        <ele>1158.6</ele>
        <time>2018-02-02T15:21:18Z</time>
      </trkpt>
      <trkpt lat="45.30918" lon="5.76846">
        <ele>1155</ele>
        <time>2018-02-02T15:21:23Z</time>
      </trkpt>
      <trkpt lat="45.30922" lon="5.76856">
        <ele>1156</ele>
        <time>2018-02-02T15:21:33Z</time>
      </trkpt>
      <trkpt lat="45.30925" lon="5.76865">
        <ele>1150.2</ele>
        <time>2018-02-02T15:21:43Z</time>
      </trkpt>
      <trkpt lat="45.30933" lon="5.76875">
        <ele>1144.8</ele>
        <time>2018-02-02T15:21:48Z</time>
      </trkpt>
      <trkpt lat="45.30938" lon="5.7689">
        <ele>1139.4</ele>
        <time>2018-02-02T15:21:53Z</time>
      </trkpt>
      <trkpt lat="45.30941" lon="5.76909">
        <ele>1137</ele>
        <time>2018-02-02T15:21:58Z</time>
      </trkpt>
      <trkpt lat="45.30945" lon="5.7693">
        <ele>1137.6</ele>
        <time>2018-02-02T15:22:03Z</time>
      </trkpt>
      <trkpt lat="45.30952" lon="5.76937">
        <ele>1133.4</ele>
        <time>2018-02-02T15:22:08Z</time>
      </trkpt>
      <trkpt lat="45.30953" lon="5.76935">
        <ele>1138.8</ele>
        <time>2018-02-02T15:22:13Z</time>
      </trkpt>
      <trkpt lat="45.30953" lon="5.76936">
        <ele>1139.8</ele>
        <time>2018-02-02T15:22:23Z</time>
      </trkpt>
      <trkpt lat="45.30952" lon="5.76936">
        <ele>1140.2</ele>
        <time>2018-02-02T15:22:28Z</time>
      </trkpt>
      <trkpt lat="45.30955" lon="5.76939">
        <ele>1136</ele>
        <time>2018-02-02T15:22:48Z</time>
      </trkpt>
      <trkpt lat="45.30959" lon="5.76937">
        <ele>1135.2</ele>
        <time>2018-02-02T15:22:53Z</time>
      </trkpt>
      <trkpt lat="45.30965" lon="5.76935">
        <ele>1132.8</ele>
        <time>2018-02-02T15:22:58Z</time>
      </trkpt>
      <trkpt lat="45.30973" lon="5.76934">
        <ele>1135.4</ele>
        <time>2018-02-02T15:23:03Z</time>
      </trkpt>
      <trkpt lat="45.30978" lon="5.76936">
        <ele>1132.8</ele>
        <time>2018-02-02T15:23:08Z</time>
      </trkpt>
      <trkpt lat="45.30983" lon="5.76941">
        <ele>1131.8</ele>
        <time>2018-02-02T15:23:13Z</time>
      </trkpt>
      <trkpt lat="45.30988" lon="5.76945">
        <ele>1127.4</ele>
        <time>2018-02-02T15:23:18Z</time>
      </trkpt>
      <trkpt lat="45.30994" lon="5.76954">
        <ele>1126</ele>
        <time>2018-02-02T15:23:23Z</time>
      </trkpt>
      <trkpt lat="45.30999" lon="5.76965">
        <ele>1122</ele>
        <time>2018-02-02T15:23:28Z</time>
      </trkpt>
      <trkpt lat="45.31004" lon="5.76979">
        <ele>1121.2</ele>
        <time>2018-02-02T15:23:33Z</time>
      </trkpt>
      <trkpt lat="45.3101" lon="5.76992">
        <ele>1116.6</ele>
        <time>2018-02-02T15:23:38Z</time>
      </trkpt>
      <trkpt lat="45.31017" lon="5.77003">
        <ele>1114.4</ele>
        <time>2018-02-02T15:23:43Z</time>
      </trkpt>
      <trkpt lat="45.31023" lon="5.77011">
        <ele>1112.4</ele>
        <time>2018-02-02T15:23:48Z</time>
      </trkpt>
      <trkpt lat="45.31029" lon="5.77018">
        <ele>1113</ele>
        <time>2018-02-02T15:23:53Z</time>
      </trkpt>
      <trkpt lat="45.31036" lon="5.77024">
        <ele>1110.6</ele>
        <time>2018-02-02T15:23:58Z</time>
      </trkpt>
      <trkpt lat="45.31042" lon="5.77029">
        <ele>1108.6</ele>
        <time>2018-02-02T15:24:03Z</time>
      </trkpt>
      <trkpt lat="45.31049" lon="5.77035">
        <ele>1110.2</ele>
        <time>2018-02-02T15:24:08Z</time>
      </trkpt>
      <trkpt lat="45.31058" lon="5.77042">
        <ele>1111</ele>
        <time>2018-02-02T15:24:13Z</time>
      </trkpt>
      <trkpt lat="45.31067" lon="5.77049">
        <ele>1109.2</ele>
        <time>2018-02-02T15:24:18Z</time>
      </trkpt>
      <trkpt lat="45.31074" lon="5.77055">
        <ele>1109.2</ele>
        <time>2018-02-02T15:24:23Z</time>
      </trkpt>
      <trkpt lat="45.31083" lon="5.77064">
        <ele>1111</ele>
        <time>2018-02-02T15:24:28Z</time>
      </trkpt>
      <trkpt lat="45.31091" lon="5.77071">
        <ele>1110</ele>
        <time>2018-02-02T15:24:33Z</time>
      </trkpt>
      <trkpt lat="45.31099" lon="5.77078">
        <ele>1106.6</ele>
        <time>2018-02-02T15:24:38Z</time>
      </trkpt>
      <trkpt lat="45.31106" lon="5.77084">
        <ele>1107.4</ele>
        <time>2018-02-02T15:24:43Z</time>
      </trkpt>
      <trkpt lat="45.31112" lon="5.77091">
        <ele>1105.8</ele>
        <time>2018-02-02T15:24:48Z</time>
      </trkpt>
      <trkpt lat="45.3112" lon="5.77098">
        <ele>1103.6</ele>
        <time>2018-02-02T15:24:53Z</time>
      </trkpt>
      <trkpt lat="45.31129" lon="5.77105">
        <ele>1103.8</ele>
        <time>2018-02-02T15:24:58Z</time>
      </trkpt>
      <trkpt lat="45.31137" lon="5.77114">
        <ele>1099.2</ele>
        <time>2018-02-02T15:25:03Z</time>
      </trkpt>
      <trkpt lat="45.31144" lon="5.7712">
        <ele>1099.8</ele>
        <time>2018-02-02T15:25:08Z</time>
      </trkpt>
      <trkpt lat="45.31151" lon="5.77132">
        <ele>1097.2</ele>
        <time>2018-02-02T15:25:13Z</time>
      </trkpt>
      <trkpt lat="45.31156" lon="5.77148">
        <ele>1099.2</ele>
        <time>2018-02-02T15:25:18Z</time>
      </trkpt>
      <trkpt lat="45.31163" lon="5.77166">
        <ele>1098</ele>
        <time>2018-02-02T15:25:23Z</time>
      </trkpt>
      <trkpt lat="45.31169" lon="5.77184">
        <ele>1094.6</ele>
        <time>2018-02-02T15:25:28Z</time>
      </trkpt>
      <trkpt lat="45.31173" lon="5.77202">
        <ele>1092.6</ele>
        <time>2018-02-02T15:25:33Z</time>
      </trkpt>
      <trkpt lat="45.3118" lon="5.77212">
        <ele>1091.8</ele>
        <time>2018-02-02T15:25:38Z</time>
      </trkpt>
      <trkpt lat="45.31184" lon="5.77216">
        <ele>1094.2</ele>
        <time>2018-02-02T15:25:43Z</time>
      </trkpt>
      <trkpt lat="45.31187" lon="5.77217">
        <ele>1092.6</ele>
        <time>2018-02-02T15:25:48Z</time>
      </trkpt>
      <trkpt lat="45.31188" lon="5.77217">
        <ele>1093.6</ele>
        <time>2018-02-02T15:26:18Z</time>
      </trkpt>
      <trkpt lat="45.31188" lon="5.77216">
        <ele>1092.4</ele>
        <time>2018-02-02T15:26:33Z</time>
      </trkpt>
      <trkpt lat="45.31191" lon="5.77218">
        <ele>1090.4</ele>
        <time>2018-02-02T15:26:38Z</time>
      </trkpt>
      <trkpt lat="45.31192" lon="5.77223">
        <ele>1091.8</ele>
        <time>2018-02-02T15:26:43Z</time>
      </trkpt>
      <trkpt lat="45.31195" lon="5.77227">
        <ele>1092.2</ele>
        <time>2018-02-02T15:26:48Z</time>
      </trkpt>
      <trkpt lat="45.31196" lon="5.7723">
        <ele>1096.8</ele>
        <time>2018-02-02T15:26:53Z</time>
      </trkpt>
      <trkpt lat="45.31199" lon="5.77234">
        <ele>1093.6</ele>
        <time>2018-02-02T15:26:58Z</time>
      </trkpt>
      <trkpt lat="45.31201" lon="5.77238">
        <ele>1092</ele>
        <time>2018-02-02T15:27:03Z</time>
      </trkpt>
      <trkpt lat="45.31204" lon="5.77243">
        <ele>1095.6</ele>
        <time>2018-02-02T15:27:08Z</time>
      </trkpt>
      <trkpt lat="45.31207" lon="5.77247">
        <ele>1093.4</ele>
        <time>2018-02-02T15:27:13Z</time>
      </trkpt>
      <trkpt lat="45.3121" lon="5.77252">
        <ele>1094.2</ele>
        <time>2018-02-02T15:27:18Z</time>
      </trkpt>
      <trkpt lat="45.31215" lon="5.77256">
        <ele>1093.4</ele>
        <time>2018-02-02T15:27:23Z</time>
      </trkpt>
      <trkpt lat="45.31219" lon="5.77263">
        <ele>1092.8</ele>
        <time>2018-02-02T15:27:28Z</time>
      </trkpt>
      <trkpt lat="45.31225" lon="5.77269">
        <ele>1093.2</ele>
        <time>2018-02-02T15:27:33Z</time>
      </trkpt>
      <trkpt lat="45.31229" lon="5.77274">
        <ele>1094.8</ele>
        <time>2018-02-02T15:27:38Z</time>
      </trkpt>
      <trkpt lat="45.31235" lon="5.7728">
        <ele>1091.6</ele>
        <time>2018-02-02T15:27:43Z</time>
      </trkpt>
      <trkpt lat="45.31239" lon="5.77285">
        <ele>1087.6</ele>
        <time>2018-02-02T15:27:48Z</time>
      </trkpt>
      <trkpt lat="45.31243" lon="5.77292">
        <ele>1089.8</ele>
        <time>2018-02-02T15:27:53Z</time>
      </trkpt>
      <trkpt lat="45.31247" lon="5.77298">
        <ele>1086.6</ele>
        <time>2018-02-02T15:27:58Z</time>
      </trkpt>
      <trkpt lat="45.31251" lon="5.77304">
        <ele>1088.6</ele>
        <time>2018-02-02T15:28:03Z</time>
      </trkpt>
      <trkpt lat="45.31256" lon="5.7731">
        <ele>1088.6</ele>
        <time>2018-02-02T15:28:08Z</time>
      </trkpt>
      <trkpt lat="45.3126" lon="5.77316">
        <ele>1087.8</ele>
        <time>2018-02-02T15:28:13Z</time>
      </trkpt>
      <trkpt lat="45.31264" lon="5.77323">
        <ele>1086.6</ele>
        <time>2018-02-02T15:28:18Z</time>
      </trkpt>
      <trkpt lat="45.31267" lon="5.77329">
        <ele>1088.8</ele>
        <time>2018-02-02T15:28:23Z</time>
      </trkpt>
      <trkpt lat="45.31271" lon="5.77336">
        <ele>1083.8</ele>
        <time>2018-02-02T15:28:28Z</time>
      </trkpt>
      <trkpt lat="45.31274" lon="5.77343">
        <ele>1084.6</ele>
        <time>2018-02-02T15:28:33Z</time>
      </trkpt>
      <trkpt lat="45.31278" lon="5.77349">
        <ele>1085</ele>
        <time>2018-02-02T15:28:38Z</time>
      </trkpt>
      <trkpt lat="45.31281" lon="5.77355">
        <ele>1087</ele>
        <time>2018-02-02T15:28:43Z</time>
      </trkpt>
      <trkpt lat="45.31284" lon="5.77361">
        <ele>1083.8</ele>
        <time>2018-02-02T15:28:48Z</time>
      </trkpt>
      <trkpt lat="45.31287" lon="5.77368">
        <ele>1083.6</ele>
        <time>2018-02-02T15:28:53Z</time>
      </trkpt>
      <trkpt lat="45.3129" lon="5.77373">
        <ele>1083.8</ele>
        <time>2018-02-02T15:28:58Z</time>
      </trkpt>
      <trkpt lat="45.31294" lon="5.77379">
        <ele>1086</ele>
        <time>2018-02-02T15:29:03Z</time>
      </trkpt>
      <trkpt lat="45.31297" lon="5.77386">
        <ele>1083.8</ele>
        <time>2018-02-02T15:29:08Z</time>
      </trkpt>
      <trkpt lat="45.313" lon="5.77392">
        <ele>1084</ele>
        <time>2018-02-02T15:29:13Z</time>
      </trkpt>
      <trkpt lat="45.31303" lon="5.77398">
        <ele>1083.8</ele>
        <time>2018-02-02T15:29:18Z</time>
      </trkpt>
      <trkpt lat="45.31305" lon="5.77404">
        <ele>1086.4</ele>
        <time>2018-02-02T15:29:23Z</time>
      </trkpt>
      <trkpt lat="45.31308" lon="5.77409">
        <ele>1086.2</ele>
        <time>2018-02-02T15:29:28Z</time>
      </trkpt>
      <trkpt lat="45.31308" lon="5.7741">
        <ele>1087</ele>
        <time>2018-02-02T15:29:48Z</time>
      </trkpt>
      <trkpt lat="45.31308" lon="5.7741">
        <ele>1089.2</ele>
        <time>2018-02-02T15:30:19Z</time>
      </trkpt>
      <trkpt lat="45.31309" lon="5.7741">
        <ele>1089</ele>
        <time>2018-02-02T15:30:24Z</time>
      </trkpt>
      <trkpt lat="45.31312" lon="5.77415">
        <ele>1089.8</ele>
        <time>2018-02-02T15:31:09Z</time>
      </trkpt>
      <trkpt lat="45.31313" lon="5.77417">
        <ele>1089.4</ele>
        <time>2018-02-02T15:31:24Z</time>
      </trkpt>
      <trkpt lat="45.31313" lon="5.77417">
        <ele>1088.8</ele>
        <time>2018-02-02T15:31:39Z</time>
      </trkpt>
    </trkseg>
  </trk>
</gpx>